<?xml version='1.0' encoding='UTF-8'?><gpx version="1.1" creator="JPX - https://github.com/jenetics/jpx" xmlns="http://www.topografix.com/GPX/1/1"><trk><trkseg><trkpt lat="45.71858210167177" lon="9.770990319767233"><ele>341.3333333333333</ele><time>2026-03-29T13:56:10Z</time></trkpt><trkpt lat="45.71848878172965" lon="9.770953450540427"><ele>339.66666666666663</ele><time>2026-03-29T13:56:12Z</time></trkpt><trkpt lat="45.7183825879927" lon="9.770947060558093"><ele>338.0</ele><time>2026-03-29T13:56:14Z</time></trkpt><trkpt lat="45.71832937322494" lon="9.770878394785152"><ele>336.3333333333333</ele><time>2026-03-29T13:56:15Z</time></trkpt><trkpt lat="45.718269109634285" lon="9.770837658965744"><ele>334.6666666666667</ele><time>2026-03-29T13:56:16Z</time></trkpt><trkpt lat="45.718211314434726" lon="9.770786643433306"><ele>333.0</ele><time>2026-03-29T13:56:17Z</time></trkpt><trkpt lat="45.718151067961834" lon="9.770744263558608"><ele>333.0</ele><time>2026-03-29T13:56:18Z</time></trkpt><trkpt lat="45.7180558398735" lon="9.770668402020188"><ele>333.0</ele><time>2026-03-29T13:56:20Z</time></trkpt><trkpt lat="45.71795085189363" lon="9.770607768025185"><ele>333.0</ele><time>2026-03-29T13:56:22Z</time></trkpt><trkpt lat="45.71788183566607" lon="9.770613864642993"><ele>333.0</ele><time>2026-03-29T13:56:24Z</time></trkpt><trkpt lat="45.717801479685775" lon="9.77071436334451"><ele>333.0</ele><time>2026-03-29T13:56:26Z</time></trkpt><trkpt lat="45.717726105899196" lon="9.77082625158153"><ele>332.2</ele><time>2026-03-29T13:56:28Z</time></trkpt><trkpt lat="45.71764651053767" lon="9.770942476519254"><ele>331.4</ele><time>2026-03-29T13:56:30Z</time></trkpt><trkpt lat="45.717592802563374" lon="9.77108943361373"><ele>330.59999999999997</ele><time>2026-03-29T13:56:32Z</time></trkpt><trkpt lat="45.71754944117299" lon="9.771236861107662"><ele>329.79999999999995</ele><time>2026-03-29T13:56:34Z</time></trkpt><trkpt lat="45.717499193182014" lon="9.771373258777697"><ele>329.0</ele><time>2026-03-29T13:56:36Z</time></trkpt><trkpt lat="45.71745740888343" lon="9.771484337790742"><ele>329.0</ele><time>2026-03-29T13:56:38Z</time></trkpt><trkpt lat="45.71738612496278" lon="9.771510785015591"><ele>329.0</ele><time>2026-03-29T13:56:40Z</time></trkpt><trkpt lat="45.71727747072345" lon="9.771492830286155"><ele>329.0</ele><time>2026-03-29T13:56:42Z</time></trkpt><trkpt lat="45.71721517711222" lon="9.771468515760724"><ele>329.0</ele><time>2026-03-29T13:56:43Z</time></trkpt><trkpt lat="45.717086331634434" lon="9.771431886685232"><ele>329.0</ele><time>2026-03-29T13:56:45Z</time></trkpt><trkpt lat="45.7170141461855" lon="9.77140671130172"><ele>329.0</ele><time>2026-03-29T13:56:46Z</time></trkpt><trkpt lat="45.71694038719965" lon="9.771387914104105"><ele>329.0</ele><time>2026-03-29T13:56:47Z</time></trkpt><trkpt lat="45.716871918604774" lon="9.7713871272236"><ele>329.0</ele><time>2026-03-29T13:56:48Z</time></trkpt><trkpt lat="45.716762544884524" lon="9.771455319513578"><ele>329.0</ele><time>2026-03-29T13:56:50Z</time></trkpt><trkpt lat="45.7166552465691" lon="9.771544759007623"><ele>329.0</ele><time>2026-03-29T13:56:52Z</time></trkpt><trkpt lat="45.71660544798928" lon="9.77160653099706"><ele>328.2</ele><time>2026-03-29T13:56:53Z</time></trkpt><trkpt lat="45.716514738909474" lon="9.771732178527811"><ele>327.4</ele><time>2026-03-29T13:56:55Z</time></trkpt><trkpt lat="45.71646651560414" lon="9.771796046926294"><ele>326.6</ele><time>2026-03-29T13:56:56Z</time></trkpt><trkpt lat="45.71636423596374" lon="9.771892933329314"><ele>325.8</ele><time>2026-03-29T13:56:58Z</time></trkpt><trkpt lat="45.71630300909012" lon="9.771930991319024"><ele>325.0</ele><time>2026-03-29T13:56:59Z</time></trkpt><trkpt lat="45.716198089503145" lon="9.77203078315851"><ele>325.0</ele><time>2026-03-29T13:57:01Z</time></trkpt><trkpt lat="45.7161511134985" lon="9.77209573418328"><ele>325.0</ele><time>2026-03-29T13:57:02Z</time></trkpt><trkpt lat="45.716099619150526" lon="9.7721537603023"><ele>325.0</ele><time>2026-03-29T13:57:03Z</time></trkpt><trkpt lat="45.716004836745086" lon="9.772265275658246"><ele>325.0</ele><time>2026-03-29T13:57:05Z</time></trkpt><trkpt lat="45.715920346803486" lon="9.772383000213381"><ele>325.0</ele><time>2026-03-29T13:57:07Z</time></trkpt><trkpt lat="45.715840877120065" lon="9.772500862566632"><ele>326.0</ele><time>2026-03-29T13:57:09Z</time></trkpt><trkpt lat="45.715757223271545" lon="9.772610352541758"><ele>327.0</ele><time>2026-03-29T13:57:11Z</time></trkpt><trkpt lat="45.71567493636894" lon="9.772719009165087"><ele>328.0</ele><time>2026-03-29T13:57:13Z</time></trkpt><trkpt lat="45.71559046320754" lon="9.772816479437218"><ele>329.0</ele><time>2026-03-29T13:57:15Z</time></trkpt><trkpt lat="45.71551205561918" lon="9.77291997436714"><ele>330.0</ele><time>2026-03-29T13:57:17Z</time></trkpt><trkpt lat="45.715445228157556" lon="9.773027969595596"><ele>330.0</ele><time>2026-03-29T13:57:19Z</time></trkpt><trkpt lat="45.71536851397235" lon="9.773075285116215"><ele>330.0</ele><time>2026-03-29T13:57:21Z</time></trkpt><trkpt lat="45.71533405315374" lon="9.772984633426471"><ele>330.0</ele><time>2026-03-29T13:57:23Z</time></trkpt><trkpt lat="45.715363535903855" lon="9.772875944747007"><ele>330.0</ele><time>2026-03-29T13:57:25Z</time></trkpt><trkpt lat="45.71540369320445" lon="9.772767413936036"><ele>330.0</ele><time>2026-03-29T13:57:27Z</time></trkpt><trkpt lat="45.71543989112142" lon="9.772629421143318"><ele>330.0</ele><time>2026-03-29T13:57:29Z</time></trkpt><trkpt lat="45.715473758942366" lon="9.772492899229855"><ele>330.2</ele><time>2026-03-29T13:57:31Z</time></trkpt><trkpt lat="45.715508966210216" lon="9.772361167489034"><ele>330.4</ele><time>2026-03-29T13:57:33Z</time></trkpt><trkpt lat="45.715543646039094" lon="9.77221766898173"><ele>330.6</ele><time>2026-03-29T13:57:35Z</time></trkpt><trkpt lat="45.71558117043779" lon="9.772064642510534"><ele>330.8</ele><time>2026-03-29T13:57:37Z</time></trkpt><trkpt lat="45.71562981774178" lon="9.771913336949705"><ele>331.0</ele><time>2026-03-29T13:57:39Z</time></trkpt><trkpt lat="45.71566521755552" lon="9.771758443238847"><ele>331.0</ele><time>2026-03-29T13:57:41Z</time></trkpt><trkpt lat="45.71569555885869" lon="9.771599841601775"><ele>331.0</ele><time>2026-03-29T13:57:43Z</time></trkpt><trkpt lat="45.71573364810319" lon="9.77145045974231"><ele>331.0</ele><time>2026-03-29T13:57:45Z</time></trkpt><trkpt lat="45.71576371930017" lon="9.771297461425116"><ele>331.0</ele><time>2026-03-29T13:57:47Z</time></trkpt><trkpt lat="45.71578737279492" lon="9.77118193846871"><ele>331.0</ele><time>2026-03-29T13:57:49Z</time></trkpt><trkpt lat="45.715806815523756" lon="9.771080183989405"><ele>332.0</ele><time>2026-03-29T13:57:53Z</time></trkpt><trkpt lat="45.715825975555546" lon="9.770963679974834"><ele>333.0</ele><time>2026-03-29T13:57:55Z</time></trkpt><trkpt lat="45.71586745979855" lon="9.770814601411844"><ele>334.0</ele><time>2026-03-29T13:57:57Z</time></trkpt><trkpt lat="45.715888452717756" lon="9.770728241061017"><ele>335.0</ele><time>2026-03-29T13:57:58Z</time></trkpt><trkpt lat="45.71591724185247" lon="9.770561436083277"><ele>336.0</ele><time>2026-03-29T13:58:00Z</time></trkpt><trkpt lat="45.71594950075349" lon="9.770402373369695"><ele>336.0</ele><time>2026-03-29T13:58:02Z</time></trkpt><trkpt lat="45.715988901163875" lon="9.770245557275901"><ele>336.0</ele><time>2026-03-29T13:58:04Z</time></trkpt><trkpt lat="45.71602432451169" lon="9.770100668323735"><ele>336.0</ele><time>2026-03-29T13:58:06Z</time></trkpt><trkpt lat="45.716061034099994" lon="9.769946814764413"><ele>336.0</ele><time>2026-03-29T13:58:08Z</time></trkpt><trkpt lat="45.716100001786224" lon="9.769794074807507"><ele>335.6</ele><time>2026-03-29T13:58:10Z</time></trkpt><trkpt lat="45.71612944282403" lon="9.769641086651284"><ele>335.20000000000005</ele><time>2026-03-29T13:58:12Z</time></trkpt><trkpt lat="45.71617223485888" lon="9.76950495728541"><ele>334.79999999999995</ele><time>2026-03-29T13:58:14Z</time></trkpt><trkpt lat="45.71622105963554" lon="9.769378032981622"><ele>334.4</ele><time>2026-03-29T13:58:16Z</time></trkpt><trkpt lat="45.71625446444963" lon="9.769235977906584"><ele>334.0</ele><time>2026-03-29T13:58:18Z</time></trkpt><trkpt lat="45.71629156930373" lon="9.76910237550634"><ele>336.2</ele><time>2026-03-29T13:58:20Z</time></trkpt><trkpt lat="45.71632964951452" lon="9.768959619278805"><ele>338.4</ele><time>2026-03-29T13:58:22Z</time></trkpt><trkpt lat="45.71635851315703" lon="9.768826217795658"><ele>340.6</ele><time>2026-03-29T13:58:24Z</time></trkpt><trkpt lat="45.71637801305554" lon="9.768690837315624"><ele>342.8</ele><time>2026-03-29T13:58:26Z</time></trkpt><trkpt lat="45.716392805377154" lon="9.768557137836135"><ele>345.0</ele><time>2026-03-29T13:58:28Z</time></trkpt><trkpt lat="45.7164244368695" lon="9.768419256414873"><ele>346.4</ele><time>2026-03-29T13:58:30Z</time></trkpt><trkpt lat="45.71646600691196" lon="9.768277667091366"><ele>347.8</ele><time>2026-03-29T13:58:32Z</time></trkpt><trkpt lat="45.716519942975424" lon="9.768131630346717"><ele>349.20000000000005</ele><time>2026-03-29T13:58:34Z</time></trkpt><trkpt lat="45.716571573454964" lon="9.768014070761037"><ele>350.6</ele><time>2026-03-29T13:58:36Z</time></trkpt><trkpt lat="45.71661840397165" lon="9.76791071368053"><ele>352.0</ele><time>2026-03-29T13:58:38Z</time></trkpt><trkpt lat="45.71667932393262" lon="9.767789759680518"><ele>352.20000000000005</ele><time>2026-03-29T13:58:40Z</time></trkpt><trkpt lat="45.716726065904716" lon="9.767669329974506"><ele>352.4</ele><time>2026-03-29T13:58:42Z</time></trkpt><trkpt lat="45.71677249451734" lon="9.767547383403976"><ele>352.6</ele><time>2026-03-29T13:58:44Z</time></trkpt><trkpt lat="45.71682397485231" lon="9.767427280555609"><ele>352.79999999999995</ele><time>2026-03-29T13:58:46Z</time></trkpt><trkpt lat="45.716858806567856" lon="9.767301024739645"><ele>353.0</ele><time>2026-03-29T13:58:48Z</time></trkpt><trkpt lat="45.71688601531743" lon="9.76717109356589"><ele>352.1666666666667</ele><time>2026-03-29T13:58:50Z</time></trkpt><trkpt lat="45.71692186761228" lon="9.767048065507169"><ele>351.33333333333337</ele><time>2026-03-29T13:58:52Z</time></trkpt><trkpt lat="45.71695512369087" lon="9.766927909635683"><ele>350.5</ele><time>2026-03-29T13:58:54Z</time></trkpt><trkpt lat="45.716981429584806" lon="9.766819523463646"><ele>349.6666666666667</ele><time>2026-03-29T13:58:56Z</time></trkpt><trkpt lat="45.71702027734285" lon="9.766711620007523"><ele>348.8333333333333</ele><time>2026-03-29T13:58:58Z</time></trkpt><trkpt lat="45.717043757532196" lon="9.766612886581179"><ele>348.0</ele><time>2026-03-29T13:59:00Z</time></trkpt><trkpt lat="45.717073844127384" lon="9.766505228354426"><ele>349.85714285714283</ele><time>2026-03-29T13:59:02Z</time></trkpt><trkpt lat="45.71709214183149" lon="9.766416453160979"><ele>351.7142857142857</ele><time>2026-03-29T13:59:04Z</time></trkpt><trkpt lat="45.71712370864574" lon="9.76632991799425"><ele>353.57142857142856</ele><time>2026-03-29T13:59:06Z</time></trkpt><trkpt lat="45.717157521972624" lon="9.766213427303917"><ele>355.42857142857144</ele><time>2026-03-29T13:59:09Z</time></trkpt><trkpt lat="45.717179295735455" lon="9.766127756039081"><ele>357.2857142857143</ele><time>2026-03-29T13:59:11Z</time></trkpt><trkpt lat="45.71719843718171" lon="9.765993727699025"><ele>359.14285714285717</ele><time>2026-03-29T13:59:14Z</time></trkpt><trkpt lat="45.71721735143304" lon="9.765901413816845"><ele>361.0</ele><time>2026-03-29T13:59:16Z</time></trkpt><trkpt lat="45.71726170129129" lon="9.765784793512413"><ele>362.5714285714286</ele><time>2026-03-29T13:59:19Z</time></trkpt><trkpt lat="45.717290051133325" lon="9.765699252633006"><ele>364.1428571428571</ele><time>2026-03-29T13:59:21Z</time></trkpt><trkpt lat="45.717313152001275" lon="9.765612397467516"><ele>365.7142857142857</ele><time>2026-03-29T13:59:23Z</time></trkpt><trkpt lat="45.71734750470899" lon="9.765517939468506"><ele>367.28571428571433</ele><time>2026-03-29T13:59:25Z</time></trkpt><trkpt lat="45.71738036291012" lon="9.765430799984696"><ele>368.8571428571429</ele><time>2026-03-29T13:59:27Z</time></trkpt><trkpt lat="45.71742435541589" lon="9.76534859590428"><ele>370.42857142857144</ele><time>2026-03-29T13:59:29Z</time></trkpt><trkpt lat="45.7174552700317" lon="9.765254400956168"><ele>372.0</ele><time>2026-03-29T13:59:31Z</time></trkpt><trkpt lat="45.717485975553714" lon="9.765157516609944"><ele>372.0</ele><time>2026-03-29T13:59:33Z</time></trkpt><trkpt lat="45.71752210727265" lon="9.765067862332202"><ele>372.0</ele><time>2026-03-29T13:59:35Z</time></trkpt><trkpt lat="45.71756434885773" lon="9.764985911427281"><ele>372.0</ele><time>2026-03-29T13:59:37Z</time></trkpt><trkpt lat="45.7176031364601" lon="9.764899459251275"><ele>372.0</ele><time>2026-03-29T13:59:39Z</time></trkpt><trkpt lat="45.71764564913836" lon="9.764812792920846"><ele>372.0</ele><time>2026-03-29T13:59:41Z</time></trkpt><trkpt lat="45.71769207426276" lon="9.764718301815131"><ele>372.0</ele><time>2026-03-29T13:59:43Z</time></trkpt><trkpt lat="45.71774459443742" lon="9.764609742437061"><ele>372.0</ele><time>2026-03-29T13:59:45Z</time></trkpt><trkpt lat="45.717799457932735" lon="9.764489992773948"><ele>372.0</ele><time>2026-03-29T13:59:47Z</time></trkpt><trkpt lat="45.717858808869025" lon="9.764370079535174"><ele>372.0</ele><time>2026-03-29T13:59:49Z</time></trkpt><trkpt lat="45.717927499873866" lon="9.764250833609557"><ele>372.0</ele><time>2026-03-29T13:59:51Z</time></trkpt><trkpt lat="45.717994902553116" lon="9.76415390471493"><ele>372.0</ele><time>2026-03-29T13:59:53Z</time></trkpt><trkpt lat="45.71805648133631" lon="9.764070146408162"><ele>374.40000000000003</ele><time>2026-03-29T13:59:55Z</time></trkpt><trkpt lat="45.71811690757537" lon="9.763987534640592"><ele>376.8</ele><time>2026-03-29T13:59:57Z</time></trkpt><trkpt lat="45.718181432295" lon="9.763886632377089"><ele>379.2</ele><time>2026-03-29T13:59:59Z</time></trkpt><trkpt lat="45.718253679649976" lon="9.763772635729405"><ele>381.6</ele><time>2026-03-29T14:00:01Z</time></trkpt><trkpt lat="45.71832614636073" lon="9.763657324245361"><ele>384.0</ele><time>2026-03-29T14:00:03Z</time></trkpt><trkpt lat="45.718397217966505" lon="9.763540736574523"><ele>384.2</ele><time>2026-03-29T14:00:05Z</time></trkpt><trkpt lat="45.7184668878291" lon="9.763427838042546"><ele>384.4</ele><time>2026-03-29T14:00:07Z</time></trkpt><trkpt lat="45.71853811956402" lon="9.763321384612798"><ele>384.6</ele><time>2026-03-29T14:00:09Z</time></trkpt><trkpt lat="45.718611352354294" lon="9.763217267274673"><ele>384.8</ele><time>2026-03-29T14:00:11Z</time></trkpt><trkpt lat="45.718676798193705" lon="9.76311158687005"><ele>385.0</ele><time>2026-03-29T14:00:13Z</time></trkpt><trkpt lat="45.71873531363319" lon="9.76300191931638"><ele>385.4</ele><time>2026-03-29T14:00:15Z</time></trkpt><trkpt lat="45.7187959451794" lon="9.76289278052233"><ele>385.8</ele><time>2026-03-29T14:00:17Z</time></trkpt><trkpt lat="45.71886302188178" lon="9.762783981225976"><ele>386.20000000000005</ele><time>2026-03-29T14:00:19Z</time></trkpt><trkpt lat="45.71892092904157" lon="9.762661456680268"><ele>386.6</ele><time>2026-03-29T14:00:21Z</time></trkpt><trkpt lat="45.71897753469617" lon="9.762528860889239"><ele>387.0</ele><time>2026-03-29T14:00:23Z</time></trkpt><trkpt lat="45.71904024151802" lon="9.76239696750697"><ele>388.20000000000005</ele><time>2026-03-29T14:00:25Z</time></trkpt><trkpt lat="45.7191121028015" lon="9.762295874018813"><ele>389.4</ele><time>2026-03-29T14:00:27Z</time></trkpt><trkpt lat="45.71918848480967" lon="9.762166092659136"><ele>390.6</ele><time>2026-03-29T14:00:29Z</time></trkpt><trkpt lat="45.71926387396013" lon="9.762049412500211"><ele>391.79999999999995</ele><time>2026-03-29T14:00:31Z</time></trkpt><trkpt lat="45.71932659226489" lon="9.761917632005334"><ele>393.0</ele><time>2026-03-29T14:00:33Z</time></trkpt><trkpt lat="45.719399191940866" lon="9.761796090672208"><ele>394.59999999999997</ele><time>2026-03-29T14:00:35Z</time></trkpt><trkpt lat="45.71947193462221" lon="9.761672640142544"><ele>396.2</ele><time>2026-03-29T14:00:37Z</time></trkpt><trkpt lat="45.71954576009088" lon="9.761562811079722"><ele>397.8</ele><time>2026-03-29T14:00:39Z</time></trkpt><trkpt lat="45.71962634429765" lon="9.761464463253226"><ele>399.4</ele><time>2026-03-29T14:00:41Z</time></trkpt><trkpt lat="45.719714347245436" lon="9.761389025295813"><ele>401.0</ele><time>2026-03-29T14:00:43Z</time></trkpt><trkpt lat="45.71981962437356" lon="9.761345583896981"><ele>401.0</ele><time>2026-03-29T14:00:45Z</time></trkpt><trkpt lat="45.71991317538126" lon="9.76129969565765"><ele>401.0</ele><time>2026-03-29T14:00:47Z</time></trkpt><trkpt lat="45.7200111985216" lon="9.761275353892106"><ele>401.0</ele><time>2026-03-29T14:00:49Z</time></trkpt><trkpt lat="45.72009894226006" lon="9.761223605073917"><ele>401.0</ele><time>2026-03-29T14:00:51Z</time></trkpt><trkpt lat="45.720182657369165" lon="9.761139266023495"><ele>401.0</ele><time>2026-03-29T14:00:53Z</time></trkpt><trkpt lat="45.72027613632119" lon="9.761074216834405"><ele>402.4</ele><time>2026-03-29T14:00:55Z</time></trkpt><trkpt lat="45.72034969201618" lon="9.760970423322723"><ele>403.8</ele><time>2026-03-29T14:00:57Z</time></trkpt><trkpt lat="45.72041641691926" lon="9.760844389720084"><ele>405.2</ele><time>2026-03-29T14:00:59Z</time></trkpt><trkpt lat="45.72047599980887" lon="9.760718929246455"><ele>406.59999999999997</ele><time>2026-03-29T14:01:01Z</time></trkpt><trkpt lat="45.72054010438084" lon="9.760590887749409"><ele>408.0</ele><time>2026-03-29T14:01:03Z</time></trkpt><trkpt lat="45.72058081368603" lon="9.760464860227714"><ele>408.0</ele><time>2026-03-29T14:01:05Z</time></trkpt><trkpt lat="45.72064949920913" lon="9.760324512248069"><ele>408.0</ele><time>2026-03-29T14:01:07Z</time></trkpt><trkpt lat="45.72069437988428" lon="9.760187729861562"><ele>408.0</ele><time>2026-03-29T14:01:09Z</time></trkpt><trkpt lat="45.72075234597038" lon="9.760052019843474"><ele>408.0</ele><time>2026-03-29T14:01:11Z</time></trkpt><trkpt lat="45.72081205806012" lon="9.759921516669971"><ele>408.0</ele><time>2026-03-29T14:01:13Z</time></trkpt><trkpt lat="45.72087840837597" lon="9.759874362967166"><ele>408.79999999999995</ele><time>2026-03-29T14:01:14Z</time></trkpt><trkpt lat="45.72092994046944" lon="9.759817402941465"><ele>409.6</ele><time>2026-03-29T14:01:15Z</time></trkpt><trkpt lat="45.720993290670016" lon="9.759714853800203"><ele>410.4</ele><time>2026-03-29T14:01:17Z</time></trkpt><trkpt lat="45.721098013946914" lon="9.759666643511812"><ele>411.20000000000005</ele><time>2026-03-29T14:01:19Z</time></trkpt><trkpt lat="45.72119250479375" lon="9.759633416325107"><ele>412.0</ele><time>2026-03-29T14:01:21Z</time></trkpt><trkpt lat="45.72129158383622" lon="9.759587636629844"><ele>412.0</ele><time>2026-03-29T14:01:23Z</time></trkpt><trkpt lat="45.72138455639737" lon="9.759532049250113"><ele>412.0</ele><time>2026-03-29T14:01:25Z</time></trkpt><trkpt lat="45.72147136353231" lon="9.759459332829982"><ele>412.0</ele><time>2026-03-29T14:01:27Z</time></trkpt><trkpt lat="45.72156330805946" lon="9.759383483117244"><ele>412.0</ele><time>2026-03-29T14:01:29Z</time></trkpt><trkpt lat="45.721646120723925" lon="9.759327227171733"><ele>412.0</ele><time>2026-03-29T14:01:31Z</time></trkpt><trkpt lat="45.72170926482263" lon="9.759278654278127"><ele>412.6</ele><time>2026-03-29T14:01:33Z</time></trkpt><trkpt lat="45.72177961344002" lon="9.759212782944223"><ele>413.20000000000005</ele><time>2026-03-29T14:01:35Z</time></trkpt><trkpt lat="45.72185442441354" lon="9.759104820245794"><ele>413.8</ele><time>2026-03-29T14:01:37Z</time></trkpt><trkpt lat="45.72191883751882" lon="9.759016801601469"><ele>414.4</ele><time>2026-03-29T14:01:39Z</time></trkpt><trkpt lat="45.72197018394217" lon="9.758913029041326"><ele>415.0</ele><time>2026-03-29T14:01:41Z</time></trkpt><trkpt lat="45.722019404842676" lon="9.758801380161652"><ele>415.0</ele><time>2026-03-29T14:01:43Z</time></trkpt><trkpt lat="45.72207772149833" lon="9.758687556857241"><ele>415.0</ele><time>2026-03-29T14:01:45Z</time></trkpt><trkpt lat="45.72213816981668" lon="9.758558268516628"><ele>415.0</ele><time>2026-03-29T14:01:47Z</time></trkpt><trkpt lat="45.72219169037913" lon="9.758405958235738"><ele>415.0</ele><time>2026-03-29T14:01:49Z</time></trkpt><trkpt lat="45.72224729633468" lon="9.758273365511759"><ele>415.0</ele><time>2026-03-29T14:01:51Z</time></trkpt><trkpt lat="45.72229638791669" lon="9.758159192018601"><ele>418.6</ele><time>2026-03-29T14:01:53Z</time></trkpt><trkpt lat="45.72235038835102" lon="9.75806629456174"><ele>422.2</ele><time>2026-03-29T14:01:55Z</time></trkpt><trkpt lat="45.72239598301461" lon="9.757957814606854"><ele>425.79999999999995</ele><time>2026-03-29T14:01:57Z</time></trkpt><trkpt lat="45.722427637704" lon="9.75780252171011"><ele>429.4</ele><time>2026-03-29T14:01:59Z</time></trkpt><trkpt lat="45.72247973937419" lon="9.757725969103513"><ele>433.0</ele><time>2026-03-29T14:02:00Z</time></trkpt><trkpt lat="45.72254896385853" lon="9.757578146868386"><ele>432.00000000000006</ele><time>2026-03-29T14:02:02Z</time></trkpt><trkpt lat="45.72259443876309" lon="9.757506188960567"><ele>431.0</ele><time>2026-03-29T14:02:03Z</time></trkpt><trkpt lat="45.722671539343736" lon="9.757378717361986"><ele>430.0</ele><time>2026-03-29T14:02:05Z</time></trkpt><trkpt lat="45.72271301190947" lon="9.757307499315925"><ele>429.0</ele><time>2026-03-29T14:02:06Z</time></trkpt><trkpt lat="45.72275795782329" lon="9.75723869635798"><ele>428.00000000000006</ele><time>2026-03-29T14:02:07Z</time></trkpt><trkpt lat="45.72285041020551" lon="9.757123795231916"><ele>427.0</ele><time>2026-03-29T14:02:09Z</time></trkpt><trkpt lat="45.72295592489606" lon="9.757036674621927"><ele>427.00000000000006</ele><time>2026-03-29T14:02:11Z</time></trkpt><trkpt lat="45.72306431105272" lon="9.756979689497516"><ele>427.0</ele><time>2026-03-29T14:02:13Z</time></trkpt><trkpt lat="45.72317649756748" lon="9.75693807061787"><ele>427.0</ele><time>2026-03-29T14:02:15Z</time></trkpt><trkpt lat="45.72324797249926" lon="9.756944572266622"><ele>427.0</ele><time>2026-03-29T14:02:16Z</time></trkpt><trkpt lat="45.72331164535775" lon="9.756944581830114"><ele>427.00000000000006</ele><time>2026-03-29T14:02:17Z</time></trkpt><trkpt lat="45.72337804688227" lon="9.756928367646461"><ele>427.0</ele><time>2026-03-29T14:02:18Z</time></trkpt><trkpt lat="45.72349762834191" lon="9.756888989001471"><ele>426.20000000000005</ele><time>2026-03-29T14:02:20Z</time></trkpt><trkpt lat="45.72355507013675" lon="9.756843311608323"><ele>425.40000000000003</ele><time>2026-03-29T14:02:21Z</time></trkpt><trkpt lat="45.7236440316947" lon="9.75672432806872"><ele>424.6</ele><time>2026-03-29T14:02:23Z</time></trkpt><trkpt lat="45.72371754434752" lon="9.756585789830996"><ele>423.79999999999995</ele><time>2026-03-29T14:02:25Z</time></trkpt><trkpt lat="45.72374855463964" lon="9.756503012213248"><ele>423.0</ele><time>2026-03-29T14:02:26Z</time></trkpt><trkpt lat="45.72380895089236" lon="9.756351946018903"><ele>423.0</ele><time>2026-03-29T14:02:28Z</time></trkpt><trkpt lat="45.72382804166437" lon="9.756264429820725"><ele>423.0</ele><time>2026-03-29T14:02:29Z</time></trkpt><trkpt lat="45.72385407964896" lon="9.75618104532834"><ele>423.0</ele><time>2026-03-29T14:02:30Z</time></trkpt><trkpt lat="45.7238977920005" lon="9.756019435563626"><ele>423.0</ele><time>2026-03-29T14:02:32Z</time></trkpt><trkpt lat="45.72392309086031" lon="9.755936318059046"><ele>423.0</ele><time>2026-03-29T14:02:33Z</time></trkpt><trkpt lat="45.72397369889411" lon="9.755771598619173"><ele>423.0</ele><time>2026-03-29T14:02:35Z</time></trkpt><trkpt lat="45.72401103459442" lon="9.75561953968064"><ele>425.1666666666667</ele><time>2026-03-29T14:02:37Z</time></trkpt><trkpt lat="45.7240437827077" lon="9.755537129937395"><ele>427.33333333333337</ele><time>2026-03-29T14:02:38Z</time></trkpt><trkpt lat="45.72409738689112" lon="9.7553886257377"><ele>429.5</ele><time>2026-03-29T14:02:40Z</time></trkpt><trkpt lat="45.724141761885484" lon="9.755273817426554"><ele>431.6666666666667</ele><time>2026-03-29T14:02:42Z</time></trkpt><trkpt lat="45.72416022566353" lon="9.755166284568523"><ele>433.83333333333337</ele><time>2026-03-29T14:02:43Z</time></trkpt><trkpt lat="45.724197589227444" lon="9.755078255348506"><ele>436.0</ele><time>2026-03-29T14:02:44Z</time></trkpt><trkpt lat="45.72424535640081" lon="9.754918787175436"><ele>436.33333333333337</ele><time>2026-03-29T14:02:46Z</time></trkpt><trkpt lat="45.724290769953704" lon="9.754836078186297"><ele>436.6666666666667</ele><time>2026-03-29T14:02:47Z</time></trkpt><trkpt lat="45.72432459317886" lon="9.754753217651752"><ele>437.0</ele><time>2026-03-29T14:02:48Z</time></trkpt><trkpt lat="45.72435929810582" lon="9.754676744899939"><ele>437.33333333333337</ele><time>2026-03-29T14:02:49Z</time></trkpt><trkpt lat="45.72442019645496" lon="9.754547436192057"><ele>437.6666666666667</ele><time>2026-03-29T14:02:51Z</time></trkpt><trkpt lat="45.72446604319763" lon="9.754475450791784"><ele>438.0</ele><time>2026-03-29T14:02:52Z</time></trkpt><trkpt lat="45.72454826576526" lon="9.754341842860537"><ele>438.0</ele><time>2026-03-29T14:02:54Z</time></trkpt><trkpt lat="45.72458886259093" lon="9.754272452187095"><ele>437.99999999999994</ele><time>2026-03-29T14:02:55Z</time></trkpt><trkpt lat="45.72465888402727" lon="9.75414400228511"><ele>437.99999999999994</ele><time>2026-03-29T14:02:57Z</time></trkpt><trkpt lat="45.72469751331534" lon="9.754017670157081"><ele>438.0</ele><time>2026-03-29T14:02:59Z</time></trkpt><trkpt lat="45.724728808192005" lon="9.753923501074741"><ele>438.0</ele><time>2026-03-29T14:03:01Z</time></trkpt><trkpt lat="45.72482993566846" lon="9.753835443570273"><ele>438.0</ele><time>2026-03-29T14:03:02Z</time></trkpt><trkpt lat="45.72489394837431" lon="9.75378950235132"><ele>437.99999999999994</ele><time>2026-03-29T14:03:03Z</time></trkpt><trkpt lat="45.72495143784691" lon="9.753751767151144"><ele>437.99999999999994</ele><time>2026-03-29T14:03:04Z</time></trkpt><trkpt lat="45.72505437857775" lon="9.753718429304026"><ele>438.0</ele><time>2026-03-29T14:03:06Z</time></trkpt><trkpt lat="45.725146394122575" lon="9.75362216838586"><ele>438.0</ele><time>2026-03-29T14:03:08Z</time></trkpt><trkpt lat="45.72524888306698" lon="9.753527457692673"><ele>437.75</ele><time>2026-03-29T14:03:10Z</time></trkpt><trkpt lat="45.725335765473915" lon="9.753400691952601"><ele>437.5</ele><time>2026-03-29T14:03:12Z</time></trkpt><trkpt lat="45.72540874575896" lon="9.753278795345384"><ele>437.25</ele><time>2026-03-29T14:03:14Z</time></trkpt><trkpt lat="45.72547780589233" lon="9.753157897659879"><ele>437.0</ele><time>2026-03-29T14:03:16Z</time></trkpt><trkpt lat="45.72554787943878" lon="9.75303955903444"><ele>437.0</ele><time>2026-03-29T14:03:18Z</time></trkpt><trkpt lat="45.72565225263963" lon="9.752970441092161"><ele>437.00000000000006</ele><time>2026-03-29T14:03:20Z</time></trkpt><trkpt lat="45.72577007562845" lon="9.752942162165498"><ele>437.00000000000006</ele><time>2026-03-29T14:03:22Z</time></trkpt><trkpt lat="45.7258724566086" lon="9.752898603802462"><ele>437.0</ele><time>2026-03-29T14:03:24Z</time></trkpt><trkpt lat="45.72592860792742" lon="9.75284030809585"><ele>437.0</ele><time>2026-03-29T14:03:26Z</time></trkpt><trkpt lat="45.725987896020825" lon="9.752725416766362"><ele>438.6</ele><time>2026-03-29T14:03:28Z</time></trkpt><trkpt lat="45.726085263447224" lon="9.752661008776009"><ele>440.20000000000005</ele><time>2026-03-29T14:03:30Z</time></trkpt><trkpt lat="45.72620789634565" lon="9.752632213134378"><ele>441.8</ele><time>2026-03-29T14:03:32Z</time></trkpt><trkpt lat="45.72626981918191" lon="9.75260895637288"><ele>443.4</ele><time>2026-03-29T14:03:33Z</time></trkpt><trkpt lat="45.72638485427516" lon="9.752569610103155"><ele>445.0</ele><time>2026-03-29T14:03:35Z</time></trkpt><trkpt lat="45.72650281844571" lon="9.752538336433465"><ele>445.0</ele><time>2026-03-29T14:03:37Z</time></trkpt><trkpt lat="45.72661824541386" lon="9.752530939654049"><ele>445.0</ele><time>2026-03-29T14:03:39Z</time></trkpt><trkpt lat="45.72670919897824" lon="9.752528944774822"><ele>445.0</ele><time>2026-03-29T14:03:41Z</time></trkpt><trkpt lat="45.72678601757177" lon="9.752524374823786"><ele>445.0</ele><time>2026-03-29T14:03:42Z</time></trkpt><trkpt lat="45.72689279733213" lon="9.752496589479579"><ele>445.0</ele><time>2026-03-29T14:03:44Z</time></trkpt><trkpt lat="45.72699513506765" lon="9.75246711170428"><ele>444.4</ele><time>2026-03-29T14:03:46Z</time></trkpt><trkpt lat="45.727101845772864" lon="9.752387214212549"><ele>443.8</ele><time>2026-03-29T14:03:48Z</time></trkpt><trkpt lat="45.727208311534525" lon="9.752300837060295"><ele>443.20000000000005</ele><time>2026-03-29T14:03:50Z</time></trkpt><trkpt lat="45.72726199035015" lon="9.752249100189475"><ele>442.6</ele><time>2026-03-29T14:03:51Z</time></trkpt><trkpt lat="45.727313522658754" lon="9.752190984548955"><ele>442.0</ele><time>2026-03-29T14:03:52Z</time></trkpt><trkpt lat="45.727408866891466" lon="9.752093446781645"><ele>442.00000000000006</ele><time>2026-03-29T14:03:54Z</time></trkpt><trkpt lat="45.72748943311219" lon="9.752027090411389"><ele>442.0</ele><time>2026-03-29T14:03:56Z</time></trkpt><trkpt lat="45.727570998728304" lon="9.752000003505538"><ele>442.0</ele><time>2026-03-29T14:03:58Z</time></trkpt><trkpt lat="45.72765301207847" lon="9.751978464751081"><ele>442.0</ele><time>2026-03-29T14:04:00Z</time></trkpt><trkpt lat="45.72772679050821" lon="9.751978412557415"><ele>442.00000000000006</ele><time>2026-03-29T14:04:02Z</time></trkpt><trkpt lat="45.7278089372617" lon="9.75197922551829"><ele>442.0</ele><time>2026-03-29T14:04:04Z</time></trkpt><trkpt lat="45.72787976182766" lon="9.751967001692677"><ele>441.33333333333337</ele><time>2026-03-29T14:04:06Z</time></trkpt><trkpt lat="45.72796540328791" lon="9.751949661227652"><ele>440.6666666666667</ele><time>2026-03-29T14:04:08Z</time></trkpt><trkpt lat="45.728077326629105" lon="9.751916420460443"><ele>440.0</ele><time>2026-03-29T14:04:10Z</time></trkpt><trkpt lat="45.7281490663495" lon="9.751899666411292"><ele>439.33333333333337</ele><time>2026-03-29T14:04:11Z</time></trkpt><trkpt lat="45.728224016442" lon="9.751896453920239"><ele>438.6666666666667</ele><time>2026-03-29T14:04:12Z</time></trkpt><trkpt lat="45.72830391969932" lon="9.751911671954627"><ele>438.0</ele><time>2026-03-29T14:04:13Z</time></trkpt><trkpt lat="45.728376784112804" lon="9.751920283626095"><ele>438.0</ele><time>2026-03-29T14:04:14Z</time></trkpt><trkpt lat="45.72844702469881" lon="9.75193108089454"><ele>438.0</ele><time>2026-03-29T14:04:15Z</time></trkpt><trkpt lat="45.728516720841526" lon="9.751938061415524"><ele>438.0</ele><time>2026-03-29T14:04:16Z</time></trkpt><trkpt lat="45.72857955281196" lon="9.751965476898325"><ele>438.0</ele><time>2026-03-29T14:04:17Z</time></trkpt><trkpt lat="45.72865084634629" lon="9.75200313349934"><ele>438.0</ele><time>2026-03-29T14:04:18Z</time></trkpt><trkpt lat="45.72875365435307" lon="9.752061897570886"><ele>438.0</ele><time>2026-03-29T14:04:20Z</time></trkpt><trkpt lat="45.72884893432603" lon="9.752124340988573"><ele>437.6666666666667</ele><time>2026-03-29T14:04:22Z</time></trkpt><trkpt lat="45.72894360425989" lon="9.752163864124967"><ele>437.33333333333337</ele><time>2026-03-29T14:04:24Z</time></trkpt><trkpt lat="45.72906462168505" lon="9.752218737141227"><ele>437.0</ele><time>2026-03-29T14:04:26Z</time></trkpt><trkpt lat="45.729132554113285" lon="9.75222246533989"><ele>436.6666666666667</ele><time>2026-03-29T14:04:27Z</time></trkpt><trkpt lat="45.729203644216604" lon="9.752222360565318"><ele>436.33333333333337</ele><time>2026-03-29T14:04:28Z</time></trkpt><trkpt lat="45.72927045445086" lon="9.75223544776359"><ele>436.0</ele><time>2026-03-29T14:04:29Z</time></trkpt><trkpt lat="45.72933978391027" lon="9.752261106484216"><ele>435.50000000000006</ele><time>2026-03-29T14:04:30Z</time></trkpt><trkpt lat="45.72940132315372" lon="9.752304631577342"><ele>435.0</ele><time>2026-03-29T14:04:31Z</time></trkpt><trkpt lat="45.729458875757665" lon="9.752341564463666"><ele>434.5</ele><time>2026-03-29T14:04:32Z</time></trkpt><trkpt lat="45.72958232909448" lon="9.752379541872854"><ele>434.0</ele><time>2026-03-29T14:04:34Z</time></trkpt><trkpt lat="45.72969782659901" lon="9.752430761710398"><ele>433.50000000000006</ele><time>2026-03-29T14:04:36Z</time></trkpt><trkpt lat="45.72975905431128" lon="9.752465694739964"><ele>433.0</ele><time>2026-03-29T14:04:37Z</time></trkpt><trkpt lat="45.729882239115874" lon="9.752518852239847"><ele>433.00000000000006</ele><time>2026-03-29T14:04:39Z</time></trkpt><trkpt lat="45.72995649318813" lon="9.752564317282268"><ele>433.0</ele><time>2026-03-29T14:04:41Z</time></trkpt><trkpt lat="45.730066709065376" lon="9.752597979925463"><ele>433.0</ele><time>2026-03-29T14:04:43Z</time></trkpt><trkpt lat="45.730151697069424" lon="9.752627030971015"><ele>433.0</ele><time>2026-03-29T14:04:45Z</time></trkpt><trkpt lat="45.730222193393914" lon="9.752655645751437"><ele>433.00000000000006</ele><time>2026-03-29T14:04:47Z</time></trkpt><trkpt lat="45.73029911321606" lon="9.752692444000918"><ele>433.0</ele><time>2026-03-29T14:04:49Z</time></trkpt><trkpt lat="45.73039051373203" lon="9.75272788294188"><ele>432.83333333333337</ele><time>2026-03-29T14:04:51Z</time></trkpt><trkpt lat="45.730462715535374" lon="9.752720683509608"><ele>432.6666666666667</ele><time>2026-03-29T14:04:53Z</time></trkpt><trkpt lat="45.730536707042376" lon="9.752693268595243"><ele>432.5</ele><time>2026-03-29T14:04:56Z</time></trkpt><trkpt lat="45.730598579449655" lon="9.75267264142928"><ele>432.33333333333337</ele><time>2026-03-29T14:05:38Z</time></trkpt><trkpt lat="45.73064083086573" lon="9.752770909920406"><ele>432.1666666666667</ele><time>2026-03-29T14:05:50Z</time></trkpt><trkpt lat="45.73073791861392" lon="9.752810366463871"><ele>432.0</ele><time>2026-03-29T14:05:52Z</time></trkpt><trkpt lat="45.730823454121264" lon="9.752852853471508"><ele>430.8</ele><time>2026-03-29T14:05:54Z</time></trkpt><trkpt lat="45.73090975543879" lon="9.75283473670761"><ele>429.6</ele><time>2026-03-29T14:05:56Z</time></trkpt><trkpt lat="45.731025100481055" lon="9.752793685758501"><ele>428.40000000000003</ele><time>2026-03-29T14:05:58Z</time></trkpt><trkpt lat="45.73112708770365" lon="9.752825656519548"><ele>427.20000000000005</ele><time>2026-03-29T14:06:00Z</time></trkpt><trkpt lat="45.731202261891774" lon="9.752864533798363"><ele>426.0</ele><time>2026-03-29T14:06:02Z</time></trkpt><trkpt lat="45.73127718578791" lon="9.752919674795958"><ele>425.8</ele><time>2026-03-29T14:06:04Z</time></trkpt><trkpt lat="45.7313868568383" lon="9.752965144249998"><ele>425.6</ele><time>2026-03-29T14:06:06Z</time></trkpt><trkpt lat="45.73148121033583" lon="9.752983760025245"><ele>425.4</ele><time>2026-03-29T14:06:08Z</time></trkpt><trkpt lat="45.731571882627364" lon="9.753001964065609"><ele>425.2</ele><time>2026-03-29T14:06:10Z</time></trkpt><trkpt lat="45.731661997263004" lon="9.753029361131803"><ele>425.0</ele><time>2026-03-29T14:06:12Z</time></trkpt><trkpt lat="45.73174460239976" lon="9.753068711145655"><ele>425.0</ele><time>2026-03-29T14:06:14Z</time></trkpt><trkpt lat="45.73179881198377" lon="9.75312501496657"><ele>425.0</ele><time>2026-03-29T14:06:16Z</time></trkpt><trkpt lat="45.73184872558921" lon="9.753186746153219"><ele>425.0</ele><time>2026-03-29T14:06:18Z</time></trkpt><trkpt lat="45.731915830487004" lon="9.753276182446246"><ele>425.0</ele><time>2026-03-29T14:06:50Z</time></trkpt><trkpt lat="45.73196450097477" lon="9.753345155433154"><ele>425.0</ele><time>2026-03-29T14:06:55Z</time></trkpt><trkpt lat="45.7320307499141" lon="9.753409260612491"><ele>425.0</ele><time>2026-03-29T14:07:15Z</time></trkpt><trkpt lat="45.73209385463734" lon="9.753435901807764"><ele>425.0</ele><time>2026-03-29T14:07:17Z</time></trkpt><trkpt lat="45.7321872003241" lon="9.75348787197114"><ele>422.3333333333333</ele><time>2026-03-29T14:07:19Z</time></trkpt><trkpt lat="45.73229622453943" lon="9.75355745897269"><ele>419.66666666666663</ele><time>2026-03-29T14:07:21Z</time></trkpt><trkpt lat="45.73236912294405" lon="9.75363418516166"><ele>417.0</ele><time>2026-03-29T14:07:23Z</time></trkpt><trkpt lat="45.73241814942243" lon="9.75372036234644"><ele>414.33333333333337</ele><time>2026-03-29T14:07:26Z</time></trkpt><trkpt lat="45.73248547296107" lon="9.753737593261073"><ele>411.6666666666667</ele><time>2026-03-29T14:07:28Z</time></trkpt><trkpt lat="45.73256635998146" lon="9.753723543185076"><ele>409.0</ele><time>2026-03-29T14:07:30Z</time></trkpt><trkpt lat="45.73263588697411" lon="9.753734503789135"><ele>409.00000000000006</ele><time>2026-03-29T14:07:32Z</time></trkpt><trkpt lat="45.73270290546995" lon="9.75376716439861"><ele>409.0</ele><time>2026-03-29T14:07:34Z</time></trkpt><trkpt lat="45.732802883851754" lon="9.753718044468538"><ele>409.0</ele><time>2026-03-29T14:07:36Z</time></trkpt><trkpt lat="45.73285312577452" lon="9.753651361725735"><ele>409.0</ele><time>2026-03-29T14:07:38Z</time></trkpt><trkpt lat="45.73291941516895" lon="9.753603257514385"><ele>409.00000000000006</ele><time>2026-03-29T14:07:42Z</time></trkpt><trkpt lat="45.732984403282416" lon="9.753546391806406"><ele>409.0</ele><time>2026-03-29T14:07:45Z</time></trkpt><trkpt lat="45.73303254199131" lon="9.753473174622401"><ele>406.4285714285714</ele><time>2026-03-29T14:07:48Z</time></trkpt><trkpt lat="45.73300756674215" lon="9.753369322759454"><ele>403.8571428571429</ele><time>2026-03-29T14:07:52Z</time></trkpt><trkpt lat="45.73297295099116" lon="9.753293781466125"><ele>401.2857142857143</ele><time>2026-03-29T14:07:54Z</time></trkpt><trkpt lat="45.732934314085114" lon="9.753195537503789"><ele>398.71428571428567</ele><time>2026-03-29T14:07:57Z</time></trkpt><trkpt lat="45.73291512147635" lon="9.753102784044836"><ele>396.1428571428571</ele><time>2026-03-29T14:08:00Z</time></trkpt><trkpt lat="45.732940486623235" lon="9.753017050022839"><ele>393.57142857142856</ele><time>2026-03-29T14:08:03Z</time></trkpt><trkpt lat="45.73292287692" lon="9.752929660882643"><ele>391.0</ele><time>2026-03-29T14:08:09Z</time></trkpt><trkpt lat="45.732889958471155" lon="9.753027509296802"><ele>390.99999999999994</ele><time>2026-03-29T14:08:12Z</time></trkpt><trkpt lat="45.73288364756727" lon="9.753123523185515"><ele>391.0</ele><time>2026-03-29T14:08:15Z</time></trkpt><trkpt lat="45.732933618132044" lon="9.75320648163978"><ele>391.0</ele><time>2026-03-29T14:08:18Z</time></trkpt><trkpt lat="45.732983625045634" lon="9.75329115641755"><ele>391.0</ele><time>2026-03-29T14:08:21Z</time></trkpt><trkpt lat="45.73302515785782" lon="9.75336861026519"><ele>391.0</ele><time>2026-03-29T14:08:24Z</time></trkpt><trkpt lat="45.73308972084755" lon="9.753400717586262"><ele>390.99999999999994</ele><time>2026-03-29T14:08:28Z</time></trkpt><trkpt lat="45.73311337265886" lon="9.753274953700089"><ele>391.0</ele><time>2026-03-29T14:08:31Z</time></trkpt><trkpt lat="45.733078595376305" lon="9.753162854633358"><ele>390.99999999999994</ele><time>2026-03-29T14:08:34Z</time></trkpt><trkpt lat="45.73311732795816" lon="9.753091163681521"><ele>391.0</ele><time>2026-03-29T14:08:39Z</time></trkpt><trkpt lat="45.73304786995319" lon="9.753119481086445"><ele>391.0</ele><time>2026-03-29T14:10:32Z</time></trkpt><trkpt lat="45.73311967395676" lon="9.753078257009596"><ele>391.0</ele><time>2026-03-29T14:11:05Z</time></trkpt><trkpt lat="45.73315231540821" lon="9.753158394259941"><ele>391.0</ele><time>2026-03-29T14:12:03Z</time></trkpt><trkpt lat="45.73321857099877" lon="9.753197680303986"><ele>390.99999999999994</ele><time>2026-03-29T14:12:16Z</time></trkpt><trkpt lat="45.73318168231172" lon="9.7532728145334"><ele>391.0</ele><time>2026-03-29T14:12:18Z</time></trkpt><trkpt lat="45.73312663657244" lon="9.7533370988519"><ele>391.00000000000006</ele><time>2026-03-29T14:12:20Z</time></trkpt><trkpt lat="45.73306885089454" lon="9.753423111892829"><ele>391.0</ele><time>2026-03-29T14:12:23Z</time></trkpt><trkpt lat="45.73298654929144" lon="9.753478876585689"><ele>391.0</ele><time>2026-03-29T14:12:26Z</time></trkpt><trkpt lat="45.732917967859805" lon="9.753479459229949"><ele>391.0</ele><time>2026-03-29T14:12:28Z</time></trkpt><trkpt lat="45.73282796089756" lon="9.75348167372807"><ele>391.00000000000006</ele><time>2026-03-29T14:12:30Z</time></trkpt><trkpt lat="45.732752322049585" lon="9.7534849570518"><ele>391.0</ele><time>2026-03-29T14:12:32Z</time></trkpt><trkpt lat="45.73267153293624" lon="9.7534650209782"><ele>394.1666666666667</ele><time>2026-03-29T14:12:34Z</time></trkpt><trkpt lat="45.73258521078012" lon="9.753399093920587"><ele>397.33333333333337</ele><time>2026-03-29T14:12:36Z</time></trkpt><trkpt lat="45.73251710886004" lon="9.753303718366507"><ele>400.5</ele><time>2026-03-29T14:12:38Z</time></trkpt><trkpt lat="45.732469518928205" lon="9.753215716123131"><ele>403.66666666666663</ele><time>2026-03-29T14:12:40Z</time></trkpt><trkpt lat="45.73243088967023" lon="9.753135562831845"><ele>406.8333333333333</ele><time>2026-03-29T14:12:42Z</time></trkpt><trkpt lat="45.732394725771265" lon="9.753061461836365"><ele>410.0</ele><time>2026-03-29T14:12:44Z</time></trkpt><trkpt lat="45.732356816177095" lon="9.752981994194535"><ele>409.99999999999994</ele><time>2026-03-29T14:12:46Z</time></trkpt><trkpt lat="45.73232624692344" lon="9.75287642447517"><ele>410.0</ele><time>2026-03-29T14:12:48Z</time></trkpt><trkpt lat="45.73225177896854" lon="9.752778467596803"><ele>410.0</ele><time>2026-03-29T14:12:51Z</time></trkpt><trkpt lat="45.73218855884121" lon="9.752706030879438"><ele>410.0</ele><time>2026-03-29T14:12:53Z</time></trkpt><trkpt lat="45.73213295741366" lon="9.752641368962589"><ele>409.99999999999994</ele><time>2026-03-29T14:12:55Z</time></trkpt><trkpt lat="45.732072756072284" lon="9.752546196914713"><ele>410.0</ele><time>2026-03-29T14:12:58Z</time></trkpt><trkpt lat="45.732012109912844" lon="9.752467185270376"><ele>407.8</ele><time>2026-03-29T14:13:00Z</time></trkpt><trkpt lat="45.731949761504666" lon="9.752390269071086"><ele>405.6</ele><time>2026-03-29T14:13:02Z</time></trkpt><trkpt lat="45.731874616762425" lon="9.752328839249639"><ele>403.4</ele><time>2026-03-29T14:13:04Z</time></trkpt><trkpt lat="45.731773239271156" lon="9.752286295492567"><ele>401.2</ele><time>2026-03-29T14:13:06Z</time></trkpt><trkpt lat="45.731664411667985" lon="9.752247323604754"><ele>399.0</ele><time>2026-03-29T14:13:08Z</time></trkpt><trkpt lat="45.73156507130565" lon="9.752228333620005"><ele>403.4</ele><time>2026-03-29T14:13:10Z</time></trkpt><trkpt lat="45.731482328734714" lon="9.752197411319266"><ele>407.79999999999995</ele><time>2026-03-29T14:13:12Z</time></trkpt><trkpt lat="45.731393068200354" lon="9.752187686704328"><ele>412.20000000000005</ele><time>2026-03-29T14:13:14Z</time></trkpt><trkpt lat="45.73130385216296" lon="9.752134432708143"><ele>416.6</ele><time>2026-03-29T14:13:16Z</time></trkpt><trkpt lat="45.73121123115192" lon="9.752082133511133"><ele>421.0</ele><time>2026-03-29T14:13:18Z</time></trkpt><trkpt lat="45.731104538635535" lon="9.752042304435006"><ele>419.33333333333337</ele><time>2026-03-29T14:13:20Z</time></trkpt><trkpt lat="45.7310051901332" lon="9.751949645433417"><ele>417.6666666666667</ele><time>2026-03-29T14:13:22Z</time></trkpt><trkpt lat="45.7309481534447" lon="9.751904165828183"><ele>416.0</ele><time>2026-03-29T14:13:23Z</time></trkpt><trkpt lat="45.730885691112825" lon="9.751857721266402"><ele>414.33333333333337</ele><time>2026-03-29T14:13:24Z</time></trkpt><trkpt lat="45.73082346582551" lon="9.751827512104011"><ele>412.6666666666667</ele><time>2026-03-29T14:13:25Z</time></trkpt><trkpt lat="45.730751008495616" lon="9.751817659485623"><ele>411.0</ele><time>2026-03-29T14:13:27Z</time></trkpt><trkpt lat="45.73066680133625" lon="9.751788065910423"><ele>411.0</ele><time>2026-03-29T14:13:29Z</time></trkpt><trkpt lat="45.730600653894236" lon="9.7517544419618"><ele>411.0</ele><time>2026-03-29T14:13:30Z</time></trkpt><trkpt lat="45.730533359250735" lon="9.751738733407889"><ele>411.0</ele><time>2026-03-29T14:13:31Z</time></trkpt><trkpt lat="45.730408573857765" lon="9.751699240621269"><ele>411.0</ele><time>2026-03-29T14:13:33Z</time></trkpt><trkpt lat="45.730337084796886" lon="9.75165321804246"><ele>411.0</ele><time>2026-03-29T14:13:34Z</time></trkpt><trkpt lat="45.73026598423791" lon="9.751603013233028"><ele>411.0</ele><time>2026-03-29T14:13:35Z</time></trkpt><trkpt lat="45.730190832220245" lon="9.751561658522116"><ele>413.6666666666667</ele><time>2026-03-29T14:13:36Z</time></trkpt><trkpt lat="45.730124328427756" lon="9.751491079239814"><ele>416.33333333333337</ele><time>2026-03-29T14:13:37Z</time></trkpt><trkpt lat="45.730071035426185" lon="9.751390689345477"><ele>419.0</ele><time>2026-03-29T14:13:38Z</time></trkpt><trkpt lat="45.73001291469134" lon="9.75130510915026"><ele>421.6666666666667</ele><time>2026-03-29T14:13:39Z</time></trkpt><trkpt lat="45.729962529233866" lon="9.751234782727039"><ele>424.33333333333337</ele><time>2026-03-29T14:13:40Z</time></trkpt><trkpt lat="45.729896385583174" lon="9.751171163227067"><ele>427.0</ele><time>2026-03-29T14:13:41Z</time></trkpt><trkpt lat="45.72984486108293" lon="9.751107752795129"><ele>423.8</ele><time>2026-03-29T14:13:42Z</time></trkpt><trkpt lat="45.72981146736771" lon="9.750959262097576"><ele>420.6</ele><time>2026-03-29T14:13:44Z</time></trkpt><trkpt lat="45.72985227670044" lon="9.750791962630485"><ele>417.40000000000003</ele><time>2026-03-29T14:13:46Z</time></trkpt><trkpt lat="45.72981855022478" lon="9.750617012431434"><ele>414.20000000000005</ele><time>2026-03-29T14:13:48Z</time></trkpt><trkpt lat="45.729795529581615" lon="9.750513350252184"><ele>411.0</ele><time>2026-03-29T14:13:49Z</time></trkpt><trkpt lat="45.72977810027584" lon="9.750404393231928"><ele>411.0</ele><time>2026-03-29T14:13:50Z</time></trkpt><trkpt lat="45.72976876667156" lon="9.750280236875371"><ele>411.0</ele><time>2026-03-29T14:13:51Z</time></trkpt><trkpt lat="45.72979153781126" lon="9.750181925581854"><ele>411.0</ele><time>2026-03-29T14:13:52Z</time></trkpt><trkpt lat="45.72982054055712" lon="9.750088423232842"><ele>411.0</ele><time>2026-03-29T14:13:53Z</time></trkpt><trkpt lat="45.72984957184095" lon="9.750008315412803"><ele>411.0</ele><time>2026-03-29T14:13:54Z</time></trkpt><trkpt lat="45.72987452880547" lon="9.749843053352702"><ele>411.0</ele><time>2026-03-29T14:13:56Z</time></trkpt><trkpt lat="45.729884441523176" lon="9.749674245970155"><ele>410.4</ele><time>2026-03-29T14:13:58Z</time></trkpt><trkpt lat="45.729882994272025" lon="9.74950346999641"><ele>409.8</ele><time>2026-03-29T14:14:00Z</time></trkpt><trkpt lat="45.72990506338902" lon="9.749352219456503"><ele>409.2</ele><time>2026-03-29T14:14:02Z</time></trkpt><trkpt lat="45.72991242079465" lon="9.749262312485389"><ele>408.59999999999997</ele><time>2026-03-29T14:14:03Z</time></trkpt><trkpt lat="45.729925503793666" lon="9.749083720916891"><ele>408.0</ele><time>2026-03-29T14:14:05Z</time></trkpt><trkpt lat="45.7299262597466" lon="9.748985706828895"><ele>408.0</ele><time>2026-03-29T14:14:06Z</time></trkpt><trkpt lat="45.72994107155642" lon="9.748803321051401"><ele>408.0</ele><time>2026-03-29T14:14:08Z</time></trkpt><trkpt lat="45.729943693403634" lon="9.748711202664511"><ele>408.0</ele><time>2026-03-29T14:14:09Z</time></trkpt><trkpt lat="45.72995105650004" lon="9.748603825598813"><ele>408.0</ele><time>2026-03-29T14:14:10Z</time></trkpt><trkpt lat="45.72993878063027" lon="9.748502199126662"><ele>408.0</ele><time>2026-03-29T14:14:11Z</time></trkpt><trkpt lat="45.72993790725583" lon="9.74841027399099"><ele>408.0</ele><time>2026-03-29T14:14:12Z</time></trkpt><trkpt lat="45.72996472938544" lon="9.748310069443141"><ele>407.0</ele><time>2026-03-29T14:14:13Z</time></trkpt><trkpt lat="45.7299923653572" lon="9.748218978663944"><ele>406.0</ele><time>2026-03-29T14:14:14Z</time></trkpt><trkpt lat="45.73000786353487" lon="9.748125468557806"><ele>405.0</ele><time>2026-03-29T14:14:15Z</time></trkpt><trkpt lat="45.729999251760056" lon="9.748030179843102"><ele>404.0</ele><time>2026-03-29T14:14:16Z</time></trkpt><trkpt lat="45.72998326305048" lon="9.747918051751638"><ele>403.0</ele><time>2026-03-29T14:14:17Z</time></trkpt><trkpt lat="45.729967960883016" lon="9.747814109672092"><ele>402.0</ele><time>2026-03-29T14:14:18Z</time></trkpt><trkpt lat="45.72997203192423" lon="9.747697885046646"><ele>401.0</ele><time>2026-03-29T14:14:19Z</time></trkpt><trkpt lat="45.72997708150828" lon="9.747576028816653"><ele>399.49999999999994</ele><time>2026-03-29T14:14:20Z</time></trkpt><trkpt lat="45.72994944992022" lon="9.747425396068802"><ele>398.0</ele><time>2026-03-29T14:14:22Z</time></trkpt><trkpt lat="45.7298719036074" lon="9.747350802532244"><ele>396.5</ele><time>2026-03-29T14:14:24Z</time></trkpt><trkpt lat="45.729821561310914" lon="9.747292550684499"><ele>395.0</ele><time>2026-03-29T14:14:45Z</time></trkpt><trkpt lat="45.729737593032944" lon="9.747239480410041"><ele>393.49999999999994</ele><time>2026-03-29T14:15:02Z</time></trkpt><trkpt lat="45.72967193220041" lon="9.747200472980905"><ele>392.0</ele><time>2026-03-29T14:15:04Z</time></trkpt><trkpt lat="45.72957570586053" lon="9.747163259008216"><ele>392.0</ele><time>2026-03-29T14:15:06Z</time></trkpt><trkpt lat="45.72948794170917" lon="9.747138729414734"><ele>392.0</ele><time>2026-03-29T14:15:08Z</time></trkpt><trkpt lat="45.72942266553884" lon="9.747054446112108"><ele>392.0</ele><time>2026-03-29T14:15:10Z</time></trkpt><trkpt lat="45.72936899324649" lon="9.746933321193954"><ele>392.0</ele><time>2026-03-29T14:15:12Z</time></trkpt><trkpt lat="45.729265500937146" lon="9.746876891238372"><ele>392.0</ele><time>2026-03-29T14:15:14Z</time></trkpt><trkpt lat="45.72920387279469" lon="9.746906928606787"><ele>391.99999999999994</ele><time>2026-03-29T14:15:15Z</time></trkpt><trkpt lat="45.72915804128208" lon="9.747008805413442"><ele>392.0</ele><time>2026-03-29T14:15:16Z</time></trkpt><trkpt lat="45.72913555519924" lon="9.747106276699952"><ele>392.0</ele><time>2026-03-29T14:15:17Z</time></trkpt><trkpt lat="45.729052838126556" lon="9.747182329091798"><ele>392.0</ele><time>2026-03-29T14:15:19Z</time></trkpt><trkpt lat="45.72900096353232" lon="9.747040649065545"><ele>391.99999999999994</ele><time>2026-03-29T14:15:21Z</time></trkpt><trkpt lat="45.7290287976843" lon="9.74694524597793"><ele>392.0</ele><time>2026-03-29T14:15:22Z</time></trkpt><trkpt lat="45.729077142378976" lon="9.746864860669536"><ele>388.8</ele><time>2026-03-29T14:15:23Z</time></trkpt><trkpt lat="45.72911791883782" lon="9.746777968049338"><ele>385.6</ele><time>2026-03-29T14:15:24Z</time></trkpt><trkpt lat="45.72915737644738" lon="9.746699547509854"><ele>382.40000000000003</ele><time>2026-03-29T14:15:25Z</time></trkpt><trkpt lat="45.72919070609101" lon="9.746555204536506"><ele>379.20000000000005</ele><time>2026-03-29T14:15:27Z</time></trkpt><trkpt lat="45.729107379491175" lon="9.746474460555662"><ele>376.0</ele><time>2026-03-29T14:15:29Z</time></trkpt><trkpt lat="45.728999646782086" lon="9.746561477461759"><ele>376.0</ele><time>2026-03-29T14:15:31Z</time></trkpt><trkpt lat="45.72895868079621" lon="9.74663328709048"><ele>376.0</ele><time>2026-03-29T14:15:32Z</time></trkpt><trkpt lat="45.72891576561633" lon="9.746710785432503"><ele>376.0</ele><time>2026-03-29T14:15:33Z</time></trkpt><trkpt lat="45.72886348988672" lon="9.746789800059258"><ele>376.0</ele><time>2026-03-29T14:15:34Z</time></trkpt><trkpt lat="45.72880890763938" lon="9.746867820665438"><ele>376.0</ele><time>2026-03-29T14:15:35Z</time></trkpt><trkpt lat="45.728748771607144" lon="9.746941659127986"><ele>376.0</ele><time>2026-03-29T14:15:36Z</time></trkpt><trkpt lat="45.72868597014181" lon="9.747007029230197"><ele>376.0</ele><time>2026-03-29T14:15:37Z</time></trkpt><trkpt lat="45.728621278880524" lon="9.747064620794388"><ele>377.66666666666663</ele><time>2026-03-29T14:15:38Z</time></trkpt><trkpt lat="45.72856168042646" lon="9.747105855776994"><ele>379.3333333333333</ele><time>2026-03-29T14:15:39Z</time></trkpt><trkpt lat="45.72846237141301" lon="9.747147460868009"><ele>381.0</ele><time>2026-03-29T14:15:41Z</time></trkpt><trkpt lat="45.728349499965496" lon="9.747071538400128"><ele>382.66666666666663</ele><time>2026-03-29T14:15:43Z</time></trkpt><trkpt lat="45.72828735676223" lon="9.747033897987425"><ele>384.3333333333333</ele><time>2026-03-29T14:15:44Z</time></trkpt><trkpt lat="45.72821900977331" lon="9.746987609152074"><ele>386.0</ele><time>2026-03-29T14:15:45Z</time></trkpt><trkpt lat="45.72815447574518" lon="9.746944208025877"><ele>386.00000000000006</ele><time>2026-03-29T14:15:46Z</time></trkpt><trkpt lat="45.72809625744758" lon="9.746891807365204"><ele>386.0</ele><time>2026-03-29T14:15:47Z</time></trkpt><trkpt lat="45.728036614135696" lon="9.746816745702688"><ele>386.0</ele><time>2026-03-29T14:15:48Z</time></trkpt><trkpt lat="45.72797949246808" lon="9.746734142829803"><ele>386.0</ele><time>2026-03-29T14:15:49Z</time></trkpt><trkpt lat="45.72793198553038" lon="9.746656378252887"><ele>386.0</ele><time>2026-03-29T14:15:50Z</time></trkpt><trkpt lat="45.72789246415615" lon="9.746580038897601"><ele>386.00000000000006</ele><time>2026-03-29T14:15:51Z</time></trkpt><trkpt lat="45.727851038122814" lon="9.746512105180166"><ele>386.0</ele><time>2026-03-29T14:15:52Z</time></trkpt><trkpt lat="45.727798163421745" lon="9.746454666778773"><ele>381.8333333333333</ele><time>2026-03-29T14:15:53Z</time></trkpt><trkpt lat="45.72771346535374" lon="9.746362062147544"><ele>377.66666666666663</ele><time>2026-03-29T14:15:55Z</time></trkpt><trkpt lat="45.727739617142205" lon="9.746267071386717"><ele>373.5</ele><time>2026-03-29T14:15:57Z</time></trkpt><trkpt lat="45.72784379382484" lon="9.746295109747958"><ele>369.3333333333333</ele><time>2026-03-29T14:15:59Z</time></trkpt><trkpt lat="45.72790968976469" lon="9.746348622803096"><ele>365.16666666666663</ele><time>2026-03-29T14:16:00Z</time></trkpt><trkpt lat="45.727970809529374" lon="9.74627840478631"><ele>361.0</ele><time>2026-03-29T14:16:02Z</time></trkpt><trkpt lat="45.72796985509868" lon="9.74618687670325"><ele>361.0</ele><time>2026-03-29T14:16:03Z</time></trkpt><trkpt lat="45.72791254768555" lon="9.74611137628973"><ele>361.0</ele><time>2026-03-29T14:16:04Z</time></trkpt><trkpt lat="45.72783494572095" lon="9.746041842316345"><ele>361.0</ele><time>2026-03-29T14:16:05Z</time></trkpt><trkpt lat="45.72775877583523" lon="9.745981659191724"><ele>361.0</ele><time>2026-03-29T14:16:06Z</time></trkpt><trkpt lat="45.72768390681098" lon="9.745887373420322"><ele>361.0</ele><time>2026-03-29T14:16:07Z</time></trkpt><trkpt lat="45.72760359797496" lon="9.745791922321398"><ele>357.3333333333333</ele><time>2026-03-29T14:16:08Z</time></trkpt><trkpt lat="45.72753001717534" lon="9.74570261324798"><ele>353.66666666666663</ele><time>2026-03-29T14:16:09Z</time></trkpt><trkpt lat="45.72746586358949" lon="9.745618925461294"><ele>350.0</ele><time>2026-03-29T14:16:10Z</time></trkpt><trkpt lat="45.72742214614657" lon="9.745539190758617"><ele>346.3333333333333</ele><time>2026-03-29T14:16:11Z</time></trkpt><trkpt lat="45.72738659021094" lon="9.745442641247854"><ele>342.6666666666667</ele><time>2026-03-29T14:16:12Z</time></trkpt><trkpt lat="45.727356159950176" lon="9.745326122929505"><ele>339.0</ele><time>2026-03-29T14:16:13Z</time></trkpt><trkpt lat="45.72732070105711" lon="9.745180908429344"><ele>336.2</ele><time>2026-03-29T14:16:14Z</time></trkpt><trkpt lat="45.7272949362666" lon="9.74503193291893"><ele>333.4</ele><time>2026-03-29T14:16:15Z</time></trkpt><trkpt lat="45.727261671602975" lon="9.744875861545115"><ele>330.6</ele><time>2026-03-29T14:16:16Z</time></trkpt><trkpt lat="45.727229317242895" lon="9.744717316253645"><ele>327.8</ele><time>2026-03-29T14:16:17Z</time></trkpt><trkpt lat="45.72719637369498" lon="9.744562829843042"><ele>325.0</ele><time>2026-03-29T14:16:18Z</time></trkpt><trkpt lat="45.72716731251814" lon="9.744430154544428"><ele>323.66666666666663</ele><time>2026-03-29T14:16:19Z</time></trkpt><trkpt lat="45.72714541488098" lon="9.744311330611831"><ele>322.3333333333333</ele><time>2026-03-29T14:16:20Z</time></trkpt><trkpt lat="45.727110787652876" lon="9.744231786889218"><ele>321.0</ele><time>2026-03-29T14:16:21Z</time></trkpt><trkpt lat="45.727051859822815" lon="9.74417977852023"><ele>319.6666666666667</ele><time>2026-03-29T14:16:22Z</time></trkpt><trkpt lat="45.726970700906676" lon="9.744137369433433"><ele>318.33333333333337</ele><time>2026-03-29T14:16:23Z</time></trkpt><trkpt lat="45.72688785056705" lon="9.74409099341859"><ele>317.0</ele><time>2026-03-29T14:16:24Z</time></trkpt><trkpt lat="45.72679894504356" lon="9.744045122184184"><ele>317.0</ele><time>2026-03-29T14:16:25Z</time></trkpt><trkpt lat="45.72670176691002" lon="9.744016252727592"><ele>317.0</ele><time>2026-03-29T14:16:26Z</time></trkpt><trkpt lat="45.72662103139775" lon="9.744010566926137"><ele>317.0</ele><time>2026-03-29T14:16:27Z</time></trkpt><trkpt lat="45.726524026347064" lon="9.744032261935683"><ele>317.0</ele><time>2026-03-29T14:16:28Z</time></trkpt><trkpt lat="45.72643871101661" lon="9.744056123857744"><ele>317.0</ele><time>2026-03-29T14:16:29Z</time></trkpt><trkpt lat="45.726374530186504" lon="9.744056056493063"><ele>317.0</ele><time>2026-03-29T14:16:30Z</time></trkpt><trkpt lat="45.726307297779805" lon="9.744012199037288"><ele>317.0</ele><time>2026-03-29T14:16:31Z</time></trkpt><trkpt lat="45.7262447295656" lon="9.743926299395783"><ele>317.0</ele><time>2026-03-29T14:16:32Z</time></trkpt><trkpt lat="45.726182391723555" lon="9.743830844739561"><ele>317.0</ele><time>2026-03-29T14:16:33Z</time></trkpt><trkpt lat="45.726110009958205" lon="9.743739152839703"><ele>317.0</ele><time>2026-03-29T14:16:34Z</time></trkpt><trkpt lat="45.72603207287301" lon="9.74364406326783"><ele>317.0</ele><time>2026-03-29T14:16:35Z</time></trkpt><trkpt lat="45.725945660475304" lon="9.743547533735548"><ele>313.2</ele><time>2026-03-29T14:16:36Z</time></trkpt><trkpt lat="45.72585563338895" lon="9.743465035047842"><ele>309.4</ele><time>2026-03-29T14:16:37Z</time></trkpt><trkpt lat="45.72576646019103" lon="9.743384292723135"><ele>305.6</ele><time>2026-03-29T14:16:38Z</time></trkpt><trkpt lat="45.72568494114039" lon="9.7433022607043"><ele>301.8</ele><time>2026-03-29T14:16:39Z</time></trkpt><trkpt lat="45.72562288763415" lon="9.743228956729808"><ele>298.0</ele><time>2026-03-29T14:16:40Z</time></trkpt><trkpt lat="45.72558151162009" lon="9.74315959743942"><ele>298.0</ele><time>2026-03-29T14:16:41Z</time></trkpt><trkpt lat="45.725600689107154" lon="9.74298874541357"><ele>298.0</ele><time>2026-03-29T14:16:43Z</time></trkpt><trkpt lat="45.72565557762296" lon="9.742908382877173"><ele>298.0</ele><time>2026-03-29T14:16:44Z</time></trkpt><trkpt lat="45.725716327077826" lon="9.742833876793608"><ele>298.0</ele><time>2026-03-29T14:16:45Z</time></trkpt><trkpt lat="45.72577586455207" lon="9.742750997305384"><ele>298.0</ele><time>2026-03-29T14:16:46Z</time></trkpt><trkpt lat="45.72582361140343" lon="9.742655709934324"><ele>298.0</ele><time>2026-03-29T14:16:47Z</time></trkpt><trkpt lat="45.72587099382999" lon="9.742542721903758"><ele>296.6</ele><time>2026-03-29T14:16:48Z</time></trkpt><trkpt lat="45.725903044546556" lon="9.742419525234366"><ele>295.20000000000005</ele><time>2026-03-29T14:16:49Z</time></trkpt><trkpt lat="45.72592698379607" lon="9.742291951323578"><ele>293.8</ele><time>2026-03-29T14:16:50Z</time></trkpt><trkpt lat="45.72594134437042" lon="9.742155502077159"><ele>292.40000000000003</ele><time>2026-03-29T14:16:51Z</time></trkpt><trkpt lat="45.72596255039056" lon="9.74202506901078"><ele>291.0</ele><time>2026-03-29T14:16:52Z</time></trkpt><trkpt lat="45.725982324042555" lon="9.741891836200336"><ele>290.40000000000003</ele><time>2026-03-29T14:16:53Z</time></trkpt><trkpt lat="45.72600449176954" lon="9.741760640619617"><ele>289.8</ele><time>2026-03-29T14:16:54Z</time></trkpt><trkpt lat="45.7260232563472" lon="9.741630709448955"><ele>289.20000000000005</ele><time>2026-03-29T14:16:55Z</time></trkpt><trkpt lat="45.72602849993064" lon="9.741498904492948"><ele>288.6</ele><time>2026-03-29T14:16:56Z</time></trkpt><trkpt lat="45.726036796466296" lon="9.741369642197393"><ele>288.0</ele><time>2026-03-29T14:16:57Z</time></trkpt><trkpt lat="45.72604863286588" lon="9.741242721331995"><ele>288.0</ele><time>2026-03-29T14:16:58Z</time></trkpt><trkpt lat="45.72606692293021" lon="9.74112016011089"><ele>288.0</ele><time>2026-03-29T14:16:59Z</time></trkpt><trkpt lat="45.72608609881925" lon="9.740999982679288"><ele>288.0</ele><time>2026-03-29T14:17:00Z</time></trkpt><trkpt lat="45.726101874046904" lon="9.740891672317629"><ele>288.0</ele><time>2026-03-29T14:17:01Z</time></trkpt><trkpt lat="45.72603481885127" lon="9.740738418382765"><ele>288.0</ele><time>2026-03-29T14:17:03Z</time></trkpt><trkpt lat="45.72596671080094" lon="9.7406992212859"><ele>287.6666666666667</ele><time>2026-03-29T14:17:04Z</time></trkpt><trkpt lat="45.72590313306208" lon="9.740682543664832"><ele>287.3333333333333</ele><time>2026-03-29T14:17:05Z</time></trkpt><trkpt lat="45.72578804561988" lon="9.74062009403018"><ele>287.0</ele><time>2026-03-29T14:17:07Z</time></trkpt><trkpt lat="45.72572987759168" lon="9.740581336994529"><ele>286.66666666666663</ele><time>2026-03-29T14:17:08Z</time></trkpt><trkpt lat="45.725612235587825" lon="9.740510076157939"><ele>286.3333333333333</ele><time>2026-03-29T14:17:10Z</time></trkpt><trkpt lat="45.725551063644566" lon="9.740473921718081"><ele>286.0</ele><time>2026-03-29T14:17:11Z</time></trkpt><trkpt lat="45.72548837783597" lon="9.74043154083742"><ele>286.0</ele><time>2026-03-29T14:17:12Z</time></trkpt><trkpt lat="45.72542320961783" lon="9.740387606075302"><ele>286.0</ele><time>2026-03-29T14:17:13Z</time></trkpt><trkpt lat="45.72536167330899" lon="9.740339522937314"><ele>286.0</ele><time>2026-03-29T14:17:14Z</time></trkpt><trkpt lat="45.725298585305616" lon="9.74029157446342"><ele>286.0</ele><time>2026-03-29T14:17:15Z</time></trkpt><trkpt lat="45.72524433349629" lon="9.74022328749807"><ele>286.0</ele><time>2026-03-29T14:17:16Z</time></trkpt><trkpt lat="45.72520095182572" lon="9.740152542937258"><ele>286.0</ele><time>2026-03-29T14:17:17Z</time></trkpt><trkpt lat="45.72512009864444" lon="9.740029427509924"><ele>285.66666666666663</ele><time>2026-03-29T14:17:19Z</time></trkpt><trkpt lat="45.7250058535797" lon="9.739972168776953"><ele>285.3333333333333</ele><time>2026-03-29T14:17:21Z</time></trkpt><trkpt lat="45.72488384636347" lon="9.739916397064256"><ele>285.0</ele><time>2026-03-29T14:17:23Z</time></trkpt><trkpt lat="45.724822955071794" lon="9.739876287879007"><ele>284.6666666666667</ele><time>2026-03-29T14:17:24Z</time></trkpt><trkpt lat="45.72476267076753" lon="9.739847728800774"><ele>284.33333333333337</ele><time>2026-03-29T14:17:25Z</time></trkpt><trkpt lat="45.72469901056973" lon="9.739826761406587"><ele>284.0</ele><time>2026-03-29T14:17:26Z</time></trkpt><trkpt lat="45.724633188367264" lon="9.739811761184264"><ele>284.0</ele><time>2026-03-29T14:17:27Z</time></trkpt><trkpt lat="45.72450772194244" lon="9.739772191164633"><ele>284.0</ele><time>2026-03-29T14:17:29Z</time></trkpt><trkpt lat="45.72444586499698" lon="9.739750145194826"><ele>284.0</ele><time>2026-03-29T14:17:30Z</time></trkpt><trkpt lat="45.72438371177812" lon="9.739727452924152"><ele>284.0</ele><time>2026-03-29T14:17:31Z</time></trkpt><trkpt lat="45.72432040808025" lon="9.739704645907537"><ele>284.0</ele><time>2026-03-29T14:17:32Z</time></trkpt><trkpt lat="45.724258642405495" lon="9.739684752034153"><ele>284.0</ele><time>2026-03-29T14:17:33Z</time></trkpt><trkpt lat="45.72419472485215" lon="9.73966092713054"><ele>283.8</ele><time>2026-03-29T14:17:34Z</time></trkpt><trkpt lat="45.7240696040186" lon="9.739616513333704"><ele>283.59999999999997</ele><time>2026-03-29T14:17:36Z</time></trkpt><trkpt lat="45.72400800983306" lon="9.739590417050707"><ele>283.4</ele><time>2026-03-29T14:17:37Z</time></trkpt><trkpt lat="45.72394477883415" lon="9.739565872601588"><ele>283.2</ele><time>2026-03-29T14:17:38Z</time></trkpt><trkpt lat="45.723880028486846" lon="9.739546766299949"><ele>283.0</ele><time>2026-03-29T14:17:39Z</time></trkpt><trkpt lat="45.72375568248706" lon="9.73950329448984"><ele>283.0</ele><time>2026-03-29T14:17:41Z</time></trkpt><trkpt lat="45.7236881635654" lon="9.739486607179593"><ele>283.0</ele><time>2026-03-29T14:17:42Z</time></trkpt><trkpt lat="45.72362528574471" lon="9.739476063704874"><ele>283.0</ele><time>2026-03-29T14:17:43Z</time></trkpt><trkpt lat="45.72355631461036" lon="9.73946794485232"><ele>283.0</ele><time>2026-03-29T14:17:44Z</time></trkpt><trkpt lat="45.72342686631186" lon="9.739471852909784"><ele>283.0</ele><time>2026-03-29T14:17:46Z</time></trkpt><trkpt lat="45.72336079606958" lon="9.739471312647781"><ele>283.0</ele><time>2026-03-29T14:17:47Z</time></trkpt><trkpt lat="45.7232967018034" lon="9.739468014069109"><ele>283.0</ele><time>2026-03-29T14:17:48Z</time></trkpt><trkpt lat="45.723230889018964" lon="9.739468119077616"><ele>283.0</ele><time>2026-03-29T14:17:49Z</time></trkpt><trkpt lat="45.72316790601028" lon="9.739474277958397"><ele>283.0</ele><time>2026-03-29T14:17:50Z</time></trkpt><trkpt lat="45.723042310873915" lon="9.739455807917548"><ele>283.0</ele><time>2026-03-29T14:17:52Z</time></trkpt><trkpt lat="45.72297800711219" lon="9.739432285432416"><ele>283.0</ele><time>2026-03-29T14:17:53Z</time></trkpt><trkpt lat="45.72291941122643" lon="9.739394105576055"><ele>283.0</ele><time>2026-03-29T14:17:54Z</time></trkpt><trkpt lat="45.72286394003371" lon="9.739346571495672"><ele>283.0</ele><time>2026-03-29T14:17:55Z</time></trkpt><trkpt lat="45.722809670776286" lon="9.739299083116796"><ele>283.0</ele><time>2026-03-29T14:17:56Z</time></trkpt><trkpt lat="45.72275545878253" lon="9.739250552746197"><ele>283.0</ele><time>2026-03-29T14:17:57Z</time></trkpt><trkpt lat="45.72270090876374" lon="9.73919904760062"><ele>283.0</ele><time>2026-03-29T14:17:58Z</time></trkpt><trkpt lat="45.722646986019186" lon="9.73915176242634"><ele>283.0</ele><time>2026-03-29T14:17:59Z</time></trkpt><trkpt lat="45.722595395910716" lon="9.739099905411317"><ele>283.0</ele><time>2026-03-29T14:18:00Z</time></trkpt><trkpt lat="45.72253668385252" lon="9.739060768333275"><ele>283.0</ele><time>2026-03-29T14:18:01Z</time></trkpt><trkpt lat="45.722477368794216" lon="9.739015217850906"><ele>282.8333333333333</ele><time>2026-03-29T14:18:02Z</time></trkpt><trkpt lat="45.722363437806244" lon="9.738932048269314"><ele>282.66666666666663</ele><time>2026-03-29T14:18:04Z</time></trkpt><trkpt lat="45.722306415137744" lon="9.738888698592353"><ele>282.5</ele><time>2026-03-29T14:18:05Z</time></trkpt><trkpt lat="45.72225082620725" lon="9.738841584235102"><ele>282.3333333333333</ele><time>2026-03-29T14:18:06Z</time></trkpt><trkpt lat="45.72219398243702" lon="9.73880229938619"><ele>282.1666666666667</ele><time>2026-03-29T14:18:07Z</time></trkpt><trkpt lat="45.72208595152226" lon="9.738727481620872"><ele>282.0</ele><time>2026-03-29T14:18:09Z</time></trkpt><trkpt lat="45.722003022148996" lon="9.738640724089056"><ele>281.8</ele><time>2026-03-29T14:18:11Z</time></trkpt><trkpt lat="45.72197201840178" lon="9.738507530899186"><ele>281.6</ele><time>2026-03-29T14:18:13Z</time></trkpt><trkpt lat="45.72184708214724" lon="9.738491225243541"><ele>281.40000000000003</ele><time>2026-03-29T14:18:15Z</time></trkpt><trkpt lat="45.72177920837816" lon="9.738502306819308"><ele>281.2</ele><time>2026-03-29T14:18:16Z</time></trkpt><trkpt lat="45.72171589139171" lon="9.738475100412566"><ele>281.0</ele><time>2026-03-29T14:18:17Z</time></trkpt><trkpt lat="45.72160451354859" lon="9.738396924090365"><ele>280.6666666666667</ele><time>2026-03-29T14:18:19Z</time></trkpt><trkpt lat="45.72153702532474" lon="9.738356087588837"><ele>280.33333333333337</ele><time>2026-03-29T14:18:20Z</time></trkpt><trkpt lat="45.72148301755743" lon="9.738305220431055"><ele>280.0</ele><time>2026-03-29T14:18:21Z</time></trkpt><trkpt lat="45.72138362958613" lon="9.738208383859268"><ele>279.6666666666667</ele><time>2026-03-29T14:18:23Z</time></trkpt><trkpt lat="45.72127910386435" lon="9.738233805153445"><ele>279.3333333333333</ele><time>2026-03-29T14:18:25Z</time></trkpt><trkpt lat="45.7212385273353" lon="9.738309283974157"><ele>279.0</ele><time>2026-03-29T14:18:26Z</time></trkpt><trkpt lat="45.72121198127426" lon="9.738483156765195"><ele>279.8</ele><time>2026-03-29T14:18:28Z</time></trkpt><trkpt lat="45.721176728983494" lon="9.73865602097293"><ele>280.59999999999997</ele><time>2026-03-29T14:18:30Z</time></trkpt><trkpt lat="45.72114472686721" lon="9.738826987283177"><ele>281.4</ele><time>2026-03-29T14:18:32Z</time></trkpt><trkpt lat="45.72113310752297" lon="9.738916343476646"><ele>282.2</ele><time>2026-03-29T14:18:33Z</time></trkpt><trkpt lat="45.72112211898707" lon="9.739089869252888"><ele>283.0</ele><time>2026-03-29T14:18:35Z</time></trkpt><trkpt lat="45.721102271703025" lon="9.739259780184934"><ele>284.0</ele><time>2026-03-29T14:18:37Z</time></trkpt><trkpt lat="45.72108989643616" lon="9.7394316366656"><ele>285.0</ele><time>2026-03-29T14:18:39Z</time></trkpt><trkpt lat="45.72109268805141" lon="9.739600729803108"><ele>286.0</ele><time>2026-03-29T14:18:41Z</time></trkpt><trkpt lat="45.721097881356066" lon="9.739769023247996"><ele>287.0</ele><time>2026-03-29T14:18:43Z</time></trkpt><trkpt lat="45.72111257898637" lon="9.73992951433993"><ele>287.0</ele><time>2026-03-29T14:18:45Z</time></trkpt><trkpt lat="45.72116239210535" lon="9.740057324448976"><ele>287.0</ele><time>2026-03-29T14:18:47Z</time></trkpt><trkpt lat="45.72123707861781" lon="9.740149777735832"><ele>287.0</ele><time>2026-03-29T14:18:49Z</time></trkpt><trkpt lat="45.72132711621846" lon="9.740203330090734"><ele>287.0</ele><time>2026-03-29T14:18:51Z</time></trkpt><trkpt lat="45.72142155902334" lon="9.740235216622025"><ele>287.0</ele><time>2026-03-29T14:18:53Z</time></trkpt><trkpt lat="45.721515348823885" lon="9.740244974971233"><ele>289.0</ele><time>2026-03-29T14:18:55Z</time></trkpt><trkpt lat="45.72160396239842" lon="9.740266158792624"><ele>291.0</ele><time>2026-03-29T14:18:57Z</time></trkpt><trkpt lat="45.72170478059747" lon="9.740288866286742"><ele>293.0</ele><time>2026-03-29T14:18:59Z</time></trkpt><trkpt lat="45.72179949222601" lon="9.740342289674828"><ele>295.0</ele><time>2026-03-29T14:19:01Z</time></trkpt><trkpt lat="45.72187716060917" lon="9.740411858502176"><ele>297.0</ele><time>2026-03-29T14:19:03Z</time></trkpt><trkpt lat="45.72194993183385" lon="9.740498981310248"><ele>297.0</ele><time>2026-03-29T14:19:05Z</time></trkpt><trkpt lat="45.72201835467684" lon="9.740592695516073"><ele>297.0</ele><time>2026-03-29T14:19:07Z</time></trkpt><trkpt lat="45.72208600624822" lon="9.740694899367497"><ele>297.0</ele><time>2026-03-29T14:19:09Z</time></trkpt><trkpt lat="45.72215858185529" lon="9.740780505686256"><ele>297.0</ele><time>2026-03-29T14:19:11Z</time></trkpt><trkpt lat="45.72222566818478" lon="9.740858584382591"><ele>297.0</ele><time>2026-03-29T14:19:13Z</time></trkpt><trkpt lat="45.7222949868099" lon="9.740938972860844"><ele>297.0</ele><time>2026-03-29T14:19:15Z</time></trkpt><trkpt lat="45.72235279104855" lon="9.741039729512819"><ele>297.0</ele><time>2026-03-29T14:19:17Z</time></trkpt><trkpt lat="45.722399301358735" lon="9.741154503945465"><ele>297.0</ele><time>2026-03-29T14:19:19Z</time></trkpt><trkpt lat="45.722419165912484" lon="9.741265893256452"><ele>297.0</ele><time>2026-03-29T14:19:21Z</time></trkpt><trkpt lat="45.72242691033725" lon="9.741361081579967"><ele>297.0</ele><time>2026-03-29T14:19:23Z</time></trkpt><trkpt lat="45.722445253407464" lon="9.741491503494013"><ele>297.0</ele><time>2026-03-29T14:19:26Z</time></trkpt><trkpt lat="45.722476670350524" lon="9.741579234152715"><ele>299.2857142857143</ele><time>2026-03-29T14:19:28Z</time></trkpt><trkpt lat="45.72250047823324" lon="9.741666183120529"><ele>301.5714285714286</ele><time>2026-03-29T14:19:30Z</time></trkpt><trkpt lat="45.722522676068095" lon="9.741788292237"><ele>303.8571428571429</ele><time>2026-03-29T14:19:33Z</time></trkpt><trkpt lat="45.72253881860318" lon="9.741878919870759"><ele>306.14285714285717</ele><time>2026-03-29T14:19:35Z</time></trkpt><trkpt lat="45.72255080814628" lon="9.741984186461542"><ele>308.42857142857144</ele><time>2026-03-29T14:19:37Z</time></trkpt><trkpt lat="45.722564216709614" lon="9.742091047749309"><ele>310.7142857142857</ele><time>2026-03-29T14:19:39Z</time></trkpt><trkpt lat="45.72258239002791" lon="9.742190704772227"><ele>313.0</ele><time>2026-03-29T14:19:41Z</time></trkpt><trkpt lat="45.72259653717477" lon="9.742282884205688"><ele>315.42857142857144</ele><time>2026-03-29T14:19:43Z</time></trkpt><trkpt lat="45.722614856962814" lon="9.742381752796193"><ele>317.8571428571429</ele><time>2026-03-29T14:19:45Z</time></trkpt><trkpt lat="45.72263161070343" lon="9.742472252996699"><ele>320.28571428571433</ele><time>2026-03-29T14:19:47Z</time></trkpt><trkpt lat="45.72264707415048" lon="9.742564440970394"><ele>322.7142857142857</ele><time>2026-03-29T14:19:49Z</time></trkpt><trkpt lat="45.72265400785494" lon="9.742694649927559"><ele>325.14285714285717</ele><time>2026-03-29T14:19:52Z</time></trkpt><trkpt lat="45.72267908355804" lon="9.742788760785974"><ele>327.5714285714286</ele><time>2026-03-29T14:19:55Z</time></trkpt><trkpt lat="45.72269516802763" lon="9.742906905486592"><ele>330.0</ele><time>2026-03-29T14:19:58Z</time></trkpt><trkpt lat="45.722700985657006" lon="9.743029456416231"><ele>329.0</ele><time>2026-03-29T14:20:01Z</time></trkpt><trkpt lat="45.72271354427264" lon="9.743143289901449"><ele>328.0</ele><time>2026-03-29T14:20:04Z</time></trkpt><trkpt lat="45.722734702049735" lon="9.743261450006514"><ele>327.0</ele><time>2026-03-29T14:20:07Z</time></trkpt><trkpt lat="45.722753673431995" lon="9.74337729639687"><ele>326.0</ele><time>2026-03-29T14:20:10Z</time></trkpt><trkpt lat="45.72276988997637" lon="9.743493850360307"><ele>325.0</ele><time>2026-03-29T14:20:13Z</time></trkpt><trkpt lat="45.722769853950666" lon="9.743601097337564"><ele>324.0</ele><time>2026-03-29T14:20:16Z</time></trkpt><trkpt lat="45.722785763805916" lon="9.743728308392235"><ele>324.0</ele><time>2026-03-29T14:20:19Z</time></trkpt><trkpt lat="45.72278148358117" lon="9.743819628298423"><ele>324.0</ele><time>2026-03-29T14:20:21Z</time></trkpt><trkpt lat="45.72276752944306" lon="9.743911703734916"><ele>324.0</ele><time>2026-03-29T14:20:23Z</time></trkpt><trkpt lat="45.722741067069606" lon="9.744001176524813"><ele>324.0</ele><time>2026-03-29T14:20:25Z</time></trkpt><trkpt lat="45.72274343289496" lon="9.744143927167514"><ele>324.0</ele><time>2026-03-29T14:20:28Z</time></trkpt><trkpt lat="45.72273050736723" lon="9.744252818173273"><ele>324.0</ele><time>2026-03-29T14:20:30Z</time></trkpt><trkpt lat="45.72271695863854" lon="9.744359312807587"><ele>327.0</ele><time>2026-03-29T14:20:32Z</time></trkpt><trkpt lat="45.7227066382857" lon="9.744459130125675"><ele>330.0</ele><time>2026-03-29T14:20:34Z</time></trkpt><trkpt lat="45.72267462562568" lon="9.744548480797604"><ele>333.0</ele><time>2026-03-29T14:20:36Z</time></trkpt><trkpt lat="45.72263346620533" lon="9.744623517253604"><ele>336.0</ele><time>2026-03-29T14:20:38Z</time></trkpt><trkpt lat="45.72254823239366" lon="9.744672282637277"><ele>339.0</ele><time>2026-03-29T14:20:41Z</time></trkpt><trkpt lat="45.722480119634554" lon="9.74474747701136"><ele>342.0</ele><time>2026-03-29T14:20:44Z</time></trkpt><trkpt lat="45.72240166142811" lon="9.744821340795353"><ele>342.0</ele><time>2026-03-29T14:20:47Z</time></trkpt><trkpt lat="45.722327686883986" lon="9.744874345564984"><ele>342.0</ele><time>2026-03-29T14:20:50Z</time></trkpt><trkpt lat="45.722268396117464" lon="9.744931753849361"><ele>342.0</ele><time>2026-03-29T14:20:52Z</time></trkpt><trkpt lat="45.72219141593186" lon="9.744991812998562"><ele>342.0</ele><time>2026-03-29T14:20:55Z</time></trkpt><trkpt lat="45.72214536624296" lon="9.745072036276081"><ele>342.0</ele><time>2026-03-29T14:20:58Z</time></trkpt><trkpt lat="45.72208661650044" lon="9.745111243064006"><ele>342.0</ele><time>2026-03-29T14:21:00Z</time></trkpt><trkpt lat="45.72201088496714" lon="9.745169131936828"><ele>340.5</ele><time>2026-03-29T14:21:03Z</time></trkpt><trkpt lat="45.72193079754079" lon="9.745222003803834"><ele>339.0</ele><time>2026-03-29T14:21:06Z</time></trkpt><trkpt lat="45.72186039613364" lon="9.745267778967268"><ele>337.5</ele><time>2026-03-29T14:21:09Z</time></trkpt><trkpt lat="45.721788698299456" lon="9.745318645971263"><ele>336.0</ele><time>2026-03-29T14:21:12Z</time></trkpt><trkpt lat="45.72172481346649" lon="9.745367004483061"><ele>334.5</ele><time>2026-03-29T14:21:15Z</time></trkpt><trkpt lat="45.72169553387244" lon="9.745447664608788"><ele>333.0</ele><time>2026-03-29T14:21:18Z</time></trkpt><trkpt lat="45.72161108169008" lon="9.745458143238093"><ele>336.5</ele><time>2026-03-29T14:22:12Z</time></trkpt><trkpt lat="45.721547754543074" lon="9.745508606107153"><ele>340.0</ele><time>2026-03-29T14:22:15Z</time></trkpt><trkpt lat="45.721498255977316" lon="9.745586504106987"><ele>343.5</ele><time>2026-03-29T14:22:18Z</time></trkpt><trkpt lat="45.72142818465047" lon="9.745634869635882"><ele>347.0</ele><time>2026-03-29T14:22:21Z</time></trkpt><trkpt lat="45.721350521821414" lon="9.745614535156559"><ele>350.5</ele><time>2026-03-29T14:22:23Z</time></trkpt><trkpt lat="45.72132118405425" lon="9.745720623013385"><ele>354.0</ele><time>2026-03-29T14:22:25Z</time></trkpt><trkpt lat="45.721258898106406" lon="9.745777377366243"><ele>354.0</ele><time>2026-03-29T14:22:27Z</time></trkpt><trkpt lat="45.7211904219585" lon="9.745805986568085"><ele>354.0</ele><time>2026-03-29T14:22:29Z</time></trkpt><trkpt lat="45.72112175938702" lon="9.745840082535475"><ele>354.0</ele><time>2026-03-29T14:22:31Z</time></trkpt><trkpt lat="45.72107780358448" lon="9.745928453968647"><ele>354.0</ele><time>2026-03-29T14:22:33Z</time></trkpt><trkpt lat="45.721017471567905" lon="9.74596840933995"><ele>354.0</ele><time>2026-03-29T14:22:35Z</time></trkpt><trkpt lat="45.72094054201804" lon="9.746012550730185"><ele>354.0</ele><time>2026-03-29T14:22:38Z</time></trkpt><trkpt lat="45.72087417031536" lon="9.746100586877581"><ele>356.0</ele><time>2026-03-29T14:22:42Z</time></trkpt><trkpt lat="45.72081332853539" lon="9.746159730301896"><ele>358.0</ele><time>2026-03-29T14:22:44Z</time></trkpt><trkpt lat="45.72076914479919" lon="9.746230965366404"><ele>360.0</ele><time>2026-03-29T14:22:46Z</time></trkpt><trkpt lat="45.720705164650056" lon="9.746276929509301"><ele>362.0</ele><time>2026-03-29T14:22:48Z</time></trkpt><trkpt lat="45.720614459547434" lon="9.746291277205836"><ele>364.0</ele><time>2026-03-29T14:22:51Z</time></trkpt><trkpt lat="45.72055089316509" lon="9.746304555658272"><ele>366.0</ele><time>2026-03-29T14:22:53Z</time></trkpt><trkpt lat="45.72047948761707" lon="9.746341882024229"><ele>368.0</ele><time>2026-03-29T14:22:56Z</time></trkpt><trkpt lat="45.72041237851319" lon="9.746337543759724"><ele>368.0</ele><time>2026-03-29T14:22:58Z</time></trkpt><trkpt lat="45.720336372716275" lon="9.74633272118606"><ele>368.0</ele><time>2026-03-29T14:23:01Z</time></trkpt><trkpt lat="45.72026828639614" lon="9.746358540172242"><ele>368.0</ele><time>2026-03-29T14:23:03Z</time></trkpt><trkpt lat="45.72017132299508" lon="9.746356288363675"><ele>368.0</ele><time>2026-03-29T14:23:06Z</time></trkpt><trkpt lat="45.72010820868929" lon="9.74634927060866"><ele>368.0</ele><time>2026-03-29T14:23:08Z</time></trkpt><trkpt lat="45.720042672846404" lon="9.746393632943265"><ele>368.0</ele><time>2026-03-29T14:23:10Z</time></trkpt><trkpt lat="45.71994747779315" lon="9.74641393447814"><ele>371.5</ele><time>2026-03-29T14:23:13Z</time></trkpt><trkpt lat="45.719874671005286" lon="9.746438832722532"><ele>375.0</ele><time>2026-03-29T14:23:16Z</time></trkpt><trkpt lat="45.71979875097159" lon="9.74645625662106"><ele>378.5</ele><time>2026-03-29T14:23:18Z</time></trkpt><trkpt lat="45.71973541830047" lon="9.746473532924785"><ele>382.0</ele><time>2026-03-29T14:23:20Z</time></trkpt><trkpt lat="45.719655448760015" lon="9.74650644174923"><ele>385.49999999999994</ele><time>2026-03-29T14:23:23Z</time></trkpt><trkpt lat="45.71958172983192" lon="9.74653831571074"><ele>389.0</ele><time>2026-03-29T14:23:25Z</time></trkpt><trkpt lat="45.719500230360424" lon="9.746575585676787"><ele>388.99999999999994</ele><time>2026-03-29T14:23:28Z</time></trkpt><trkpt lat="45.719432130344636" lon="9.74660607703176"><ele>389.0</ele><time>2026-03-29T14:23:30Z</time></trkpt><trkpt lat="45.719351468449084" lon="9.746649000580181"><ele>389.0</ele><time>2026-03-29T14:23:33Z</time></trkpt><trkpt lat="45.71927664259174" lon="9.74667567469443"><ele>389.0</ele><time>2026-03-29T14:23:35Z</time></trkpt><trkpt lat="45.719205169175915" lon="9.746721862032473"><ele>388.99999999999994</ele><time>2026-03-29T14:23:37Z</time></trkpt><trkpt lat="45.71913818190817" lon="9.746748855465924"><ele>389.0</ele><time>2026-03-29T14:23:39Z</time></trkpt><trkpt lat="45.719061323787066" lon="9.746791888421384"><ele>389.8333333333333</ele><time>2026-03-29T14:23:41Z</time></trkpt><trkpt lat="45.71899208463384" lon="9.74686862771163"><ele>390.66666666666663</ele><time>2026-03-29T14:23:43Z</time></trkpt><trkpt lat="45.7189487377228" lon="9.746952402493909"><ele>391.5</ele><time>2026-03-29T14:23:45Z</time></trkpt><trkpt lat="45.71888751829356" lon="9.747018573030378"><ele>392.33333333333337</ele><time>2026-03-29T14:23:47Z</time></trkpt><trkpt lat="45.71884394190454" lon="9.747089393506638"><ele>393.1666666666667</ele><time>2026-03-29T14:23:49Z</time></trkpt><trkpt lat="45.718780523295905" lon="9.74720349336719"><ele>394.0</ele><time>2026-03-29T14:23:52Z</time></trkpt><trkpt lat="45.718734567771264" lon="9.747277983925843"><ele>394.00000000000006</ele><time>2026-03-29T14:23:54Z</time></trkpt><trkpt lat="45.71867329042762" lon="9.747333798750468"><ele>394.0</ele><time>2026-03-29T14:23:57Z</time></trkpt><trkpt lat="45.71860649729532" lon="9.747309805546061"><ele>394.0</ele><time>2026-03-29T14:24:01Z</time></trkpt><trkpt lat="45.71863548804889" lon="9.74720604648236"><ele>394.0</ele><time>2026-03-29T14:24:04Z</time></trkpt><trkpt lat="45.71867419408847" lon="9.747086446224042"><ele>394.00000000000006</ele><time>2026-03-29T14:24:07Z</time></trkpt><trkpt lat="45.71871475690432" lon="9.746981055889666"><ele>394.0</ele><time>2026-03-29T14:24:09Z</time></trkpt><trkpt lat="45.71878731832462" lon="9.74688948410958"><ele>396.50000000000006</ele><time>2026-03-29T14:24:11Z</time></trkpt><trkpt lat="45.71880151384905" lon="9.746796508748838"><ele>399.0</ele><time>2026-03-29T14:24:13Z</time></trkpt><trkpt lat="45.71884530382315" lon="9.746697094836074"><ele>401.5</ele><time>2026-03-29T14:24:15Z</time></trkpt><trkpt lat="45.71893244374659" lon="9.746603705822064"><ele>404.0</ele><time>2026-03-29T14:24:17Z</time></trkpt><trkpt lat="45.719004146272574" lon="9.746520549870986"><ele>406.50000000000006</ele><time>2026-03-29T14:24:19Z</time></trkpt><trkpt lat="45.71905372897617" lon="9.746451065029847"><ele>409.0</ele><time>2026-03-29T14:24:21Z</time></trkpt><trkpt lat="45.7190768335645" lon="9.746356703445285"><ele>409.00000000000006</ele><time>2026-03-29T14:24:23Z</time></trkpt><trkpt lat="45.71912850978538" lon="9.746292303325847"><ele>409.0</ele><time>2026-03-29T14:24:24Z</time></trkpt><trkpt lat="45.7191849516749" lon="9.746207709263683"><ele>409.0</ele><time>2026-03-29T14:24:26Z</time></trkpt><trkpt lat="45.71925269952394" lon="9.746132081400733"><ele>409.0</ele><time>2026-03-29T14:24:28Z</time></trkpt><trkpt lat="45.71933048759976" lon="9.746058944666599"><ele>409.00000000000006</ele><time>2026-03-29T14:24:30Z</time></trkpt><trkpt lat="45.71938854351221" lon="9.745985828873867"><ele>409.0</ele><time>2026-03-29T14:24:33Z</time></trkpt><trkpt lat="45.71940879099096" lon="9.745898150542661"><ele>408.85714285714283</ele><time>2026-03-29T14:24:53Z</time></trkpt><trkpt lat="45.719456591266564" lon="9.74581823444143"><ele>408.7142857142857</ele><time>2026-03-29T14:24:56Z</time></trkpt><trkpt lat="45.71950911706134" lon="9.74575971106647"><ele>408.57142857142856</ele><time>2026-03-29T14:24:59Z</time></trkpt><trkpt lat="45.71955533579189" lon="9.745694502094008"><ele>408.42857142857144</ele><time>2026-03-29T14:25:01Z</time></trkpt><trkpt lat="45.719577986118225" lon="9.745610220122252"><ele>408.28571428571433</ele><time>2026-03-29T14:25:03Z</time></trkpt><trkpt lat="45.71962984747024" lon="9.74551700636901"><ele>408.14285714285717</ele><time>2026-03-29T14:25:06Z</time></trkpt><trkpt lat="45.71970821536265" lon="9.745462381728117"><ele>408.0</ele><time>2026-03-29T14:25:09Z</time></trkpt><trkpt lat="45.719775732638624" lon="9.745471300602238"><ele>408.0</ele><time>2026-03-29T14:25:13Z</time></trkpt><trkpt lat="45.71986186024866" lon="9.745438563772877"><ele>408.0</ele><time>2026-03-29T14:25:15Z</time></trkpt><trkpt lat="45.71993067018404" lon="9.74542698962961"><ele>408.0</ele><time>2026-03-29T14:25:19Z</time></trkpt><trkpt lat="45.71998985225376" lon="9.745353254907606"><ele>408.0</ele><time>2026-03-29T14:25:43Z</time></trkpt><trkpt lat="45.72005224452525" lon="9.745335356079925"><ele>408.0</ele><time>2026-03-29T14:25:45Z</time></trkpt><trkpt lat="45.720129871874676" lon="9.74530602220585"><ele>408.0</ele><time>2026-03-29T14:25:48Z</time></trkpt><trkpt lat="45.72020970282609" lon="9.745273441572957"><ele>408.0</ele><time>2026-03-29T14:25:52Z</time></trkpt><trkpt lat="45.72013982704714" lon="9.745306348346507"><ele>408.0</ele><time>2026-03-29T14:26:02Z</time></trkpt><trkpt lat="45.72007668934434" lon="9.74534845495799"><ele>408.0</ele><time>2026-03-29T14:26:04Z</time></trkpt><trkpt lat="45.72000163585526" lon="9.745378028789618"><ele>408.0</ele><time>2026-03-29T14:26:06Z</time></trkpt><trkpt lat="45.71993602630466" lon="9.745410680924287"><ele>408.0</ele><time>2026-03-29T14:26:08Z</time></trkpt><trkpt lat="45.719870019886805" lon="9.745434674325399"><ele>408.0</ele><time>2026-03-29T14:26:10Z</time></trkpt><trkpt lat="45.719800001123126" lon="9.745455144757553"><ele>408.0</ele><time>2026-03-29T14:26:12Z</time></trkpt><trkpt lat="45.719735448813296" lon="9.745477503492513"><ele>408.0</ele><time>2026-03-29T14:26:14Z</time></trkpt><trkpt lat="45.71964886207024" lon="9.745461043092687"><ele>408.0</ele><time>2026-03-29T14:26:17Z</time></trkpt><trkpt lat="45.71958546686608" lon="9.745534968373212"><ele>408.0</ele><time>2026-03-29T14:26:19Z</time></trkpt><trkpt lat="45.71952328176802" lon="9.745579788499679"><ele>408.0</ele><time>2026-03-29T14:26:21Z</time></trkpt><trkpt lat="45.719453215963654" lon="9.745622702164896"><ele>408.0</ele><time>2026-03-29T14:26:23Z</time></trkpt><trkpt lat="45.71937209708576" lon="9.745654375513926"><ele>408.0</ele><time>2026-03-29T14:26:25Z</time></trkpt><trkpt lat="45.7193040904298" lon="9.745695431950493"><ele>408.1666666666667</ele><time>2026-03-29T14:26:27Z</time></trkpt><trkpt lat="45.71923519633391" lon="9.745768847282367"><ele>408.33333333333337</ele><time>2026-03-29T14:26:29Z</time></trkpt><trkpt lat="45.71916015667526" lon="9.745849004922787"><ele>408.5</ele><time>2026-03-29T14:26:31Z</time></trkpt><trkpt lat="45.71908058003761" lon="9.745949957380521"><ele>408.6666666666667</ele><time>2026-03-29T14:26:33Z</time></trkpt><trkpt lat="45.71904033372785" lon="9.746026503454448"><ele>408.83333333333337</ele><time>2026-03-29T14:26:35Z</time></trkpt><trkpt lat="45.71897723119805" lon="9.746081394448497"><ele>409.0</ele><time>2026-03-29T14:26:36Z</time></trkpt><trkpt lat="45.718910322041175" lon="9.746142174068243"><ele>409.0</ele><time>2026-03-29T14:26:38Z</time></trkpt><trkpt lat="45.71884561882662" lon="9.74619931122663"><ele>409.0</ele><time>2026-03-29T14:26:40Z</time></trkpt><trkpt lat="45.71877696165882" lon="9.74623934239227"><ele>409.0</ele><time>2026-03-29T14:26:42Z</time></trkpt><trkpt lat="45.71872146579667" lon="9.746299627151112"><ele>409.0</ele><time>2026-03-29T14:26:44Z</time></trkpt><trkpt lat="45.718667349176386" lon="9.746352067180638"><ele>409.0</ele><time>2026-03-29T14:26:46Z</time></trkpt><trkpt lat="45.71861180311032" lon="9.746408198078411"><ele>409.0</ele><time>2026-03-29T14:26:49Z</time></trkpt><trkpt lat="45.71856270600722" lon="9.746490651501308"><ele>409.0</ele><time>2026-03-29T14:26:52Z</time></trkpt><trkpt lat="45.71849150301962" lon="9.74650592580333"><ele>412.57142857142856</ele><time>2026-03-29T14:26:54Z</time></trkpt><trkpt lat="45.718427892704916" lon="9.746513250918401"><ele>416.14285714285717</ele><time>2026-03-29T14:26:56Z</time></trkpt><trkpt lat="45.71835352076629" lon="9.746518383398415"><ele>419.7142857142857</ele><time>2026-03-29T14:26:59Z</time></trkpt><trkpt lat="45.718280304415565" lon="9.746539233626537"><ele>423.2857142857143</ele><time>2026-03-29T14:27:02Z</time></trkpt><trkpt lat="45.71819633362927" lon="9.746542052033268"><ele>426.8571428571429</ele><time>2026-03-29T14:27:05Z</time></trkpt><trkpt lat="45.7182028871177" lon="9.746434868083385"><ele>430.42857142857144</ele><time>2026-03-29T14:27:09Z</time></trkpt><trkpt lat="45.718263197507504" lon="9.746376429570798"><ele>434.0</ele><time>2026-03-29T14:27:11Z</time></trkpt><trkpt lat="45.71832266471355" lon="9.746302468364282"><ele>433.99999999999994</ele><time>2026-03-29T14:27:13Z</time></trkpt><trkpt lat="45.71836116364988" lon="9.746209111630906"><ele>434.0</ele><time>2026-03-29T14:27:16Z</time></trkpt><trkpt lat="45.71841295054027" lon="9.74612664435976"><ele>434.0</ele><time>2026-03-29T14:27:20Z</time></trkpt><trkpt lat="45.71835248728118" lon="9.746175994318106"><ele>434.0</ele><time>2026-03-29T14:27:26Z</time></trkpt><trkpt lat="45.71829889343128" lon="9.746309612012166"><ele>433.99999999999994</ele><time>2026-03-29T14:27:29Z</time></trkpt><trkpt lat="45.718226203815284" lon="9.746424467853613"><ele>434.0</ele><time>2026-03-29T14:27:31Z</time></trkpt><trkpt lat="45.7181458550577" lon="9.746519278899596"><ele>434.0</ele><time>2026-03-29T14:27:33Z</time></trkpt><trkpt lat="45.718072056799905" lon="9.746627851978877"><ele>434.0</ele><time>2026-03-29T14:27:35Z</time></trkpt><trkpt lat="45.718009063206964" lon="9.746722225517589"><ele>434.0</ele><time>2026-03-29T14:27:37Z</time></trkpt><trkpt lat="45.7179448840696" lon="9.74679997449643"><ele>434.0</ele><time>2026-03-29T14:27:39Z</time></trkpt><trkpt lat="45.71788767108527" lon="9.746883687841756"><ele>434.0</ele><time>2026-03-29T14:27:41Z</time></trkpt><trkpt lat="45.717824431140606" lon="9.746972622191358"><ele>434.0</ele><time>2026-03-29T14:27:44Z</time></trkpt><trkpt lat="45.71777132471381" lon="9.747046795714578"><ele>434.0</ele><time>2026-03-29T14:27:47Z</time></trkpt><trkpt lat="45.717715622074806" lon="9.747104623127912"><ele>434.0</ele><time>2026-03-29T14:27:49Z</time></trkpt><trkpt lat="45.71763979579809" lon="9.74705803189336"><ele>434.0</ele><time>2026-03-29T14:27:53Z</time></trkpt><trkpt lat="45.7176557065374" lon="9.746960094674876"><ele>434.0</ele><time>2026-03-29T14:27:55Z</time></trkpt><trkpt lat="45.71765730596558" lon="9.746858029665395"><ele>434.0</ele><time>2026-03-29T14:27:57Z</time></trkpt><trkpt lat="45.71764798460587" lon="9.7467673461157"><ele>434.0</ele><time>2026-03-29T14:27:59Z</time></trkpt><trkpt lat="45.71764980634633" lon="9.74664440867415"><ele>436.3333333333333</ele><time>2026-03-29T14:28:02Z</time></trkpt><trkpt lat="45.71764600256088" lon="9.746550355564922"><ele>438.66666666666663</ele><time>2026-03-29T14:28:05Z</time></trkpt><trkpt lat="45.71762303475799" lon="9.746432559119967"><ele>441.0</ele><time>2026-03-29T14:28:09Z</time></trkpt><trkpt lat="45.717645824161686" lon="9.746305840597113"><ele>443.33333333333337</ele><time>2026-03-29T14:28:12Z</time></trkpt><trkpt lat="45.717605361663075" lon="9.746217591239837"><ele>445.6666666666667</ele><time>2026-03-29T14:28:14Z</time></trkpt><trkpt lat="45.717514387525746" lon="9.746181800766506"><ele>448.0</ele><time>2026-03-29T14:28:17Z</time></trkpt><trkpt lat="45.71743820956156" lon="9.746163207783502"><ele>448.00000000000006</ele><time>2026-03-29T14:28:19Z</time></trkpt><trkpt lat="45.71735810487948" lon="9.746134897894425"><ele>448.0</ele><time>2026-03-29T14:28:21Z</time></trkpt><trkpt lat="45.71728410849659" lon="9.746119478604951"><ele>448.0</ele><time>2026-03-29T14:28:23Z</time></trkpt><trkpt lat="45.71721873204139" lon="9.746114954428378"><ele>448.0</ele><time>2026-03-29T14:28:25Z</time></trkpt><trkpt lat="45.71712003647471" lon="9.74610946114834"><ele>448.00000000000006</ele><time>2026-03-29T14:28:28Z</time></trkpt><trkpt lat="45.71703272891211" lon="9.746087844710804"><ele>448.0</ele><time>2026-03-29T14:28:31Z</time></trkpt><trkpt lat="45.716961665389015" lon="9.746050442952452"><ele>448.00000000000006</ele><time>2026-03-29T14:28:34Z</time></trkpt><trkpt lat="45.71690780546186" lon="9.745998529843593"><ele>448.0</ele><time>2026-03-29T14:28:37Z</time></trkpt><trkpt lat="45.716847676506674" lon="9.746052063953904"><ele>448.0</ele><time>2026-03-29T14:28:41Z</time></trkpt><trkpt lat="45.716925854706275" lon="9.746083785308349"><ele>448.0</ele><time>2026-03-29T14:28:44Z</time></trkpt><trkpt lat="45.717029412147276" lon="9.746072032075816"><ele>448.00000000000006</ele><time>2026-03-29T14:28:46Z</time></trkpt><trkpt lat="45.7171369742049" lon="9.746092746874504"><ele>448.0</ele><time>2026-03-29T14:28:48Z</time></trkpt><trkpt lat="45.717206099419904" lon="9.74609158791549"><ele>448.0</ele><time>2026-03-29T14:28:49Z</time></trkpt><trkpt lat="45.717278024144505" lon="9.746102287980323"><ele>448.0</ele><time>2026-03-29T14:28:50Z</time></trkpt><trkpt lat="45.717344451271835" lon="9.746122293853228"><ele>448.0</ele><time>2026-03-29T14:28:51Z</time></trkpt><trkpt lat="45.7174134566549" lon="9.746159409484052"><ele>448.0</ele><time>2026-03-29T14:28:52Z</time></trkpt><trkpt lat="45.71748431983904" lon="9.746177421701251"><ele>448.0</ele><time>2026-03-29T14:28:53Z</time></trkpt><trkpt lat="45.71754931310137" lon="9.746190802227888"><ele>448.0</ele><time>2026-03-29T14:28:54Z</time></trkpt><trkpt lat="45.71763156124457" lon="9.746219162167119"><ele>448.0</ele><time>2026-03-29T14:28:56Z</time></trkpt><trkpt lat="45.717633940191014" lon="9.74633831314896"><ele>448.0</ele><time>2026-03-29T14:28:59Z</time></trkpt><trkpt lat="45.71762115768525" lon="9.746431815668783"><ele>447.99999999999994</ele><time>2026-03-29T14:29:01Z</time></trkpt><trkpt lat="45.7176282990937" lon="9.746593351136397"><ele>447.99999999999994</ele><time>2026-03-29T14:29:03Z</time></trkpt><trkpt lat="45.71763805508404" lon="9.746767365408504"><ele>448.0</ele><time>2026-03-29T14:29:05Z</time></trkpt><trkpt lat="45.717640761193046" lon="9.746934508396834"><ele>448.0</ele><time>2026-03-29T14:29:07Z</time></trkpt><trkpt lat="45.7176493659366" lon="9.747132880734577"><ele>445.6666666666667</ele><time>2026-03-29T14:29:09Z</time></trkpt><trkpt lat="45.717659415558366" lon="9.747233711134903"><ele>443.33333333333337</ele><time>2026-03-29T14:29:10Z</time></trkpt><trkpt lat="45.71766015604108" lon="9.747338301167725"><ele>441.0</ele><time>2026-03-29T14:29:11Z</time></trkpt><trkpt lat="45.71766415388749" lon="9.747449755033106"><ele>438.66666666666663</ele><time>2026-03-29T14:29:12Z</time></trkpt><trkpt lat="45.71766830694939" lon="9.747563625644252"><ele>436.3333333333333</ele><time>2026-03-29T14:29:13Z</time></trkpt><trkpt lat="45.71766494140956" lon="9.747661872386233"><ele>434.0</ele><time>2026-03-29T14:29:14Z</time></trkpt><trkpt lat="45.71766068613005" lon="9.74781184949091"><ele>432.3333333333333</ele><time>2026-03-29T14:29:16Z</time></trkpt><trkpt lat="45.717684183904666" lon="9.74793645700019"><ele>430.66666666666663</ele><time>2026-03-29T14:29:18Z</time></trkpt><trkpt lat="45.71774582727769" lon="9.748078000538746"><ele>429.0</ele><time>2026-03-29T14:29:20Z</time></trkpt><trkpt lat="45.71779403743235" lon="9.748170351756446"><ele>427.33333333333337</ele><time>2026-03-29T14:29:21Z</time></trkpt><trkpt lat="45.71782698719877" lon="9.748268597008405"><ele>425.6666666666667</ele><time>2026-03-29T14:29:22Z</time></trkpt><trkpt lat="45.717863579581156" lon="9.748370546066358"><ele>424.0</ele><time>2026-03-29T14:29:23Z</time></trkpt><trkpt lat="45.71791262063888" lon="9.74847172342825"><ele>423.83333333333337</ele><time>2026-03-29T14:29:24Z</time></trkpt><trkpt lat="45.717954913952056" lon="9.748573678754905"><ele>423.6666666666667</ele><time>2026-03-29T14:29:25Z</time></trkpt><trkpt lat="45.71799084661723" lon="9.748674253102948"><ele>423.5</ele><time>2026-03-29T14:29:26Z</time></trkpt><trkpt lat="45.71802943576659" lon="9.748770809380057"><ele>423.33333333333337</ele><time>2026-03-29T14:29:27Z</time></trkpt><trkpt lat="45.718066133635695" lon="9.748859361685069"><ele>423.1666666666667</ele><time>2026-03-29T14:29:28Z</time></trkpt><trkpt lat="45.718102907683544" lon="9.748935285704857"><ele>423.0</ele><time>2026-03-29T14:29:29Z</time></trkpt><trkpt lat="45.71813428997127" lon="9.749090525813697"><ele>423.0</ele><time>2026-03-29T14:29:31Z</time></trkpt><trkpt lat="45.71816193789373" lon="9.749253772517271"><ele>423.0</ele><time>2026-03-29T14:29:33Z</time></trkpt><trkpt lat="45.71816241393948" lon="9.749344567832145"><ele>423.0</ele><time>2026-03-29T14:29:34Z</time></trkpt><trkpt lat="45.718161782857045" lon="9.749435660829628"><ele>423.0</ele><time>2026-03-29T14:29:35Z</time></trkpt><trkpt lat="45.718148844471344" lon="9.749529221289826"><ele>423.0</ele><time>2026-03-29T14:29:36Z</time></trkpt><trkpt lat="45.71812948989041" lon="9.74962342515567"><ele>423.0</ele><time>2026-03-29T14:29:37Z</time></trkpt><trkpt lat="45.71812660245918" lon="9.749725893148664"><ele>422.5</ele><time>2026-03-29T14:29:38Z</time></trkpt><trkpt lat="45.718133840866784" lon="9.749827858122474"><ele>422.0</ele><time>2026-03-29T14:29:39Z</time></trkpt><trkpt lat="45.71813826274838" lon="9.749932041325865"><ele>421.5</ele><time>2026-03-29T14:29:40Z</time></trkpt><trkpt lat="45.71813505362608" lon="9.75003975164467"><ele>421.0</ele><time>2026-03-29T14:29:41Z</time></trkpt><trkpt lat="45.718132227245405" lon="9.750154996398544"><ele>420.5</ele><time>2026-03-29T14:29:42Z</time></trkpt><trkpt lat="45.71812553065223" lon="9.75026691249162"><ele>420.0</ele><time>2026-03-29T14:29:43Z</time></trkpt><trkpt lat="45.71812561857617" lon="9.750376228547054"><ele>419.8333333333333</ele><time>2026-03-29T14:29:44Z</time></trkpt><trkpt lat="45.71812688494255" lon="9.750491307466078"><ele>419.66666666666663</ele><time>2026-03-29T14:29:46Z</time></trkpt><trkpt lat="45.718131953816915" lon="9.750608142677427"><ele>419.5</ele><time>2026-03-29T14:29:49Z</time></trkpt><trkpt lat="45.71815102193959" lon="9.75075227505301"><ele>419.3333333333333</ele><time>2026-03-29T14:29:51Z</time></trkpt><trkpt lat="45.71815891475291" lon="9.750856179524959"><ele>419.16666666666663</ele><time>2026-03-29T14:29:52Z</time></trkpt><trkpt lat="45.71818843801425" lon="9.75100299195952"><ele>419.0</ele><time>2026-03-29T14:29:54Z</time></trkpt><trkpt lat="45.71818939817152" lon="9.751166431937982"><ele>419.0</ele><time>2026-03-29T14:29:56Z</time></trkpt><trkpt lat="45.71814690250267" lon="9.751298049965362"><ele>419.0</ele><time>2026-03-29T14:29:58Z</time></trkpt><trkpt lat="45.71806841286156" lon="9.75140307248475"><ele>419.0</ele><time>2026-03-29T14:30:00Z</time></trkpt><trkpt lat="45.718041157873195" lon="9.751534090556046"><ele>419.0</ele><time>2026-03-29T14:30:02Z</time></trkpt><trkpt lat="45.7180400891659" lon="9.751663260078429"><ele>419.0</ele><time>2026-03-29T14:30:04Z</time></trkpt><trkpt lat="45.7180299209391" lon="9.751803101115467"><ele>418.49999999999994</ele><time>2026-03-29T14:30:06Z</time></trkpt><trkpt lat="45.718000864486044" lon="9.751942570735993"><ele>418.0</ele><time>2026-03-29T14:30:08Z</time></trkpt><trkpt lat="45.71797027976821" lon="9.752060766343297"><ele>417.5</ele><time>2026-03-29T14:30:10Z</time></trkpt><trkpt lat="45.717928274788875" lon="9.752167093225243"><ele>417.0</ele><time>2026-03-29T14:30:12Z</time></trkpt><trkpt lat="45.71789699990954" lon="9.75224907912935"><ele>416.49999999999994</ele><time>2026-03-29T14:30:14Z</time></trkpt><trkpt lat="45.71784384293301" lon="9.75233851653799"><ele>416.0</ele><time>2026-03-29T14:30:21Z</time></trkpt><trkpt lat="45.71782240635424" lon="9.752461099208272"><ele>415.99999999999994</ele><time>2026-03-29T14:30:24Z</time></trkpt><trkpt lat="45.7178158326256" lon="9.752560511390651"><ele>416.0</ele><time>2026-03-29T14:30:26Z</time></trkpt><trkpt lat="45.71785049436437" lon="9.752685609667235"><ele>416.0</ele><time>2026-03-29T14:30:29Z</time></trkpt><trkpt lat="45.71789581091957" lon="9.752757406429627"><ele>416.0</ele><time>2026-03-29T14:30:32Z</time></trkpt><trkpt lat="45.717887869893694" lon="9.752852289117403"><ele>415.99999999999994</ele><time>2026-03-29T14:31:05Z</time></trkpt><trkpt lat="45.71796218273348" lon="9.752887695817684"><ele>416.0</ele><time>2026-03-29T14:31:08Z</time></trkpt><trkpt lat="45.71802103042168" lon="9.752975163338123"><ele>415.66666666666663</ele><time>2026-03-29T14:31:11Z</time></trkpt><trkpt lat="45.71805570609204" lon="9.753059451183638"><ele>415.3333333333333</ele><time>2026-03-29T14:31:13Z</time></trkpt><trkpt lat="45.71807986963707" lon="9.753163974277658"><ele>415.0</ele><time>2026-03-29T14:31:15Z</time></trkpt><trkpt lat="45.71810863538437" lon="9.75327980913201"><ele>414.66666666666663</ele><time>2026-03-29T14:31:17Z</time></trkpt><trkpt lat="45.718134555156716" lon="9.75336933713465"><ele>414.3333333333333</ele><time>2026-03-29T14:31:19Z</time></trkpt><trkpt lat="45.71818652966475" lon="9.753465536346141"><ele>414.0</ele><time>2026-03-29T14:31:22Z</time></trkpt><trkpt lat="45.718243623274546" lon="9.753549005170749"><ele>413.5</ele><time>2026-03-29T14:31:24Z</time></trkpt><trkpt lat="45.71829215743536" lon="9.75365233012942"><ele>413.0</ele><time>2026-03-29T14:31:27Z</time></trkpt><trkpt lat="45.718315435622145" lon="9.753758117483764"><ele>412.5</ele><time>2026-03-29T14:31:30Z</time></trkpt><trkpt lat="45.71835750878435" lon="9.75383713846903"><ele>412.0</ele><time>2026-03-29T14:31:32Z</time></trkpt><trkpt lat="45.71841304862547" lon="9.753955877147582"><ele>411.5</ele><time>2026-03-29T14:31:34Z</time></trkpt><trkpt lat="45.71845364698287" lon="9.754088069759165"><ele>411.0</ele><time>2026-03-29T14:31:36Z</time></trkpt><trkpt lat="45.71845719348104" lon="9.754196113119093"><ele>411.0</ele><time>2026-03-29T14:31:38Z</time></trkpt><trkpt lat="45.71843813671655" lon="9.754297765751621"><ele>411.0</ele><time>2026-03-29T14:31:41Z</time></trkpt><trkpt lat="45.7184542679849" lon="9.754400709739665"><ele>411.0</ele><time>2026-03-29T14:31:43Z</time></trkpt><trkpt lat="45.71848338209131" lon="9.754532874922727"><ele>411.0</ele><time>2026-03-29T14:31:45Z</time></trkpt><trkpt lat="45.71849053282923" lon="9.75465479504528"><ele>411.0</ele><time>2026-03-29T14:31:47Z</time></trkpt><trkpt lat="45.718504300582346" lon="9.75480118580745"><ele>411.0</ele><time>2026-03-29T14:31:49Z</time></trkpt><trkpt lat="45.7185282624167" lon="9.754933614191994"><ele>410.1428571428571</ele><time>2026-03-29T14:31:51Z</time></trkpt><trkpt lat="45.71856413724195" lon="9.755033617888852"><ele>409.2857142857143</ele><time>2026-03-29T14:31:53Z</time></trkpt><trkpt lat="45.718568038235915" lon="9.75514957386002"><ele>408.42857142857144</ele><time>2026-03-29T14:31:56Z</time></trkpt><trkpt lat="45.718572158360494" lon="9.75525849223745"><ele>407.57142857142856</ele><time>2026-03-29T14:31:58Z</time></trkpt><trkpt lat="45.71860901449153" lon="9.755332842694642"><ele>406.7142857142857</ele><time>2026-03-29T14:32:00Z</time></trkpt><trkpt lat="45.7186421754808" lon="9.755416192785798"><ele>405.85714285714283</ele><time>2026-03-29T14:32:02Z</time></trkpt><trkpt lat="45.7186869161423" lon="9.755483990671678"><ele>405.0</ele><time>2026-03-29T14:32:04Z</time></trkpt><trkpt lat="45.71869681288514" lon="9.755593739224183"><ele>409.1666666666667</ele><time>2026-03-29T14:32:06Z</time></trkpt><trkpt lat="45.71873145772968" lon="9.755717670680712"><ele>413.33333333333337</ele><time>2026-03-29T14:32:08Z</time></trkpt><trkpt lat="45.718788158808664" lon="9.755843968053549"><ele>417.5</ele><time>2026-03-29T14:32:10Z</time></trkpt><trkpt lat="45.71881521521406" lon="9.755930470554244"><ele>421.6666666666667</ele><time>2026-03-29T14:32:11Z</time></trkpt><trkpt lat="45.71883418667102" lon="9.756023722844832"><ele>425.83333333333337</ele><time>2026-03-29T14:32:12Z</time></trkpt><trkpt lat="45.71885054397734" lon="9.75612803089096"><ele>430.0</ele><time>2026-03-29T14:32:13Z</time></trkpt><trkpt lat="45.71888853458653" lon="9.756285014319067"><ele>430.00000000000006</ele><time>2026-03-29T14:32:15Z</time></trkpt><trkpt lat="45.71890996094328" lon="9.75642672353928"><ele>430.0</ele><time>2026-03-29T14:32:17Z</time></trkpt><trkpt lat="45.71891780707759" lon="9.756517304887357"><ele>430.0</ele><time>2026-03-29T14:32:18Z</time></trkpt><trkpt lat="45.71891865763023" lon="9.756608517149381"><ele>430.0</ele><time>2026-03-29T14:32:19Z</time></trkpt><trkpt lat="45.71889447530338" lon="9.75671654188548"><ele>430.00000000000006</ele><time>2026-03-29T14:32:21Z</time></trkpt><trkpt lat="45.71890629457278" lon="9.756862222796707"><ele>430.0</ele><time>2026-03-29T14:32:23Z</time></trkpt><trkpt lat="45.718895384055436" lon="9.75697632695203"><ele>429.1666666666667</ele><time>2026-03-29T14:32:25Z</time></trkpt><trkpt lat="45.71885884352448" lon="9.757080465964027"><ele>428.33333333333337</ele><time>2026-03-29T14:32:27Z</time></trkpt><trkpt lat="45.71883641955957" lon="9.75717959699948"><ele>427.5</ele><time>2026-03-29T14:32:29Z</time></trkpt><trkpt lat="45.71879060811709" lon="9.75728250785551"><ele>426.66666666666663</ele><time>2026-03-29T14:32:31Z</time></trkpt><trkpt lat="45.71877383705032" lon="9.75739669426467"><ele>425.8333333333333</ele><time>2026-03-29T14:32:33Z</time></trkpt><trkpt lat="45.718791158398304" lon="9.757485060599713"><ele>425.0</ele><time>2026-03-29T14:32:35Z</time></trkpt><trkpt lat="45.718858701922805" lon="9.75752488481347"><ele>425.0</ele><time>2026-03-29T14:32:37Z</time></trkpt><trkpt lat="45.71894842722676" lon="9.757509801881703"><ele>425.0</ele><time>2026-03-29T14:32:39Z</time></trkpt><trkpt lat="45.71906491457111" lon="9.757543936470649"><ele>425.0</ele><time>2026-03-29T14:32:41Z</time></trkpt><trkpt lat="45.719126718457666" lon="9.757572782803159"><ele>425.0</ele><time>2026-03-29T14:32:42Z</time></trkpt><trkpt lat="45.71920959411085" lon="9.757599246424526"><ele>425.0</ele><time>2026-03-29T14:32:43Z</time></trkpt><trkpt lat="45.71929289247719" lon="9.757694436948102"><ele>427.4</ele><time>2026-03-29T14:32:45Z</time></trkpt><trkpt lat="45.71933497768001" lon="9.75776294941576"><ele>429.8</ele><time>2026-03-29T14:32:46Z</time></trkpt><trkpt lat="45.71940793464048" lon="9.75789184048887"><ele>432.20000000000005</ele><time>2026-03-29T14:32:48Z</time></trkpt><trkpt lat="45.71948158892928" lon="9.758010328691226"><ele>434.6</ele><time>2026-03-29T14:32:50Z</time></trkpt><trkpt lat="45.71955030752988" lon="9.758094013965197"><ele>437.0</ele><time>2026-03-29T14:32:52Z</time></trkpt><trkpt lat="45.719598245607465" lon="9.758169485211427"><ele>436.99999999999994</ele><time>2026-03-29T14:32:54Z</time></trkpt><trkpt lat="45.71962588924896" lon="9.758263491642671"><ele>437.0</ele><time>2026-03-29T14:32:56Z</time></trkpt><trkpt lat="45.71962727273194" lon="9.758390032142765"><ele>437.0</ele><time>2026-03-29T14:32:59Z</time></trkpt><trkpt lat="45.71962042598764" lon="9.75852049550066"><ele>437.0</ele><time>2026-03-29T14:33:02Z</time></trkpt><trkpt lat="45.71962428314787" lon="9.758629406877025"><ele>436.99999999999994</ele><time>2026-03-29T14:33:04Z</time></trkpt><trkpt lat="45.71963632008894" lon="9.758783119267461"><ele>437.0</ele><time>2026-03-29T14:33:06Z</time></trkpt><trkpt lat="45.719648330568475" lon="9.758872277724938"><ele>435.40000000000003</ele><time>2026-03-29T14:33:07Z</time></trkpt><trkpt lat="45.71965391863525" lon="9.759038487902366"><ele>433.80000000000007</ele><time>2026-03-29T14:33:09Z</time></trkpt><trkpt lat="45.719632609313265" lon="9.759186726311185"><ele>432.2</ele><time>2026-03-29T14:33:11Z</time></trkpt><trkpt lat="45.71960621847619" lon="9.759341684997462"><ele>430.6</ele><time>2026-03-29T14:33:13Z</time></trkpt><trkpt lat="45.71957824844485" lon="9.75949848350455"><ele>429.0</ele><time>2026-03-29T14:33:15Z</time></trkpt><trkpt lat="45.7195460577501" lon="9.759666878407108"><ele>428.3333333333333</ele><time>2026-03-29T14:33:17Z</time></trkpt><trkpt lat="45.719529984175004" lon="9.759757942369744"><ele>427.66666666666663</ele><time>2026-03-29T14:33:18Z</time></trkpt><trkpt lat="45.71950082444111" lon="9.759936581995628"><ele>427.0</ele><time>2026-03-29T14:33:20Z</time></trkpt><trkpt lat="45.71948286967739" lon="9.760023136556343"><ele>426.3333333333333</ele><time>2026-03-29T14:33:21Z</time></trkpt><trkpt lat="45.719459290946915" lon="9.760110815038225"><ele>425.66666666666663</ele><time>2026-03-29T14:33:22Z</time></trkpt><trkpt lat="45.71941717984042" lon="9.760269163542082"><ele>425.0</ele><time>2026-03-29T14:33:24Z</time></trkpt><trkpt lat="45.719356040147" lon="9.760423695889413"><ele>420.75</ele><time>2026-03-29T14:33:26Z</time></trkpt><trkpt lat="45.71928880391134" lon="9.760567905011284"><ele>416.5</ele><time>2026-03-29T14:33:28Z</time></trkpt><trkpt lat="45.719208876749505" lon="9.760714139941603"><ele>412.25</ele><time>2026-03-29T14:33:30Z</time></trkpt><trkpt lat="45.71912296359875" lon="9.76084359506813"><ele>408.0</ele><time>2026-03-29T14:33:32Z</time></trkpt><trkpt lat="45.719043613099004" lon="9.760977286139038"><ele>407.0</ele><time>2026-03-29T14:33:34Z</time></trkpt><trkpt lat="45.7189868504831" lon="9.761119513221498"><ele>406.0</ele><time>2026-03-29T14:33:36Z</time></trkpt><trkpt lat="45.71896984540433" lon="9.761264844329776"><ele>405.0</ele><time>2026-03-29T14:33:38Z</time></trkpt><trkpt lat="45.71896876652462" lon="9.761447163238142"><ele>404.0</ele><time>2026-03-29T14:33:40Z</time></trkpt><trkpt lat="45.71897320653538" lon="9.761556751287053"><ele>403.0</ele><time>2026-03-29T14:33:41Z</time></trkpt><trkpt lat="45.71898344959602" lon="9.761661455667548"><ele>403.00000000000006</ele><time>2026-03-29T14:33:42Z</time></trkpt><trkpt lat="45.718995457758865" lon="9.761758587520386"><ele>403.0</ele><time>2026-03-29T14:33:43Z</time></trkpt><trkpt lat="45.718996735336766" lon="9.761902717121446"><ele>403.0</ele><time>2026-03-29T14:33:45Z</time></trkpt><trkpt lat="45.71899128122076" lon="9.762017977828114"><ele>403.0</ele><time>2026-03-29T14:33:47Z</time></trkpt><trkpt lat="45.71899642177664" lon="9.762117095649863"><ele>403.00000000000006</ele><time>2026-03-29T14:33:49Z</time></trkpt><trkpt lat="45.71900167914663" lon="9.762234374168955"><ele>403.0</ele><time>2026-03-29T14:33:52Z</time></trkpt><trkpt lat="45.71902885494195" lon="9.762340223135581"><ele>401.33333333333337</ele><time>2026-03-29T14:34:26Z</time></trkpt><trkpt lat="45.71901363484294" lon="9.762483339580188"><ele>399.6666666666667</ele><time>2026-03-29T14:34:28Z</time></trkpt><trkpt lat="45.71895558646499" lon="9.762630707446535"><ele>398.0</ele><time>2026-03-29T14:34:30Z</time></trkpt><trkpt lat="45.718919387215074" lon="9.762709103212316"><ele>396.33333333333337</ele><time>2026-03-29T14:34:31Z</time></trkpt><trkpt lat="45.718882426407" lon="9.762789216954445"><ele>394.6666666666667</ele><time>2026-03-29T14:34:32Z</time></trkpt><trkpt lat="45.71883587750708" lon="9.762866712636542"><ele>393.0</ele><time>2026-03-29T14:34:33Z</time></trkpt><trkpt lat="45.71879058300383" lon="9.762951059036215"><ele>392.0</ele><time>2026-03-29T14:34:34Z</time></trkpt><trkpt lat="45.71873960289876" lon="9.763034160223151"><ele>391.0</ele><time>2026-03-29T14:34:35Z</time></trkpt><trkpt lat="45.718682080823235" lon="9.763123868576784"><ele>390.0</ele><time>2026-03-29T14:34:36Z</time></trkpt><trkpt lat="45.718620990959856" lon="9.763219199659046"><ele>389.0</ele><time>2026-03-29T14:34:37Z</time></trkpt><trkpt lat="45.71856342881086" lon="9.76331779039401"><ele>388.0</ele><time>2026-03-29T14:34:38Z</time></trkpt><trkpt lat="45.718506987305304" lon="9.763407868391585"><ele>387.0</ele><time>2026-03-29T14:34:39Z</time></trkpt><trkpt lat="45.71844877337961" lon="9.763500709961976"><ele>386.40000000000003</ele><time>2026-03-29T14:34:40Z</time></trkpt><trkpt lat="45.71838298026806" lon="9.763590949913795"><ele>385.8</ele><time>2026-03-29T14:34:41Z</time></trkpt><trkpt lat="45.7183165387619" lon="9.763697113850974"><ele>385.2</ele><time>2026-03-29T14:34:42Z</time></trkpt><trkpt lat="45.7182481240681" lon="9.763800830671372"><ele>384.6</ele><time>2026-03-29T14:34:43Z</time></trkpt><trkpt lat="45.71818056516471" lon="9.76389919003614"><ele>384.0</ele><time>2026-03-29T14:34:44Z</time></trkpt><trkpt lat="45.71811302911187" lon="9.763998739813204"><ele>384.0</ele><time>2026-03-29T14:34:45Z</time></trkpt><trkpt lat="45.71805004491691" lon="9.76408871476371"><ele>384.0</ele><time>2026-03-29T14:34:46Z</time></trkpt><trkpt lat="45.71798702870363" lon="9.764183212867923"><ele>384.0</ele><time>2026-03-29T14:34:47Z</time></trkpt><trkpt lat="45.717926152186344" lon="9.764278176385726"><ele>384.0</ele><time>2026-03-29T14:34:48Z</time></trkpt><trkpt lat="45.71787162609632" lon="9.764376525015907"><ele>384.0</ele><time>2026-03-29T14:34:49Z</time></trkpt><trkpt lat="45.71781767706648" lon="9.764475971279976"><ele>384.0</ele><time>2026-03-29T14:34:50Z</time></trkpt><trkpt lat="45.71776590260299" lon="9.764577773780683"><ele>383.2</ele><time>2026-03-29T14:34:51Z</time></trkpt><trkpt lat="45.717711459435" lon="9.76467895575289"><ele>382.4</ele><time>2026-03-29T14:34:52Z</time></trkpt><trkpt lat="45.71765903655187" lon="9.764788048447597"><ele>381.6</ele><time>2026-03-29T14:34:53Z</time></trkpt><trkpt lat="45.71760234425167" lon="9.764896190930811"><ele>380.8</ele><time>2026-03-29T14:34:54Z</time></trkpt><trkpt lat="45.717548463208026" lon="9.765015752086766"><ele>380.0</ele><time>2026-03-29T14:34:55Z</time></trkpt><trkpt lat="45.71748990052336" lon="9.765141053963681"><ele>378.6666666666667</ele><time>2026-03-29T14:34:56Z</time></trkpt><trkpt lat="45.71744765642293" lon="9.765263166319532"><ele>377.33333333333337</ele><time>2026-03-29T14:34:57Z</time></trkpt><trkpt lat="45.717411300468335" lon="9.765367790158535"><ele>376.0</ele><time>2026-03-29T14:34:58Z</time></trkpt><trkpt lat="45.717374987644725" lon="9.765467511365792"><ele>374.6666666666667</ele><time>2026-03-29T14:34:59Z</time></trkpt><trkpt lat="45.71733647392233" lon="9.765576425116638"><ele>373.3333333333333</ele><time>2026-03-29T14:35:00Z</time></trkpt><trkpt lat="45.71729562512182" lon="9.765695519009803"><ele>372.0</ele><time>2026-03-29T14:35:01Z</time></trkpt><trkpt lat="45.71725571347524" lon="9.7658219683061"><ele>372.0</ele><time>2026-03-29T14:35:02Z</time></trkpt><trkpt lat="45.71722157686545" lon="9.765960785309867"><ele>372.0</ele><time>2026-03-29T14:35:03Z</time></trkpt><trkpt lat="45.7171842431111" lon="9.766104962626798"><ele>372.0</ele><time>2026-03-29T14:35:04Z</time></trkpt><trkpt lat="45.71714115606913" lon="9.766251575470395"><ele>372.0</ele><time>2026-03-29T14:35:05Z</time></trkpt><trkpt lat="45.7170989896998" lon="9.76639822380883"><ele>372.0</ele><time>2026-03-29T14:35:06Z</time></trkpt><trkpt lat="45.71706109491427" lon="9.766547187130259"><ele>369.8</ele><time>2026-03-29T14:35:07Z</time></trkpt><trkpt lat="45.71702834365805" lon="9.766694642699814"><ele>367.6</ele><time>2026-03-29T14:35:08Z</time></trkpt><trkpt lat="45.717000314015195" lon="9.766838207731757"><ele>365.40000000000003</ele><time>2026-03-29T14:35:09Z</time></trkpt><trkpt lat="45.71695692985296" lon="9.766990212971224"><ele>363.20000000000005</ele><time>2026-03-29T14:35:10Z</time></trkpt><trkpt lat="45.71691346887856" lon="9.76714902737371"><ele>361.0</ele><time>2026-03-29T14:35:11Z</time></trkpt><trkpt lat="45.71686708311408" lon="9.767307261192531"><ele>359.0</ele><time>2026-03-29T14:35:12Z</time></trkpt><trkpt lat="45.71682070678191" lon="9.767456670729194"><ele>357.0</ele><time>2026-03-29T14:35:13Z</time></trkpt><trkpt lat="45.71676057302953" lon="9.767609083592626"><ele>355.0</ele><time>2026-03-29T14:35:14Z</time></trkpt><trkpt lat="45.71669574011309" lon="9.767745508118168"><ele>353.0</ele><time>2026-03-29T14:35:15Z</time></trkpt><trkpt lat="45.71662795696427" lon="9.76788538306"><ele>352.79999999999995</ele><time>2026-03-29T14:35:16Z</time></trkpt><trkpt lat="45.71656814155208" lon="9.76801478974912"><ele>352.6</ele><time>2026-03-29T14:35:17Z</time></trkpt><trkpt lat="45.71651444419338" lon="9.76815148790543"><ele>352.4</ele><time>2026-03-29T14:35:18Z</time></trkpt><trkpt lat="45.71646185544947" lon="9.768290504866414"><ele>352.20000000000005</ele><time>2026-03-29T14:35:19Z</time></trkpt><trkpt lat="45.716419973115826" lon="9.76842654654957"><ele>352.0</ele><time>2026-03-29T14:35:20Z</time></trkpt><trkpt lat="45.7163844490735" lon="9.768565273379117"><ele>350.6</ele><time>2026-03-29T14:35:21Z</time></trkpt><trkpt lat="45.71636038031619" lon="9.768705330897891"><ele>349.20000000000005</ele><time>2026-03-29T14:35:22Z</time></trkpt><trkpt lat="45.71633849720234" lon="9.768852644521205"><ele>347.8</ele><time>2026-03-29T14:35:23Z</time></trkpt><trkpt lat="45.7163161004867" lon="9.76900557811437"><ele>346.4</ele><time>2026-03-29T14:35:24Z</time></trkpt><trkpt lat="45.71627510280417" lon="9.76915591975667"><ele>345.0</ele><time>2026-03-29T14:35:25Z</time></trkpt><trkpt lat="45.71622695266453" lon="9.769304182106751"><ele>344.25</ele><time>2026-03-29T14:35:26Z</time></trkpt><trkpt lat="45.71618002434281" lon="9.769457237709814"><ele>343.5</ele><time>2026-03-29T14:35:27Z</time></trkpt><trkpt lat="45.71613551409061" lon="9.769613813808775"><ele>342.75</ele><time>2026-03-29T14:35:28Z</time></trkpt><trkpt lat="45.71608866382731" lon="9.76977265323359"><ele>342.0</ele><time>2026-03-29T14:35:29Z</time></trkpt><trkpt lat="45.71605005112368" lon="9.769932438994825"><ele>342.0</ele><time>2026-03-29T14:35:30Z</time></trkpt><trkpt lat="45.71601656017806" lon="9.770095080943978"><ele>342.0</ele><time>2026-03-29T14:35:31Z</time></trkpt><trkpt lat="45.715984585703396" lon="9.770261813262094"><ele>342.0</ele><time>2026-03-29T14:35:32Z</time></trkpt><trkpt lat="45.71595471517803" lon="9.770412132347861"><ele>342.0</ele><time>2026-03-29T14:35:33Z</time></trkpt><trkpt lat="45.71592470893909" lon="9.770546152514548"><ele>342.0</ele><time>2026-03-29T14:35:34Z</time></trkpt><trkpt lat="45.715898158348594" lon="9.770686195648116"><ele>340.8</ele><time>2026-03-29T14:35:35Z</time></trkpt><trkpt lat="45.71586935189191" lon="9.770824784898661"><ele>339.6</ele><time>2026-03-29T14:35:36Z</time></trkpt><trkpt lat="45.71584406276883" lon="9.770967819578201"><ele>338.40000000000003</ele><time>2026-03-29T14:35:37Z</time></trkpt><trkpt lat="45.715820975621064" lon="9.771109819840694"><ele>337.20000000000005</ele><time>2026-03-29T14:35:38Z</time></trkpt><trkpt lat="45.71579488260544" lon="9.77124439383384"><ele>336.0</ele><time>2026-03-29T14:35:39Z</time></trkpt><trkpt lat="45.715762190842305" lon="9.771376854854848"><ele>335.20000000000005</ele><time>2026-03-29T14:35:40Z</time></trkpt><trkpt lat="45.71572391570135" lon="9.771502633356747"><ele>334.40000000000003</ele><time>2026-03-29T14:35:41Z</time></trkpt><trkpt lat="45.71568560038222" lon="9.771624439691942"><ele>333.6</ele><time>2026-03-29T14:35:42Z</time></trkpt><trkpt lat="45.7156509859282" lon="9.771746237597146"><ele>332.8</ele><time>2026-03-29T14:35:43Z</time></trkpt><trkpt lat="45.71562532035737" lon="9.771865020696312"><ele>332.0</ele><time>2026-03-29T14:35:44Z</time></trkpt><trkpt lat="45.71559780809193" lon="9.77198517393291"><ele>332.0</ele><time>2026-03-29T14:35:45Z</time></trkpt><trkpt lat="45.71556925847301" lon="9.772099022553842"><ele>332.0</ele><time>2026-03-29T14:35:46Z</time></trkpt><trkpt lat="45.715538689864985" lon="9.772213668750426"><ele>332.0</ele><time>2026-03-29T14:35:47Z</time></trkpt><trkpt lat="45.71550872203347" lon="9.77232688435487"><ele>332.0</ele><time>2026-03-29T14:35:48Z</time></trkpt><trkpt lat="45.71548270135078" lon="9.772441225195426"><ele>332.0</ele><time>2026-03-29T14:35:49Z</time></trkpt><trkpt lat="45.71545532637815" lon="9.772539582242986"><ele>332.0</ele><time>2026-03-29T14:35:50Z</time></trkpt><trkpt lat="45.71542718992982" lon="9.772637665882652"><ele>331.6666666666667</ele><time>2026-03-29T14:35:51Z</time></trkpt><trkpt lat="45.71540116423539" lon="9.77274044202167"><ele>331.33333333333337</ele><time>2026-03-29T14:35:52Z</time></trkpt><trkpt lat="45.71537676041496" lon="9.77282527491148"><ele>331.0</ele><time>2026-03-29T14:35:53Z</time></trkpt><trkpt lat="45.7153296417026" lon="9.772969427940755"><ele>330.6666666666667</ele><time>2026-03-29T14:35:55Z</time></trkpt><trkpt lat="45.71527029792803" lon="9.773043937452398"><ele>330.3333333333333</ele><time>2026-03-29T14:35:57Z</time></trkpt><trkpt lat="45.71519856521143" lon="9.773156219060896"><ele>330.0</ele><time>2026-03-29T14:35:59Z</time></trkpt><trkpt lat="45.71518882597279" lon="9.773246974002928"><ele>330.0</ele><time>2026-03-29T14:36:00Z</time></trkpt><trkpt lat="45.71519865056569" lon="9.77334458524534"><ele>330.0</ele><time>2026-03-29T14:36:01Z</time></trkpt><trkpt lat="45.715216566611794" lon="9.773433507106459"><ele>330.0</ele><time>2026-03-29T14:36:02Z</time></trkpt><trkpt lat="45.7152436395023" lon="9.77351577857579"><ele>330.0</ele><time>2026-03-29T14:36:03Z</time></trkpt><trkpt lat="45.715280639553725" lon="9.773591707669489"><ele>330.0</ele><time>2026-03-29T14:36:04Z</time></trkpt><trkpt lat="45.71537139610391" lon="9.773721529767222"><ele>330.0</ele><time>2026-03-29T14:36:06Z</time></trkpt><trkpt lat="45.71541970576822" lon="9.773790275008365"><ele>329.8333333333333</ele><time>2026-03-29T14:36:07Z</time></trkpt><trkpt lat="45.715470413906765" lon="9.773862413509098"><ele>329.6666666666667</ele><time>2026-03-29T14:36:08Z</time></trkpt><trkpt lat="45.71552164069827" lon="9.77393917803542"><ele>329.5</ele><time>2026-03-29T14:36:09Z</time></trkpt><trkpt lat="45.715578601677045" lon="9.774017524247231"><ele>329.33333333333337</ele><time>2026-03-29T14:36:10Z</time></trkpt><trkpt lat="45.715639217243" lon="9.774094775969528"><ele>329.1666666666667</ele><time>2026-03-29T14:36:11Z</time></trkpt><trkpt lat="45.715703484092906" lon="9.774180540852958"><ele>329.0</ele><time>2026-03-29T14:36:12Z</time></trkpt><trkpt lat="45.715763650885236" lon="9.774269477552055"><ele>329.0</ele><time>2026-03-29T14:36:13Z</time></trkpt><trkpt lat="45.7158229903436" lon="9.774354008340191"><ele>329.0</ele><time>2026-03-29T14:36:14Z</time></trkpt><trkpt lat="45.715886802159254" lon="9.774441414410683"><ele>329.0</ele><time>2026-03-29T14:36:15Z</time></trkpt><trkpt lat="45.7159501049827" lon="9.774532178474166"><ele>329.0</ele><time>2026-03-29T14:36:16Z</time></trkpt><trkpt lat="45.71601078415814" lon="9.774622253861521"><ele>329.0</ele><time>2026-03-29T14:36:17Z</time></trkpt><trkpt lat="45.71607787215044" lon="9.7747172660597"><ele>329.0</ele><time>2026-03-29T14:36:18Z</time></trkpt><trkpt lat="45.71614548680297" lon="9.774802150136118"><ele>330.1666666666667</ele><time>2026-03-29T14:36:19Z</time></trkpt><trkpt lat="45.716202197648514" lon="9.774881729373682"><ele>331.33333333333337</ele><time>2026-03-29T14:36:20Z</time></trkpt><trkpt lat="45.71624870112058" lon="9.77498633968635"><ele>332.5</ele><time>2026-03-29T14:36:21Z</time></trkpt><trkpt lat="45.71628686509092" lon="9.775081625791397"><ele>333.6666666666667</ele><time>2026-03-29T14:36:22Z</time></trkpt><trkpt lat="45.71631758361368" lon="9.775179246167015"><ele>334.8333333333333</ele><time>2026-03-29T14:36:23Z</time></trkpt><trkpt lat="45.71633272459101" lon="9.775280809408459"><ele>336.0</ele><time>2026-03-29T14:36:24Z</time></trkpt><trkpt lat="45.716331559435616" lon="9.775378963028682"><ele>336.8</ele><time>2026-03-29T14:36:25Z</time></trkpt><trkpt lat="45.71632072109468" lon="9.775471535657"><ele>337.6</ele><time>2026-03-29T14:36:26Z</time></trkpt><trkpt lat="45.71630535437944" lon="9.775643696140353"><ele>338.4</ele><time>2026-03-29T14:36:28Z</time></trkpt><trkpt lat="45.71628054227911" lon="9.77581518478453"><ele>339.2</ele><time>2026-03-29T14:36:30Z</time></trkpt><trkpt lat="45.71626102217867" lon="9.775992254301917"><ele>340.0</ele><time>2026-03-29T14:36:32Z</time></trkpt><trkpt lat="45.71624439552617" lon="9.776170556122551"><ele>340.2</ele><time>2026-03-29T14:36:34Z</time></trkpt><trkpt lat="45.71622955771408" lon="9.77634908790332"><ele>340.4</ele><time>2026-03-29T14:36:36Z</time></trkpt><trkpt lat="45.716203112981745" lon="9.776519273098806"><ele>340.6</ele><time>2026-03-29T14:36:38Z</time></trkpt><trkpt lat="45.716188234638125" lon="9.776610189191535"><ele>340.8</ele><time>2026-03-29T14:36:39Z</time></trkpt><trkpt lat="45.71615893121416" lon="9.7767872900259"><ele>341.0</ele><time>2026-03-29T14:36:41Z</time></trkpt><trkpt lat="45.7161454675669" lon="9.77696558726674"><ele>341.0</ele><time>2026-03-29T14:36:43Z</time></trkpt><trkpt lat="45.7161445034967" lon="9.777141866014716"><ele>341.0</ele><time>2026-03-29T14:36:45Z</time></trkpt><trkpt lat="45.71616896664356" lon="9.777311066257578"><ele>341.0</ele><time>2026-03-29T14:36:47Z</time></trkpt><trkpt lat="45.71622399106141" lon="9.77746576229906"><ele>341.0</ele><time>2026-03-29T14:36:49Z</time></trkpt><trkpt lat="45.71628479476739" lon="9.777606947771762"><ele>340.8</ele><time>2026-03-29T14:36:51Z</time></trkpt><trkpt lat="45.71635340263421" lon="9.777733378923058"><ele>340.6</ele><time>2026-03-29T14:36:53Z</time></trkpt><trkpt lat="45.716414899185544" lon="9.777859063887455"><ele>340.4</ele><time>2026-03-29T14:36:55Z</time></trkpt><trkpt lat="45.71647637447769" lon="9.777983628532356"><ele>340.2</ele><time>2026-03-29T14:36:57Z</time></trkpt><trkpt lat="45.71653326947207" lon="9.778106946058736"><ele>340.0</ele><time>2026-03-29T14:36:59Z</time></trkpt><trkpt lat="45.716597072704495" lon="9.778224240480693"><ele>340.0</ele><time>2026-03-29T14:37:01Z</time></trkpt><trkpt lat="45.716670769690026" lon="9.778339941587863"><ele>340.0</ele><time>2026-03-29T14:37:03Z</time></trkpt><trkpt lat="45.71674352118428" lon="9.778450398066731"><ele>340.0</ele><time>2026-03-29T14:37:05Z</time></trkpt><trkpt lat="45.71682827444898" lon="9.778544303602525"><ele>340.0</ele><time>2026-03-29T14:37:07Z</time></trkpt><trkpt lat="45.71691629958187" lon="9.778624526831772"><ele>340.0</ele><time>2026-03-29T14:37:09Z</time></trkpt><trkpt lat="45.71701002847596" lon="9.778693745514044"><ele>342.4</ele><time>2026-03-29T14:37:11Z</time></trkpt><trkpt lat="45.71711244160772" lon="9.778744170203444"><ele>344.8</ele><time>2026-03-29T14:37:13Z</time></trkpt><trkpt lat="45.71721446795793" lon="9.778796259297573"><ele>347.20000000000005</ele><time>2026-03-29T14:37:15Z</time></trkpt><trkpt lat="45.7173148853283" lon="9.778842344590592"><ele>349.6</ele><time>2026-03-29T14:37:17Z</time></trkpt><trkpt lat="45.717419237738696" lon="9.778887337850582"><ele>352.0</ele><time>2026-03-29T14:37:19Z</time></trkpt><trkpt lat="45.71752645548785" lon="9.778916447325853"><ele>352.0</ele><time>2026-03-29T14:37:21Z</time></trkpt><trkpt lat="45.71763575031014" lon="9.778919526713004"><ele>352.0</ele><time>2026-03-29T14:37:23Z</time></trkpt><trkpt lat="45.71774131966436" lon="9.778937687478784"><ele>352.0</ele><time>2026-03-29T14:37:25Z</time></trkpt><trkpt lat="45.71784530938834" lon="9.778943629471621"><ele>352.0</ele><time>2026-03-29T14:37:27Z</time></trkpt><trkpt lat="45.71794434965484" lon="9.77895170463248"><ele>352.0</ele><time>2026-03-29T14:37:29Z</time></trkpt><trkpt lat="45.71805024681862" lon="9.778967001021847"><ele>353.8</ele><time>2026-03-29T14:37:31Z</time></trkpt><trkpt lat="45.71815158195313" lon="9.778959842677326"><ele>355.6</ele><time>2026-03-29T14:37:33Z</time></trkpt><trkpt lat="45.71825459710926" lon="9.778947919891777"><ele>357.40000000000003</ele><time>2026-03-29T14:37:35Z</time></trkpt><trkpt lat="45.718352300922334" lon="9.7789058194406"><ele>359.20000000000005</ele><time>2026-03-29T14:37:37Z</time></trkpt><trkpt lat="45.71844594058192" lon="9.778846323251623"><ele>361.0</ele><time>2026-03-29T14:37:39Z</time></trkpt><trkpt lat="45.7185425202419" lon="9.778792297881788"><ele>364.4</ele><time>2026-03-29T14:37:41Z</time></trkpt><trkpt lat="45.71863228210364" lon="9.77875606090841"><ele>367.8</ele><time>2026-03-29T14:37:43Z</time></trkpt><trkpt lat="45.71872410883193" lon="9.778717714614997"><ele>371.2</ele><time>2026-03-29T14:37:45Z</time></trkpt><trkpt lat="45.7187945560423" lon="9.778698348940637"><ele>374.59999999999997</ele><time>2026-03-29T14:37:47Z</time></trkpt><trkpt lat="45.718876442362635" lon="9.778643612660021"><ele>378.0</ele><time>2026-03-29T14:37:49Z</time></trkpt><trkpt lat="45.718965682727344" lon="9.778566451643107"><ele>378.0</ele><time>2026-03-29T14:37:51Z</time></trkpt><trkpt lat="45.719060793237276" lon="9.778521922423273"><ele>378.0</ele><time>2026-03-29T14:37:53Z</time></trkpt><trkpt lat="45.719153682375676" lon="9.778481043538395"><ele>378.0</ele><time>2026-03-29T14:37:55Z</time></trkpt><trkpt lat="45.71925451297241" lon="9.77843829066057"><ele>378.0</ele><time>2026-03-29T14:37:57Z</time></trkpt><trkpt lat="45.7193493289671" lon="9.778395229539944"><ele>378.0</ele><time>2026-03-29T14:37:59Z</time></trkpt><trkpt lat="45.71944922739373" lon="9.778372191082402"><ele>376.79999999999995</ele><time>2026-03-29T14:38:01Z</time></trkpt><trkpt lat="45.71954664155982" lon="9.7783560556647"><ele>375.6</ele><time>2026-03-29T14:38:03Z</time></trkpt><trkpt lat="45.719648165289634" lon="9.778367347568755"><ele>374.4</ele><time>2026-03-29T14:38:05Z</time></trkpt><trkpt lat="45.71974313692385" lon="9.778370735106305"><ele>373.20000000000005</ele><time>2026-03-29T14:38:07Z</time></trkpt><trkpt lat="45.71983366012274" lon="9.778398570450117"><ele>372.0</ele><time>2026-03-29T14:38:09Z</time></trkpt><trkpt lat="45.71992509713033" lon="9.778437376021703"><ele>372.0</ele><time>2026-03-29T14:38:11Z</time></trkpt><trkpt lat="45.72001416408202" lon="9.778478195379753"><ele>372.0</ele><time>2026-03-29T14:38:13Z</time></trkpt><trkpt lat="45.72010245122701" lon="9.77851269496114"><ele>372.0</ele><time>2026-03-29T14:38:15Z</time></trkpt><trkpt lat="45.72018772854446" lon="9.77854172205888"><ele>372.0</ele><time>2026-03-29T14:38:17Z</time></trkpt><trkpt lat="45.72027522009787" lon="9.778581486247287"><ele>372.0</ele><time>2026-03-29T14:38:19Z</time></trkpt><trkpt lat="45.72035806959884" lon="9.77861922633957"><ele>375.6666666666667</ele><time>2026-03-29T14:38:21Z</time></trkpt><trkpt lat="45.720437998216646" lon="9.778657783763231"><ele>379.33333333333337</ele><time>2026-03-29T14:38:23Z</time></trkpt><trkpt lat="45.72052091500317" lon="9.778686251220249"><ele>383.0</ele><time>2026-03-29T14:38:25Z</time></trkpt><trkpt lat="45.72060807320146" lon="9.778722508892269"><ele>386.6666666666667</ele><time>2026-03-29T14:38:27Z</time></trkpt><trkpt lat="45.720690161368736" lon="9.778752676367867"><ele>390.33333333333337</ele><time>2026-03-29T14:38:29Z</time></trkpt><trkpt lat="45.720772140292894" lon="9.778766099918991"><ele>394.0</ele><time>2026-03-29T14:38:31Z</time></trkpt><trkpt lat="45.720860307666" lon="9.778763318302111"><ele>394.00000000000006</ele><time>2026-03-29T14:38:33Z</time></trkpt><trkpt lat="45.720944150505225" lon="9.778758227968792"><ele>394.0</ele><time>2026-03-29T14:38:35Z</time></trkpt><trkpt lat="45.7210275507689" lon="9.778770419737759"><ele>394.0</ele><time>2026-03-29T14:38:37Z</time></trkpt><trkpt lat="45.72110985801588" lon="9.778761640701862"><ele>394.0</ele><time>2026-03-29T14:38:39Z</time></trkpt><trkpt lat="45.721193871039375" lon="9.778746632114965"><ele>394.00000000000006</ele><time>2026-03-29T14:38:41Z</time></trkpt><trkpt lat="45.721287741496894" lon="9.778736571029926"><ele>394.0</ele><time>2026-03-29T14:38:43Z</time></trkpt><trkpt lat="45.72137419718929" lon="9.77875737217458"><ele>396.00000000000006</ele><time>2026-03-29T14:38:45Z</time></trkpt><trkpt lat="45.72145956103509" lon="9.778751666684148"><ele>398.0</ele><time>2026-03-29T14:38:47Z</time></trkpt><trkpt lat="45.72155016269044" lon="9.778738729568309"><ele>400.0</ele><time>2026-03-29T14:38:49Z</time></trkpt><trkpt lat="45.72163705180286" lon="9.778740701784495"><ele>402.0</ele><time>2026-03-29T14:38:51Z</time></trkpt><trkpt lat="45.72172605384872" lon="9.778737403267383"><ele>404.00000000000006</ele><time>2026-03-29T14:38:53Z</time></trkpt><trkpt lat="45.721820017444486" lon="9.778738296108461"><ele>406.0</ele><time>2026-03-29T14:38:55Z</time></trkpt><trkpt lat="45.72190817004608" lon="9.778728806741618"><ele>408.4</ele><time>2026-03-29T14:38:57Z</time></trkpt><trkpt lat="45.72199307017468" lon="9.778729241352211"><ele>410.8</ele><time>2026-03-29T14:38:59Z</time></trkpt><trkpt lat="45.72208430779586" lon="9.778714999794063"><ele>413.2</ele><time>2026-03-29T14:39:01Z</time></trkpt><trkpt lat="45.72218243618031" lon="9.778697945763984"><ele>415.59999999999997</ele><time>2026-03-29T14:39:03Z</time></trkpt><trkpt lat="45.72226653217362" lon="9.778724563504245"><ele>418.0</ele><time>2026-03-29T14:39:05Z</time></trkpt><trkpt lat="45.72225281067733" lon="9.778859317246239"><ele>418.0</ele><time>2026-03-29T14:39:07Z</time></trkpt><trkpt lat="45.72215416559218" lon="9.778908061745465"><ele>418.0</ele><time>2026-03-29T14:39:09Z</time></trkpt><trkpt lat="45.72206905772801" lon="9.778953677802237"><ele>418.0</ele><time>2026-03-29T14:39:11Z</time></trkpt><trkpt lat="45.721991482967184" lon="9.779012058711956"><ele>418.0</ele><time>2026-03-29T14:39:13Z</time></trkpt><trkpt lat="45.72192206057388" lon="9.779078191551463"><ele>418.0</ele><time>2026-03-29T14:39:15Z</time></trkpt><trkpt lat="45.72184867916331" lon="9.779135521681026"><ele>417.83333333333337</ele><time>2026-03-29T14:39:17Z</time></trkpt><trkpt lat="45.72178612766034" lon="9.779209713919823"><ele>417.6666666666667</ele><time>2026-03-29T14:39:19Z</time></trkpt><trkpt lat="45.72171527165304" lon="9.779286271384398"><ele>417.5</ele><time>2026-03-29T14:39:21Z</time></trkpt><trkpt lat="45.721647065198745" lon="9.779353523651615"><ele>417.33333333333337</ele><time>2026-03-29T14:39:23Z</time></trkpt><trkpt lat="45.72158017962073" lon="9.77941585924267"><ele>417.1666666666667</ele><time>2026-03-29T14:39:25Z</time></trkpt><trkpt lat="45.72151289891329" lon="9.779485269629438"><ele>417.0</ele><time>2026-03-29T14:39:27Z</time></trkpt><trkpt lat="45.721448161756385" lon="9.77955341149162"><ele>417.0</ele><time>2026-03-29T14:39:29Z</time></trkpt><trkpt lat="45.721380589814046" lon="9.779616014710319"><ele>417.0</ele><time>2026-03-29T14:39:31Z</time></trkpt><trkpt lat="45.72131348096378" lon="9.779680064599962"><ele>417.0</ele><time>2026-03-29T14:39:33Z</time></trkpt><trkpt lat="45.721255533265776" lon="9.779760147273082"><ele>417.0</ele><time>2026-03-29T14:39:35Z</time></trkpt><trkpt lat="45.72121304918619" lon="9.779860676881524"><ele>417.0</ele><time>2026-03-29T14:39:37Z</time></trkpt><trkpt lat="45.7212273033277" lon="9.779987496250863"><ele>417.0</ele><time>2026-03-29T14:39:39Z</time></trkpt><trkpt lat="45.72129860882994" lon="9.780080210461962"><ele>417.0</ele><time>2026-03-29T14:39:41Z</time></trkpt><trkpt lat="45.72137386801822" lon="9.780150611688724"><ele>417.0</ele><time>2026-03-29T14:39:43Z</time></trkpt><trkpt lat="45.72145048738247" lon="9.780215121927396"><ele>417.0</ele><time>2026-03-29T14:39:45Z</time></trkpt><trkpt lat="45.72152929138964" lon="9.78026972051862"><ele>417.0</ele><time>2026-03-29T14:39:47Z</time></trkpt><trkpt lat="45.72161449505831" lon="9.780300408345042"><ele>417.0</ele><time>2026-03-29T14:39:49Z</time></trkpt><trkpt lat="45.72170524730514" lon="9.780297964206628"><ele>417.0</ele><time>2026-03-29T14:39:51Z</time></trkpt><trkpt lat="45.721786074205355" lon="9.780242535734462"><ele>417.0</ele><time>2026-03-29T14:39:53Z</time></trkpt><trkpt lat="45.72185430780763" lon="9.780151781259647"><ele>417.0</ele><time>2026-03-29T14:39:55Z</time></trkpt><trkpt lat="45.72191775499107" lon="9.78006224496035"><ele>417.0</ele><time>2026-03-29T14:39:57Z</time></trkpt><trkpt lat="45.72199027961494" lon="9.779982920982254"><ele>417.0</ele><time>2026-03-29T14:39:59Z</time></trkpt><trkpt lat="45.722081347828144" lon="9.779925786450855"><ele>417.0</ele><time>2026-03-29T14:40:01Z</time></trkpt><trkpt lat="45.72217167836793" lon="9.779884930486908"><ele>419.6</ele><time>2026-03-29T14:40:03Z</time></trkpt><trkpt lat="45.72225632235717" lon="9.779863143932669"><ele>422.20000000000005</ele><time>2026-03-29T14:40:05Z</time></trkpt><trkpt lat="45.72235505892016" lon="9.779890649186749"><ele>424.8</ele><time>2026-03-29T14:40:07Z</time></trkpt><trkpt lat="45.72245216131347" lon="9.779939249992612"><ele>427.4</ele><time>2026-03-29T14:40:09Z</time></trkpt><trkpt lat="45.722533257802844" lon="9.779998536756647"><ele>430.0</ele><time>2026-03-29T14:40:11Z</time></trkpt><trkpt lat="45.722605615433494" lon="9.780056356158928"><ele>430.00000000000006</ele><time>2026-03-29T14:40:13Z</time></trkpt><trkpt lat="45.722677617659336" lon="9.780113382967054"><ele>430.0</ele><time>2026-03-29T14:40:15Z</time></trkpt><trkpt lat="45.722754861369786" lon="9.780167670482111"><ele>430.0</ele><time>2026-03-29T14:40:17Z</time></trkpt><trkpt lat="45.72284020541064" lon="9.780209364547742"><ele>430.0</ele><time>2026-03-29T14:40:19Z</time></trkpt><trkpt lat="45.72292345091014" lon="9.780252978397609"><ele>430.00000000000006</ele><time>2026-03-29T14:40:21Z</time></trkpt><trkpt lat="45.72301158501346" lon="9.780282158651156"><ele>430.0</ele><time>2026-03-29T14:40:23Z</time></trkpt><trkpt lat="45.723099368448366" lon="9.780292588498607"><ele>430.50000000000006</ele><time>2026-03-29T14:40:25Z</time></trkpt><trkpt lat="45.723184289177716" lon="9.78029819053496"><ele>431.0</ele><time>2026-03-29T14:40:27Z</time></trkpt><trkpt lat="45.72327076843972" lon="9.780303153947182"><ele>431.5</ele><time>2026-03-29T14:40:29Z</time></trkpt><trkpt lat="45.723347909300074" lon="9.780297848902203"><ele>432.0</ele><time>2026-03-29T14:40:31Z</time></trkpt><trkpt lat="45.723422493437745" lon="9.780279151418169"><ele>432.50000000000006</ele><time>2026-03-29T14:40:33Z</time></trkpt><trkpt lat="45.72349244987254" lon="9.780235200957598"><ele>433.0</ele><time>2026-03-29T14:40:35Z</time></trkpt><trkpt lat="45.7235761794633" lon="9.780197990142325"><ele>437.83333333333337</ele><time>2026-03-29T14:40:37Z</time></trkpt><trkpt lat="45.7236443020696" lon="9.780117895412603"><ele>442.6666666666667</ele><time>2026-03-29T14:40:39Z</time></trkpt><trkpt lat="45.723716308344095" lon="9.780030997645492"><ele>447.5</ele><time>2026-03-29T14:40:41Z</time></trkpt><trkpt lat="45.723800182446" lon="9.779973042718236"><ele>452.33333333333337</ele><time>2026-03-29T14:40:43Z</time></trkpt><trkpt lat="45.72388268049227" lon="9.779960399710472"><ele>457.1666666666667</ele><time>2026-03-29T14:40:45Z</time></trkpt><trkpt lat="45.72396393657761" lon="9.779940663064602"><ele>462.0</ele><time>2026-03-29T14:40:47Z</time></trkpt><trkpt lat="45.724036817882606" lon="9.78000271926779"><ele>462.0</ele><time>2026-03-29T14:40:49Z</time></trkpt><trkpt lat="45.724094555866394" lon="9.780104537048972"><ele>462.0</ele><time>2026-03-29T14:40:51Z</time></trkpt><trkpt lat="45.7241659301809" lon="9.78018862585932"><ele>462.0</ele><time>2026-03-29T14:40:53Z</time></trkpt><trkpt lat="45.724232865075244" lon="9.780272833425729"><ele>462.0</ele><time>2026-03-29T14:40:55Z</time></trkpt><trkpt lat="45.72428533348262" lon="9.780369216632531"><ele>462.0</ele><time>2026-03-29T14:40:57Z</time></trkpt><trkpt lat="45.724336595345385" lon="9.7804544436829"><ele>462.0</ele><time>2026-03-29T14:40:59Z</time></trkpt><trkpt lat="45.72439497350901" lon="9.78050163558482"><ele>465.6666666666667</ele><time>2026-03-29T14:41:01Z</time></trkpt><trkpt lat="45.724473266621146" lon="9.780559005798871"><ele>469.33333333333337</ele><time>2026-03-29T14:41:03Z</time></trkpt><trkpt lat="45.72455015137859" lon="9.78060939796052"><ele>473.0</ele><time>2026-03-29T14:41:05Z</time></trkpt><trkpt lat="45.72462183098203" lon="9.780669641683215"><ele>476.6666666666667</ele><time>2026-03-29T14:41:07Z</time></trkpt><trkpt lat="45.72469214565071" lon="9.780729638185516"><ele>480.33333333333337</ele><time>2026-03-29T14:41:09Z</time></trkpt><trkpt lat="45.72476097446892" lon="9.780781302168197"><ele>484.0</ele><time>2026-03-29T14:41:11Z</time></trkpt><trkpt lat="45.724832166992236" lon="9.780837323573648"><ele>484.0</ele><time>2026-03-29T14:41:13Z</time></trkpt><trkpt lat="45.72489545788031" lon="9.780906348190001"><ele>483.99999999999994</ele><time>2026-03-29T14:41:15Z</time></trkpt><trkpt lat="45.7249504166567" lon="9.780972914026089"><ele>484.0</ele><time>2026-03-29T14:41:17Z</time></trkpt><trkpt lat="45.72499898479297" lon="9.781043657385707"><ele>484.0</ele><time>2026-03-29T14:41:19Z</time></trkpt><trkpt lat="45.72503101009657" lon="9.781131799064871"><ele>483.99999999999994</ele><time>2026-03-29T14:41:21Z</time></trkpt><trkpt lat="45.7250681174545" lon="9.781216883167295"><ele>484.0</ele><time>2026-03-29T14:41:23Z</time></trkpt><trkpt lat="45.72510437328595" lon="9.781295136676414"><ele>484.0</ele><time>2026-03-29T14:41:25Z</time></trkpt><trkpt lat="45.72513602937556" lon="9.781410893960677"><ele>483.33333333333337</ele><time>2026-03-29T14:41:28Z</time></trkpt><trkpt lat="45.72516288529248" lon="9.781521820166613"><ele>482.6666666666667</ele><time>2026-03-29T14:41:31Z</time></trkpt><trkpt lat="45.72525326521678" lon="9.781532850812006"><ele>482.0</ele><time>2026-03-29T14:41:34Z</time></trkpt><trkpt lat="45.72528037051145" lon="9.781425494416112"><ele>481.33333333333337</ele><time>2026-03-29T14:41:36Z</time></trkpt><trkpt lat="45.72525715176181" lon="9.78130154861495"><ele>480.6666666666667</ele><time>2026-03-29T14:41:39Z</time></trkpt><trkpt lat="45.72523909249759" lon="9.781188793667148"><ele>480.0</ele><time>2026-03-29T14:41:42Z</time></trkpt><trkpt lat="45.72522824647707" lon="9.781076502050253"><ele>480.6666666666667</ele><time>2026-03-29T14:41:45Z</time></trkpt><trkpt lat="45.72520985902083" lon="9.780969438242382"><ele>481.33333333333337</ele><time>2026-03-29T14:41:47Z</time></trkpt><trkpt lat="45.72517787447531" lon="9.780881861729318"><ele>482.0</ele><time>2026-03-29T14:41:49Z</time></trkpt><trkpt lat="45.725146036085086" lon="9.7807806512727"><ele>482.6666666666667</ele><time>2026-03-29T14:41:51Z</time></trkpt><trkpt lat="45.725111729387116" lon="9.780668557738553"><ele>483.33333333333337</ele><time>2026-03-29T14:41:54Z</time></trkpt><trkpt lat="45.72507823700051" lon="9.780562209366025"><ele>484.0</ele><time>2026-03-29T14:41:56Z</time></trkpt><trkpt lat="45.72505791309509" lon="9.780465669950582"><ele>484.0</ele><time>2026-03-29T14:41:58Z</time></trkpt><trkpt lat="45.725032822006845" lon="9.780368172372095"><ele>483.99999999999994</ele><time>2026-03-29T14:42:00Z</time></trkpt><trkpt lat="45.725026771895216" lon="9.780268424932494"><ele>484.0</ele><time>2026-03-29T14:42:02Z</time></trkpt><trkpt lat="45.72503368599554" lon="9.780165980782558"><ele>484.0</ele><time>2026-03-29T14:42:04Z</time></trkpt><trkpt lat="45.725060572919716" lon="9.780077104111404"><ele>483.99999999999994</ele><time>2026-03-29T14:42:06Z</time></trkpt><trkpt lat="45.72509512435" lon="9.77998530068553"><ele>484.0</ele><time>2026-03-29T14:42:08Z</time></trkpt><trkpt lat="45.72513069317231" lon="9.779910007851216"><ele>484.0</ele><time>2026-03-29T14:42:10Z</time></trkpt><trkpt lat="45.72517829007386" lon="9.779842545436463"><ele>484.71428571428567</ele><time>2026-03-29T14:42:12Z</time></trkpt><trkpt lat="45.725216434446466" lon="9.779759281230564"><ele>485.4285714285714</ele><time>2026-03-29T14:42:14Z</time></trkpt><trkpt lat="45.725276344458685" lon="9.779704705548353"><ele>486.1428571428571</ele><time>2026-03-29T14:42:16Z</time></trkpt><trkpt lat="45.725324418892754" lon="9.779640464844785"><ele>486.8571428571429</ele><time>2026-03-29T14:42:18Z</time></trkpt><trkpt lat="45.72539682414304" lon="9.779555949055517"><ele>487.5714285714286</ele><time>2026-03-29T14:42:21Z</time></trkpt><trkpt lat="45.725451893907454" lon="9.779503805268163"><ele>488.28571428571433</ele><time>2026-03-29T14:42:23Z</time></trkpt><trkpt lat="45.72551447175899" lon="9.779473309034037"><ele>489.0</ele><time>2026-03-29T14:42:25Z</time></trkpt><trkpt lat="45.72559392570655" lon="9.779434917087931"><ele>494.28571428571433</ele><time>2026-03-29T14:42:28Z</time></trkpt><trkpt lat="45.72567177842916" lon="9.779390962618207"><ele>499.5714285714286</ele><time>2026-03-29T14:42:31Z</time></trkpt><trkpt lat="45.72574838249996" lon="9.77940955036912"><ele>504.8571428571429</ele><time>2026-03-29T14:42:34Z</time></trkpt><trkpt lat="45.72573161719704" lon="9.779523560744332"><ele>510.1428571428571</ele><time>2026-03-29T14:42:36Z</time></trkpt><trkpt lat="45.725661972264305" lon="9.779550498012064"><ele>515.4285714285713</ele><time>2026-03-29T14:42:38Z</time></trkpt><trkpt lat="45.72560072111741" lon="9.779581168497652"><ele>520.7142857142857</ele><time>2026-03-29T14:42:40Z</time></trkpt><trkpt lat="45.725546584194944" lon="9.779632204245452"><ele>526.0</ele><time>2026-03-29T14:42:42Z</time></trkpt><trkpt lat="45.72550776795866" lon="9.779703661593011"><ele>526.0</ele><time>2026-03-29T14:42:44Z</time></trkpt><trkpt lat="45.72547223969112" lon="9.779785044695057"><ele>526.0</ele><time>2026-03-29T14:42:46Z</time></trkpt><trkpt lat="45.72544950431681" lon="9.779879351980247"><ele>526.0</ele><time>2026-03-29T14:42:48Z</time></trkpt><trkpt lat="45.725496167318084" lon="9.779957003228654"><ele>526.0</ele><time>2026-03-29T14:42:50Z</time></trkpt><trkpt lat="45.72559534733986" lon="9.779934603608382"><ele>526.0</ele><time>2026-03-29T14:42:52Z</time></trkpt><trkpt lat="45.72565972931814" lon="9.77983975161304"><ele>526.0</ele><time>2026-03-29T14:42:54Z</time></trkpt><trkpt lat="45.725717635143134" lon="9.779768438575257"><ele>526.0</ele><time>2026-03-29T14:42:56Z</time></trkpt><trkpt lat="45.72577913525369" lon="9.779712571948902"><ele>526.0</ele><time>2026-03-29T14:42:58Z</time></trkpt><trkpt lat="45.72583645710332" lon="9.779661499313809"><ele>526.0</ele><time>2026-03-29T14:43:00Z</time></trkpt><trkpt lat="45.725900830714075" lon="9.779632109866553"><ele>526.0</ele><time>2026-03-29T14:43:02Z</time></trkpt><trkpt lat="45.72598337390877" lon="9.779593964009566"><ele>526.0</ele><time>2026-03-29T14:43:05Z</time></trkpt><trkpt lat="45.72607032253294" lon="9.779541568752546"><ele>526.0</ele><time>2026-03-29T14:43:08Z</time></trkpt><trkpt lat="45.72613167499479" lon="9.779518561763275"><ele>534.1666666666667</ele><time>2026-03-29T14:43:10Z</time></trkpt><trkpt lat="45.7262183410857" lon="9.779478684663417"><ele>542.3333333333334</ele><time>2026-03-29T14:43:13Z</time></trkpt><trkpt lat="45.7262990694082" lon="9.779434638254683"><ele>550.5</ele><time>2026-03-29T14:43:16Z</time></trkpt><trkpt lat="45.726366940564006" lon="9.779367274113223"><ele>558.6666666666666</ele><time>2026-03-29T14:43:19Z</time></trkpt><trkpt lat="45.72643095358583" lon="9.779401238674115"><ele>566.8333333333333</ele><time>2026-03-29T14:43:22Z</time></trkpt><trkpt lat="45.72638362522841" lon="9.77950003146134"><ele>575.0</ele><time>2026-03-29T14:43:24Z</time></trkpt><trkpt lat="45.7263211403126" lon="9.779543787890523"><ele>575.0</ele><time>2026-03-29T14:43:26Z</time></trkpt><trkpt lat="45.72624857295637" lon="9.779582944661266"><ele>575.0</ele><time>2026-03-29T14:43:28Z</time></trkpt><trkpt lat="45.726178748731925" lon="9.779629533454075"><ele>575.0</ele><time>2026-03-29T14:43:30Z</time></trkpt><trkpt lat="45.726117876049315" lon="9.779686678992219"><ele>575.0</ele><time>2026-03-29T14:43:32Z</time></trkpt><trkpt lat="45.72605514593209" lon="9.779781942644309"><ele>575.0</ele><time>2026-03-29T14:43:35Z</time></trkpt><trkpt lat="45.72598409838072" lon="9.779873578064462"><ele>575.0</ele><time>2026-03-29T14:43:38Z</time></trkpt><trkpt lat="45.72593788464548" lon="9.779947363733115"><ele>568.2857142857142</ele><time>2026-03-29T14:43:40Z</time></trkpt><trkpt lat="45.72590292073888" lon="9.780035972374181"><ele>561.5714285714286</ele><time>2026-03-29T14:43:42Z</time></trkpt><trkpt lat="45.72589842141722" lon="9.780133854689197"><ele>554.8571428571429</ele><time>2026-03-29T14:43:44Z</time></trkpt><trkpt lat="45.72589349766156" lon="9.780238481174223"><ele>548.1428571428571</ele><time>2026-03-29T14:43:46Z</time></trkpt><trkpt lat="45.72591015247993" lon="9.780334911382335"><ele>541.4285714285714</ele><time>2026-03-29T14:43:48Z</time></trkpt><trkpt lat="45.725933409543295" lon="9.780422360334025"><ele>534.7142857142857</ele><time>2026-03-29T14:43:50Z</time></trkpt><trkpt lat="45.72595787521628" lon="9.780511041183097"><ele>528.0</ele><time>2026-03-29T14:43:52Z</time></trkpt><trkpt lat="45.72599213925248" lon="9.780596145362134"><ele>528.0</ele><time>2026-03-29T14:43:54Z</time></trkpt><trkpt lat="45.72603858356989" lon="9.780681125109526"><ele>528.0</ele><time>2026-03-29T14:43:56Z</time></trkpt><trkpt lat="45.726078537995384" lon="9.780760480188016"><ele>528.0</ele><time>2026-03-29T14:43:58Z</time></trkpt><trkpt lat="45.72610317370363" lon="9.780848346718853"><ele>528.0</ele><time>2026-03-29T14:44:00Z</time></trkpt><trkpt lat="45.72614176944015" lon="9.780971340928257"><ele>528.0</ele><time>2026-03-29T14:44:03Z</time></trkpt><trkpt lat="45.726175166016446" lon="9.781058921137188"><ele>528.0</ele><time>2026-03-29T14:44:05Z</time></trkpt><trkpt lat="45.72620605329095" lon="9.78114455930578"><ele>528.0</ele><time>2026-03-29T14:44:07Z</time></trkpt><trkpt lat="45.72623530333554" lon="9.781225321943454"><ele>534.7142857142857</ele><time>2026-03-29T14:44:09Z</time></trkpt><trkpt lat="45.72626788065566" lon="9.781316536942569"><ele>541.4285714285714</ele><time>2026-03-29T14:44:11Z</time></trkpt><trkpt lat="45.72630648186881" lon="9.78140085274602"><ele>548.1428571428571</ele><time>2026-03-29T14:44:13Z</time></trkpt><trkpt lat="45.726340815829445" lon="9.781486395501172"><ele>554.8571428571429</ele><time>2026-03-29T14:44:15Z</time></trkpt><trkpt lat="45.72637712206965" lon="9.78157184070951"><ele>561.5714285714286</ele><time>2026-03-29T14:44:17Z</time></trkpt><trkpt lat="45.72641013793319" lon="9.781661615153688"><ele>568.2857142857142</ele><time>2026-03-29T14:44:19Z</time></trkpt><trkpt lat="45.726441104007606" lon="9.78175683200009"><ele>575.0</ele><time>2026-03-29T14:44:21Z</time></trkpt><trkpt lat="45.72646556201922" lon="9.78185253891521"><ele>575.7142857142857</ele><time>2026-03-29T14:44:23Z</time></trkpt><trkpt lat="45.72648675837782" lon="9.78194565338116"><ele>576.4285714285713</ele><time>2026-03-29T14:44:25Z</time></trkpt><trkpt lat="45.72651150149698" lon="9.782038535817776"><ele>577.1428571428571</ele><time>2026-03-29T14:44:27Z</time></trkpt><trkpt lat="45.726518433560194" lon="9.78213261079874"><ele>577.8571428571429</ele><time>2026-03-29T14:44:29Z</time></trkpt><trkpt lat="45.72649559226" lon="9.78222834470146"><ele>578.5714285714287</ele><time>2026-03-29T14:44:31Z</time></trkpt><trkpt lat="45.7264500844907" lon="9.782315903310767"><ele>579.2857142857143</ele><time>2026-03-29T14:44:33Z</time></trkpt><trkpt lat="45.72640389330902" lon="9.782390623910102"><ele>580.0</ele><time>2026-03-29T14:44:35Z</time></trkpt><trkpt lat="45.726355311052096" lon="9.782469522025437"><ele>580.0</ele><time>2026-03-29T14:44:37Z</time></trkpt><trkpt lat="45.72631638054349" lon="9.78254907467579"><ele>580.0</ele><time>2026-03-29T14:44:39Z</time></trkpt><trkpt lat="45.72627080063186" lon="9.782651741074899"><ele>580.0</ele><time>2026-03-29T14:44:42Z</time></trkpt><trkpt lat="45.72629567369927" lon="9.782766057280815"><ele>580.0</ele><time>2026-03-29T14:44:45Z</time></trkpt><trkpt lat="45.72636208955431" lon="9.782718926945286"><ele>580.0</ele><time>2026-03-29T14:44:47Z</time></trkpt><trkpt lat="45.726400169257865" lon="9.782623839865831"><ele>580.0</ele><time>2026-03-29T14:44:49Z</time></trkpt><trkpt lat="45.72644705331097" lon="9.782563579815962"><ele>580.0</ele><time>2026-03-29T14:44:51Z</time></trkpt><trkpt lat="45.72649883665951" lon="9.782508990024272"><ele>580.0</ele><time>2026-03-29T14:44:53Z</time></trkpt><trkpt lat="45.72654884853682" lon="9.782445652455998"><ele>580.0</ele><time>2026-03-29T14:44:55Z</time></trkpt><trkpt lat="45.726599047273936" lon="9.782377899445981"><ele>580.0</ele><time>2026-03-29T14:44:57Z</time></trkpt><trkpt lat="45.726663495018556" lon="9.782253323948"><ele>580.0</ele><time>2026-03-29T14:45:00Z</time></trkpt><trkpt lat="45.72669580679802" lon="9.782141209941082"><ele>580.0</ele><time>2026-03-29T14:45:02Z</time></trkpt><trkpt lat="45.72668630240717" lon="9.782049196844213"><ele>580.0</ele><time>2026-03-29T14:45:03Z</time></trkpt><trkpt lat="45.72668471992944" lon="9.781887036041889"><ele>580.0</ele><time>2026-03-29T14:45:05Z</time></trkpt><trkpt lat="45.726673532222016" lon="9.781726023901145"><ele>580.0</ele><time>2026-03-29T14:45:07Z</time></trkpt><trkpt lat="45.72665976483543" lon="9.78157423280294"><ele>580.0</ele><time>2026-03-29T14:45:09Z</time></trkpt><trkpt lat="45.72663280426328" lon="9.781437869535715"><ele>580.0</ele><time>2026-03-29T14:45:11Z</time></trkpt><trkpt lat="45.72663189172256" lon="9.781340248982184"><ele>580.5</ele><time>2026-03-29T14:45:13Z</time></trkpt><trkpt lat="45.726600570433064" lon="9.781236749439776"><ele>581.0</ele><time>2026-03-29T14:45:15Z</time></trkpt><trkpt lat="45.7265975675505" lon="9.781141995426786"><ele>581.5</ele><time>2026-03-29T14:45:17Z</time></trkpt><trkpt lat="45.726579755953814" lon="9.780995597795235"><ele>582.0</ele><time>2026-03-29T14:45:20Z</time></trkpt><trkpt lat="45.72656652148425" lon="9.780895454108164"><ele>582.5</ele><time>2026-03-29T14:45:22Z</time></trkpt><trkpt lat="45.72655006229064" lon="9.780789644755629"><ele>583.0</ele><time>2026-03-29T14:45:24Z</time></trkpt><trkpt lat="45.726553867616" lon="9.780697358252505"><ele>583.0</ele><time>2026-03-29T14:45:26Z</time></trkpt><trkpt lat="45.72653798084714" lon="9.78057826264486"><ele>583.0</ele><time>2026-03-29T14:45:28Z</time></trkpt><trkpt lat="45.72657422838296" lon="9.780477725268954"><ele>583.0</ele><time>2026-03-29T14:45:30Z</time></trkpt><trkpt lat="45.72661203456334" lon="9.780392395386377"><ele>583.0</ele><time>2026-03-29T14:45:32Z</time></trkpt><trkpt lat="45.72667074553962" lon="9.780287533335153"><ele>583.0</ele><time>2026-03-29T14:45:35Z</time></trkpt><trkpt lat="45.726732460360104" lon="9.78019885351855"><ele>583.0</ele><time>2026-03-29T14:45:38Z</time></trkpt><trkpt lat="45.726803179533746" lon="9.780132916111667"><ele>581.6666666666667</ele><time>2026-03-29T14:45:41Z</time></trkpt><trkpt lat="45.72688052610474" lon="9.780064305888477"><ele>580.3333333333334</ele><time>2026-03-29T14:45:44Z</time></trkpt><trkpt lat="45.72694404891015" lon="9.779972083736608"><ele>579.0</ele><time>2026-03-29T14:45:47Z</time></trkpt><trkpt lat="45.726993434587314" lon="9.779913215180539"><ele>577.6666666666666</ele><time>2026-03-29T14:45:49Z</time></trkpt><trkpt lat="45.72705633151921" lon="9.779857899085483"><ele>576.3333333333333</ele><time>2026-03-29T14:45:51Z</time></trkpt><trkpt lat="45.727136609838276" lon="9.779787687765243"><ele>575.0</ele><time>2026-03-29T14:45:53Z</time></trkpt><trkpt lat="45.72720435081389" lon="9.77971669273606"><ele>580.6666666666666</ele><time>2026-03-29T14:45:55Z</time></trkpt><trkpt lat="45.72725728159536" lon="9.77962195728169"><ele>586.3333333333333</ele><time>2026-03-29T14:45:57Z</time></trkpt><trkpt lat="45.72730946301394" lon="9.779502698802336"><ele>592.0</ele><time>2026-03-29T14:46:00Z</time></trkpt><trkpt lat="45.72734374487132" lon="9.779414126852503"><ele>597.6666666666666</ele><time>2026-03-29T14:46:03Z</time></trkpt><trkpt lat="45.727412047975406" lon="9.77934409030726"><ele>603.3333333333334</ele><time>2026-03-29T14:46:06Z</time></trkpt><trkpt lat="45.72746148936499" lon="9.779270557302596"><ele>609.0</ele><time>2026-03-29T14:46:08Z</time></trkpt><trkpt lat="45.72750783798274" lon="9.779198896352254"><ele>609.0</ele><time>2026-03-29T14:46:10Z</time></trkpt><trkpt lat="45.727544162327106" lon="9.779120057222448"><ele>609.0</ele><time>2026-03-29T14:46:12Z</time></trkpt><trkpt lat="45.72756744775398" lon="9.779020110947414"><ele>609.0</ele><time>2026-03-29T14:46:14Z</time></trkpt><trkpt lat="45.72756011883235" lon="9.778910347539146"><ele>609.0</ele><time>2026-03-29T14:46:16Z</time></trkpt><trkpt lat="45.727547877280465" lon="9.77882047878481"><ele>609.0</ele><time>2026-03-29T14:46:18Z</time></trkpt><trkpt lat="45.72753726841165" lon="9.778708484512391"><ele>609.0</ele><time>2026-03-29T14:46:20Z</time></trkpt><trkpt lat="45.72750875341353" lon="9.778618791442291"><ele>609.0</ele><time>2026-03-29T14:46:22Z</time></trkpt><trkpt lat="45.72749396134734" lon="9.778517892199025"><ele>609.5</ele><time>2026-03-29T14:46:24Z</time></trkpt><trkpt lat="45.727478019973994" lon="9.778393977132167"><ele>610.0</ele><time>2026-03-29T14:46:27Z</time></trkpt><trkpt lat="45.727479654769134" lon="9.77826416901656"><ele>610.5</ele><time>2026-03-29T14:46:30Z</time></trkpt><trkpt lat="45.72750003447344" lon="9.778140432581113"><ele>611.0</ele><time>2026-03-29T14:46:33Z</time></trkpt><trkpt lat="45.72753051592355" lon="9.778061376807157"><ele>611.5</ele><time>2026-03-29T14:46:35Z</time></trkpt><trkpt lat="45.72757396212248" lon="9.77798701849901"><ele>612.0</ele><time>2026-03-29T14:46:37Z</time></trkpt><trkpt lat="45.72763027539756" lon="9.777891556454229"><ele>612.0</ele><time>2026-03-29T14:46:40Z</time></trkpt><trkpt lat="45.72767256780271" lon="9.777798914148173"><ele>612.0</ele><time>2026-03-29T14:46:42Z</time></trkpt><trkpt lat="45.727707699940076" lon="9.77770823778967"><ele>612.0</ele><time>2026-03-29T14:46:44Z</time></trkpt><trkpt lat="45.7277376168718" lon="9.777603869116298"><ele>612.0</ele><time>2026-03-29T14:46:46Z</time></trkpt><trkpt lat="45.72778540851915" lon="9.777510383968815"><ele>612.0</ele><time>2026-03-29T14:46:48Z</time></trkpt><trkpt lat="45.72780535191101" lon="9.777388802334462"><ele>612.0</ele><time>2026-03-29T14:46:50Z</time></trkpt><trkpt lat="45.72781035020443" lon="9.777271463675511"><ele>617.6666666666666</ele><time>2026-03-29T14:46:52Z</time></trkpt><trkpt lat="45.72780864508438" lon="9.777148383110529"><ele>623.3333333333334</ele><time>2026-03-29T14:46:54Z</time></trkpt><trkpt lat="45.72781043674095" lon="9.777043778302476"><ele>629.0</ele><time>2026-03-29T14:46:56Z</time></trkpt><trkpt lat="45.727811081900434" lon="9.776949453402132"><ele>634.6666666666667</ele><time>2026-03-29T14:46:58Z</time></trkpt><trkpt lat="45.72787208901452" lon="9.776865326673187"><ele>640.3333333333334</ele><time>2026-03-29T14:47:01Z</time></trkpt><trkpt lat="45.72789626029764" lon="9.776739704774531"><ele>646.0</ele><time>2026-03-29T14:47:04Z</time></trkpt><trkpt lat="45.72790317306113" lon="9.776644992503142"><ele>646.0</ele><time>2026-03-29T14:47:08Z</time></trkpt><trkpt lat="45.72780729855401" lon="9.776685560610924"><ele>646.0</ele><time>2026-03-29T14:47:44Z</time></trkpt><trkpt lat="45.727777432577355" lon="9.776786582340941"><ele>646.0</ele><time>2026-03-29T14:47:46Z</time></trkpt><trkpt lat="45.727769927320246" lon="9.77688500835817"><ele>646.0</ele><time>2026-03-29T14:47:48Z</time></trkpt><trkpt lat="45.727745962276586" lon="9.776995526377009"><ele>646.0</ele><time>2026-03-29T14:47:51Z</time></trkpt><trkpt lat="45.727805787479745" lon="9.776935559832605"><ele>646.0</ele><time>2026-03-29T14:48:05Z</time></trkpt><trkpt lat="45.72783383675142" lon="9.776843247159832"><ele>646.0</ele><time>2026-03-29T14:48:08Z</time></trkpt><trkpt lat="45.72786080656283" lon="9.776760685575534"><ele>646.0</ele><time>2026-03-29T14:48:11Z</time></trkpt><trkpt lat="45.72788263761315" lon="9.776640533206624"><ele>646.0</ele><time>2026-03-29T14:48:14Z</time></trkpt><trkpt lat="45.72789825429338" lon="9.776518916369126"><ele>646.0</ele><time>2026-03-29T14:48:17Z</time></trkpt><trkpt lat="45.7278929984514" lon="9.776414594531515"><ele>646.0</ele><time>2026-03-29T14:48:19Z</time></trkpt><trkpt lat="45.72785067395128" lon="9.776306049352677"><ele>646.0</ele><time>2026-03-29T14:48:21Z</time></trkpt><trkpt lat="45.7278286363592" lon="9.776195193886938"><ele>646.0</ele><time>2026-03-29T14:48:23Z</time></trkpt><trkpt lat="45.7278150932893" lon="9.77607389336686"><ele>646.0</ele><time>2026-03-29T14:48:25Z</time></trkpt><trkpt lat="45.72784088145405" lon="9.77595958873396"><ele>646.0</ele><time>2026-03-29T14:48:27Z</time></trkpt><trkpt lat="45.727896992533665" lon="9.775911609161017"><ele>646.0</ele><time>2026-03-29T14:48:29Z</time></trkpt><trkpt lat="45.727959955063405" lon="9.77588859962035"><ele>646.0</ele><time>2026-03-29T14:48:31Z</time></trkpt><trkpt lat="45.72804873607673" lon="9.775851481104583"><ele>646.0</ele><time>2026-03-29T14:48:34Z</time></trkpt><trkpt lat="45.72814109707779" lon="9.775835273613595"><ele>644.3333333333334</ele><time>2026-03-29T14:48:37Z</time></trkpt><trkpt lat="45.72820428563745" lon="9.775849074583283"><ele>642.6666666666667</ele><time>2026-03-29T14:48:39Z</time></trkpt><trkpt lat="45.72829438071429" lon="9.77586925233006"><ele>641.0</ele><time>2026-03-29T14:48:42Z</time></trkpt><trkpt lat="45.728389047954295" lon="9.77585977746592"><ele>639.3333333333334</ele><time>2026-03-29T14:48:45Z</time></trkpt><trkpt lat="45.72845513241008" lon="9.775868627508975"><ele>637.6666666666666</ele><time>2026-03-29T14:48:47Z</time></trkpt><trkpt lat="45.72854451669023" lon="9.775906615734163"><ele>636.0</ele><time>2026-03-29T14:48:50Z</time></trkpt><trkpt lat="45.72862300826632" lon="9.775952452501624"><ele>635.5</ele><time>2026-03-29T14:48:53Z</time></trkpt><trkpt lat="45.72868964376255" lon="9.775957301844814"><ele>635.0</ele><time>2026-03-29T14:48:56Z</time></trkpt><trkpt lat="45.72875543579256" lon="9.77595696583925"><ele>634.5</ele><time>2026-03-29T14:49:00Z</time></trkpt><trkpt lat="45.72883106762684" lon="9.775947296895401"><ele>634.0</ele><time>2026-03-29T14:49:28Z</time></trkpt><trkpt lat="45.72879574275659" lon="9.776050844981718"><ele>633.5</ele><time>2026-03-29T14:49:32Z</time></trkpt><trkpt lat="45.72870451118803" lon="9.776014177997341"><ele>633.0</ele><time>2026-03-29T14:49:35Z</time></trkpt><trkpt lat="45.72863677423294" lon="9.77596288325268"><ele>633.5</ele><time>2026-03-29T14:49:37Z</time></trkpt><trkpt lat="45.728547023611824" lon="9.775901243312655"><ele>634.0</ele><time>2026-03-29T14:49:40Z</time></trkpt><trkpt lat="45.72847625522834" lon="9.775856209495997"><ele>634.5</ele><time>2026-03-29T14:49:42Z</time></trkpt><trkpt lat="45.728407777479454" lon="9.775856732846147"><ele>635.0</ele><time>2026-03-29T14:49:44Z</time></trkpt><trkpt lat="45.72836194486652" lon="9.775953581968526"><ele>635.5</ele><time>2026-03-29T14:49:48Z</time></trkpt><trkpt lat="45.72836613804731" lon="9.776059695102921"><ele>636.0</ele><time>2026-03-29T14:49:51Z</time></trkpt><trkpt lat="45.72838621909234" lon="9.776175726660965"><ele>637.4285714285714</ele><time>2026-03-29T14:49:54Z</time></trkpt><trkpt lat="45.72839625739471" lon="9.77628228869901"><ele>638.8571428571429</ele><time>2026-03-29T14:49:57Z</time></trkpt><trkpt lat="45.72840687257673" lon="9.77637342512391"><ele>640.2857142857143</ele><time>2026-03-29T14:49:59Z</time></trkpt><trkpt lat="45.72842377294533" lon="9.776460605468072"><ele>641.7142857142858</ele><time>2026-03-29T14:50:01Z</time></trkpt><trkpt lat="45.72845714757637" lon="9.776566556441821"><ele>643.1428571428571</ele><time>2026-03-29T14:50:04Z</time></trkpt><trkpt lat="45.72847903534657" lon="9.776681281906153"><ele>644.5714285714287</ele><time>2026-03-29T14:50:07Z</time></trkpt><trkpt lat="45.728459379625164" lon="9.77679420800307"><ele>646.0</ele><time>2026-03-29T14:50:10Z</time></trkpt><trkpt lat="45.72844085039489" lon="9.776909899619827"><ele>646.5</ele><time>2026-03-29T14:50:13Z</time></trkpt><trkpt lat="45.72846779277363" lon="9.77702997637009"><ele>647.0</ele><time>2026-03-29T14:50:16Z</time></trkpt><trkpt lat="45.728514953234864" lon="9.777115752648983"><ele>647.5</ele><time>2026-03-29T14:50:19Z</time></trkpt><trkpt lat="45.728558129721016" lon="9.777204053036986"><ele>648.0</ele><time>2026-03-29T14:50:22Z</time></trkpt><trkpt lat="45.72859294735212" lon="9.77728909193684"><ele>648.5</ele><time>2026-03-29T14:50:25Z</time></trkpt><trkpt lat="45.728671195054666" lon="9.77733103815238"><ele>649.0</ele><time>2026-03-29T14:50:29Z</time></trkpt><trkpt lat="45.728749547694996" lon="9.77734013802012"><ele>651.0</ele><time>2026-03-29T14:50:32Z</time></trkpt><trkpt lat="45.728818036461476" lon="9.77734908983485"><ele>653.0</ele><time>2026-03-29T14:50:35Z</time></trkpt><trkpt lat="45.72888703611996" lon="9.777419754085194"><ele>655.0</ele><time>2026-03-29T14:50:38Z</time></trkpt><trkpt lat="45.7289649070832" lon="9.777442497360443"><ele>657.0</ele><time>2026-03-29T14:50:42Z</time></trkpt><trkpt lat="45.72903387224415" lon="9.777375616236416"><ele>659.0</ele><time>2026-03-29T14:50:45Z</time></trkpt><trkpt lat="45.729105590253425" lon="9.777374558271852"><ele>661.0</ele><time>2026-03-29T14:50:49Z</time></trkpt><trkpt lat="45.72916739339893" lon="9.777282791452775"><ele>661.0</ele><time>2026-03-29T14:51:46Z</time></trkpt><trkpt lat="45.729117742059344" lon="9.777218639281363"><ele>661.0</ele><time>2026-03-29T14:51:48Z</time></trkpt><trkpt lat="45.72901786286279" lon="9.777225711329095"><ele>661.0</ele><time>2026-03-29T14:51:51Z</time></trkpt><trkpt lat="45.729004430342236" lon="9.777326606357267"><ele>661.0</ele><time>2026-03-29T14:51:54Z</time></trkpt><trkpt lat="45.72894532603019" lon="9.77738097751003"><ele>661.0</ele><time>2026-03-29T14:51:57Z</time></trkpt><trkpt lat="45.728887475559404" lon="9.77742265828258"><ele>661.0</ele><time>2026-03-29T14:51:59Z</time></trkpt><trkpt lat="45.72880482800297" lon="9.777484937067003"><ele>661.0</ele><time>2026-03-29T14:52:03Z</time></trkpt><trkpt lat="45.72871975487904" lon="9.777541205588891"><ele>661.0</ele><time>2026-03-29T14:52:06Z</time></trkpt><trkpt lat="45.728663012385866" lon="9.777604135260335"><ele>661.0</ele><time>2026-03-29T14:52:08Z</time></trkpt><trkpt lat="45.72859609997799" lon="9.777689565185485"><ele>661.0</ele><time>2026-03-29T14:52:11Z</time></trkpt><trkpt lat="45.72858424061848" lon="9.777813772819936"><ele>661.0</ele><time>2026-03-29T14:52:13Z</time></trkpt><trkpt lat="45.72859156877701" lon="9.77795663788417"><ele>661.0</ele><time>2026-03-29T14:52:15Z</time></trkpt><trkpt lat="45.728551412878424" lon="9.778103075749453"><ele>658.75</ele><time>2026-03-29T14:52:17Z</time></trkpt><trkpt lat="45.728538660818536" lon="9.778278296182341"><ele>656.5</ele><time>2026-03-29T14:52:19Z</time></trkpt><trkpt lat="45.72852359127676" lon="9.77843236913526"><ele>654.25</ele><time>2026-03-29T14:52:21Z</time></trkpt><trkpt lat="45.72854067011567" lon="9.77859889508683"><ele>652.0</ele><time>2026-03-29T14:52:23Z</time></trkpt><trkpt lat="45.72854385122401" lon="9.778770067555925"><ele>650.8</ele><time>2026-03-29T14:52:25Z</time></trkpt><trkpt lat="45.728542143013726" lon="9.778928605447886"><ele>649.6</ele><time>2026-03-29T14:52:27Z</time></trkpt><trkpt lat="45.72850221072066" lon="9.779085456230813"><ele>648.4</ele><time>2026-03-29T14:52:29Z</time></trkpt><trkpt lat="45.72847814294907" lon="9.779243679415051"><ele>647.1999999999999</ele><time>2026-03-29T14:52:31Z</time></trkpt><trkpt lat="45.728478180309146" lon="9.77939276784738"><ele>646.0</ele><time>2026-03-29T14:52:33Z</time></trkpt><trkpt lat="45.72846540393636" lon="9.779484257032266"><ele>646.0</ele><time>2026-03-29T14:52:35Z</time></trkpt><trkpt lat="45.728446553288975" lon="9.779590872565704"><ele>646.0</ele><time>2026-03-29T14:53:00Z</time></trkpt><trkpt lat="45.72843965629819" lon="9.779710004081537"><ele>646.0</ele><time>2026-03-29T14:53:02Z</time></trkpt><trkpt lat="45.728415450555936" lon="9.779850136083834"><ele>646.0</ele><time>2026-03-29T14:53:04Z</time></trkpt><trkpt lat="45.7284030964788" lon="9.77999351225593"><ele>646.0</ele><time>2026-03-29T14:53:06Z</time></trkpt><trkpt lat="45.72838479889657" lon="9.780132164008377"><ele>647.1999999999999</ele><time>2026-03-29T14:53:08Z</time></trkpt><trkpt lat="45.72836892436802" lon="9.780268703238105"><ele>648.4</ele><time>2026-03-29T14:53:10Z</time></trkpt><trkpt lat="45.728347772827064" lon="9.780431716940276"><ele>649.6</ele><time>2026-03-29T14:53:12Z</time></trkpt><trkpt lat="45.72831343889116" lon="9.780564920661798"><ele>650.8</ele><time>2026-03-29T14:53:14Z</time></trkpt><trkpt lat="45.72828900531368" lon="9.780687783587151"><ele>652.0</ele><time>2026-03-29T14:53:16Z</time></trkpt><trkpt lat="45.728257767845605" lon="9.780802065740357"><ele>652.0</ele><time>2026-03-29T14:53:18Z</time></trkpt><trkpt lat="45.72823153126373" lon="9.780898892068159"><ele>652.0</ele><time>2026-03-29T14:53:20Z</time></trkpt><trkpt lat="45.728197690464" lon="9.78099398021436"><ele>652.0</ele><time>2026-03-29T14:53:22Z</time></trkpt><trkpt lat="45.72815022651855" lon="9.781082063290924"><ele>652.0</ele><time>2026-03-29T14:53:24Z</time></trkpt><trkpt lat="45.72811917116828" lon="9.781179047909886"><ele>652.0</ele><time>2026-03-29T14:53:26Z</time></trkpt><trkpt lat="45.728104028350394" lon="9.781339351260907"><ele>652.0</ele><time>2026-03-29T14:53:28Z</time></trkpt><trkpt lat="45.72809565291411" lon="9.781441154336937"><ele>651.2</ele><time>2026-03-29T14:53:29Z</time></trkpt><trkpt lat="45.72808336249438" lon="9.781624818002342"><ele>650.4000000000001</ele><time>2026-03-29T14:53:31Z</time></trkpt><trkpt lat="45.72805630366982" lon="9.781795444494827"><ele>649.5999999999999</ele><time>2026-03-29T14:53:33Z</time></trkpt><trkpt lat="45.728050258453834" lon="9.781885333715346"><ele>648.8</ele><time>2026-03-29T14:53:34Z</time></trkpt><trkpt lat="45.728058470289255" lon="9.781987134466746"><ele>648.0</ele><time>2026-03-29T14:53:35Z</time></trkpt><trkpt lat="45.72805380221397" lon="9.782094483276335"><ele>647.0</ele><time>2026-03-29T14:53:36Z</time></trkpt><trkpt lat="45.7280370347993" lon="9.782205837783378"><ele>646.0</ele><time>2026-03-29T14:53:37Z</time></trkpt><trkpt lat="45.72802502937139" lon="9.782313037287178"><ele>645.0</ele><time>2026-03-29T14:53:38Z</time></trkpt><trkpt lat="45.72801080184722" lon="9.782427217641569"><ele>644.0</ele><time>2026-03-29T14:53:39Z</time></trkpt><trkpt lat="45.727996526306455" lon="9.782542871168692"><ele>643.0</ele><time>2026-03-29T14:53:40Z</time></trkpt><trkpt lat="45.7279891008685" lon="9.782645863328778"><ele>642.0</ele><time>2026-03-29T14:53:41Z</time></trkpt><trkpt lat="45.7279828889488" lon="9.782752690030323"><ele>640.0</ele><time>2026-03-29T14:53:42Z</time></trkpt><trkpt lat="45.727966194847035" lon="9.782911135742529"><ele>638.0</ele><time>2026-03-29T14:53:44Z</time></trkpt><trkpt lat="45.727959359980844" lon="9.78306245980759"><ele>636.0</ele><time>2026-03-29T14:53:46Z</time></trkpt><trkpt lat="45.72792777427823" lon="9.783220242613044"><ele>634.0</ele><time>2026-03-29T14:53:48Z</time></trkpt><trkpt lat="45.72787448377426" lon="9.78334605348754"><ele>632.0</ele><time>2026-03-29T14:53:50Z</time></trkpt><trkpt lat="45.72782619955537" lon="9.783476896769077"><ele>632.4</ele><time>2026-03-29T14:53:52Z</time></trkpt><trkpt lat="45.727768578737106" lon="9.783613702763692"><ele>632.8000000000001</ele><time>2026-03-29T14:53:54Z</time></trkpt><trkpt lat="45.72768547968524" lon="9.783729110493761"><ele>633.2</ele><time>2026-03-29T14:53:56Z</time></trkpt><trkpt lat="45.727592531493656" lon="9.783822472353512"><ele>633.6</ele><time>2026-03-29T14:53:58Z</time></trkpt><trkpt lat="45.7275285144471" lon="9.78389706346629"><ele>634.0</ele><time>2026-03-29T14:54:00Z</time></trkpt><trkpt lat="45.7274747835148" lon="9.784012493131085"><ele>634.0</ele><time>2026-03-29T14:54:02Z</time></trkpt><trkpt lat="45.72743146567115" lon="9.78412673395773"><ele>634.0</ele><time>2026-03-29T14:54:04Z</time></trkpt><trkpt lat="45.72739490849357" lon="9.784234399581191"><ele>634.0</ele><time>2026-03-29T14:54:06Z</time></trkpt><trkpt lat="45.727374119484026" lon="9.78436834475832"><ele>634.0</ele><time>2026-03-29T14:54:08Z</time></trkpt><trkpt lat="45.727331379883786" lon="9.78450755789728"><ele>634.0</ele><time>2026-03-29T14:54:10Z</time></trkpt><trkpt lat="45.727302088077266" lon="9.784651328143214"><ele>632.8333333333334</ele><time>2026-03-29T14:54:12Z</time></trkpt><trkpt lat="45.72728312318896" lon="9.784786836690225"><ele>631.6666666666667</ele><time>2026-03-29T14:54:14Z</time></trkpt><trkpt lat="45.727275439255656" lon="9.784902355118247"><ele>630.5</ele><time>2026-03-29T14:54:16Z</time></trkpt><trkpt lat="45.72728636110733" lon="9.785016910384451"><ele>629.3333333333334</ele><time>2026-03-29T14:54:18Z</time></trkpt><trkpt lat="45.727308152943515" lon="9.785105207415342"><ele>628.1666666666666</ele><time>2026-03-29T14:54:20Z</time></trkpt><trkpt lat="45.727334026282385" lon="9.785228773064071"><ele>627.0</ele><time>2026-03-29T14:54:22Z</time></trkpt><trkpt lat="45.72734023752368" lon="9.785347694804173"><ele>626.6666666666666</ele><time>2026-03-29T14:54:24Z</time></trkpt><trkpt lat="45.72732897308678" lon="9.785458730158203"><ele>626.3333333333334</ele><time>2026-03-29T14:54:26Z</time></trkpt><trkpt lat="45.727315433502824" lon="9.785585139036643"><ele>626.0</ele><time>2026-03-29T14:54:28Z</time></trkpt><trkpt lat="45.72734654497054" lon="9.785708646688294"><ele>625.6666666666667</ele><time>2026-03-29T14:54:30Z</time></trkpt><trkpt lat="45.72733055387287" lon="9.785837385020587"><ele>625.3333333333334</ele><time>2026-03-29T14:54:32Z</time></trkpt><trkpt lat="45.727344918408015" lon="9.78597072179493"><ele>625.0</ele><time>2026-03-29T14:54:34Z</time></trkpt><trkpt lat="45.72732736756223" lon="9.786065496343873"><ele>624.6666666666667</ele><time>2026-03-29T14:54:37Z</time></trkpt><trkpt lat="45.72732090760308" lon="9.78621073784732"><ele>624.3333333333334</ele><time>2026-03-29T14:54:39Z</time></trkpt><trkpt lat="45.72726136613385" lon="9.786312711569229"><ele>624.0</ele><time>2026-03-29T14:54:41Z</time></trkpt><trkpt lat="45.727198903040936" lon="9.786377978724525"><ele>623.6666666666666</ele><time>2026-03-29T14:54:43Z</time></trkpt><trkpt lat="45.72718438756997" lon="9.786517704191365"><ele>623.3333333333333</ele><time>2026-03-29T14:54:46Z</time></trkpt><trkpt lat="45.72722094522335" lon="9.786609638857433"><ele>623.0</ele><time>2026-03-29T14:54:48Z</time></trkpt><trkpt lat="45.727279500194044" lon="9.78673239261364"><ele>621.75</ele><time>2026-03-29T14:54:50Z</time></trkpt><trkpt lat="45.7272894896803" lon="9.786902252043777"><ele>620.5</ele><time>2026-03-29T14:54:52Z</time></trkpt><trkpt lat="45.727281961137" lon="9.787067578825896"><ele>619.25</ele><time>2026-03-29T14:54:54Z</time></trkpt><trkpt lat="45.727269725534015" lon="9.787237083311592"><ele>618.0</ele><time>2026-03-29T14:54:56Z</time></trkpt><trkpt lat="45.72724614374519" lon="9.787396038145948"><ele>618.0</ele><time>2026-03-29T14:54:58Z</time></trkpt><trkpt lat="45.727244353918785" lon="9.78754882925659"><ele>618.0</ele><time>2026-03-29T14:55:00Z</time></trkpt><trkpt lat="45.72723898087712" lon="9.787711833971512"><ele>618.0</ele><time>2026-03-29T14:55:02Z</time></trkpt><trkpt lat="45.72719434873188" lon="9.787867683046697"><ele>618.0</ele><time>2026-03-29T14:55:04Z</time></trkpt><trkpt lat="45.727179122913405" lon="9.787960901523098"><ele>618.0</ele><time>2026-03-29T14:55:05Z</time></trkpt><trkpt lat="45.72712795936605" lon="9.788124155859597"><ele>617.1999999999999</ele><time>2026-03-29T14:55:07Z</time></trkpt><trkpt lat="45.72711359501067" lon="9.78825751809368"><ele>616.4</ele><time>2026-03-29T14:55:09Z</time></trkpt><trkpt lat="45.72712271369665" lon="9.788409650469095"><ele>615.5999999999999</ele><time>2026-03-29T14:55:11Z</time></trkpt><trkpt lat="45.727087823905194" lon="9.788568554601829"><ele>614.8</ele><time>2026-03-29T14:55:13Z</time></trkpt><trkpt lat="45.72704092203467" lon="9.788659287880707"><ele>614.0</ele><time>2026-03-29T14:55:14Z</time></trkpt><trkpt lat="45.72701182754375" lon="9.78874365127389"><ele>614.4</ele><time>2026-03-29T14:55:15Z</time></trkpt><trkpt lat="45.72696306790214" lon="9.78890076500267"><ele>614.8</ele><time>2026-03-29T14:55:17Z</time></trkpt><trkpt lat="45.72691006753523" lon="9.789051992396978"><ele>615.2</ele><time>2026-03-29T14:55:19Z</time></trkpt><trkpt lat="45.7268918810954" lon="9.789211270617866"><ele>615.6</ele><time>2026-03-29T14:55:21Z</time></trkpt><trkpt lat="45.72689390982023" lon="9.789310478552277"><ele>616.0</ele><time>2026-03-29T14:55:22Z</time></trkpt><trkpt lat="45.72689408333538" lon="9.78940098113888"><ele>616.0</ele><time>2026-03-29T14:55:23Z</time></trkpt><trkpt lat="45.726887417359" lon="9.78949461666204"><ele>616.0</ele><time>2026-03-29T14:55:24Z</time></trkpt><trkpt lat="45.726850458043195" lon="9.789628010223884"><ele>616.0</ele><time>2026-03-29T14:55:26Z</time></trkpt><trkpt lat="45.726806467108034" lon="9.789773803400353"><ele>616.0</ele><time>2026-03-29T14:55:28Z</time></trkpt><trkpt lat="45.72679852207565" lon="9.789937664666775"><ele>616.0</ele><time>2026-03-29T14:55:30Z</time></trkpt><trkpt lat="45.72680216479441" lon="9.79011708473492"><ele>615.8</ele><time>2026-03-29T14:55:32Z</time></trkpt><trkpt lat="45.72680393230459" lon="9.790286741117551"><ele>615.6</ele><time>2026-03-29T14:55:34Z</time></trkpt><trkpt lat="45.72679233396909" lon="9.790447514559565"><ele>615.4</ele><time>2026-03-29T14:55:36Z</time></trkpt><trkpt lat="45.726774298998784" lon="9.790587607902351"><ele>615.2</ele><time>2026-03-29T14:55:38Z</time></trkpt><trkpt lat="45.7267254139865" lon="9.790690944785355"><ele>615.0</ele><time>2026-03-29T14:55:40Z</time></trkpt><trkpt lat="45.7266704478062" lon="9.790774812942919"><ele>615.0</ele><time>2026-03-29T14:55:42Z</time></trkpt><trkpt lat="45.72666616648918" lon="9.790914874304825"><ele>615.0</ele><time>2026-03-29T14:55:44Z</time></trkpt><trkpt lat="45.72667375527383" lon="9.791008953023574"><ele>615.0</ele><time>2026-03-29T14:55:45Z</time></trkpt><trkpt lat="45.726667338574885" lon="9.791100435842221"><ele>615.0</ele><time>2026-03-29T14:55:46Z</time></trkpt><trkpt lat="45.72663738220165" lon="9.791262137776847"><ele>615.0</ele><time>2026-03-29T14:55:48Z</time></trkpt><trkpt lat="45.72661818214173" lon="9.791428600609253"><ele>614.8</ele><time>2026-03-29T14:55:50Z</time></trkpt><trkpt lat="45.726610451325186" lon="9.791576104051641"><ele>614.6</ele><time>2026-03-29T14:55:52Z</time></trkpt><trkpt lat="45.72659176437424" lon="9.79172919462028"><ele>614.4</ele><time>2026-03-29T14:55:54Z</time></trkpt><trkpt lat="45.72658643653464" lon="9.791881183363857"><ele>614.2</ele><time>2026-03-29T14:55:56Z</time></trkpt><trkpt lat="45.72658446652677" lon="9.79202169857427"><ele>614.0</ele><time>2026-03-29T14:55:58Z</time></trkpt><trkpt lat="45.72657825822678" lon="9.79215486102697"><ele>613.6</ele><time>2026-03-29T14:56:00Z</time></trkpt><trkpt lat="45.72655327780266" lon="9.792274735241012"><ele>613.2</ele><time>2026-03-29T14:56:02Z</time></trkpt><trkpt lat="45.72652099257122" lon="9.792377873124542"><ele>612.8000000000001</ele><time>2026-03-29T14:56:04Z</time></trkpt><trkpt lat="45.726494730298334" lon="9.792510108172895"><ele>612.4</ele><time>2026-03-29T14:56:06Z</time></trkpt><trkpt lat="45.72648991347013" lon="9.792662341739176"><ele>612.0</ele><time>2026-03-29T14:56:08Z</time></trkpt><trkpt lat="45.72646588919822" lon="9.792784971243947"><ele>611.8333333333334</ele><time>2026-03-29T14:56:10Z</time></trkpt><trkpt lat="45.726478426718565" lon="9.792886714914124"><ele>611.6666666666666</ele><time>2026-03-29T14:56:12Z</time></trkpt><trkpt lat="45.726513653159664" lon="9.792999412301262"><ele>611.5</ele><time>2026-03-29T14:56:14Z</time></trkpt><trkpt lat="45.72653645198425" lon="9.793123808351385"><ele>611.3333333333333</ele><time>2026-03-29T14:56:16Z</time></trkpt><trkpt lat="45.72651730568982" lon="9.793223366400358"><ele>611.1666666666666</ele><time>2026-03-29T14:56:18Z</time></trkpt><trkpt lat="45.72649524763666" lon="9.793393920992184"><ele>611.0</ele><time>2026-03-29T14:56:42Z</time></trkpt><trkpt lat="45.72646874963812" lon="9.793488727914836"><ele>611.0</ele><time>2026-03-29T14:56:44Z</time></trkpt><trkpt lat="45.72640061196105" lon="9.793547060053676"><ele>611.0</ele><time>2026-03-29T14:56:46Z</time></trkpt><trkpt lat="45.72631680459725" lon="9.79356565245665"><ele>611.0</ele><time>2026-03-29T14:56:49Z</time></trkpt><trkpt lat="45.72625948197802" lon="9.793527563945197"><ele>611.0</ele><time>2026-03-29T14:56:52Z</time></trkpt><trkpt lat="45.72628737742228" lon="9.79344023311647"><ele>611.0</ele><time>2026-03-29T14:56:55Z</time></trkpt><trkpt lat="45.72633840254241" lon="9.793344307940082"><ele>611.0</ele><time>2026-03-29T14:56:58Z</time></trkpt><trkpt lat="45.72637036842595" lon="9.793250181110242"><ele>611.0000000000001</ele><time>2026-03-29T14:57:01Z</time></trkpt><trkpt lat="45.72641296719464" lon="9.79315168518352"><ele>611.0</ele><time>2026-03-29T14:57:04Z</time></trkpt><trkpt lat="45.72640449597314" lon="9.793049793655943"><ele>611.0</ele><time>2026-03-29T14:57:08Z</time></trkpt><trkpt lat="45.726334444906875" lon="9.793059456846251"><ele>611.0</ele><time>2026-03-29T14:57:11Z</time></trkpt><trkpt lat="45.726352512433756" lon="9.793160244537798"><ele>611.0</ele><time>2026-03-29T14:57:16Z</time></trkpt><trkpt lat="45.72636515143518" lon="9.793249850016672"><ele>611.0000000000001</ele><time>2026-03-29T14:57:19Z</time></trkpt><trkpt lat="45.72631764933039" lon="9.79334076224574"><ele>611.0</ele><time>2026-03-29T14:57:22Z</time></trkpt><trkpt lat="45.72627997203498" lon="9.793427021233105"><ele>611.0</ele><time>2026-03-29T14:57:24Z</time></trkpt><trkpt lat="45.7262524965955" lon="9.79353406579016"><ele>611.0</ele><time>2026-03-29T14:57:26Z</time></trkpt><trkpt lat="45.72619320578303" lon="9.793582011779625"><ele>611.0</ele><time>2026-03-29T14:57:29Z</time></trkpt><trkpt lat="45.726156703441184" lon="9.79349679534525"><ele>611.0</ele><time>2026-03-29T14:57:33Z</time></trkpt><trkpt lat="45.726164672828475" lon="9.793396200384706"><ele>611.0</ele><time>2026-03-29T14:57:35Z</time></trkpt><trkpt lat="45.726137423085795" lon="9.793258037712263"><ele>611.0</ele><time>2026-03-29T14:57:37Z</time></trkpt><trkpt lat="45.726096935724286" lon="9.793128812274764"><ele>608.8</ele><time>2026-03-29T14:57:39Z</time></trkpt><trkpt lat="45.72605904045264" lon="9.792956067787308"><ele>606.6</ele><time>2026-03-29T14:57:41Z</time></trkpt><trkpt lat="45.72603116673718" lon="9.792859545213233"><ele>604.4</ele><time>2026-03-29T14:57:42Z</time></trkpt><trkpt lat="45.72599620496497" lon="9.79270245806699"><ele>602.2</ele><time>2026-03-29T14:57:44Z</time></trkpt><trkpt lat="45.72597299522952" lon="9.792550369301134"><ele>600.0</ele><time>2026-03-29T14:57:46Z</time></trkpt><trkpt lat="45.72596012031902" lon="9.792402311056463"><ele>599.5</ele><time>2026-03-29T14:57:48Z</time></trkpt><trkpt lat="45.72597215313639" lon="9.792263107883494"><ele>599.0</ele><time>2026-03-29T14:57:50Z</time></trkpt><trkpt lat="45.7259725793644" lon="9.792117203187662"><ele>598.5</ele><time>2026-03-29T14:57:52Z</time></trkpt><trkpt lat="45.725994377038184" lon="9.792027178090814"><ele>598.0</ele><time>2026-03-29T14:57:53Z</time></trkpt><trkpt lat="45.726019879563815" lon="9.79192729504587"><ele>597.5</ele><time>2026-03-29T14:57:54Z</time></trkpt><trkpt lat="45.72605017384236" lon="9.791824945484848"><ele>597.0</ele><time>2026-03-29T14:57:55Z</time></trkpt><trkpt lat="45.726062870440316" lon="9.791727635819193"><ele>596.2</ele><time>2026-03-29T14:57:56Z</time></trkpt><trkpt lat="45.72603179126115" lon="9.791561768802708"><ele>595.4000000000001</ele><time>2026-03-29T14:57:58Z</time></trkpt><trkpt lat="45.725993768509326" lon="9.791405849827985"><ele>594.5999999999999</ele><time>2026-03-29T14:58:00Z</time></trkpt><trkpt lat="45.725971049055026" lon="9.791280279279311"><ele>593.8</ele><time>2026-03-29T14:58:02Z</time></trkpt><trkpt lat="45.72593620878587" lon="9.791161343813851"><ele>593.0</ele><time>2026-03-29T14:58:04Z</time></trkpt><trkpt lat="45.72590748269709" lon="9.791026094034557"><ele>592.6666666666666</ele><time>2026-03-29T14:58:06Z</time></trkpt><trkpt lat="45.725878033346255" lon="9.790886765043359"><ele>592.3333333333333</ele><time>2026-03-29T14:58:08Z</time></trkpt><trkpt lat="45.72585161607341" lon="9.79077825290481"><ele>592.0</ele><time>2026-03-29T14:58:10Z</time></trkpt><trkpt lat="45.72584122356176" lon="9.790676153137618"><ele>591.6666666666666</ele><time>2026-03-29T14:58:12Z</time></trkpt><trkpt lat="45.72583712416209" lon="9.790567216331388"><ele>591.3333333333334</ele><time>2026-03-29T14:58:14Z</time></trkpt><trkpt lat="45.72585822972013" lon="9.790464161352146"><ele>591.0</ele><time>2026-03-29T14:58:16Z</time></trkpt><trkpt lat="45.72590065384545" lon="9.79039332004767"><ele>591.0</ele><time>2026-03-29T14:58:26Z</time></trkpt><trkpt lat="45.725842644401844" lon="9.790306850285482"><ele>591.0</ele><time>2026-03-29T14:58:59Z</time></trkpt><trkpt lat="45.72577468770056" lon="9.790356452629757"><ele>591.0</ele><time>2026-03-29T14:59:09Z</time></trkpt><trkpt lat="45.725725883506804" lon="9.790463551276096"><ele>591.0</ele><time>2026-03-29T14:59:11Z</time></trkpt><trkpt lat="45.72568374567887" lon="9.790566430519366"><ele>591.0</ele><time>2026-03-29T14:59:13Z</time></trkpt><trkpt lat="45.72563414502725" lon="9.790654179863546"><ele>591.0</ele><time>2026-03-29T14:59:15Z</time></trkpt><trkpt lat="45.725607823393716" lon="9.790741703957256"><ele>591.0</ele><time>2026-03-29T14:59:17Z</time></trkpt><trkpt lat="45.72561236899435" lon="9.79087113886997"><ele>591.0</ele><time>2026-03-29T14:59:19Z</time></trkpt><trkpt lat="45.72563431449787" lon="9.791007888004918"><ele>591.0</ele><time>2026-03-29T14:59:21Z</time></trkpt><trkpt lat="45.725643098829885" lon="9.791167931638604"><ele>591.0</ele><time>2026-03-29T14:59:23Z</time></trkpt><trkpt lat="45.725610632897975" lon="9.791288645009448"><ele>591.0</ele><time>2026-03-29T14:59:25Z</time></trkpt><trkpt lat="45.7256324431346" lon="9.791415169178432"><ele>591.3333333333334</ele><time>2026-03-29T14:59:27Z</time></trkpt><trkpt lat="45.72563774900072" lon="9.791545718695321"><ele>591.6666666666666</ele><time>2026-03-29T14:59:29Z</time></trkpt><trkpt lat="45.725582322277795" lon="9.791669403788084"><ele>592.0</ele><time>2026-03-29T14:59:31Z</time></trkpt><trkpt lat="45.72552357922196" lon="9.791745576980569"><ele>592.3333333333333</ele><time>2026-03-29T14:59:33Z</time></trkpt><trkpt lat="45.72546079696569" lon="9.791799859252755"><ele>592.6666666666666</ele><time>2026-03-29T14:59:35Z</time></trkpt><trkpt lat="45.72543121389399" lon="9.791881912954528"><ele>593.0</ele><time>2026-03-29T14:59:37Z</time></trkpt><trkpt lat="45.72542823572988" lon="9.792009071545642"><ele>593.6666666666666</ele><time>2026-03-29T14:59:39Z</time></trkpt><trkpt lat="45.725448063879426" lon="9.792112304600716"><ele>594.3333333333333</ele><time>2026-03-29T14:59:41Z</time></trkpt><trkpt lat="45.72545724313763" lon="9.792226993612209"><ele>595.0</ele><time>2026-03-29T14:59:43Z</time></trkpt><trkpt lat="45.72544928379427" lon="9.792346173090205"><ele>595.6666666666666</ele><time>2026-03-29T14:59:45Z</time></trkpt><trkpt lat="45.72543023212869" lon="9.79247037177257"><ele>596.3333333333334</ele><time>2026-03-29T14:59:47Z</time></trkpt><trkpt lat="45.725414940691174" lon="9.792592333365127"><ele>597.0</ele><time>2026-03-29T14:59:49Z</time></trkpt><trkpt lat="45.72543858200593" lon="9.792682620712448"><ele>597.5</ele><time>2026-03-29T14:59:51Z</time></trkpt><trkpt lat="45.72546732194731" lon="9.792784200321552"><ele>598.0</ele><time>2026-03-29T14:59:53Z</time></trkpt><trkpt lat="45.72550712658309" lon="9.792884986037253"><ele>598.5</ele><time>2026-03-29T14:59:55Z</time></trkpt><trkpt lat="45.725521819125795" lon="9.79298185110973"><ele>599.0</ele><time>2026-03-29T14:59:57Z</time></trkpt><trkpt lat="45.725526750075915" lon="9.79308790690698"><ele>599.5</ele><time>2026-03-29T14:59:59Z</time></trkpt><trkpt lat="45.725520475495564" lon="9.79320419547003"><ele>600.0</ele><time>2026-03-29T15:00:01Z</time></trkpt><trkpt lat="45.725463440626356" lon="9.793319947341248"><ele>600.0</ele><time>2026-03-29T15:00:03Z</time></trkpt><trkpt lat="45.72539121670355" lon="9.793399031440234"><ele>600.0</ele><time>2026-03-29T15:00:05Z</time></trkpt><trkpt lat="45.72532038133835" lon="9.793482695258632"><ele>600.0</ele><time>2026-03-29T15:00:07Z</time></trkpt><trkpt lat="45.72527144904884" lon="9.793557546580349"><ele>600.0</ele><time>2026-03-29T15:00:09Z</time></trkpt><trkpt lat="45.72523900646761" lon="9.793685418149948"><ele>600.0</ele><time>2026-03-29T15:00:12Z</time></trkpt><trkpt lat="45.7252476218808" lon="9.793787972866133"><ele>600.0</ele><time>2026-03-29T15:00:14Z</time></trkpt><trkpt lat="45.72525689770311" lon="9.793886332278666"><ele>599.8333333333334</ele><time>2026-03-29T15:00:16Z</time></trkpt><trkpt lat="45.72526912952557" lon="9.794013375860755"><ele>599.6666666666666</ele><time>2026-03-29T15:00:18Z</time></trkpt><trkpt lat="45.72527740914183" lon="9.794143527788156"><ele>599.5</ele><time>2026-03-29T15:00:20Z</time></trkpt><trkpt lat="45.725298103251475" lon="9.7942706313352"><ele>599.3333333333333</ele><time>2026-03-29T15:00:22Z</time></trkpt><trkpt lat="45.72530830956253" lon="9.794393093799293"><ele>599.1666666666666</ele><time>2026-03-29T15:00:24Z</time></trkpt><trkpt lat="45.72527832046644" lon="9.794513240169927"><ele>599.0</ele><time>2026-03-29T15:00:26Z</time></trkpt><trkpt lat="45.7252136051396" lon="9.794578148292366"><ele>599.0</ele><time>2026-03-29T15:00:28Z</time></trkpt><trkpt lat="45.72513997359622" lon="9.794624764323059"><ele>599.0</ele><time>2026-03-29T15:00:30Z</time></trkpt><trkpt lat="45.72509407579208" lon="9.794703672751336"><ele>599.0</ele><time>2026-03-29T15:00:32Z</time></trkpt><trkpt lat="45.72508185863027" lon="9.794801734344162"><ele>599.0</ele><time>2026-03-29T15:00:34Z</time></trkpt><trkpt lat="45.72502098973871" lon="9.794916894645525"><ele>599.0</ele><time>2026-03-29T15:00:37Z</time></trkpt><trkpt lat="45.72497928481554" lon="9.795001341387094"><ele>599.0</ele><time>2026-03-29T15:00:39Z</time></trkpt><trkpt lat="45.72493351192236" lon="9.795067759610635"><ele>599.0</ele><time>2026-03-29T15:00:41Z</time></trkpt><trkpt lat="45.724872414085205" lon="9.795153597662992"><ele>599.0</ele><time>2026-03-29T15:00:44Z</time></trkpt><trkpt lat="45.72483810977972" lon="9.79524125816836"><ele>599.0</ele><time>2026-03-29T15:00:46Z</time></trkpt><trkpt lat="45.72480277805145" lon="9.795322416905186"><ele>599.0</ele><time>2026-03-29T15:00:48Z</time></trkpt><trkpt lat="45.72476977318194" lon="9.795415096120054"><ele>599.0</ele><time>2026-03-29T15:00:50Z</time></trkpt><trkpt lat="45.72474555630912" lon="9.795512140734134"><ele>599.0</ele><time>2026-03-29T15:00:52Z</time></trkpt><trkpt lat="45.72474703897577" lon="9.795615957269813"><ele>599.0</ele><time>2026-03-29T15:00:54Z</time></trkpt><trkpt lat="45.724730568644986" lon="9.7957088650089"><ele>602.0</ele><time>2026-03-29T15:00:56Z</time></trkpt><trkpt lat="45.72470667171852" lon="9.795812651747795"><ele>605.0</ele><time>2026-03-29T15:00:58Z</time></trkpt><trkpt lat="45.72468691981235" lon="9.795932090477425"><ele>608.0</ele><time>2026-03-29T15:01:00Z</time></trkpt><trkpt lat="45.72468758916094" lon="9.796044276209445"><ele>611.0</ele><time>2026-03-29T15:01:02Z</time></trkpt><trkpt lat="45.72466855148744" lon="9.796143356543284"><ele>614.0</ele><time>2026-03-29T15:01:04Z</time></trkpt><trkpt lat="45.724670011072774" lon="9.796262158124945"><ele>617.0</ele><time>2026-03-29T15:01:07Z</time></trkpt><trkpt lat="45.72465159684706" lon="9.796353659159491"><ele>614.7142857142858</ele><time>2026-03-29T15:01:09Z</time></trkpt><trkpt lat="45.72458387323907" lon="9.796436779268271"><ele>612.4285714285713</ele><time>2026-03-29T15:01:13Z</time></trkpt><trkpt lat="45.724547414374676" lon="9.796510499874426"><ele>610.1428571428571</ele><time>2026-03-29T15:01:15Z</time></trkpt><trkpt lat="45.7244990206717" lon="9.796576126061607"><ele>607.8571428571429</ele><time>2026-03-29T15:01:17Z</time></trkpt><trkpt lat="45.72443092973076" lon="9.796630491522818"><ele>605.5714285714287</ele><time>2026-03-29T15:01:19Z</time></trkpt><trkpt lat="45.724373571906845" lon="9.79670128476933"><ele>603.2857142857142</ele><time>2026-03-29T15:01:21Z</time></trkpt><trkpt lat="45.72431163172083" lon="9.796758181701192"><ele>601.0</ele><time>2026-03-29T15:01:23Z</time></trkpt><trkpt lat="45.72424435377606" lon="9.796814822777467"><ele>604.0</ele><time>2026-03-29T15:01:25Z</time></trkpt><trkpt lat="45.724202840897824" lon="9.796907431027881"><ele>607.0</ele><time>2026-03-29T15:01:27Z</time></trkpt><trkpt lat="45.724170793524024" lon="9.797011860167343"><ele>610.0</ele><time>2026-03-29T15:01:29Z</time></trkpt><trkpt lat="45.724162624483355" lon="9.797138624671309"><ele>613.0</ele><time>2026-03-29T15:01:31Z</time></trkpt><trkpt lat="45.7241836285197" lon="9.797268573255755"><ele>616.0</ele><time>2026-03-29T15:01:33Z</time></trkpt><trkpt lat="45.72419913496159" lon="9.797420758574274"><ele>619.0</ele><time>2026-03-29T15:01:35Z</time></trkpt><trkpt lat="45.72419819546379" lon="9.797540022959883"><ele>619.0</ele><time>2026-03-29T15:01:37Z</time></trkpt><trkpt lat="45.72417877954102" lon="9.797627899803736"><ele>619.0</ele><time>2026-03-29T15:01:39Z</time></trkpt><trkpt lat="45.72417843302744" lon="9.797766308540035"><ele>619.0</ele><time>2026-03-29T15:01:42Z</time></trkpt><trkpt lat="45.72416386635599" lon="9.797890078102224"><ele>619.0</ele><time>2026-03-29T15:01:45Z</time></trkpt><trkpt lat="45.72415966532882" lon="9.798013286506123"><ele>619.0</ele><time>2026-03-29T15:01:48Z</time></trkpt><trkpt lat="45.72415195551472" lon="9.798106611726153"><ele>619.0</ele><time>2026-03-29T15:01:51Z</time></trkpt><trkpt lat="45.72414318154185" lon="9.798216684165007"><ele>621.8333333333334</ele><time>2026-03-29T15:01:54Z</time></trkpt><trkpt lat="45.72414340215666" lon="9.798323150729358"><ele>624.6666666666667</ele><time>2026-03-29T15:01:56Z</time></trkpt><trkpt lat="45.72413475098375" lon="9.798454860754944"><ele>627.5</ele><time>2026-03-29T15:01:59Z</time></trkpt><trkpt lat="45.724128496332746" lon="9.798566018749963"><ele>630.3333333333334</ele><time>2026-03-29T15:02:02Z</time></trkpt><trkpt lat="45.724115410991544" lon="9.798695889498715"><ele>633.1666666666666</ele><time>2026-03-29T15:02:05Z</time></trkpt><trkpt lat="45.7240909455421" lon="9.798817634513403"><ele>636.0</ele><time>2026-03-29T15:02:08Z</time></trkpt><trkpt lat="45.724062937636916" lon="9.798913374833981"><ele>639.3333333333334</ele><time>2026-03-29T15:02:11Z</time></trkpt><trkpt lat="45.72411351144675" lon="9.798971014288908"><ele>642.6666666666666</ele><time>2026-03-29T15:02:15Z</time></trkpt><trkpt lat="45.724188904187315" lon="9.798923735164268"><ele>646.0</ele><time>2026-03-29T15:02:17Z</time></trkpt><trkpt lat="45.72425077659957" lon="9.798844364267962"><ele>649.3333333333333</ele><time>2026-03-29T15:02:19Z</time></trkpt><trkpt lat="45.7242966468874" lon="9.798740445376444"><ele>652.6666666666666</ele><time>2026-03-29T15:02:21Z</time></trkpt><trkpt lat="45.72435386532257" lon="9.79864999231862"><ele>656.0</ele><time>2026-03-29T15:02:23Z</time></trkpt><trkpt lat="45.724397504963434" lon="9.798544007783219"><ele>656.6666666666666</ele><time>2026-03-29T15:02:25Z</time></trkpt><trkpt lat="45.72441993949736" lon="9.798459743185958"><ele>657.3333333333333</ele><time>2026-03-29T15:02:27Z</time></trkpt><trkpt lat="45.72445288382321" lon="9.798363124631926"><ele>658.0</ele><time>2026-03-29T15:02:30Z</time></trkpt><trkpt lat="45.72448737945381" lon="9.798286188250946"><ele>658.6666666666666</ele><time>2026-03-29T15:02:33Z</time></trkpt><trkpt lat="45.72450844062692" lon="9.798188095102061"><ele>659.3333333333334</ele><time>2026-03-29T15:02:35Z</time></trkpt><trkpt lat="45.724548564350336" lon="9.798062873212011"><ele>660.0</ele><time>2026-03-29T15:02:38Z</time></trkpt><trkpt lat="45.72462632191403" lon="9.797985999232262"><ele>660.0</ele><time>2026-03-29T15:02:41Z</time></trkpt><trkpt lat="45.724709010772266" lon="9.797996597222179"><ele>660.0</ele><time>2026-03-29T15:02:44Z</time></trkpt><trkpt lat="45.724773412111126" lon="9.798050201260274"><ele>660.0</ele><time>2026-03-29T15:02:47Z</time></trkpt><trkpt lat="45.72482025292544" lon="9.798117063405087"><ele>660.0</ele><time>2026-03-29T15:02:50Z</time></trkpt><trkpt lat="45.724837378903736" lon="9.798232593908319"><ele>660.0</ele><time>2026-03-29T15:02:53Z</time></trkpt><trkpt lat="45.72481031497708" lon="9.798341067298765"><ele>660.0</ele><time>2026-03-29T15:02:56Z</time></trkpt><trkpt lat="45.72482403649857" lon="9.798468204573949"><ele>661.0</ele><time>2026-03-29T15:02:59Z</time></trkpt><trkpt lat="45.72483593666568" lon="9.798568503678828"><ele>662.0</ele><time>2026-03-29T15:03:02Z</time></trkpt><trkpt lat="45.72482386790145" lon="9.798659938759052"><ele>663.0</ele><time>2026-03-29T15:03:04Z</time></trkpt><trkpt lat="45.724812425239186" lon="9.798778360869628"><ele>664.0</ele><time>2026-03-29T15:03:07Z</time></trkpt><trkpt lat="45.72478612114918" lon="9.798903040883536"><ele>665.0</ele><time>2026-03-29T15:03:10Z</time></trkpt><trkpt lat="45.72478570985955" lon="9.799004152496828"><ele>666.0</ele><time>2026-03-29T15:03:13Z</time></trkpt><trkpt lat="45.72475980635623" lon="9.799106615285027"><ele>666.0</ele><time>2026-03-29T15:03:16Z</time></trkpt><trkpt lat="45.72476370782804" lon="9.799198355394644"><ele>666.0</ele><time>2026-03-29T15:03:19Z</time></trkpt><trkpt lat="45.72471240599289" lon="9.799289292833762"><ele>666.0</ele><time>2026-03-29T15:03:22Z</time></trkpt><trkpt lat="45.72468356693452" lon="9.799398912943285"><ele>666.0</ele><time>2026-03-29T15:03:25Z</time></trkpt><trkpt lat="45.724631213072634" lon="9.7995008171276"><ele>666.0</ele><time>2026-03-29T15:03:28Z</time></trkpt><trkpt lat="45.72458583591516" lon="9.799587454994859"><ele>666.0</ele><time>2026-03-29T15:03:31Z</time></trkpt><trkpt lat="45.72457613498822" lon="9.799683459883562"><ele>666.3333333333334</ele><time>2026-03-29T15:03:33Z</time></trkpt><trkpt lat="45.72453300711938" lon="9.799775814760046"><ele>666.6666666666666</ele><time>2026-03-29T15:03:36Z</time></trkpt><trkpt lat="45.724493290753955" lon="9.799852468462934"><ele>667.0</ele><time>2026-03-29T15:03:38Z</time></trkpt><trkpt lat="45.724504771979575" lon="9.79996781291428"><ele>667.3333333333333</ele><time>2026-03-29T15:03:41Z</time></trkpt><trkpt lat="45.72449038851539" lon="9.800075392216703"><ele>667.6666666666666</ele><time>2026-03-29T15:03:44Z</time></trkpt><trkpt lat="45.72446510330921" lon="9.80018400651116"><ele>668.0</ele><time>2026-03-29T15:03:47Z</time></trkpt><trkpt lat="45.72439342207227" lon="9.800277843502222"><ele>671.1666666666666</ele><time>2026-03-29T15:03:50Z</time></trkpt><trkpt lat="45.72434449601895" lon="9.80037614444687"><ele>674.3333333333333</ele><time>2026-03-29T15:03:53Z</time></trkpt><trkpt lat="45.72429304879997" lon="9.80044639479743"><ele>677.5</ele><time>2026-03-29T15:03:56Z</time></trkpt><trkpt lat="45.724255345263956" lon="9.800552354206655"><ele>680.6666666666666</ele><time>2026-03-29T15:03:59Z</time></trkpt><trkpt lat="45.724223498666795" lon="9.800677622595755"><ele>683.8333333333334</ele><time>2026-03-29T15:04:02Z</time></trkpt><trkpt lat="45.724176324750815" lon="9.800773771322698"><ele>687.0</ele><time>2026-03-29T15:04:05Z</time></trkpt><trkpt lat="45.72415844731141" lon="9.800903265752801"><ele>685.25</ele><time>2026-03-29T15:04:08Z</time></trkpt><trkpt lat="45.724171627678466" lon="9.801056751630522"><ele>683.5</ele><time>2026-03-29T15:04:10Z</time></trkpt><trkpt lat="45.72417279324902" lon="9.80120963089566"><ele>681.75</ele><time>2026-03-29T15:04:12Z</time></trkpt><trkpt lat="45.72417007255938" lon="9.801386550964143"><ele>680.0</ele><time>2026-03-29T15:04:14Z</time></trkpt><trkpt lat="45.724155527418574" lon="9.801556218947367"><ele>680.0</ele><time>2026-03-29T15:04:16Z</time></trkpt><trkpt lat="45.72414703224437" lon="9.801737651334443"><ele>680.0</ele><time>2026-03-29T15:04:18Z</time></trkpt><trkpt lat="45.7241402036182" lon="9.80190901576769"><ele>680.0</ele><time>2026-03-29T15:04:20Z</time></trkpt><trkpt lat="45.72413750035325" lon="9.802063739046522"><ele>680.0</ele><time>2026-03-29T15:04:22Z</time></trkpt><trkpt lat="45.72412046658659" lon="9.802201342606596"><ele>679.3333333333333</ele><time>2026-03-29T15:04:42Z</time></trkpt><trkpt lat="45.72412498318491" lon="9.802313916526334"><ele>678.6666666666666</ele><time>2026-03-29T15:04:44Z</time></trkpt><trkpt lat="45.72412748424129" lon="9.802449382338834"><ele>678.0</ele><time>2026-03-29T15:04:47Z</time></trkpt><trkpt lat="45.72412552309198" lon="9.802565832612737"><ele>677.3333333333334</ele><time>2026-03-29T15:04:49Z</time></trkpt><trkpt lat="45.72411959604121" lon="9.802678618591381"><ele>676.6666666666667</ele><time>2026-03-29T15:04:51Z</time></trkpt><trkpt lat="45.72410573667258" lon="9.802791604024902"><ele>676.0</ele><time>2026-03-29T15:04:53Z</time></trkpt><trkpt lat="45.72410167489929" lon="9.802906521013403"><ele>676.0</ele><time>2026-03-29T15:04:55Z</time></trkpt><trkpt lat="45.72408797729595" lon="9.803016677369039"><ele>676.0</ele><time>2026-03-29T15:04:57Z</time></trkpt><trkpt lat="45.72406868294193" lon="9.803102525436355"><ele>676.0</ele><time>2026-03-29T15:04:59Z</time></trkpt><trkpt lat="45.724049976015806" lon="9.80322768267252"><ele>676.0</ele><time>2026-03-29T15:05:02Z</time></trkpt><trkpt lat="45.72407360228288" lon="9.803352815688006"><ele>676.0</ele><time>2026-03-29T15:05:04Z</time></trkpt><trkpt lat="45.72407306467224" lon="9.80350584357762"><ele>676.0</ele><time>2026-03-29T15:05:06Z</time></trkpt><trkpt lat="45.7240762026495" lon="9.803597930616451"><ele>675.5</ele><time>2026-03-29T15:05:07Z</time></trkpt><trkpt lat="45.72408251365937" lon="9.803693415484455"><ele>675.0</ele><time>2026-03-29T15:05:08Z</time></trkpt><trkpt lat="45.72409306451935" lon="9.80380425592965"><ele>674.5</ele><time>2026-03-29T15:05:09Z</time></trkpt><trkpt lat="45.72409924686884" lon="9.803913815107045"><ele>674.0</ele><time>2026-03-29T15:05:10Z</time></trkpt><trkpt lat="45.72410694571734" lon="9.804024494691456"><ele>673.5</ele><time>2026-03-29T15:05:11Z</time></trkpt><trkpt lat="45.7241205603836" lon="9.804138193523453"><ele>673.0</ele><time>2026-03-29T15:05:12Z</time></trkpt><trkpt lat="45.72412542194359" lon="9.804247810119598"><ele>673.3333333333334</ele><time>2026-03-29T15:05:13Z</time></trkpt><trkpt lat="45.724140543578564" lon="9.804355583421698"><ele>673.6666666666667</ele><time>2026-03-29T15:05:14Z</time></trkpt><trkpt lat="45.724159640903004" lon="9.804460691782184"><ele>674.0</ele><time>2026-03-29T15:05:15Z</time></trkpt><trkpt lat="45.72418087922696" lon="9.8045551287497"><ele>674.3333333333334</ele><time>2026-03-29T15:05:16Z</time></trkpt><trkpt lat="45.72421297829802" lon="9.804644699145705"><ele>674.6666666666666</ele><time>2026-03-29T15:05:17Z</time></trkpt><trkpt lat="45.72425206596008" lon="9.804797053281947"><ele>675.0</ele><time>2026-03-29T15:05:19Z</time></trkpt><trkpt lat="45.72426876601847" lon="9.804933614087487"><ele>675.0</ele><time>2026-03-29T15:05:21Z</time></trkpt><trkpt lat="45.72429035477925" lon="9.80507723667068"><ele>675.0</ele><time>2026-03-29T15:05:23Z</time></trkpt><trkpt lat="45.724302317651336" lon="9.80520105966876"><ele>675.0</ele><time>2026-03-29T15:05:25Z</time></trkpt><trkpt lat="45.72433523865654" lon="9.805284471017995"><ele>675.0</ele><time>2026-03-29T15:06:07Z</time></trkpt><trkpt lat="45.72438695677705" lon="9.805362107472606"><ele>675.0</ele><time>2026-03-29T15:06:10Z</time></trkpt><trkpt lat="45.72444461992609" lon="9.805445279611462"><ele>675.0</ele><time>2026-03-29T15:06:13Z</time></trkpt><trkpt lat="45.7244877942698" lon="9.805515258723773"><ele>674.6666666666666</ele><time>2026-03-29T15:06:15Z</time></trkpt><trkpt lat="45.724536402101535" lon="9.805638496663835"><ele>674.3333333333334</ele><time>2026-03-29T15:06:17Z</time></trkpt><trkpt lat="45.724571797880294" lon="9.805801988893323"><ele>674.0</ele><time>2026-03-29T15:06:19Z</time></trkpt><trkpt lat="45.724594335187156" lon="9.805918507573992"><ele>673.6666666666667</ele><time>2026-03-29T15:06:21Z</time></trkpt><trkpt lat="45.72463542725515" lon="9.805996807473058"><ele>673.3333333333334</ele><time>2026-03-29T15:06:23Z</time></trkpt><trkpt lat="45.72469368230813" lon="9.806040649361478"><ele>673.0</ele><time>2026-03-29T15:06:25Z</time></trkpt><trkpt lat="45.72476038875676" lon="9.80610032935691"><ele>673.0</ele><time>2026-03-29T15:06:27Z</time></trkpt><trkpt lat="45.72485704062512" lon="9.806204942078432"><ele>673.0</ele><time>2026-03-29T15:06:29Z</time></trkpt><trkpt lat="45.72489811124216" lon="9.806275623860097"><ele>673.0</ele><time>2026-03-29T15:06:30Z</time></trkpt><trkpt lat="45.724941286954156" lon="9.806357017561917"><ele>673.0</ele><time>2026-03-29T15:06:31Z</time></trkpt><trkpt lat="45.724978509618104" lon="9.806446458416168"><ele>673.0</ele><time>2026-03-29T15:06:32Z</time></trkpt><trkpt lat="45.725006138812304" lon="9.806540984100572"><ele>673.0</ele><time>2026-03-29T15:06:33Z</time></trkpt><trkpt lat="45.725028194473616" lon="9.806638505209666"><ele>673.0</ele><time>2026-03-29T15:06:34Z</time></trkpt><trkpt lat="45.7250479371515" lon="9.80673934903479"><ele>673.0</ele><time>2026-03-29T15:06:35Z</time></trkpt><trkpt lat="45.72506994227029" lon="9.806828651006617"><ele>673.0</ele><time>2026-03-29T15:06:36Z</time></trkpt><trkpt lat="45.725095547512055" lon="9.806918349002396"><ele>673.0</ele><time>2026-03-29T15:06:37Z</time></trkpt><trkpt lat="45.725122594448635" lon="9.807010775245594"><ele>673.0</ele><time>2026-03-29T15:06:38Z</time></trkpt><trkpt lat="45.7251918083756" lon="9.807124386946636"><ele>673.0</ele><time>2026-03-29T15:06:40Z</time></trkpt><trkpt lat="45.72528648519909" lon="9.807203495962588"><ele>672.0</ele><time>2026-03-29T15:06:42Z</time></trkpt><trkpt lat="45.72536816964405" lon="9.807328986009649"><ele>671.0</ele><time>2026-03-29T15:06:44Z</time></trkpt><trkpt lat="45.72541147699883" lon="9.807417892278576"><ele>670.0</ele><time>2026-03-29T15:06:45Z</time></trkpt><trkpt lat="45.725469131501995" lon="9.807499037645385"><ele>669.0</ele><time>2026-03-29T15:06:46Z</time></trkpt><trkpt lat="45.72557590300748" lon="9.807560347485254"><ele>668.0</ele><time>2026-03-29T15:06:48Z</time></trkpt><trkpt lat="45.725666980609496" lon="9.807618960704822"><ele>671.5</ele><time>2026-03-29T15:06:50Z</time></trkpt><trkpt lat="45.72573825795522" lon="9.80769848514974"><ele>675.0</ele><time>2026-03-29T15:06:52Z</time></trkpt><trkpt lat="45.7257792227503" lon="9.807767746182849"><ele>678.5</ele><time>2026-03-29T15:06:53Z</time></trkpt><trkpt lat="45.72588065378605" lon="9.807860547298922"><ele>682.0</ele><time>2026-03-29T15:06:55Z</time></trkpt><trkpt lat="45.72594378187174" lon="9.807853051275039"><ele>685.5</ele><time>2026-03-29T15:06:56Z</time></trkpt><trkpt lat="45.72600143026574" lon="9.807801803235545"><ele>689.0</ele><time>2026-03-29T15:06:57Z</time></trkpt><trkpt lat="45.72605298626961" lon="9.807673496588768"><ele>684.6</ele><time>2026-03-29T15:06:59Z</time></trkpt><trkpt lat="45.72612069085731" lon="9.807541755367891"><ele>680.2</ele><time>2026-03-29T15:07:01Z</time></trkpt><trkpt lat="45.7262137510758" lon="9.807421579016792"><ele>675.8000000000001</ele><time>2026-03-29T15:07:03Z</time></trkpt><trkpt lat="45.726267482527945" lon="9.807359259085032"><ele>671.4000000000001</ele><time>2026-03-29T15:07:04Z</time></trkpt><trkpt lat="45.726327366176704" lon="9.807291656269678"><ele>667.0</ele><time>2026-03-29T15:07:05Z</time></trkpt><trkpt lat="45.726386997165584" lon="9.807221844557823"><ele>667.0000000000001</ele><time>2026-03-29T15:07:06Z</time></trkpt><trkpt lat="45.72644805825587" lon="9.807163945703904"><ele>667.0</ele><time>2026-03-29T15:07:07Z</time></trkpt><trkpt lat="45.726502321977804" lon="9.807116416614601"><ele>667.0</ele><time>2026-03-29T15:07:08Z</time></trkpt><trkpt lat="45.72656735664469" lon="9.80706186823082"><ele>667.0</ele><time>2026-03-29T15:07:09Z</time></trkpt><trkpt lat="45.726629260118656" lon="9.807007046358088"><ele>667.0</ele><time>2026-03-29T15:07:10Z</time></trkpt><trkpt lat="45.72668443908208" lon="9.806951594179395"><ele>667.0000000000001</ele><time>2026-03-29T15:07:11Z</time></trkpt><trkpt lat="45.72674142678119" lon="9.806901755629639"><ele>667.0</ele><time>2026-03-29T15:07:12Z</time></trkpt><trkpt lat="45.7268007177666" lon="9.806856089591392"><ele>662.5</ele><time>2026-03-29T15:07:13Z</time></trkpt><trkpt lat="45.726911857389204" lon="9.806785535400286"><ele>658.0</ele><time>2026-03-29T15:07:15Z</time></trkpt><trkpt lat="45.72701327230524" lon="9.806729854854092"><ele>653.5</ele><time>2026-03-29T15:07:17Z</time></trkpt><trkpt lat="45.72711543009641" lon="9.80670142337018"><ele>649.0</ele><time>2026-03-29T15:07:19Z</time></trkpt><trkpt lat="45.727232415510755" lon="9.806716082071446"><ele>649.0</ele><time>2026-03-29T15:07:21Z</time></trkpt><trkpt lat="45.72733659340166" lon="9.806743134512713"><ele>649.0</ele><time>2026-03-29T15:07:23Z</time></trkpt><trkpt lat="45.7274052916307" lon="9.806797637157462"><ele>649.0</ele><time>2026-03-29T15:07:25Z</time></trkpt><trkpt lat="45.727470570613" lon="9.80679573609049"><ele>649.0</ele><time>2026-03-29T15:07:33Z</time></trkpt><trkpt lat="45.72751729344454" lon="9.806872720056392"><ele>649.0</ele><time>2026-03-29T15:08:19Z</time></trkpt><trkpt lat="45.72759777956992" lon="9.806993927065866"><ele>649.0</ele><time>2026-03-29T15:08:22Z</time></trkpt><trkpt lat="45.727652815663056" lon="9.807066997266883"><ele>648.3333333333334</ele><time>2026-03-29T15:08:24Z</time></trkpt><trkpt lat="45.727708217841005" lon="9.807143485676512"><ele>647.6666666666667</ele><time>2026-03-29T15:08:26Z</time></trkpt><trkpt lat="45.72776624056756" lon="9.807219513791289"><ele>647.0</ele><time>2026-03-29T15:08:28Z</time></trkpt><trkpt lat="45.72780683877952" lon="9.807345064879993"><ele>646.3333333333334</ele><time>2026-03-29T15:08:30Z</time></trkpt><trkpt lat="45.72779216262823" lon="9.807485185636445"><ele>645.6666666666666</ele><time>2026-03-29T15:08:32Z</time></trkpt><trkpt lat="45.72782000865623" lon="9.807594829852674"><ele>645.0</ele><time>2026-03-29T15:08:34Z</time></trkpt><trkpt lat="45.727884640557114" lon="9.80765932725771"><ele>648.1666666666666</ele><time>2026-03-29T15:08:36Z</time></trkpt><trkpt lat="45.72796564227241" lon="9.807698842432327"><ele>651.3333333333334</ele><time>2026-03-29T15:08:38Z</time></trkpt><trkpt lat="45.72804831530864" lon="9.807762806556283"><ele>654.5</ele><time>2026-03-29T15:08:40Z</time></trkpt><trkpt lat="45.728108001172956" lon="9.807844160196044"><ele>657.6666666666667</ele><time>2026-03-29T15:08:42Z</time></trkpt><trkpt lat="45.72813333067927" lon="9.807953776352146"><ele>660.8333333333334</ele><time>2026-03-29T15:08:44Z</time></trkpt><trkpt lat="45.728174212557924" lon="9.808093862966704"><ele>664.0</ele><time>2026-03-29T15:08:46Z</time></trkpt><trkpt lat="45.728253115171896" lon="9.808216288546493"><ele>664.0</ele><time>2026-03-29T15:08:48Z</time></trkpt><trkpt lat="45.728306167008796" lon="9.808280647658115"><ele>664.0</ele><time>2026-03-29T15:08:49Z</time></trkpt><trkpt lat="45.728391312472986" lon="9.808373693442505"><ele>664.0</ele><time>2026-03-29T15:08:51Z</time></trkpt><trkpt lat="45.72844430130901" lon="9.808448698787839"><ele>664.0</ele><time>2026-03-29T15:08:52Z</time></trkpt><trkpt lat="45.72849241728928" lon="9.80854498549011"><ele>664.0</ele><time>2026-03-29T15:08:53Z</time></trkpt><trkpt lat="45.72853146491488" lon="9.808654542507048"><ele>664.0</ele><time>2026-03-29T15:08:54Z</time></trkpt><trkpt lat="45.72856238545814" lon="9.80876862586353"><ele>667.0</ele><time>2026-03-29T15:08:55Z</time></trkpt><trkpt lat="45.728595877947406" lon="9.808877290276735"><ele>670.0</ele><time>2026-03-29T15:08:56Z</time></trkpt><trkpt lat="45.72862616792645" lon="9.808983145102728"><ele>673.0</ele><time>2026-03-29T15:08:57Z</time></trkpt><trkpt lat="45.72864950141921" lon="9.809067795689309"><ele>676.0</ele><time>2026-03-29T15:08:58Z</time></trkpt><trkpt lat="45.72871814850752" lon="9.809181025044102"><ele>679.0</ele><time>2026-03-29T15:09:00Z</time></trkpt><trkpt lat="45.728836843545714" lon="9.809153440434622"><ele>679.0</ele><time>2026-03-29T15:09:02Z</time></trkpt><trkpt lat="45.72891956210616" lon="9.809067910840051"><ele>679.0</ele><time>2026-03-29T15:09:04Z</time></trkpt><trkpt lat="45.728987603633115" lon="9.808960577901054"><ele>679.0</ele><time>2026-03-29T15:09:06Z</time></trkpt><trkpt lat="45.72906674189328" lon="9.808840935244802"><ele>679.0</ele><time>2026-03-29T15:09:08Z</time></trkpt><trkpt lat="45.72911496335852" lon="9.808777046929581"><ele>679.0</ele><time>2026-03-29T15:09:09Z</time></trkpt><trkpt lat="45.72916271265366" lon="9.808705194497433"><ele>679.0</ele><time>2026-03-29T15:09:10Z</time></trkpt><trkpt lat="45.72922191326934" lon="9.808638401443966"><ele>679.0</ele><time>2026-03-29T15:09:11Z</time></trkpt><trkpt lat="45.72927853939353" lon="9.808557044301434"><ele>679.0</ele><time>2026-03-29T15:09:12Z</time></trkpt><trkpt lat="45.72932094900461" lon="9.808447260607032"><ele>679.0</ele><time>2026-03-29T15:09:13Z</time></trkpt><trkpt lat="45.729357512786095" lon="9.808316003096968"><ele>679.0</ele><time>2026-03-29T15:09:14Z</time></trkpt><trkpt lat="45.72939717096501" lon="9.808197204395677"><ele>679.0</ele><time>2026-03-29T15:09:15Z</time></trkpt><trkpt lat="45.72944078684542" lon="9.808071452071093"><ele>680.6</ele><time>2026-03-29T15:09:16Z</time></trkpt><trkpt lat="45.72948711169589" lon="9.807953942386685"><ele>682.2</ele><time>2026-03-29T15:09:17Z</time></trkpt><trkpt lat="45.72953865797989" lon="9.807851537234333"><ele>683.8000000000001</ele><time>2026-03-29T15:09:18Z</time></trkpt><trkpt lat="45.72958590719185" lon="9.807756838296477"><ele>685.4000000000001</ele><time>2026-03-29T15:09:19Z</time></trkpt><trkpt lat="45.729632104058105" lon="9.807617014112795"><ele>687.0</ele><time>2026-03-29T15:09:21Z</time></trkpt><trkpt lat="45.72957286593717" lon="9.807531654498689"><ele>687.0</ele><time>2026-03-29T15:09:23Z</time></trkpt><trkpt lat="45.72951429933325" lon="9.80757202316956"><ele>687.0</ele><time>2026-03-29T15:09:24Z</time></trkpt><trkpt lat="45.72946765513399" lon="9.807642129796593"><ele>687.0</ele><time>2026-03-29T15:09:25Z</time></trkpt><trkpt lat="45.72942213641754" lon="9.80772135130302"><ele>687.0</ele><time>2026-03-29T15:09:26Z</time></trkpt><trkpt lat="45.7293695958319" lon="9.80778239589737"><ele>687.0</ele><time>2026-03-29T15:09:27Z</time></trkpt><trkpt lat="45.72931977771046" lon="9.8078502270813"><ele>687.0</ele><time>2026-03-29T15:09:28Z</time></trkpt><trkpt lat="45.72923078271851" lon="9.807912181170547"><ele>687.0</ele><time>2026-03-29T15:09:30Z</time></trkpt><trkpt lat="45.72919805041808" lon="9.807802179800818"><ele>683.1666666666666</ele><time>2026-03-29T15:09:32Z</time></trkpt><trkpt lat="45.72928099752337" lon="9.807650366064687"><ele>679.3333333333334</ele><time>2026-03-29T15:09:34Z</time></trkpt><trkpt lat="45.72932742127622" lon="9.8075766631223"><ele>675.5</ele><time>2026-03-29T15:09:35Z</time></trkpt><trkpt lat="45.72937327534285" lon="9.807496375426208"><ele>671.6666666666667</ele><time>2026-03-29T15:09:36Z</time></trkpt><trkpt lat="45.72940937042697" lon="9.807405074223444"><ele>667.8333333333334</ele><time>2026-03-29T15:09:37Z</time></trkpt><trkpt lat="45.72943942301027" lon="9.807294936482608"><ele>664.0</ele><time>2026-03-29T15:09:38Z</time></trkpt><trkpt lat="45.729447807200415" lon="9.807175663692156"><ele>664.0</ele><time>2026-03-29T15:09:39Z</time></trkpt><trkpt lat="45.729441492141156" lon="9.80704845354823"><ele>664.0</ele><time>2026-03-29T15:09:40Z</time></trkpt><trkpt lat="45.72944969601823" lon="9.806902938274776"><ele>664.0</ele><time>2026-03-29T15:09:41Z</time></trkpt><trkpt lat="45.72947724210214" lon="9.806761075937452"><ele>664.0</ele><time>2026-03-29T15:09:42Z</time></trkpt><trkpt lat="45.72950456529524" lon="9.806628719955075"><ele>664.0</ele><time>2026-03-29T15:09:43Z</time></trkpt><trkpt lat="45.72953302362921" lon="9.806507143989718"><ele>661.0</ele><time>2026-03-29T15:09:44Z</time></trkpt><trkpt lat="45.72956630116114" lon="9.806393582974115"><ele>658.0</ele><time>2026-03-29T15:09:45Z</time></trkpt><trkpt lat="45.7296204227888" lon="9.806298633053235"><ele>655.0</ele><time>2026-03-29T15:09:46Z</time></trkpt><trkpt lat="45.72966768751332" lon="9.806190154916846"><ele>652.0</ele><time>2026-03-29T15:09:47Z</time></trkpt><trkpt lat="45.72970051676845" lon="9.806059770462893"><ele>649.0</ele><time>2026-03-29T15:09:48Z</time></trkpt><trkpt lat="45.72971843645082" lon="9.805924490530167"><ele>644.8000000000001</ele><time>2026-03-29T15:09:49Z</time></trkpt><trkpt lat="45.72974020502566" lon="9.805788788371068"><ele>640.6</ele><time>2026-03-29T15:09:50Z</time></trkpt><trkpt lat="45.72976691285225" lon="9.805649535209017"><ele>636.4</ele><time>2026-03-29T15:09:51Z</time></trkpt><trkpt lat="45.72978944042944" lon="9.805505814605423"><ele>632.2</ele><time>2026-03-29T15:09:52Z</time></trkpt><trkpt lat="45.7298108416421" lon="9.805360282398542"><ele>628.0</ele><time>2026-03-29T15:09:53Z</time></trkpt><trkpt lat="45.729827076948034" lon="9.805208494700878"><ele>625.1666666666667</ele><time>2026-03-29T15:09:54Z</time></trkpt><trkpt lat="45.72984820058371" lon="9.805073789607981"><ele>622.3333333333334</ele><time>2026-03-29T15:09:55Z</time></trkpt><trkpt lat="45.729875253861884" lon="9.804951864145044"><ele>619.5</ele><time>2026-03-29T15:09:56Z</time></trkpt><trkpt lat="45.7298995048876" lon="9.80481888533189"><ele>616.6666666666666</ele><time>2026-03-29T15:09:57Z</time></trkpt><trkpt lat="45.72991970104837" lon="9.804701037952674"><ele>613.8333333333333</ele><time>2026-03-29T15:09:58Z</time></trkpt><trkpt lat="45.72994875807855" lon="9.804589788398907"><ele>611.0</ele><time>2026-03-29T15:09:59Z</time></trkpt><trkpt lat="45.72998290775967" lon="9.804490126715558"><ele>611.0</ele><time>2026-03-29T15:10:00Z</time></trkpt><trkpt lat="45.73000130703726" lon="9.8043744884014"><ele>611.0</ele><time>2026-03-29T15:10:01Z</time></trkpt><trkpt lat="45.73001006797428" lon="9.804248552983761"><ele>611.0</ele><time>2026-03-29T15:10:02Z</time></trkpt><trkpt lat="45.730007417480536" lon="9.804094440227596"><ele>611.0</ele><time>2026-03-29T15:10:03Z</time></trkpt><trkpt lat="45.73002050472894" lon="9.803951641482366"><ele>611.0</ele><time>2026-03-29T15:10:04Z</time></trkpt><trkpt lat="45.73003290509432" lon="9.803798129856554"><ele>607.8</ele><time>2026-03-29T15:10:05Z</time></trkpt><trkpt lat="45.73004876139734" lon="9.803654665672221"><ele>604.6</ele><time>2026-03-29T15:10:06Z</time></trkpt><trkpt lat="45.73006282706483" lon="9.803512020459282"><ele>601.4</ele><time>2026-03-29T15:10:07Z</time></trkpt><trkpt lat="45.73005656547716" lon="9.803372438186766"><ele>598.2</ele><time>2026-03-29T15:10:08Z</time></trkpt><trkpt lat="45.73003418805302" lon="9.803241836450091"><ele>595.0</ele><time>2026-03-29T15:10:09Z</time></trkpt><trkpt lat="45.730011538454875" lon="9.80310911404063"><ele>593.3333333333334</ele><time>2026-03-29T15:10:10Z</time></trkpt><trkpt lat="45.729991448896925" lon="9.802966749156752"><ele>591.6666666666667</ele><time>2026-03-29T15:10:11Z</time></trkpt><trkpt lat="45.729973254371664" lon="9.802828606271259"><ele>590.0</ele><time>2026-03-29T15:10:12Z</time></trkpt><trkpt lat="45.72995819087727" lon="9.802708022205854"><ele>588.3333333333334</ele><time>2026-03-29T15:10:13Z</time></trkpt><trkpt lat="45.729949755294925" lon="9.802598298568698"><ele>586.6666666666666</ele><time>2026-03-29T15:10:14Z</time></trkpt><trkpt lat="45.72995204596721" lon="9.80249737886885"><ele>585.0</ele><time>2026-03-29T15:10:15Z</time></trkpt><trkpt lat="45.73000668740555" lon="9.802342375520668"><ele>583.7142857142858</ele><time>2026-03-29T15:10:17Z</time></trkpt><trkpt lat="45.730068481305544" lon="9.80228072608472"><ele>582.4285714285714</ele><time>2026-03-29T15:10:18Z</time></trkpt><trkpt lat="45.73014575593973" lon="9.802228259553798"><ele>581.1428571428571</ele><time>2026-03-29T15:10:19Z</time></trkpt><trkpt lat="45.73022651660309" lon="9.802183589655995"><ele>579.8571428571429</ele><time>2026-03-29T15:10:20Z</time></trkpt><trkpt lat="45.730281104254935" lon="9.802122853711678"><ele>578.5714285714286</ele><time>2026-03-29T15:10:21Z</time></trkpt><trkpt lat="45.73032139115411" lon="9.802051764334095"><ele>577.2857142857143</ele><time>2026-03-29T15:10:22Z</time></trkpt><trkpt lat="45.73033801755888" lon="9.801960344408498"><ele>576.0</ele><time>2026-03-29T15:10:23Z</time></trkpt><trkpt lat="45.73032440001584" lon="9.801856769819917"><ele>579.6666666666666</ele><time>2026-03-29T15:10:24Z</time></trkpt><trkpt lat="45.730314030671956" lon="9.801742599583612"><ele>583.3333333333334</ele><time>2026-03-29T15:10:25Z</time></trkpt><trkpt lat="45.730343551833606" lon="9.80162942013079"><ele>587.0</ele><time>2026-03-29T15:10:26Z</time></trkpt><trkpt lat="45.730398288248246" lon="9.801546834656444"><ele>590.6666666666667</ele><time>2026-03-29T15:10:27Z</time></trkpt><trkpt lat="45.730453087537704" lon="9.801449776105667"><ele>594.3333333333334</ele><time>2026-03-29T15:10:28Z</time></trkpt><trkpt lat="45.73049777845722" lon="9.801338779714005"><ele>598.0</ele><time>2026-03-29T15:10:29Z</time></trkpt><trkpt lat="45.73052278318291" lon="9.801221046567656"><ele>598.0</ele><time>2026-03-29T15:10:30Z</time></trkpt><trkpt lat="45.73053187131375" lon="9.801101358749145"><ele>598.0</ele><time>2026-03-29T15:10:31Z</time></trkpt><trkpt lat="45.73054520876757" lon="9.800973299053135"><ele>598.0</ele><time>2026-03-29T15:10:32Z</time></trkpt><trkpt lat="45.73055969851057" lon="9.800849103308023"><ele>598.0</ele><time>2026-03-29T15:10:33Z</time></trkpt><trkpt lat="45.7305948996992" lon="9.800727956806837"><ele>598.0</ele><time>2026-03-29T15:10:34Z</time></trkpt><trkpt lat="45.730637218972426" lon="9.800610658898659"><ele>598.0</ele><time>2026-03-29T15:10:35Z</time></trkpt><trkpt lat="45.73067648089792" lon="9.80049135917315"><ele>594.3333333333334</ele><time>2026-03-29T15:10:36Z</time></trkpt><trkpt lat="45.7307185156077" lon="9.80037547461299"><ele>590.6666666666667</ele><time>2026-03-29T15:10:37Z</time></trkpt><trkpt lat="45.73076860587029" lon="9.800285101662023"><ele>587.0</ele><time>2026-03-29T15:10:38Z</time></trkpt><trkpt lat="45.73080806571003" lon="9.800174206639007"><ele>583.3333333333334</ele><time>2026-03-29T15:10:39Z</time></trkpt><trkpt lat="45.730822548366454" lon="9.800048521418443"><ele>579.6666666666666</ele><time>2026-03-29T15:10:40Z</time></trkpt><trkpt lat="45.73081327397141" lon="9.799905783834411"><ele>576.0</ele><time>2026-03-29T15:10:41Z</time></trkpt><trkpt lat="45.73079591823473" lon="9.799765483140582"><ele>572.1666666666666</ele><time>2026-03-29T15:10:42Z</time></trkpt><trkpt lat="45.730796139303905" lon="9.799643282289004"><ele>568.3333333333334</ele><time>2026-03-29T15:10:43Z</time></trkpt><trkpt lat="45.73080735871081" lon="9.799541944515397"><ele>564.5</ele><time>2026-03-29T15:10:44Z</time></trkpt><trkpt lat="45.73083668092411" lon="9.799445803681806"><ele>560.6666666666667</ele><time>2026-03-29T15:10:45Z</time></trkpt><trkpt lat="45.73089226496272" lon="9.799344009370415"><ele>556.8333333333334</ele><time>2026-03-29T15:10:46Z</time></trkpt><trkpt lat="45.73096112883938" lon="9.79925074981395"><ele>553.0</ele><time>2026-03-29T15:10:47Z</time></trkpt><trkpt lat="45.73102537489817" lon="9.799172017426287"><ele>555.1666666666667</ele><time>2026-03-29T15:10:48Z</time></trkpt><trkpt lat="45.73108208663539" lon="9.799108327223454"><ele>557.3333333333334</ele><time>2026-03-29T15:10:49Z</time></trkpt><trkpt lat="45.73111649656891" lon="9.798995830551636"><ele>559.5</ele><time>2026-03-29T15:10:51Z</time></trkpt><trkpt lat="45.73101424223549" lon="9.798975336711226"><ele>561.6666666666666</ele><time>2026-03-29T15:10:53Z</time></trkpt><trkpt lat="45.73094905931325" lon="9.798988989832512"><ele>563.8333333333333</ele><time>2026-03-29T15:10:54Z</time></trkpt><trkpt lat="45.73087943064767" lon="9.798995867161503"><ele>566.0</ele><time>2026-03-29T15:10:55Z</time></trkpt><trkpt lat="45.7308048337849" lon="9.798997193125494"><ele>563.8333333333333</ele><time>2026-03-29T15:10:56Z</time></trkpt><trkpt lat="45.730724660685965" lon="9.799020733123433"><ele>561.6666666666666</ele><time>2026-03-29T15:10:57Z</time></trkpt><trkpt lat="45.73065740170451" lon="9.799082936033296"><ele>559.5</ele><time>2026-03-29T15:10:58Z</time></trkpt><trkpt lat="45.73059827640657" lon="9.79915829653107"><ele>557.3333333333334</ele><time>2026-03-29T15:10:59Z</time></trkpt><trkpt lat="45.73056291378044" lon="9.799264765217266"><ele>555.1666666666667</ele><time>2026-03-29T15:11:00Z</time></trkpt><trkpt lat="45.73053024122555" lon="9.799373090925348"><ele>553.0</ele><time>2026-03-29T15:11:01Z</time></trkpt><trkpt lat="45.73049055045703" lon="9.799475670400108"><ele>553.0</ele><time>2026-03-29T15:11:02Z</time></trkpt><trkpt lat="45.730457526328344" lon="9.799556080656618"><ele>553.0</ele><time>2026-03-29T15:11:03Z</time></trkpt><trkpt lat="45.73043139259541" lon="9.799696058112817"><ele>553.0</ele><time>2026-03-29T15:11:05Z</time></trkpt><trkpt lat="45.73034539279421" lon="9.799683762907001"><ele>553.0</ele><time>2026-03-29T15:11:08Z</time></trkpt><trkpt lat="45.73037848561242" lon="9.799529275790517"><ele>553.0</ele><time>2026-03-29T15:11:10Z</time></trkpt><trkpt lat="45.7304187799795" lon="9.799359670751482"><ele>549.3333333333334</ele><time>2026-03-29T15:11:12Z</time></trkpt><trkpt lat="45.73043560595773" lon="9.799260191014326"><ele>545.6666666666667</ele><time>2026-03-29T15:11:13Z</time></trkpt><trkpt lat="45.73046127837701" lon="9.799170338681437"><ele>542.0</ele><time>2026-03-29T15:11:14Z</time></trkpt><trkpt lat="45.73048487054337" lon="9.799075100725668"><ele>538.3333333333334</ele><time>2026-03-29T15:11:15Z</time></trkpt><trkpt lat="45.73051493002066" lon="9.798975388685658"><ele>534.6666666666666</ele><time>2026-03-29T15:11:16Z</time></trkpt><trkpt lat="45.73055642830372" lon="9.798874401047255"><ele>531.0</ele><time>2026-03-29T15:11:17Z</time></trkpt><trkpt lat="45.730605875481984" lon="9.798768275694812"><ele>531.0</ele><time>2026-03-29T15:11:18Z</time></trkpt><trkpt lat="45.730672280405585" lon="9.798668193310874"><ele>531.0</ele><time>2026-03-29T15:11:19Z</time></trkpt><trkpt lat="45.73075653122098" lon="9.798581509095294"><ele>531.0</ele><time>2026-03-29T15:11:20Z</time></trkpt><trkpt lat="45.73084739912196" lon="9.79848843771422"><ele>531.0</ele><time>2026-03-29T15:11:21Z</time></trkpt><trkpt lat="45.73093116326926" lon="9.798390643235642"><ele>531.0</ele><time>2026-03-29T15:11:22Z</time></trkpt><trkpt lat="45.7310022255342" lon="9.798280494122734"><ele>532.0</ele><time>2026-03-29T15:11:23Z</time></trkpt><trkpt lat="45.73107341930879" lon="9.798166484946476"><ele>533.0</ele><time>2026-03-29T15:11:24Z</time></trkpt><trkpt lat="45.731142607185895" lon="9.79806341110873"><ele>534.0</ele><time>2026-03-29T15:11:25Z</time></trkpt><trkpt lat="45.73121937388187" lon="9.7979714356515"><ele>535.0</ele><time>2026-03-29T15:11:26Z</time></trkpt><trkpt lat="45.731283671910965" lon="9.79790708471902"><ele>536.0</ele><time>2026-03-29T15:11:27Z</time></trkpt><trkpt lat="45.73134151461676" lon="9.797865684046698"><ele>536.0</ele><time>2026-03-29T15:11:28Z</time></trkpt><trkpt lat="45.73142001213459" lon="9.797830686626796"><ele>536.0</ele><time>2026-03-29T15:11:30Z</time></trkpt><trkpt lat="45.73148435588659" lon="9.797800719743496"><ele>536.0</ele><time>2026-03-29T15:11:32Z</time></trkpt><trkpt lat="45.731542395185144" lon="9.797758560553183"><ele>536.0</ele><time>2026-03-29T15:11:34Z</time></trkpt><trkpt lat="45.73158465636688" lon="9.797688975356612"><ele>536.0</ele><time>2026-03-29T15:11:36Z</time></trkpt><trkpt lat="45.731581440909544" lon="9.79759386572249"><ele>536.0</ele><time>2026-03-29T15:11:38Z</time></trkpt><trkpt lat="45.73154518061362" lon="9.797508907667105"><ele>536.0</ele><time>2026-03-29T15:11:39Z</time></trkpt><trkpt lat="45.73149637104069" lon="9.797415142299483"><ele>532.4</ele><time>2026-03-29T15:11:40Z</time></trkpt><trkpt lat="45.73145057442695" lon="9.797319353814435"><ele>528.8</ele><time>2026-03-29T15:11:41Z</time></trkpt><trkpt lat="45.731414074665445" lon="9.797120703064234"><ele>525.1999999999999</ele><time>2026-03-29T15:11:43Z</time></trkpt><trkpt lat="45.731368842733744" lon="9.796998150535174"><ele>521.6</ele><time>2026-03-29T15:11:44Z</time></trkpt><trkpt lat="45.73132270665517" lon="9.796873434947452"><ele>518.0</ele><time>2026-03-29T15:11:45Z</time></trkpt><trkpt lat="45.7312748519807" lon="9.796752293923747"><ele>516.8333333333333</ele><time>2026-03-29T15:11:46Z</time></trkpt><trkpt lat="45.73123608960909" lon="9.796637312749958"><ele>515.6666666666666</ele><time>2026-03-29T15:11:47Z</time></trkpt><trkpt lat="45.731203614525626" lon="9.796520461780228"><ele>514.5</ele><time>2026-03-29T15:11:48Z</time></trkpt><trkpt lat="45.731179072018016" lon="9.79639964784657"><ele>513.3333333333334</ele><time>2026-03-29T15:11:49Z</time></trkpt><trkpt lat="45.73116350215132" lon="9.796283635686192"><ele>512.1666666666667</ele><time>2026-03-29T15:11:50Z</time></trkpt><trkpt lat="45.73115192066495" lon="9.796181736154445"><ele>511.0</ele><time>2026-03-29T15:11:51Z</time></trkpt><trkpt lat="45.7311486638375" lon="9.796080693181322"><ele>508.0</ele><time>2026-03-29T15:11:52Z</time></trkpt><trkpt lat="45.731168479888964" lon="9.79595812710561"><ele>505.0</ele><time>2026-03-29T15:11:53Z</time></trkpt><trkpt lat="45.73120992815339" lon="9.795831635453025"><ele>502.0</ele><time>2026-03-29T15:11:54Z</time></trkpt><trkpt lat="45.73125878087096" lon="9.795696231526957"><ele>499.0</ele><time>2026-03-29T15:11:55Z</time></trkpt><trkpt lat="45.73130742223536" lon="9.795550617403936"><ele>496.0</ele><time>2026-03-29T15:11:56Z</time></trkpt><trkpt lat="45.731358121340094" lon="9.795407310614213"><ele>496.0</ele><time>2026-03-29T15:11:57Z</time></trkpt><trkpt lat="45.731405830445915" lon="9.795271205133359"><ele>496.0</ele><time>2026-03-29T15:11:58Z</time></trkpt><trkpt lat="45.73145854592216" lon="9.795156496850735"><ele>496.0</ele><time>2026-03-29T15:11:59Z</time></trkpt><trkpt lat="45.73152669438439" lon="9.795040536592188"><ele>496.0</ele><time>2026-03-29T15:12:00Z</time></trkpt><trkpt lat="45.731602677353145" lon="9.794947220569227"><ele>496.0</ele><time>2026-03-29T15:12:01Z</time></trkpt><trkpt lat="45.73168133368079" lon="9.794874802613075"><ele>497.1666666666667</ele><time>2026-03-29T15:12:02Z</time></trkpt><trkpt lat="45.731749913788526" lon="9.794806613255503"><ele>498.33333333333337</ele><time>2026-03-29T15:12:03Z</time></trkpt><trkpt lat="45.73180506220436" lon="9.7947237960998"><ele>499.5</ele><time>2026-03-29T15:12:04Z</time></trkpt><trkpt lat="45.73185045439689" lon="9.794628534370137"><ele>500.66666666666663</ele><time>2026-03-29T15:12:05Z</time></trkpt><trkpt lat="45.73188460747957" lon="9.794511748455886"><ele>501.8333333333333</ele><time>2026-03-29T15:12:06Z</time></trkpt><trkpt lat="45.73190937261314" lon="9.7943694158293"><ele>503.0</ele><time>2026-03-29T15:12:07Z</time></trkpt><trkpt lat="45.73194189785789" lon="9.794244757079056"><ele>497.2</ele><time>2026-03-29T15:12:08Z</time></trkpt><trkpt lat="45.731980975526966" lon="9.794129561317495"><ele>491.4</ele><time>2026-03-29T15:12:09Z</time></trkpt><trkpt lat="45.73202138264547" lon="9.794040056382777"><ele>485.59999999999997</ele><time>2026-03-29T15:12:10Z</time></trkpt><trkpt lat="45.732146089562086" lon="9.79398768300597"><ele>479.79999999999995</ele><time>2026-03-29T15:12:12Z</time></trkpt><trkpt lat="45.73221891106865" lon="9.793999526884562"><ele>474.0</ele><time>2026-03-29T15:12:13Z</time></trkpt><trkpt lat="45.732304492523" lon="9.794014564823732"><ele>474.0</ele><time>2026-03-29T15:12:14Z</time></trkpt><trkpt lat="45.7323968514514" lon="9.793988013592863"><ele>474.0</ele><time>2026-03-29T15:12:15Z</time></trkpt><trkpt lat="45.73246035009853" lon="9.793879283567204"><ele>474.0</ele><time>2026-03-29T15:12:16Z</time></trkpt><trkpt lat="45.73252958126216" lon="9.79379870957271"><ele>474.0</ele><time>2026-03-29T15:12:17Z</time></trkpt><trkpt lat="45.73261297364592" lon="9.793749373161345"><ele>474.0</ele><time>2026-03-29T15:12:18Z</time></trkpt><trkpt lat="45.73270347327996" lon="9.793704867295599"><ele>473.3333333333333</ele><time>2026-03-29T15:12:19Z</time></trkpt><trkpt lat="45.73278803470357" lon="9.793647587632604"><ele>472.66666666666663</ele><time>2026-03-29T15:12:20Z</time></trkpt><trkpt lat="45.732862096523526" lon="9.793594137772416"><ele>472.0</ele><time>2026-03-29T15:12:21Z</time></trkpt><trkpt lat="45.73293947809511" lon="9.79355145328548"><ele>471.3333333333333</ele><time>2026-03-29T15:12:22Z</time></trkpt><trkpt lat="45.73301657363381" lon="9.793533259037497"><ele>470.66666666666663</ele><time>2026-03-29T15:12:23Z</time></trkpt><trkpt lat="45.73310656575713" lon="9.79345047866083"><ele>470.0</ele><time>2026-03-29T15:12:25Z</time></trkpt><trkpt lat="45.733139463833396" lon="9.793373271229225"><ele>469.99999999999994</ele><time>2026-03-29T15:12:26Z</time></trkpt><trkpt lat="45.733089077549295" lon="9.793282406380325"><ele>470.0</ele><time>2026-03-29T15:12:27Z</time></trkpt><trkpt lat="45.7330328197972" lon="9.793210056714626"><ele>470.0</ele><time>2026-03-29T15:12:28Z</time></trkpt><trkpt lat="45.73297015981971" lon="9.793128361680576"><ele>470.0</ele><time>2026-03-29T15:12:29Z</time></trkpt><trkpt lat="45.732926532629804" lon="9.793035625518298"><ele>469.99999999999994</ele><time>2026-03-29T15:12:30Z</time></trkpt><trkpt lat="45.73288303228394" lon="9.79293111478188"><ele>470.0</ele><time>2026-03-29T15:12:31Z</time></trkpt><trkpt lat="45.732852549952014" lon="9.792814383425167"><ele>469.99999999999994</ele><time>2026-03-29T15:12:32Z</time></trkpt><trkpt lat="45.73283564707931" lon="9.792686121468227"><ele>470.0</ele><time>2026-03-29T15:12:33Z</time></trkpt><trkpt lat="45.73282201707614" lon="9.792556512603927"><ele>470.0</ele><time>2026-03-29T15:12:34Z</time></trkpt><trkpt lat="45.732810618128916" lon="9.792423779832358"><ele>470.0</ele><time>2026-03-29T15:12:35Z</time></trkpt><trkpt lat="45.73281394756304" lon="9.792301175761057"><ele>469.99999999999994</ele><time>2026-03-29T15:12:36Z</time></trkpt><trkpt lat="45.73283837034094" lon="9.792180946083944"><ele>470.0</ele><time>2026-03-29T15:12:37Z</time></trkpt><trkpt lat="45.7328685269878" lon="9.792056776342402"><ele>468.4</ele><time>2026-03-29T15:12:38Z</time></trkpt><trkpt lat="45.732898124531275" lon="9.791932485959544"><ele>466.8</ele><time>2026-03-29T15:12:39Z</time></trkpt><trkpt lat="45.73294896133712" lon="9.791819477986747"><ele>465.20000000000005</ele><time>2026-03-29T15:12:40Z</time></trkpt><trkpt lat="45.73301089196649" lon="9.791719341532456"><ele>463.6</ele><time>2026-03-29T15:12:41Z</time></trkpt><trkpt lat="45.73308049387708" lon="9.791640241308492"><ele>462.0</ele><time>2026-03-29T15:12:42Z</time></trkpt><trkpt lat="45.733149175764986" lon="9.791564503845896"><ele>459.1666666666667</ele><time>2026-03-29T15:12:43Z</time></trkpt><trkpt lat="45.73322212385984" lon="9.791500107851691"><ele>456.33333333333337</ele><time>2026-03-29T15:12:44Z</time></trkpt><trkpt lat="45.73330724854355" lon="9.79146988651975"><ele>453.5</ele><time>2026-03-29T15:12:45Z</time></trkpt><trkpt lat="45.733385772324404" lon="9.791445335560635"><ele>450.6666666666667</ele><time>2026-03-29T15:12:46Z</time></trkpt><trkpt lat="45.733463525105996" lon="9.791422754903428"><ele>447.83333333333337</ele><time>2026-03-29T15:12:47Z</time></trkpt><trkpt lat="45.733536122044114" lon="9.791388867987699"><ele>445.0</ele><time>2026-03-29T15:12:48Z</time></trkpt><trkpt lat="45.7335944183186" lon="9.79134691247172"><ele>446.6666666666667</ele><time>2026-03-29T15:12:49Z</time></trkpt><trkpt lat="45.733643355651665" lon="9.79127428369939"><ele>448.33333333333337</ele><time>2026-03-29T15:12:50Z</time></trkpt><trkpt lat="45.73369581186854" lon="9.791186622305931"><ele>450.0</ele><time>2026-03-29T15:12:51Z</time></trkpt><trkpt lat="45.73375125309273" lon="9.791095625467799"><ele>451.66666666666663</ele><time>2026-03-29T15:12:52Z</time></trkpt><trkpt lat="45.73380502597755" lon="9.791006737771413"><ele>453.3333333333333</ele><time>2026-03-29T15:12:53Z</time></trkpt><trkpt lat="45.733858306722084" lon="9.79091096507202"><ele>455.0</ele><time>2026-03-29T15:12:54Z</time></trkpt><trkpt lat="45.73390469857546" lon="9.790805126310548"><ele>455.0</ele><time>2026-03-29T15:12:55Z</time></trkpt><trkpt lat="45.733948907668314" lon="9.790699485106064"><ele>455.0</ele><time>2026-03-29T15:12:56Z</time></trkpt><trkpt lat="45.73399428699897" lon="9.79059403417305"><ele>455.0</ele><time>2026-03-29T15:12:57Z</time></trkpt><trkpt lat="45.734042655577554" lon="9.790483916793848"><ele>455.0</ele><time>2026-03-29T15:12:58Z</time></trkpt><trkpt lat="45.73409964726585" lon="9.790383893427643"><ele>455.0</ele><time>2026-03-29T15:12:59Z</time></trkpt><trkpt lat="45.73415693902786" lon="9.79027068603068"><ele>455.0</ele><time>2026-03-29T15:13:00Z</time></trkpt><trkpt lat="45.734225504674924" lon="9.790175093213502"><ele>455.0</ele><time>2026-03-29T15:13:01Z</time></trkpt><trkpt lat="45.734294628344315" lon="9.790082674139912"><ele>455.0</ele><time>2026-03-29T15:13:02Z</time></trkpt><trkpt lat="45.73437277441924" lon="9.789991847460662"><ele>455.0</ele><time>2026-03-29T15:13:03Z</time></trkpt><trkpt lat="45.734449077666554" lon="9.789898184249319"><ele>455.0</ele><time>2026-03-29T15:13:04Z</time></trkpt><trkpt lat="45.734530120856036" lon="9.78982207663305"><ele>455.2</ele><time>2026-03-29T15:13:05Z</time></trkpt><trkpt lat="45.73460716909764" lon="9.789731189292912"><ele>455.4</ele><time>2026-03-29T15:13:06Z</time></trkpt><trkpt lat="45.734673776391325" lon="9.78963962505896"><ele>455.6</ele><time>2026-03-29T15:13:07Z</time></trkpt><trkpt lat="45.734744561439015" lon="9.789551274862868"><ele>455.8</ele><time>2026-03-29T15:13:08Z</time></trkpt><trkpt lat="45.734816443198255" lon="9.789459525268766"><ele>456.0</ele><time>2026-03-29T15:13:09Z</time></trkpt><trkpt lat="45.73489297992668" lon="9.789379027734103"><ele>455.8</ele><time>2026-03-29T15:13:10Z</time></trkpt><trkpt lat="45.734968454122324" lon="9.789303104121368"><ele>455.6</ele><time>2026-03-29T15:13:11Z</time></trkpt><trkpt lat="45.735040463015515" lon="9.78921803801096"><ele>455.4</ele><time>2026-03-29T15:13:12Z</time></trkpt><trkpt lat="45.73511774191856" lon="9.789128596634109"><ele>455.2</ele><time>2026-03-29T15:13:13Z</time></trkpt><trkpt lat="45.735184976617326" lon="9.789044450464319"><ele>455.0</ele><time>2026-03-29T15:13:14Z</time></trkpt><trkpt lat="45.735249940224236" lon="9.788957522334961"><ele>454.99999999999994</ele><time>2026-03-29T15:13:15Z</time></trkpt><trkpt lat="45.73532672101768" lon="9.788877873315558"><ele>455.0</ele><time>2026-03-29T15:13:16Z</time></trkpt><trkpt lat="45.73539444136776" lon="9.788794135519446"><ele>455.0</ele><time>2026-03-29T15:13:17Z</time></trkpt><trkpt lat="45.73546119187544" lon="9.788708759544447"><ele>455.0</ele><time>2026-03-29T15:13:18Z</time></trkpt><trkpt lat="45.735533010074946" lon="9.788644286768093"><ele>454.99999999999994</ele><time>2026-03-29T15:13:19Z</time></trkpt><trkpt lat="45.73560582798076" lon="9.788576920134256"><ele>455.0</ele><time>2026-03-29T15:13:20Z</time></trkpt><trkpt lat="45.735680459013196" lon="9.78853045732526"><ele>450.16666666666663</ele><time>2026-03-29T15:13:21Z</time></trkpt><trkpt lat="45.735756609175475" lon="9.788496721721637"><ele>445.3333333333333</ele><time>2026-03-29T15:13:22Z</time></trkpt><trkpt lat="45.73583083085683" lon="9.788457950484815"><ele>440.5</ele><time>2026-03-29T15:13:23Z</time></trkpt><trkpt lat="45.7358943760029" lon="9.788392667648791"><ele>435.66666666666663</ele><time>2026-03-29T15:13:24Z</time></trkpt><trkpt lat="45.73594828522749" lon="9.788312847089884"><ele>430.8333333333333</ele><time>2026-03-29T15:13:25Z</time></trkpt><trkpt lat="45.73598533527852" lon="9.78821705764837"><ele>426.0</ele><time>2026-03-29T15:13:26Z</time></trkpt><trkpt lat="45.73602758215657" lon="9.788120489456983"><ele>429.8333333333333</ele><time>2026-03-29T15:13:27Z</time></trkpt><trkpt lat="45.73614698661209" lon="9.788065908230397"><ele>433.66666666666663</ele><time>2026-03-29T15:13:29Z</time></trkpt><trkpt lat="45.73621482013204" lon="9.788058650185546"><ele>437.5</ele><time>2026-03-29T15:13:30Z</time></trkpt><trkpt lat="45.736276169698996" lon="9.788038058340284"><ele>441.3333333333333</ele><time>2026-03-29T15:13:31Z</time></trkpt><trkpt lat="45.73633933235977" lon="9.788020542007917"><ele>445.16666666666663</ele><time>2026-03-29T15:13:32Z</time></trkpt><trkpt lat="45.73640459827934" lon="9.788006825215373"><ele>449.0</ele><time>2026-03-29T15:13:33Z</time></trkpt><trkpt lat="45.73646777731409" lon="9.787991193367702"><ele>449.0</ele><time>2026-03-29T15:13:34Z</time></trkpt><trkpt lat="45.736580578433504" lon="9.787922564983017"><ele>449.0</ele><time>2026-03-29T15:13:36Z</time></trkpt><trkpt lat="45.73666160106365" lon="9.787814367305723"><ele>449.0</ele><time>2026-03-29T15:13:38Z</time></trkpt><trkpt lat="45.73673921014325" lon="9.787685739341583"><ele>449.0</ele><time>2026-03-29T15:13:40Z</time></trkpt><trkpt lat="45.73682187149749" lon="9.787581860170263"><ele>450.3333333333333</ele><time>2026-03-29T15:13:42Z</time></trkpt><trkpt lat="45.73691229200845" lon="9.78748693236088"><ele>451.66666666666663</ele><time>2026-03-29T15:13:44Z</time></trkpt><trkpt lat="45.737010966338886" lon="9.787397229316937"><ele>453.0</ele><time>2026-03-29T15:13:46Z</time></trkpt><trkpt lat="45.737055935932226" lon="9.787332450388375"><ele>454.33333333333337</ele><time>2026-03-29T15:13:47Z</time></trkpt><trkpt lat="45.737106551998004" lon="9.787269871210277"><ele>455.6666666666667</ele><time>2026-03-29T15:13:48Z</time></trkpt><trkpt lat="45.7371621140514" lon="9.787210360107032"><ele>457.0</ele><time>2026-03-29T15:13:49Z</time></trkpt><trkpt lat="45.73721550208341" lon="9.787144807948081"><ele>457.00000000000006</ele><time>2026-03-29T15:13:50Z</time></trkpt><trkpt lat="45.73727147884693" lon="9.78706621156617"><ele>457.0</ele><time>2026-03-29T15:13:51Z</time></trkpt><trkpt lat="45.737328864075344" lon="9.786983705031428"><ele>457.0</ele><time>2026-03-29T15:13:52Z</time></trkpt><trkpt lat="45.737383888792984" lon="9.786886465999459"><ele>457.0</ele><time>2026-03-29T15:13:53Z</time></trkpt><trkpt lat="45.73742884415322" lon="9.786775508823112"><ele>457.00000000000006</ele><time>2026-03-29T15:13:54Z</time></trkpt><trkpt lat="45.737477554380895" lon="9.78666273188142"><ele>457.0</ele><time>2026-03-29T15:13:55Z</time></trkpt><trkpt lat="45.73753636701267" lon="9.786564984042538"><ele>455.20000000000005</ele><time>2026-03-29T15:13:56Z</time></trkpt><trkpt lat="45.73759372359238" lon="9.78646273102875"><ele>453.40000000000003</ele><time>2026-03-29T15:13:57Z</time></trkpt><trkpt lat="45.737638452913416" lon="9.786343697253907"><ele>451.59999999999997</ele><time>2026-03-29T15:13:58Z</time></trkpt><trkpt lat="45.737667812613346" lon="9.786205951086462"><ele>449.79999999999995</ele><time>2026-03-29T15:13:59Z</time></trkpt><trkpt lat="45.737686641688036" lon="9.7860702394944"><ele>448.0</ele><time>2026-03-29T15:14:00Z</time></trkpt><trkpt lat="45.7377253573835" lon="9.785940185014278"><ele>448.0</ele><time>2026-03-29T15:14:01Z</time></trkpt><trkpt lat="45.73778660196435" lon="9.785813658321155"><ele>448.0</ele><time>2026-03-29T15:14:02Z</time></trkpt><trkpt lat="45.73785572185549" lon="9.785684209636843"><ele>448.0</ele><time>2026-03-29T15:14:03Z</time></trkpt><trkpt lat="45.737916489236774" lon="9.785540492493334"><ele>448.0</ele><time>2026-03-29T15:14:04Z</time></trkpt><trkpt lat="45.73798822128807" lon="9.785402917661727"><ele>448.0</ele><time>2026-03-29T15:14:05Z</time></trkpt><trkpt lat="45.738064974181185" lon="9.785268361206866"><ele>448.0</ele><time>2026-03-29T15:14:06Z</time></trkpt><trkpt lat="45.73814389545442" lon="9.785137782324933"><ele>448.0</ele><time>2026-03-29T15:14:07Z</time></trkpt><trkpt lat="45.73821310659224" lon="9.784990346486348"><ele>448.0</ele><time>2026-03-29T15:14:08Z</time></trkpt><trkpt lat="45.738284122484814" lon="9.784856767857114"><ele>443.0</ele><time>2026-03-29T15:14:09Z</time></trkpt><trkpt lat="45.7383412224026" lon="9.784709760881405"><ele>437.99999999999994</ele><time>2026-03-29T15:14:10Z</time></trkpt><trkpt lat="45.73839152266424" lon="9.784563991857777"><ele>433.0</ele><time>2026-03-29T15:14:11Z</time></trkpt><trkpt lat="45.73844165399008" lon="9.784425669843912"><ele>428.0</ele><time>2026-03-29T15:14:12Z</time></trkpt><trkpt lat="45.738488752317366" lon="9.784291352007347"><ele>423.0</ele><time>2026-03-29T15:14:13Z</time></trkpt><trkpt lat="45.73852403688462" lon="9.784140436243645"><ele>425.25</ele><time>2026-03-29T15:14:14Z</time></trkpt><trkpt lat="45.73855276558705" lon="9.783982514430694"><ele>427.5</ele><time>2026-03-29T15:14:15Z</time></trkpt><trkpt lat="45.73857158558209" lon="9.783813936751583"><ele>429.75</ele><time>2026-03-29T15:14:16Z</time></trkpt><trkpt lat="45.73857847193684" lon="9.783644726362072"><ele>432.0</ele><time>2026-03-29T15:14:17Z</time></trkpt><trkpt lat="45.73860087704658" lon="9.783487106773382"><ele>432.0</ele><time>2026-03-29T15:14:18Z</time></trkpt><trkpt lat="45.73863577933407" lon="9.783327912901932"><ele>432.0</ele><time>2026-03-29T15:14:19Z</time></trkpt><trkpt lat="45.73869066590667" lon="9.783180336445085"><ele>432.0</ele><time>2026-03-29T15:14:20Z</time></trkpt><trkpt lat="45.738744703799355" lon="9.783030463626574"><ele>432.0</ele><time>2026-03-29T15:14:21Z</time></trkpt><trkpt lat="45.73879855641278" lon="9.782882194027268"><ele>432.0</ele><time>2026-03-29T15:14:22Z</time></trkpt><trkpt lat="45.73884515517538" lon="9.782726079558946"><ele>432.0</ele><time>2026-03-29T15:14:23Z</time></trkpt><trkpt lat="45.73890021164395" lon="9.782575767591386"><ele>432.0</ele><time>2026-03-29T15:14:24Z</time></trkpt><trkpt lat="45.73895830246031" lon="9.782426749488376"><ele>432.0</ele><time>2026-03-29T15:14:25Z</time></trkpt><trkpt lat="45.73899396800264" lon="9.782269599631997"><ele>428.25</ele><time>2026-03-29T15:14:26Z</time></trkpt><trkpt lat="45.739007965470435" lon="9.782092252551696"><ele>424.5</ele><time>2026-03-29T15:14:27Z</time></trkpt><trkpt lat="45.739019611442004" lon="9.781895181200596"><ele>420.75</ele><time>2026-03-29T15:14:28Z</time></trkpt><trkpt lat="45.739041441301076" lon="9.781706570832938"><ele>417.0</ele><time>2026-03-29T15:14:29Z</time></trkpt><trkpt lat="45.739057548029336" lon="9.78151356661602"><ele>414.25</ele><time>2026-03-29T15:14:30Z</time></trkpt><trkpt lat="45.73906204240349" lon="9.781331853168439"><ele>411.5</ele><time>2026-03-29T15:14:31Z</time></trkpt><trkpt lat="45.73906465560702" lon="9.781148130250399"><ele>408.75</ele><time>2026-03-29T15:14:32Z</time></trkpt><trkpt lat="45.73906793362531" lon="9.780969337407491"><ele>406.0</ele><time>2026-03-29T15:14:33Z</time></trkpt><trkpt lat="45.73906986414719" lon="9.78079750736185"><ele>404.75</ele><time>2026-03-29T15:14:34Z</time></trkpt><trkpt lat="45.73906775679377" lon="9.780620597443106"><ele>403.5</ele><time>2026-03-29T15:14:35Z</time></trkpt><trkpt lat="45.73908348675807" lon="9.780438023052765"><ele>402.25</ele><time>2026-03-29T15:14:36Z</time></trkpt><trkpt lat="45.739109064545104" lon="9.780251972897299"><ele>401.0</ele><time>2026-03-29T15:14:37Z</time></trkpt><trkpt lat="45.73914251086612" lon="9.780071556792349"><ele>399.0</ele><time>2026-03-29T15:14:38Z</time></trkpt><trkpt lat="45.73917327077103" lon="9.77989237389214"><ele>397.0</ele><time>2026-03-29T15:14:39Z</time></trkpt><trkpt lat="45.739204077537615" lon="9.779714272966723"><ele>395.0</ele><time>2026-03-29T15:14:40Z</time></trkpt><trkpt lat="45.73924175734263" lon="9.779543910659637"><ele>393.0</ele><time>2026-03-29T15:14:41Z</time></trkpt><trkpt lat="45.73928173399137" lon="9.779385166424833"><ele>393.8333333333333</ele><time>2026-03-29T15:14:42Z</time></trkpt><trkpt lat="45.73932392975233" lon="9.77924741093251"><ele>394.66666666666663</ele><time>2026-03-29T15:14:43Z</time></trkpt><trkpt lat="45.73936316316918" lon="9.779130341188708"><ele>395.5</ele><time>2026-03-29T15:14:44Z</time></trkpt><trkpt lat="45.73940089020027" lon="9.77902668859955"><ele>396.3333333333333</ele><time>2026-03-29T15:14:45Z</time></trkpt><trkpt lat="45.73944029994221" lon="9.778922967141062"><ele>397.16666666666663</ele><time>2026-03-29T15:14:46Z</time></trkpt><trkpt lat="45.73947912804649" lon="9.778809300835455"><ele>398.0</ele><time>2026-03-29T15:14:47Z</time></trkpt><trkpt lat="45.73950601564134" lon="9.778680952355312"><ele>398.0</ele><time>2026-03-29T15:14:48Z</time></trkpt><trkpt lat="45.739519987175996" lon="9.778543323610922"><ele>398.0</ele><time>2026-03-29T15:14:49Z</time></trkpt><trkpt lat="45.73954024163014" lon="9.778408296181059"><ele>398.0</ele><time>2026-03-29T15:14:50Z</time></trkpt><trkpt lat="45.73956701512067" lon="9.778281626313076"><ele>398.0</ele><time>2026-03-29T15:14:51Z</time></trkpt><trkpt lat="45.73960694591996" lon="9.778170430441381"><ele>398.0</ele><time>2026-03-29T15:14:52Z</time></trkpt><trkpt lat="45.7396441018033" lon="9.778065969401153"><ele>395.2</ele><time>2026-03-29T15:14:53Z</time></trkpt><trkpt lat="45.739686974520154" lon="9.777971099883729"><ele>392.4</ele><time>2026-03-29T15:14:54Z</time></trkpt><trkpt lat="45.739715765951345" lon="9.77785574594966"><ele>389.59999999999997</ele><time>2026-03-29T15:14:55Z</time></trkpt><trkpt lat="45.73974005280399" lon="9.777716371421109"><ele>386.79999999999995</ele><time>2026-03-29T15:14:56Z</time></trkpt><trkpt lat="45.739760742866466" lon="9.777563357275952"><ele>384.0</ele><time>2026-03-29T15:14:57Z</time></trkpt><trkpt lat="45.73977750118133" lon="9.777401860830729"><ele>381.4</ele><time>2026-03-29T15:14:58Z</time></trkpt><trkpt lat="45.73979939613027" lon="9.777240701355936"><ele>378.79999999999995</ele><time>2026-03-29T15:14:59Z</time></trkpt><trkpt lat="45.73982119223969" lon="9.7770790433758"><ele>376.20000000000005</ele><time>2026-03-29T15:15:00Z</time></trkpt><trkpt lat="45.739842552444124" lon="9.776931944626506"><ele>373.6</ele><time>2026-03-29T15:15:01Z</time></trkpt><trkpt lat="45.739852977589585" lon="9.776795387692097"><ele>371.0</ele><time>2026-03-29T15:15:02Z</time></trkpt><trkpt lat="45.73986719874659" lon="9.776667663226306"><ele>369.0</ele><time>2026-03-29T15:15:03Z</time></trkpt><trkpt lat="45.739899172394125" lon="9.776548714583479"><ele>367.0</ele><time>2026-03-29T15:15:04Z</time></trkpt><trkpt lat="45.73993612279534" lon="9.776442409054848"><ele>365.0</ele><time>2026-03-29T15:15:05Z</time></trkpt><trkpt lat="45.739984209293084" lon="9.776342674554755"><ele>363.0</ele><time>2026-03-29T15:15:06Z</time></trkpt><trkpt lat="45.74003359818024" lon="9.776255545934722"><ele>361.0</ele><time>2026-03-29T15:15:07Z</time></trkpt><trkpt lat="45.740065799034944" lon="9.776150731079085"><ele>359.0</ele><time>2026-03-29T15:15:08Z</time></trkpt><trkpt lat="45.74009079825052" lon="9.77604307641623"><ele>357.33333333333337</ele><time>2026-03-29T15:15:09Z</time></trkpt><trkpt lat="45.74010617174498" lon="9.775947302350641"><ele>355.6666666666667</ele><time>2026-03-29T15:15:10Z</time></trkpt><trkpt lat="45.740075227968" lon="9.775800401776246"><ele>354.0</ele><time>2026-03-29T15:15:12Z</time></trkpt><trkpt lat="45.74002073684356" lon="9.775739474218526"><ele>352.3333333333333</ele><time>2026-03-29T15:15:13Z</time></trkpt><trkpt lat="45.739944844406985" lon="9.775693993499342"><ele>350.66666666666663</ele><time>2026-03-29T15:15:14Z</time></trkpt><trkpt lat="45.739871205691784" lon="9.775624512723759"><ele>349.0</ele><time>2026-03-29T15:15:15Z</time></trkpt><trkpt lat="45.73981269285732" lon="9.775526165108646"><ele>349.0</ele><time>2026-03-29T15:15:16Z</time></trkpt><trkpt lat="45.739758125388704" lon="9.775414335372"><ele>349.0</ele><time>2026-03-29T15:15:17Z</time></trkpt><trkpt lat="45.739710393426606" lon="9.775290775359286"><ele>349.0</ele><time>2026-03-29T15:15:18Z</time></trkpt><trkpt lat="45.73966749531373" lon="9.775157490403087"><ele>349.0</ele><time>2026-03-29T15:15:19Z</time></trkpt><trkpt lat="45.73962305189239" lon="9.775032388374717"><ele>349.0</ele><time>2026-03-29T15:15:20Z</time></trkpt><trkpt lat="45.7395804520472" lon="9.774904548093845"><ele>347.5</ele><time>2026-03-29T15:15:21Z</time></trkpt><trkpt lat="45.73954657645504" lon="9.77478898814078"><ele>346.0</ele><time>2026-03-29T15:15:22Z</time></trkpt><trkpt lat="45.739522957993614" lon="9.774692204391563"><ele>344.5</ele><time>2026-03-29T15:15:23Z</time></trkpt><trkpt lat="45.73949143583176" lon="9.774567765047898"><ele>343.0</ele><time>2026-03-29T15:15:25Z</time></trkpt><trkpt lat="45.73947672054418" lon="9.774443511223424"><ele>341.5</ele><time>2026-03-29T15:15:27Z</time></trkpt><trkpt lat="45.739488063392926" lon="9.774294466484719"><ele>340.0</ele><time>2026-03-29T15:15:29Z</time></trkpt><trkpt lat="45.739564051998705" lon="9.77417771454984"><ele>339.16666666666663</ele><time>2026-03-29T15:15:31Z</time></trkpt><trkpt lat="45.73962305840735" lon="9.77414140325753"><ele>338.3333333333333</ele><time>2026-03-29T15:15:32Z</time></trkpt><trkpt lat="45.739691966880905" lon="9.7741308154296"><ele>337.5</ele><time>2026-03-29T15:15:33Z</time></trkpt><trkpt lat="45.7397664758308" lon="9.77410157814474"><ele>336.6666666666667</ele><time>2026-03-29T15:15:34Z</time></trkpt><trkpt lat="45.73984555005655" lon="9.774081769698142"><ele>335.83333333333337</ele><time>2026-03-29T15:15:35Z</time></trkpt><trkpt lat="45.73993261780971" lon="9.774053147178567"><ele>335.0</ele><time>2026-03-29T15:15:36Z</time></trkpt><trkpt lat="45.74002457378792" lon="9.774013901049033"><ele>335.0</ele><time>2026-03-29T15:15:37Z</time></trkpt><trkpt lat="45.74012059118584" lon="9.77397333236857"><ele>335.0</ele><time>2026-03-29T15:15:38Z</time></trkpt><trkpt lat="45.74022328733186" lon="9.77393857599736"><ele>335.0</ele><time>2026-03-29T15:15:39Z</time></trkpt><trkpt lat="45.740327317660366" lon="9.773909303672198"><ele>335.0</ele><time>2026-03-29T15:15:40Z</time></trkpt><trkpt lat="45.74041335296525" lon="9.773877860391616"><ele>335.0</ele><time>2026-03-29T15:15:41Z</time></trkpt><trkpt lat="45.74048741627514" lon="9.77385462935268"><ele>334.0</ele><time>2026-03-29T15:15:42Z</time></trkpt><trkpt lat="45.740551815569496" lon="9.773858377110788"><ele>333.0</ele><time>2026-03-29T15:15:43Z</time></trkpt><trkpt lat="45.740613439920146" lon="9.77387874611939"><ele>332.0</ele><time>2026-03-29T15:15:44Z</time></trkpt><trkpt lat="45.740682549667284" lon="9.774014767250303"><ele>331.0</ele><time>2026-03-29T15:15:46Z</time></trkpt><trkpt lat="45.74073725432613" lon="9.774139236220948"><ele>330.0</ele><time>2026-03-29T15:15:48Z</time></trkpt><trkpt lat="45.7407942090409" lon="9.774226204186773"><ele>329.0</ele><time>2026-03-29T15:15:50Z</time></trkpt><trkpt lat="45.740889298394016" lon="9.774291853690396"><ele>329.4</ele><time>2026-03-29T15:15:58Z</time></trkpt><trkpt lat="45.74091876357472" lon="9.774432040582546"><ele>329.79999999999995</ele><time>2026-03-29T15:16:00Z</time></trkpt><trkpt lat="45.74097959251994" lon="9.774569983667561"><ele>330.20000000000005</ele><time>2026-03-29T15:16:02Z</time></trkpt><trkpt lat="45.74100958987176" lon="9.774661733103356"><ele>330.6</ele><time>2026-03-29T15:16:03Z</time></trkpt><trkpt lat="45.74104616839015" lon="9.774739205573294"><ele>331.0</ele><time>2026-03-29T15:16:04Z</time></trkpt><trkpt lat="45.741098002176884" lon="9.774877163016056"><ele>330.16666666666663</ele><time>2026-03-29T15:16:06Z</time></trkpt><trkpt lat="45.74114041628636" lon="9.77497390173792"><ele>329.3333333333333</ele><time>2026-03-29T15:16:08Z</time></trkpt><trkpt lat="45.741180969651815" lon="9.775044728125332"><ele>328.5</ele><time>2026-03-29T15:16:11Z</time></trkpt><trkpt lat="45.741213416080335" lon="9.77515702945011"><ele>327.6666666666667</ele><time>2026-03-29T15:16:17Z</time></trkpt><trkpt lat="45.741171697732604" lon="9.775067630301233"><ele>326.83333333333337</ele><time>2026-03-29T15:16:20Z</time></trkpt><trkpt lat="45.74122304163381" lon="9.774989242922523"><ele>326.0</ele><time>2026-03-29T15:16:23Z</time></trkpt><trkpt lat="45.74128534809738" lon="9.774910345578373"><ele>326.0</ele><time>2026-03-29T15:16:26Z</time></trkpt><trkpt lat="45.74134493886476" lon="9.77487904156806"><ele>326.0</ele><time>2026-03-29T15:16:52Z</time></trkpt><trkpt lat="45.741372049873796" lon="9.774794300573838"><ele>326.0</ele><time>2026-03-29T15:17:06Z</time></trkpt><trkpt lat="45.74131839759058" lon="9.774849399301067"><ele>326.0</ele><time>2026-03-29T15:22:58Z</time></trkpt><trkpt lat="45.741348852994676" lon="9.774940595670177"><ele>326.0</ele><time>2026-03-29T15:23:21Z</time></trkpt><trkpt lat="45.74131309222787" lon="9.775062026048559"><ele>326.0</ele><time>2026-03-29T15:23:25Z</time></trkpt><trkpt lat="45.741240329434476" lon="9.775056677189394"><ele>326.0</ele><time>2026-03-29T15:23:28Z</time></trkpt><trkpt lat="45.74117495451653" lon="9.775076338315394"><ele>326.0</ele><time>2026-03-29T15:23:36Z</time></trkpt><trkpt lat="45.74111299743108" lon="9.775033384504782"><ele>326.0</ele><time>2026-03-29T15:23:39Z</time></trkpt><trkpt lat="45.74117608005362" lon="9.775055649935439"><ele>326.0</ele><time>2026-03-29T15:23:45Z</time></trkpt><trkpt lat="45.741209467292826" lon="9.775143128159774"><ele>326.0</ele><time>2026-03-29T15:23:47Z</time></trkpt><trkpt lat="45.74127529616455" lon="9.77523184528925"><ele>326.0</ele><time>2026-03-29T15:23:50Z</time></trkpt><trkpt lat="45.74132917418745" lon="9.775337328416622"><ele>326.0</ele><time>2026-03-29T15:23:53Z</time></trkpt><trkpt lat="45.74138502803678" lon="9.775446254436625"><ele>326.33333333333337</ele><time>2026-03-29T15:23:56Z</time></trkpt><trkpt lat="45.74143359509551" lon="9.775550257004145"><ele>326.6666666666667</ele><time>2026-03-29T15:23:59Z</time></trkpt><trkpt lat="45.74147719386676" lon="9.775646727162398"><ele>327.0</ele><time>2026-03-29T15:24:02Z</time></trkpt><trkpt lat="45.74145952693243" lon="9.775740309480012"><ele>327.3333333333333</ele><time>2026-03-29T15:24:04Z</time></trkpt><trkpt lat="45.741372863255414" lon="9.775784799075549"><ele>327.66666666666663</ele><time>2026-03-29T15:24:07Z</time></trkpt><trkpt lat="45.741293974111926" lon="9.77585655677921"><ele>328.0</ele><time>2026-03-29T15:24:10Z</time></trkpt><trkpt lat="45.741249914293626" lon="9.77592727094595"><ele>328.0</ele><time>2026-03-29T15:24:12Z</time></trkpt><trkpt lat="45.74119642192712" lon="9.775985186820202"><ele>328.0</ele><time>2026-03-29T15:24:16Z</time></trkpt><trkpt lat="45.74113810929128" lon="9.776025454747769"><ele>328.0</ele><time>2026-03-29T15:24:54.001Z</time></trkpt><trkpt lat="45.741065216491826" lon="9.775976080966302"><ele>328.0</ele><time>2026-03-29T15:24:56.001Z</time></trkpt><trkpt lat="45.74102577372136" lon="9.775870616699711"><ele>328.0</ele><time>2026-03-29T15:24:58Z</time></trkpt><trkpt lat="45.74098009011906" lon="9.775790348157921"><ele>328.0</ele><time>2026-03-29T15:25:00Z</time></trkpt><trkpt lat="45.74090095598032" lon="9.775682357493853"><ele>328.5</ele><time>2026-03-29T15:25:02Z</time></trkpt><trkpt lat="45.74085558305133" lon="9.775617492866052"><ele>329.0</ele><time>2026-03-29T15:25:03Z</time></trkpt><trkpt lat="45.740780839446074" lon="9.775478050345024"><ele>329.5</ele><time>2026-03-29T15:25:05Z</time></trkpt><trkpt lat="45.740708385337285" lon="9.775330257323864"><ele>330.0</ele><time>2026-03-29T15:25:07Z</time></trkpt><trkpt lat="45.74067161967045" lon="9.775253965202086"><ele>330.5</ele><time>2026-03-29T15:25:08Z</time></trkpt><trkpt lat="45.74063912152404" lon="9.77517520775834"><ele>331.0</ele><time>2026-03-29T15:25:09Z</time></trkpt><trkpt lat="45.74058467551994" lon="9.775014861673887"><ele>331.0</ele><time>2026-03-29T15:25:11Z</time></trkpt><trkpt lat="45.74052675343399" lon="9.774853600544825"><ele>331.0</ele><time>2026-03-29T15:25:13Z</time></trkpt><trkpt lat="45.74047877909743" lon="9.774684988386468"><ele>331.0</ele><time>2026-03-29T15:25:15Z</time></trkpt><trkpt lat="45.74043550609129" lon="9.774523334607139"><ele>331.0</ele><time>2026-03-29T15:25:17Z</time></trkpt><trkpt lat="45.74039138868482" lon="9.77437414757001"><ele>330.6</ele><time>2026-03-29T15:25:19Z</time></trkpt><trkpt lat="45.74034570015177" lon="9.774231868945735"><ele>330.20000000000005</ele><time>2026-03-29T15:25:21Z</time></trkpt><trkpt lat="45.74030569295572" lon="9.77408948942757"><ele>329.79999999999995</ele><time>2026-03-29T15:25:23Z</time></trkpt><trkpt lat="45.74026834806534" lon="9.773994842835588"><ele>329.4</ele><time>2026-03-29T15:25:25Z</time></trkpt><trkpt lat="45.74017728769023" lon="9.77397552419847"><ele>329.0</ele><time>2026-03-29T15:25:27Z</time></trkpt><trkpt lat="45.740084630838574" lon="9.773973410354351"><ele>330.2</ele><time>2026-03-29T15:25:29Z</time></trkpt><trkpt lat="45.73998291902268" lon="9.77400250414657"><ele>331.4</ele><time>2026-03-29T15:25:31Z</time></trkpt><trkpt lat="45.739890979749006" lon="9.77404436253057"><ele>332.6</ele><time>2026-03-29T15:25:33Z</time></trkpt><trkpt lat="45.73980317056816" lon="9.774081824412372"><ele>333.8</ele><time>2026-03-29T15:25:35Z</time></trkpt><trkpt lat="45.739715395206204" lon="9.774131449921782"><ele>335.0</ele><time>2026-03-29T15:25:37Z</time></trkpt><trkpt lat="45.739632236675746" lon="9.774182629849687"><ele>335.0</ele><time>2026-03-29T15:25:39Z</time></trkpt><trkpt lat="45.73953838747053" lon="9.774169379379433"><ele>335.0</ele><time>2026-03-29T15:25:41Z</time></trkpt><trkpt lat="45.739489220664666" lon="9.774111733952035"><ele>335.0</ele><time>2026-03-29T15:25:43Z</time></trkpt><trkpt lat="45.73948464250648" lon="9.773945402659983"><ele>335.0</ele><time>2026-03-29T15:25:45Z</time></trkpt><trkpt lat="45.73949522792547" lon="9.773838648140746"><ele>335.0</ele><time>2026-03-29T15:25:46Z</time></trkpt><trkpt lat="45.73949811078851" lon="9.773736076176544"><ele>335.0</ele><time>2026-03-29T15:25:47Z</time></trkpt><trkpt lat="45.739501143678204" lon="9.773630819040179"><ele>334.99999999999994</ele><time>2026-03-29T15:25:48Z</time></trkpt><trkpt lat="45.73950188927056" lon="9.773523706787318"><ele>335.0</ele><time>2026-03-29T15:25:49Z</time></trkpt><trkpt lat="45.73950434699936" lon="9.773421947900477"><ele>335.0</ele><time>2026-03-29T15:25:50Z</time></trkpt><trkpt lat="45.73950554422099" lon="9.773324207864837"><ele>335.0</ele><time>2026-03-29T15:25:51Z</time></trkpt><trkpt lat="45.73949780015493" lon="9.773223509554544"><ele>335.0</ele><time>2026-03-29T15:25:52Z</time></trkpt><trkpt lat="45.73949304016314" lon="9.773130139530725"><ele>334.99999999999994</ele><time>2026-03-29T15:25:53Z</time></trkpt><trkpt lat="45.73949332645831" lon="9.773034121465274"><ele>335.0</ele><time>2026-03-29T15:25:54Z</time></trkpt><trkpt lat="45.739478719125756" lon="9.772866276586207"><ele>335.0</ele><time>2026-03-29T15:25:56Z</time></trkpt><trkpt lat="45.739446106818406" lon="9.772701334403685"><ele>335.0</ele><time>2026-03-29T15:25:58Z</time></trkpt><trkpt lat="45.73942216172272" lon="9.772617198008469"><ele>335.0</ele><time>2026-03-29T15:25:59Z</time></trkpt><trkpt lat="45.7393858377289" lon="9.772452187639049"><ele>335.0</ele><time>2026-03-29T15:26:01Z</time></trkpt><trkpt lat="45.73937053284551" lon="9.772361535038014"><ele>335.0</ele><time>2026-03-29T15:26:02Z</time></trkpt><trkpt lat="45.739357096971084" lon="9.772266197176817"><ele>335.0</ele><time>2026-03-29T15:26:03Z</time></trkpt><trkpt lat="45.739340397194916" lon="9.772170837336592"><ele>335.0</ele><time>2026-03-29T15:26:04Z</time></trkpt><trkpt lat="45.73932138678582" lon="9.772072350300274"><ele>335.0</ele><time>2026-03-29T15:26:05Z</time></trkpt><trkpt lat="45.73929993316351" lon="9.77197111267396"><ele>335.0</ele><time>2026-03-29T15:26:06Z</time></trkpt><trkpt lat="45.73928133654008" lon="9.771862512009065"><ele>335.0</ele><time>2026-03-29T15:26:07Z</time></trkpt><trkpt lat="45.7392629725592" lon="9.77174971435495"><ele>335.0</ele><time>2026-03-29T15:26:08Z</time></trkpt><trkpt lat="45.73924481510296" lon="9.77162760264977"><ele>335.0</ele><time>2026-03-29T15:26:09Z</time></trkpt><trkpt lat="45.73922720029797" lon="9.771500130945258"><ele>335.0</ele><time>2026-03-29T15:26:10Z</time></trkpt><trkpt lat="45.739192855666765" lon="9.771368954350281"><ele>335.0</ele><time>2026-03-29T15:26:11Z</time></trkpt><trkpt lat="45.73915759626976" lon="9.771237992182801"><ele>335.0</ele><time>2026-03-29T15:26:12Z</time></trkpt><trkpt lat="45.73911866448217" lon="9.771102545008876"><ele>335.0</ele><time>2026-03-29T15:26:13Z</time></trkpt><trkpt lat="45.73906999573457" lon="9.770962434427055"><ele>335.0</ele><time>2026-03-29T15:26:14Z</time></trkpt><trkpt lat="45.73901998922403" lon="9.770818817813016"><ele>334.0</ele><time>2026-03-29T15:26:15Z</time></trkpt><trkpt lat="45.73898055684168" lon="9.770674673695147"><ele>333.0</ele><time>2026-03-29T15:26:16Z</time></trkpt><trkpt lat="45.73895770496311" lon="9.770519771548637"><ele>332.0</ele><time>2026-03-29T15:26:17Z</time></trkpt><trkpt lat="45.738954324521806" lon="9.770369115143133"><ele>331.0</ele><time>2026-03-29T15:26:18Z</time></trkpt><trkpt lat="45.73897488123903" lon="9.770207817007854"><ele>330.0</ele><time>2026-03-29T15:26:19Z</time></trkpt><trkpt lat="45.73901420097843" lon="9.770048687606605"><ele>327.5</ele><time>2026-03-29T15:26:20Z</time></trkpt><trkpt lat="45.73906927902233" lon="9.769873778955517"><ele>325.0</ele><time>2026-03-29T15:26:21Z</time></trkpt><trkpt lat="45.739093167306734" lon="9.769717968535627"><ele>322.5</ele><time>2026-03-29T15:26:22Z</time></trkpt><trkpt lat="45.73910286675493" lon="9.769600808574607"><ele>320.0</ele><time>2026-03-29T15:26:23Z</time></trkpt><trkpt lat="45.73911011996644" lon="9.769409014746929"><ele>319.2</ele><time>2026-03-29T15:26:25Z</time></trkpt><trkpt lat="45.73911209086316" lon="9.7691919289611"><ele>318.4</ele><time>2026-03-29T15:26:26Z</time></trkpt><trkpt lat="45.7390946788828" lon="9.76904296803383"><ele>317.6</ele><time>2026-03-29T15:26:27Z</time></trkpt><trkpt lat="45.73906524919144" lon="9.768903076147621"><ele>316.8</ele><time>2026-03-29T15:26:28Z</time></trkpt><trkpt lat="45.73903955613681" lon="9.768786725124066"><ele>316.0</ele><time>2026-03-29T15:26:29Z</time></trkpt><trkpt lat="45.739011336383214" lon="9.768656180951615"><ele>316.0</ele><time>2026-03-29T15:26:30Z</time></trkpt><trkpt lat="45.73898442678694" lon="9.768535075336864"><ele>316.0</ele><time>2026-03-29T15:26:31Z</time></trkpt><trkpt lat="45.73897383646955" lon="9.768404602834933"><ele>316.0</ele><time>2026-03-29T15:26:32Z</time></trkpt><trkpt lat="45.738965083571706" lon="9.768270986707549"><ele>316.0</ele><time>2026-03-29T15:26:33Z</time></trkpt><trkpt lat="45.73897252642868" lon="9.768151658820912"><ele>316.0</ele><time>2026-03-29T15:26:34Z</time></trkpt><trkpt lat="45.73898910935841" lon="9.768046905006925"><ele>316.0</ele><time>2026-03-29T15:26:35Z</time></trkpt><trkpt lat="45.73903243219943" lon="9.767906933349654"><ele>315.16666666666663</ele><time>2026-03-29T15:26:37Z</time></trkpt><trkpt lat="45.739073417013174" lon="9.767741837515148"><ele>314.3333333333333</ele><time>2026-03-29T15:26:39Z</time></trkpt><trkpt lat="45.73908547684642" lon="9.767632199191405"><ele>313.5</ele><time>2026-03-29T15:26:40Z</time></trkpt><trkpt lat="45.73909914587888" lon="9.767519502630659"><ele>312.6666666666667</ele><time>2026-03-29T15:26:41Z</time></trkpt><trkpt lat="45.739115423541904" lon="9.767406625950727"><ele>311.83333333333337</ele><time>2026-03-29T15:26:42Z</time></trkpt><trkpt lat="45.73913096852584" lon="9.767289751370937"><ele>311.0</ele><time>2026-03-29T15:26:43Z</time></trkpt><trkpt lat="45.73913825084815" lon="9.76716815168842"><ele>309.83333333333337</ele><time>2026-03-29T15:26:44Z</time></trkpt><trkpt lat="45.73912252132961" lon="9.76705009118259"><ele>308.6666666666667</ele><time>2026-03-29T15:26:45Z</time></trkpt><trkpt lat="45.73909014604785" lon="9.76693530463559"><ele>307.5</ele><time>2026-03-29T15:26:46Z</time></trkpt><trkpt lat="45.73905619788479" lon="9.766831818757618"><ele>306.3333333333333</ele><time>2026-03-29T15:26:47Z</time></trkpt><trkpt lat="45.739022580413284" lon="9.766729972410365"><ele>305.16666666666663</ele><time>2026-03-29T15:26:48Z</time></trkpt><trkpt lat="45.738991352263845" lon="9.766630678586166"><ele>304.0</ele><time>2026-03-29T15:26:49Z</time></trkpt><trkpt lat="45.738961071003004" lon="9.766532124021001"><ele>303.57142857142856</ele><time>2026-03-29T15:26:50Z</time></trkpt><trkpt lat="45.73893273068723" lon="9.766438953690377"><ele>303.14285714285717</ele><time>2026-03-29T15:26:51Z</time></trkpt><trkpt lat="45.7389022209099" lon="9.766343201111365"><ele>302.7142857142857</ele><time>2026-03-29T15:26:52Z</time></trkpt><trkpt lat="45.7388735807722" lon="9.766251390346927"><ele>302.2857142857143</ele><time>2026-03-29T15:26:53Z</time></trkpt><trkpt lat="45.73884403766209" lon="9.766160998479847"><ele>301.8571428571429</ele><time>2026-03-29T15:26:54Z</time></trkpt><trkpt lat="45.738812944566945" lon="9.766071295452985"><ele>301.42857142857144</ele><time>2026-03-29T15:26:55Z</time></trkpt><trkpt lat="45.738788242283434" lon="9.765984794807288"><ele>301.0</ele><time>2026-03-29T15:26:56Z</time></trkpt><trkpt lat="45.738761518424" lon="9.765901744968023"><ele>300.6</ele><time>2026-03-29T15:26:57Z</time></trkpt><trkpt lat="45.73872469489089" lon="9.765807960427683"><ele>300.20000000000005</ele><time>2026-03-29T15:26:58Z</time></trkpt><trkpt lat="45.73866560579092" lon="9.765641138948602"><ele>299.79999999999995</ele><time>2026-03-29T15:27:00Z</time></trkpt><trkpt lat="45.73863124939709" lon="9.765559945736612"><ele>299.4</ele><time>2026-03-29T15:27:01Z</time></trkpt><trkpt lat="45.738606562505126" lon="9.765474576595814"><ele>299.0</ele><time>2026-03-29T15:27:02Z</time></trkpt><trkpt lat="45.738550491053275" lon="9.765313408619129"><ele>299.8</ele><time>2026-03-29T15:27:04Z</time></trkpt><trkpt lat="45.73852545398239" lon="9.765230575430179"><ele>300.59999999999997</ele><time>2026-03-29T15:27:05Z</time></trkpt><trkpt lat="45.73848067703734" lon="9.76506245465764"><ele>301.4</ele><time>2026-03-29T15:27:07Z</time></trkpt><trkpt lat="45.73842643195681" lon="9.764901066480492"><ele>302.2</ele><time>2026-03-29T15:27:09Z</time></trkpt><trkpt lat="45.73840770655574" lon="9.764766401981765"><ele>303.0</ele><time>2026-03-29T15:27:11Z</time></trkpt><trkpt lat="45.73840353780201" lon="9.764624880744707"><ele>303.0</ele><time>2026-03-29T15:27:13Z</time></trkpt><trkpt lat="45.73844840101503" lon="9.764544280510517"><ele>303.0</ele><time>2026-03-29T15:27:17Z</time></trkpt><trkpt lat="45.73843204494389" lon="9.764449089278743"><ele>303.0</ele><time>2026-03-29T15:27:27Z</time></trkpt><trkpt lat="45.73835614613252" lon="9.764402358040298"><ele>303.0</ele><time>2026-03-29T15:27:29Z</time></trkpt><trkpt lat="45.73829659990918" lon="9.764300630576718"><ele>303.0</ele><time>2026-03-29T15:27:31Z</time></trkpt><trkpt lat="45.7382645522452" lon="9.76421627637454"><ele>303.0</ele><time>2026-03-29T15:27:32Z</time></trkpt><trkpt lat="45.738233916072815" lon="9.764124527393575"><ele>302.3333333333333</ele><time>2026-03-29T15:27:33Z</time></trkpt><trkpt lat="45.73820271282502" lon="9.764033604579897"><ele>301.6666666666667</ele><time>2026-03-29T15:27:34Z</time></trkpt><trkpt lat="45.738173599469214" lon="9.763943033080572"><ele>301.0</ele><time>2026-03-29T15:27:35Z</time></trkpt><trkpt lat="45.738144550725984" lon="9.763854022110879"><ele>300.33333333333337</ele><time>2026-03-29T15:27:36Z</time></trkpt><trkpt lat="45.738114596096835" lon="9.763762726844947"><ele>299.6666666666667</ele><time>2026-03-29T15:27:37Z</time></trkpt><trkpt lat="45.73805977091333" lon="9.763598042607017"><ele>299.0</ele><time>2026-03-29T15:27:39Z</time></trkpt><trkpt lat="45.73803012859845" lon="9.763515808754159"><ele>298.1666666666667</ele><time>2026-03-29T15:27:40Z</time></trkpt><trkpt lat="45.738000721593494" lon="9.763432904379837"><ele>297.33333333333337</ele><time>2026-03-29T15:27:41Z</time></trkpt><trkpt lat="45.737938294758216" lon="9.763271748101383"><ele>296.5</ele><time>2026-03-29T15:27:43Z</time></trkpt><trkpt lat="45.73791232081294" lon="9.763188924911196"><ele>295.6666666666667</ele><time>2026-03-29T15:27:44Z</time></trkpt><trkpt lat="45.737884613195085" lon="9.763106334185716"><ele>294.8333333333333</ele><time>2026-03-29T15:27:45Z</time></trkpt><trkpt lat="45.73785401224316" lon="9.763023406794074"><ele>294.0</ele><time>2026-03-29T15:27:46Z</time></trkpt><trkpt lat="45.737830273406196" lon="9.762935938484253"><ele>294.0</ele><time>2026-03-29T15:27:47Z</time></trkpt><trkpt lat="45.73781146104569" lon="9.762847090525103"><ele>294.0</ele><time>2026-03-29T15:27:48Z</time></trkpt><trkpt lat="45.73779937961444" lon="9.762757055743137"><ele>294.0</ele><time>2026-03-29T15:27:49Z</time></trkpt><trkpt lat="45.7377841449765" lon="9.762666665694656"><ele>294.0</ele><time>2026-03-29T15:27:50Z</time></trkpt><trkpt lat="45.73776809720989" lon="9.762571509152052"><ele>294.0</ele><time>2026-03-29T15:27:51Z</time></trkpt><trkpt lat="45.737761387668684" lon="9.762478242046004"><ele>294.0</ele><time>2026-03-29T15:27:52Z</time></trkpt><trkpt lat="45.737761478034614" lon="9.762383394786731"><ele>294.0</ele><time>2026-03-29T15:27:53Z</time></trkpt><trkpt lat="45.7377580785181" lon="9.76229216055194"><ele>293.6666666666667</ele><time>2026-03-29T15:27:54Z</time></trkpt><trkpt lat="45.73775364730243" lon="9.762111962051181"><ele>293.3333333333333</ele><time>2026-03-29T15:27:56Z</time></trkpt><trkpt lat="45.73775965771957" lon="9.761931910853132"><ele>293.0</ele><time>2026-03-29T15:27:58Z</time></trkpt><trkpt lat="45.737761049434894" lon="9.761840417082169"><ele>292.66666666666663</ele><time>2026-03-29T15:27:59Z</time></trkpt><trkpt lat="45.73776241987371" lon="9.761748401907662"><ele>292.3333333333333</ele><time>2026-03-29T15:28:00Z</time></trkpt><trkpt lat="45.73776880913328" lon="9.761651981064281"><ele>292.0</ele><time>2026-03-29T15:28:01Z</time></trkpt><trkpt lat="45.73776461664726" lon="9.761474432668043"><ele>292.0</ele><time>2026-03-29T15:28:03Z</time></trkpt><trkpt lat="45.737745044527934" lon="9.761297510787996"><ele>292.0</ele><time>2026-03-29T15:28:05Z</time></trkpt><trkpt lat="45.737734857490786" lon="9.761206847567445"><ele>292.0</ele><time>2026-03-29T15:28:06Z</time></trkpt><trkpt lat="45.73772477650395" lon="9.76111592222552"><ele>292.0</ele><time>2026-03-29T15:28:07Z</time></trkpt><trkpt lat="45.73771531169502" lon="9.761024596638341"><ele>292.0</ele><time>2026-03-29T15:28:08Z</time></trkpt><trkpt lat="45.73770246228574" lon="9.76093123950952"><ele>292.0</ele><time>2026-03-29T15:28:09Z</time></trkpt><trkpt lat="45.737687785249896" lon="9.760838139961413"><ele>293.0</ele><time>2026-03-29T15:28:10Z</time></trkpt><trkpt lat="45.737671021957055" lon="9.760748946763094"><ele>294.0</ele><time>2026-03-29T15:28:11Z</time></trkpt><trkpt lat="45.73765286849799" lon="9.760661342555943"><ele>295.0</ele><time>2026-03-29T15:28:12Z</time></trkpt><trkpt lat="45.73762120496765" lon="9.760481924311662"><ele>296.0</ele><time>2026-03-29T15:28:14Z</time></trkpt><trkpt lat="45.737579448015424" lon="9.760312580975603"><ele>297.0</ele><time>2026-03-29T15:28:16Z</time></trkpt><trkpt lat="45.73753318165097" lon="9.760150606728214"><ele>297.0</ele><time>2026-03-29T15:28:18Z</time></trkpt><trkpt lat="45.73748505647625" lon="9.759989205973152"><ele>297.0</ele><time>2026-03-29T15:28:20Z</time></trkpt><trkpt lat="45.7374651524699" lon="9.75989885774213"><ele>297.0</ele><time>2026-03-29T15:28:21Z</time></trkpt><trkpt lat="45.73741817817123" lon="9.759734159521901"><ele>297.0</ele><time>2026-03-29T15:28:23Z</time></trkpt><trkpt lat="45.73738989989571" lon="9.759647050845572"><ele>297.0</ele><time>2026-03-29T15:28:24Z</time></trkpt><trkpt lat="45.73734366502273" lon="9.759480952710465"><ele>296.4</ele><time>2026-03-29T15:28:26Z</time></trkpt><trkpt lat="45.73729210648536" lon="9.759311120082202"><ele>295.79999999999995</ele><time>2026-03-29T15:28:28Z</time></trkpt><trkpt lat="45.73724326737857" lon="9.759148410837039"><ele>295.2</ele><time>2026-03-29T15:28:30Z</time></trkpt><trkpt lat="45.73721721755031" lon="9.759064721158131"><ele>294.59999999999997</ele><time>2026-03-29T15:28:31Z</time></trkpt><trkpt lat="45.73715608475731" lon="9.758909955158948"><ele>294.0</ele><time>2026-03-29T15:28:33Z</time></trkpt><trkpt lat="45.73708459508292" lon="9.758759331554367"><ele>294.0</ele><time>2026-03-29T15:28:35Z</time></trkpt><trkpt lat="45.73701209630886" lon="9.758611315674958"><ele>294.0</ele><time>2026-03-29T15:28:37Z</time></trkpt><trkpt lat="45.736977901446664" lon="9.758535030328806"><ele>294.0</ele><time>2026-03-29T15:28:38Z</time></trkpt><trkpt lat="45.73694291457963" lon="9.758459603189523"><ele>294.0</ele><time>2026-03-29T15:28:39Z</time></trkpt><trkpt lat="45.736908200081054" lon="9.758383674397965"><ele>294.0</ele><time>2026-03-29T15:28:40Z</time></trkpt><trkpt lat="45.73687276334897" lon="9.7583076574717"><ele>294.0</ele><time>2026-03-29T15:28:41Z</time></trkpt><trkpt lat="45.736802727275716" lon="9.758160279520167"><ele>294.3333333333333</ele><time>2026-03-29T15:28:43Z</time></trkpt><trkpt lat="45.73676544485634" lon="9.758080042314837"><ele>294.6666666666667</ele><time>2026-03-29T15:28:44Z</time></trkpt><trkpt lat="45.736696090427564" lon="9.757926856823843"><ele>295.0</ele><time>2026-03-29T15:28:46Z</time></trkpt><trkpt lat="45.73666240317432" lon="9.757849730585189"><ele>295.33333333333337</ele><time>2026-03-29T15:28:47Z</time></trkpt><trkpt lat="45.73658861774651" lon="9.757706760195855"><ele>295.6666666666667</ele><time>2026-03-29T15:28:49Z</time></trkpt><trkpt lat="45.736547068190994" lon="9.75763865169804"><ele>296.0</ele><time>2026-03-29T15:28:50Z</time></trkpt><trkpt lat="45.736467958406664" lon="9.757501534744323"><ele>296.0</ele><time>2026-03-29T15:28:52Z</time></trkpt><trkpt lat="45.736381643243526" lon="9.757370292097193"><ele>296.0</ele><time>2026-03-29T15:28:54Z</time></trkpt><trkpt lat="45.73633125460585" lon="9.757314983756245"><ele>296.0</ele><time>2026-03-29T15:28:55Z</time></trkpt><trkpt lat="45.73622898169141" lon="9.757222603243806"><ele>296.0</ele><time>2026-03-29T15:28:57Z</time></trkpt><trkpt lat="45.73616264599354" lon="9.757232395019237"><ele>296.0</ele><time>2026-03-29T15:28:58Z</time></trkpt><trkpt lat="45.736100222953674" lon="9.75726579042252"><ele>296.0</ele><time>2026-03-29T15:28:59Z</time></trkpt><trkpt lat="45.73597918795828" lon="9.757253504629409"><ele>297.2</ele><time>2026-03-29T15:29:01Z</time></trkpt><trkpt lat="45.735864693731976" lon="9.757197400477558"><ele>298.40000000000003</ele><time>2026-03-29T15:29:03Z</time></trkpt><trkpt lat="45.73574703326566" lon="9.757194998185"><ele>299.6</ele><time>2026-03-29T15:29:05Z</time></trkpt><trkpt lat="45.73562772288022" lon="9.75719079572492"><ele>300.8</ele><time>2026-03-29T15:29:07Z</time></trkpt><trkpt lat="45.735564610923916" lon="9.757196511946562"><ele>302.0</ele><time>2026-03-29T15:29:08Z</time></trkpt><trkpt lat="45.735450786039934" lon="9.7572138329106"><ele>302.0</ele><time>2026-03-29T15:29:10Z</time></trkpt><trkpt lat="45.73533214068355" lon="9.75722616996404"><ele>302.0</ele><time>2026-03-29T15:29:12Z</time></trkpt><trkpt lat="45.73521719068195" lon="9.757231277680026"><ele>302.0</ele><time>2026-03-29T15:29:14Z</time></trkpt><trkpt lat="45.735101293308475" lon="9.757251679195083"><ele>302.0</ele><time>2026-03-29T15:29:16Z</time></trkpt><trkpt lat="45.73498601398248" lon="9.75724452286266"><ele>303.25</ele><time>2026-03-29T15:29:18Z</time></trkpt><trkpt lat="45.73486899583307" lon="9.757259680727447"><ele>304.5</ele><time>2026-03-29T15:29:20Z</time></trkpt><trkpt lat="45.73475652613141" lon="9.757269576335506"><ele>305.75</ele><time>2026-03-29T15:29:22Z</time></trkpt><trkpt lat="45.7346443470616" lon="9.757276271433295"><ele>307.0</ele><time>2026-03-29T15:29:24Z</time></trkpt><trkpt lat="45.73452910045774" lon="9.757285561563513"><ele>307.0</ele><time>2026-03-29T15:29:26Z</time></trkpt><trkpt lat="45.73441669579571" lon="9.757302036475819"><ele>307.0</ele><time>2026-03-29T15:29:28Z</time></trkpt><trkpt lat="45.73430446786056" lon="9.757325004238401"><ele>307.0</ele><time>2026-03-29T15:29:30Z</time></trkpt><trkpt lat="45.734195546615595" lon="9.757366527755606"><ele>307.0</ele><time>2026-03-29T15:29:32Z</time></trkpt><trkpt lat="45.73408810182136" lon="9.757429699999596"><ele>307.0</ele><time>2026-03-29T15:29:34Z</time></trkpt><trkpt lat="45.733981581500494" lon="9.757510598947796"><ele>307.0</ele><time>2026-03-29T15:29:36Z</time></trkpt><trkpt lat="45.73392553168165" lon="9.757552572033017"><ele>307.0</ele><time>2026-03-29T15:29:37Z</time></trkpt><trkpt lat="45.733809252104685" lon="9.75762308916015"><ele>307.0</ele><time>2026-03-29T15:29:39Z</time></trkpt><trkpt lat="45.73375019291525" lon="9.757669204444296"><ele>307.0</ele><time>2026-03-29T15:29:40Z</time></trkpt><trkpt lat="45.7336873326409" lon="9.757690557631715"><ele>307.0</ele><time>2026-03-29T15:29:41Z</time></trkpt><trkpt lat="45.73362411274601" lon="9.757720692821827"><ele>306.85714285714283</ele><time>2026-03-29T15:29:42Z</time></trkpt><trkpt lat="45.733560067771734" lon="9.757753424476835"><ele>306.7142857142857</ele><time>2026-03-29T15:29:43Z</time></trkpt><trkpt lat="45.73349782725333" lon="9.757779574805225"><ele>306.57142857142856</ele><time>2026-03-29T15:29:44Z</time></trkpt><trkpt lat="45.733435742328595" lon="9.75780966662463"><ele>306.42857142857144</ele><time>2026-03-29T15:29:45Z</time></trkpt><trkpt lat="45.73337093175812" lon="9.75783825772388"><ele>306.2857142857143</ele><time>2026-03-29T15:29:46Z</time></trkpt><trkpt lat="45.73331431783437" lon="9.75788018790305"><ele>306.1428571428571</ele><time>2026-03-29T15:29:47Z</time></trkpt><trkpt lat="45.73325471742427" lon="9.757914932893216"><ele>306.0</ele><time>2026-03-29T15:29:48Z</time></trkpt><trkpt lat="45.73319396437964" lon="9.757956011688018"><ele>306.0</ele><time>2026-03-29T15:29:49Z</time></trkpt><trkpt lat="45.73313729918063" lon="9.758000846778128"><ele>306.0</ele><time>2026-03-29T15:29:50Z</time></trkpt><trkpt lat="45.73302381974589" lon="9.758084370973842"><ele>306.0</ele><time>2026-03-29T15:29:52Z</time></trkpt><trkpt lat="45.732963437342825" lon="9.758123954562299"><ele>306.0</ele><time>2026-03-29T15:29:53Z</time></trkpt><trkpt lat="45.73285365533438" lon="9.758208922599568"><ele>306.0</ele><time>2026-03-29T15:29:55Z</time></trkpt><trkpt lat="45.73279816141664" lon="9.758252906951236"><ele>306.0</ele><time>2026-03-29T15:29:56Z</time></trkpt><trkpt lat="45.7326859564992" lon="9.758334316495395"><ele>305.7142857142857</ele><time>2026-03-29T15:29:58Z</time></trkpt><trkpt lat="45.7326274443546" lon="9.758377618131457"><ele>305.42857142857144</ele><time>2026-03-29T15:29:59Z</time></trkpt><trkpt lat="45.7325162452191" lon="9.758441534235597"><ele>305.1428571428571</ele><time>2026-03-29T15:30:01Z</time></trkpt><trkpt lat="45.732455847753116" lon="9.758468033225034"><ele>304.8571428571429</ele><time>2026-03-29T15:30:02Z</time></trkpt><trkpt lat="45.7323933317811" lon="9.758493176122615"><ele>304.5714285714286</ele><time>2026-03-29T15:30:03.001Z</time></trkpt><trkpt lat="45.73233344020861" lon="9.758526399042024"><ele>304.2857142857143</ele><time>2026-03-29T15:30:04Z</time></trkpt><trkpt lat="45.73227159059882" lon="9.75856051606426"><ele>304.0</ele><time>2026-03-29T15:30:05Z</time></trkpt><trkpt lat="45.732152566150745" lon="9.758615392493438"><ele>304.59999999999997</ele><time>2026-03-29T15:30:07Z</time></trkpt><trkpt lat="45.73203559135631" lon="9.758671879364755"><ele>305.2</ele><time>2026-03-29T15:30:09Z</time></trkpt><trkpt lat="45.73197444423056" lon="9.75869733663787"><ele>305.79999999999995</ele><time>2026-03-29T15:30:10Z</time></trkpt><trkpt lat="45.73184961726506" lon="9.758733945129073"><ele>306.4</ele><time>2026-03-29T15:30:12Z</time></trkpt><trkpt lat="45.731729791407176" lon="9.758761913783507"><ele>307.0</ele><time>2026-03-29T15:30:14Z</time></trkpt><trkpt lat="45.731657040310914" lon="9.758773319908187"><ele>307.0</ele><time>2026-03-29T15:30:15Z</time></trkpt><trkpt lat="45.73154025650681" lon="9.758798194646921"><ele>307.0</ele><time>2026-03-29T15:30:17Z</time></trkpt><trkpt lat="45.731475563658165" lon="9.758811067435353"><ele>307.0</ele><time>2026-03-29T15:30:18Z</time></trkpt><trkpt lat="45.73135286624173" lon="9.758822529411997"><ele>307.0</ele><time>2026-03-29T15:30:20Z</time></trkpt><trkpt lat="45.731237072606966" lon="9.75884849947892"><ele>307.0</ele><time>2026-03-29T15:30:22Z</time></trkpt><trkpt lat="45.731124756892925" lon="9.758884041281735"><ele>306.75</ele><time>2026-03-29T15:30:24Z</time></trkpt><trkpt lat="45.73101549438524" lon="9.758938134642577"><ele>306.5</ele><time>2026-03-29T15:30:26Z</time></trkpt><trkpt lat="45.730913349231145" lon="9.75900723130095"><ele>306.25</ele><time>2026-03-29T15:30:28Z</time></trkpt><trkpt lat="45.73081326477059" lon="9.759089462440619"><ele>306.0</ele><time>2026-03-29T15:30:30Z</time></trkpt><trkpt lat="45.730708929869856" lon="9.759151059948401"><ele>306.0</ele><time>2026-03-29T15:30:32Z</time></trkpt><trkpt lat="45.73059587412215" lon="9.75920844916011"><ele>306.0</ele><time>2026-03-29T15:30:34Z</time></trkpt><trkpt lat="45.73047614544484" lon="9.75924857900843"><ele>306.0</ele><time>2026-03-29T15:30:36Z</time></trkpt><trkpt lat="45.730356176784106" lon="9.759271895367371"><ele>306.0</ele><time>2026-03-29T15:30:38Z</time></trkpt><trkpt lat="45.730236737133005" lon="9.759289704952423"><ele>306.0</ele><time>2026-03-29T15:30:40Z</time></trkpt><trkpt lat="45.7301190011897" lon="9.759298997031737"><ele>306.0</ele><time>2026-03-29T15:30:42Z</time></trkpt><trkpt lat="45.730053480486056" lon="9.759311784021513"><ele>306.0</ele><time>2026-03-29T15:30:43Z</time></trkpt><trkpt lat="45.72993961610259" lon="9.759321607781384"><ele>306.0</ele><time>2026-03-29T15:30:45Z</time></trkpt><trkpt lat="45.72982811930437" lon="9.759331797291797"><ele>306.0</ele><time>2026-03-29T15:30:47Z</time></trkpt><trkpt lat="45.72972689416765" lon="9.759341242879493"><ele>306.0</ele><time>2026-03-29T15:30:49Z</time></trkpt><trkpt lat="45.729623360362176" lon="9.759340766567046"><ele>306.0</ele><time>2026-03-29T15:30:51Z</time></trkpt><trkpt lat="45.72950213334531" lon="9.759347851703458"><ele>306.0</ele><time>2026-03-29T15:30:53Z</time></trkpt><trkpt lat="45.729430357506736" lon="9.759323339659067"><ele>306.0</ele><time>2026-03-29T15:30:54Z</time></trkpt><trkpt lat="45.7293500453488" lon="9.759287560864735"><ele>306.0</ele><time>2026-03-29T15:30:55Z</time></trkpt><trkpt lat="45.72925262338092" lon="9.759349314029427"><ele>305.8333333333333</ele><time>2026-03-29T15:30:57Z</time></trkpt><trkpt lat="45.72918812339774" lon="9.759355986536688"><ele>305.6666666666667</ele><time>2026-03-29T15:30:58Z</time></trkpt><trkpt lat="45.729069632108924" lon="9.75938556151962"><ele>305.5</ele><time>2026-03-29T15:31:00Z</time></trkpt><trkpt lat="45.72900494446698" lon="9.75939645428115"><ele>305.33333333333337</ele><time>2026-03-29T15:31:01Z</time></trkpt><trkpt lat="45.728891543626354" lon="9.75942792578721"><ele>305.1666666666667</ele><time>2026-03-29T15:31:03Z</time></trkpt><trkpt lat="45.728829872536316" lon="9.759464304673992"><ele>305.0</ele><time>2026-03-29T15:31:04Z</time></trkpt><trkpt lat="45.72871703241602" lon="9.759523253114644"><ele>306.25</ele><time>2026-03-29T15:31:06Z</time></trkpt><trkpt lat="45.72860228679929" lon="9.759582932449781"><ele>307.5</ele><time>2026-03-29T15:31:08Z</time></trkpt><trkpt lat="45.72848921884956" lon="9.759640963705191"><ele>308.75</ele><time>2026-03-29T15:31:10Z</time></trkpt><trkpt lat="45.72837762094045" lon="9.759702190142065"><ele>310.0</ele><time>2026-03-29T15:31:12Z</time></trkpt><trkpt lat="45.72826464908487" lon="9.759757778996473"><ele>310.0</ele><time>2026-03-29T15:31:14Z</time></trkpt><trkpt lat="45.72815050283015" lon="9.759815582630218"><ele>310.0</ele><time>2026-03-29T15:31:16Z</time></trkpt><trkpt lat="45.728038119547456" lon="9.759866620466639"><ele>310.0</ele><time>2026-03-29T15:31:18Z</time></trkpt><trkpt lat="45.72792283668024" lon="9.759918897855805"><ele>310.0</ele><time>2026-03-29T15:31:20Z</time></trkpt><trkpt lat="45.727810321135806" lon="9.759974938375873"><ele>310.0</ele><time>2026-03-29T15:31:22Z</time></trkpt><trkpt lat="45.727697564383206" lon="9.760029345908556"><ele>310.0</ele><time>2026-03-29T15:31:24Z</time></trkpt><trkpt lat="45.72758816523466" lon="9.760092521759788"><ele>310.0</ele><time>2026-03-29T15:31:26Z</time></trkpt><trkpt lat="45.72747470433024" lon="9.760142756724301"><ele>310.0</ele><time>2026-03-29T15:31:28Z</time></trkpt><trkpt lat="45.72736203899078" lon="9.760193035247068"><ele>311.75</ele><time>2026-03-29T15:31:30Z</time></trkpt><trkpt lat="45.72724784872627" lon="9.760236415529942"><ele>313.5</ele><time>2026-03-29T15:31:32Z</time></trkpt><trkpt lat="45.72713274876168" lon="9.760262011319886"><ele>315.25</ele><time>2026-03-29T15:31:34Z</time></trkpt><trkpt lat="45.727018713203876" lon="9.76029687490938"><ele>317.0</ele><time>2026-03-29T15:31:36Z</time></trkpt><trkpt lat="45.72690211793137" lon="9.760327992569467"><ele>316.0</ele><time>2026-03-29T15:31:38Z</time></trkpt><trkpt lat="45.726784589958875" lon="9.76036745495901"><ele>315.0</ele><time>2026-03-29T15:31:40Z</time></trkpt><trkpt lat="45.726669202284405" lon="9.760414419240593"><ele>314.0</ele><time>2026-03-29T15:31:42Z</time></trkpt><trkpt lat="45.7265565899838" lon="9.760461949885617"><ele>313.0</ele><time>2026-03-29T15:31:44Z</time></trkpt><trkpt lat="45.7264436208966" lon="9.760509385298029"><ele>313.0</ele><time>2026-03-29T15:31:46Z</time></trkpt><trkpt lat="45.726326801175745" lon="9.760555835221346"><ele>313.0</ele><time>2026-03-29T15:31:48Z</time></trkpt><trkpt lat="45.7262101177233" lon="9.760603277705721"><ele>313.0</ele><time>2026-03-29T15:31:50Z</time></trkpt><trkpt lat="45.72609228495995" lon="9.760652392897919"><ele>313.0</ele><time>2026-03-29T15:31:52Z</time></trkpt><trkpt lat="45.725977340769994" lon="9.760701513428508"><ele>312.25</ele><time>2026-03-29T15:31:54Z</time></trkpt><trkpt lat="45.725864320067544" lon="9.76074709505139"><ele>311.5</ele><time>2026-03-29T15:31:56Z</time></trkpt><trkpt lat="45.72574846515829" lon="9.760795491369322"><ele>310.75</ele><time>2026-03-29T15:31:58Z</time></trkpt><trkpt lat="45.7256317319081" lon="9.760847005527356"><ele>310.0</ele><time>2026-03-29T15:32:00Z</time></trkpt><trkpt lat="45.72551603708332" lon="9.760888366477483"><ele>310.0</ele><time>2026-03-29T15:32:02Z</time></trkpt><trkpt lat="45.72540002570551" lon="9.760940425632212"><ele>310.0</ele><time>2026-03-29T15:32:04Z</time></trkpt><trkpt lat="45.725288373662686" lon="9.761000369819929"><ele>310.0</ele><time>2026-03-29T15:32:06Z</time></trkpt><trkpt lat="45.725176472400356" lon="9.76106133734522"><ele>310.0</ele><time>2026-03-29T15:32:08Z</time></trkpt><trkpt lat="45.72507054059546" lon="9.761128519450992"><ele>311.25</ele><time>2026-03-29T15:32:10Z</time></trkpt><trkpt lat="45.724965508129145" lon="9.761208871446648"><ele>312.5</ele><time>2026-03-29T15:32:12Z</time></trkpt><trkpt lat="45.72486619522441" lon="9.761297125672662"><ele>313.75</ele><time>2026-03-29T15:32:14Z</time></trkpt><trkpt lat="45.72477498411556" lon="9.761397625826085"><ele>315.0</ele><time>2026-03-29T15:32:16Z</time></trkpt><trkpt lat="45.72468590403195" lon="9.761515007330457"><ele>315.0</ele><time>2026-03-29T15:32:18Z</time></trkpt><trkpt lat="45.724608208175276" lon="9.761647002933298"><ele>315.0</ele><time>2026-03-29T15:32:20Z</time></trkpt><trkpt lat="45.724542147046144" lon="9.761793302672293"><ele>315.0</ele><time>2026-03-29T15:32:22Z</time></trkpt><trkpt lat="45.72448455466085" lon="9.761950573083519"><ele>315.0</ele><time>2026-03-29T15:32:24Z</time></trkpt><trkpt lat="45.72445014931627" lon="9.762032552855764"><ele>315.0</ele><time>2026-03-29T15:32:25Z</time></trkpt><trkpt lat="45.724385702697965" lon="9.762172773737987"><ele>314.75</ele><time>2026-03-29T15:32:27Z</time></trkpt><trkpt lat="45.72432358674855" lon="9.762320516727675"><ele>314.5</ele><time>2026-03-29T15:32:29Z</time></trkpt><trkpt lat="45.7242515380364" lon="9.762456053844293"><ele>314.25</ele><time>2026-03-29T15:32:31Z</time></trkpt><trkpt lat="45.724178485820005" lon="9.762588243218561"><ele>314.0</ele><time>2026-03-29T15:32:33Z</time></trkpt><trkpt lat="45.72409500608052" lon="9.76270802519987"><ele>314.75</ele><time>2026-03-29T15:32:35Z</time></trkpt><trkpt lat="45.7240007383368" lon="9.762813400697185"><ele>315.5</ele><time>2026-03-29T15:32:37Z</time></trkpt><trkpt lat="45.72390430401933" lon="9.762918749673366"><ele>316.25</ele><time>2026-03-29T15:32:39Z</time></trkpt><trkpt lat="45.72380573561913" lon="9.763025385860137"><ele>317.0</ele><time>2026-03-29T15:32:41Z</time></trkpt><trkpt lat="45.72370747129736" lon="9.763134259034382"><ele>317.0</ele><time>2026-03-29T15:32:43Z</time></trkpt><trkpt lat="45.723614273306495" lon="9.76324020660896"><ele>317.0</ele><time>2026-03-29T15:32:45Z</time></trkpt><trkpt lat="45.723567400565955" lon="9.763306922918712"><ele>317.0</ele><time>2026-03-29T15:32:46Z</time></trkpt><trkpt lat="45.72348058043988" lon="9.763427753568378"><ele>317.0</ele><time>2026-03-29T15:32:48Z</time></trkpt><trkpt lat="45.72339381502317" lon="9.763548940299085"><ele>317.0</ele><time>2026-03-29T15:32:50Z</time></trkpt><trkpt lat="45.723347818419036" lon="9.763611482899199"><ele>316.4</ele><time>2026-03-29T15:32:51Z</time></trkpt><trkpt lat="45.72325958612287" lon="9.763729472321819"><ele>315.79999999999995</ele><time>2026-03-29T15:32:53Z</time></trkpt><trkpt lat="45.72321366518076" lon="9.763797154895"><ele>315.2</ele><time>2026-03-29T15:32:54Z</time></trkpt><trkpt lat="45.72312198720147" lon="9.763916487176159"><ele>314.59999999999997</ele><time>2026-03-29T15:32:56Z</time></trkpt><trkpt lat="45.723024616853" lon="9.764026632038536"><ele>314.0</ele><time>2026-03-29T15:32:58Z</time></trkpt><trkpt lat="45.72292998678345" lon="9.764134087920992"><ele>314.0</ele><time>2026-03-29T15:33:00Z</time></trkpt><trkpt lat="45.722832707926514" lon="9.764239443338797"><ele>314.0</ele><time>2026-03-29T15:33:02Z</time></trkpt><trkpt lat="45.72273490519617" lon="9.764340358170285"><ele>314.0</ele><time>2026-03-29T15:33:04Z</time></trkpt><trkpt lat="45.72263662790882" lon="9.764441129009867"><ele>314.0</ele><time>2026-03-29T15:33:06Z</time></trkpt><trkpt lat="45.7225366873259" lon="9.76453514198418"><ele>315.25</ele><time>2026-03-29T15:33:08Z</time></trkpt><trkpt lat="45.72243834369151" lon="9.764626768648156"><ele>316.5</ele><time>2026-03-29T15:33:10Z</time></trkpt><trkpt lat="45.72234020175415" lon="9.76472812151102"><ele>317.75</ele><time>2026-03-29T15:33:12Z</time></trkpt><trkpt lat="45.72224523664525" lon="9.764819692750486"><ele>319.0</ele><time>2026-03-29T15:33:14Z</time></trkpt><trkpt lat="45.722146125732515" lon="9.764913210459449"><ele>319.0</ele><time>2026-03-29T15:33:16Z</time></trkpt><trkpt lat="45.72205267599486" lon="9.765012087316077"><ele>319.0</ele><time>2026-03-29T15:33:18Z</time></trkpt><trkpt lat="45.72195277564461" lon="9.76510559674221"><ele>319.0</ele><time>2026-03-29T15:33:20Z</time></trkpt><trkpt lat="45.72185787331574" lon="9.765198492920312"><ele>319.0</ele><time>2026-03-29T15:33:22Z</time></trkpt><trkpt lat="45.72176008986227" lon="9.76529268480355"><ele>319.0</ele><time>2026-03-29T15:33:24Z</time></trkpt><trkpt lat="45.721660405419804" lon="9.765388474972417"><ele>319.0</ele><time>2026-03-29T15:33:26Z</time></trkpt><trkpt lat="45.721560135850055" lon="9.765489682036101"><ele>319.0</ele><time>2026-03-29T15:33:28Z</time></trkpt><trkpt lat="45.721464568463546" lon="9.76559787245151"><ele>319.0</ele><time>2026-03-29T15:33:30Z</time></trkpt><trkpt lat="45.72136789840198" lon="9.765705010234502"><ele>319.0</ele><time>2026-03-29T15:33:32Z</time></trkpt><trkpt lat="45.72127140948951" lon="9.765815029076473"><ele>319.0</ele><time>2026-03-29T15:33:34Z</time></trkpt><trkpt lat="45.721175421838225" lon="9.765922254580168"><ele>319.0</ele><time>2026-03-29T15:33:36Z</time></trkpt><trkpt lat="45.72108067508526" lon="9.766037671467844"><ele>319.0</ele><time>2026-03-29T15:33:38Z</time></trkpt><trkpt lat="45.720983624733904" lon="9.766146147153739"><ele>319.6</ele><time>2026-03-29T15:33:40Z</time></trkpt><trkpt lat="45.72089607653222" lon="9.766266422620685"><ele>320.2</ele><time>2026-03-29T15:33:42Z</time></trkpt><trkpt lat="45.72084922819978" lon="9.766329647401218"><ele>320.8</ele><time>2026-03-29T15:33:43Z</time></trkpt><trkpt lat="45.72075903169967" lon="9.766442115009323"><ele>321.40000000000003</ele><time>2026-03-29T15:33:45Z</time></trkpt><trkpt lat="45.72066615434317" lon="9.766555694334087"><ele>322.0</ele><time>2026-03-29T15:33:47Z</time></trkpt><trkpt lat="45.72057751010443" lon="9.766666192973405"><ele>322.0</ele><time>2026-03-29T15:33:49Z</time></trkpt><trkpt lat="45.72048032162577" lon="9.766769800488433"><ele>322.0</ele><time>2026-03-29T15:33:51Z</time></trkpt><trkpt lat="45.72037725974135" lon="9.76686892034663"><ele>322.0</ele><time>2026-03-29T15:33:53Z</time></trkpt><trkpt lat="45.72027996220607" lon="9.76696302679076"><ele>322.0</ele><time>2026-03-29T15:33:55Z</time></trkpt><trkpt lat="45.72017885556657" lon="9.76705494902897"><ele>322.8</ele><time>2026-03-29T15:33:57Z</time></trkpt><trkpt lat="45.7200840783299" lon="9.767156076096523"><ele>323.6</ele><time>2026-03-29T15:33:59Z</time></trkpt><trkpt lat="45.7200324088608" lon="9.767209937242633"><ele>324.40000000000003</ele><time>2026-03-29T15:34:00Z</time></trkpt><trkpt lat="45.71993343501314" lon="9.76730846946816"><ele>325.20000000000005</ele><time>2026-03-29T15:34:02Z</time></trkpt><trkpt lat="45.71983653551531" lon="9.767407341434868"><ele>326.0</ele><time>2026-03-29T15:34:04Z</time></trkpt><trkpt lat="45.71973408506284" lon="9.767508384835367"><ele>326.0</ele><time>2026-03-29T15:34:06Z</time></trkpt><trkpt lat="45.71963419228811" lon="9.767611988440278"><ele>326.0</ele><time>2026-03-29T15:34:08Z</time></trkpt><trkpt lat="45.719535455694604" lon="9.767708624991345"><ele>326.0</ele><time>2026-03-29T15:34:10Z</time></trkpt><trkpt lat="45.71943637426848" lon="9.76781349012446"><ele>326.0</ele><time>2026-03-29T15:34:12Z</time></trkpt><trkpt lat="45.71934143907496" lon="9.767902962119075"><ele>325.25</ele><time>2026-03-29T15:34:14Z</time></trkpt><trkpt lat="45.71924331671182" lon="9.768003098842724"><ele>324.5</ele><time>2026-03-29T15:34:16Z</time></trkpt><trkpt lat="45.71914440331451" lon="9.768102046221573"><ele>323.75</ele><time>2026-03-29T15:34:18Z</time></trkpt><trkpt lat="45.71904396010004" lon="9.768201830256485"><ele>323.0</ele><time>2026-03-29T15:34:20Z</time></trkpt><trkpt lat="45.71894306480656" lon="9.768300139993155"><ele>323.0</ele><time>2026-03-29T15:34:22Z</time></trkpt><trkpt lat="45.718843363062405" lon="9.768393638460557"><ele>323.0</ele><time>2026-03-29T15:34:24Z</time></trkpt><trkpt lat="45.718742194745026" lon="9.768490532841001"><ele>323.0</ele><time>2026-03-29T15:34:26Z</time></trkpt><trkpt lat="45.71864173097582" lon="9.768585518979256"><ele>323.0</ele><time>2026-03-29T15:34:28Z</time></trkpt><trkpt lat="45.718541156515236" lon="9.768676653103151"><ele>322.75</ele><time>2026-03-29T15:34:30Z</time></trkpt><trkpt lat="45.71844290056946" lon="9.768777181905659"><ele>322.5</ele><time>2026-03-29T15:34:32Z</time></trkpt><trkpt lat="45.71834953755178" lon="9.768874033917518"><ele>322.25</ele><time>2026-03-29T15:34:34Z</time></trkpt><trkpt lat="45.718258880765866" lon="9.768978673829267"><ele>322.0</ele><time>2026-03-29T15:34:36Z</time></trkpt><trkpt lat="45.7181708779748" lon="9.769088707573642"><ele>322.0</ele><time>2026-03-29T15:34:38Z</time></trkpt><trkpt lat="45.718084277700164" lon="9.76921026521176"><ele>322.0</ele><time>2026-03-29T15:34:40Z</time></trkpt><trkpt lat="45.71800230833488" lon="9.769334160002836"><ele>322.0</ele><time>2026-03-29T15:34:42Z</time></trkpt><trkpt lat="45.71792059297581" lon="9.769468323755753"><ele>322.0</ele><time>2026-03-29T15:34:44Z</time></trkpt><trkpt lat="45.71784346527427" lon="9.769594807230211"><ele>322.25</ele><time>2026-03-29T15:34:46Z</time></trkpt><trkpt lat="45.71776253947273" lon="9.76972988781881"><ele>322.5</ele><time>2026-03-29T15:34:48Z</time></trkpt><trkpt lat="45.717678051155445" lon="9.76985474071684"><ele>322.75</ele><time>2026-03-29T15:34:50Z</time></trkpt><trkpt lat="45.7175983160201" lon="9.769983428604759"><ele>323.0</ele><time>2026-03-29T15:34:52Z</time></trkpt><trkpt lat="45.71752096695855" lon="9.7701089823516"><ele>323.75</ele><time>2026-03-29T15:34:54Z</time></trkpt><trkpt lat="45.717437334821476" lon="9.770233982618484"><ele>324.5</ele><time>2026-03-29T15:34:56Z</time></trkpt><trkpt lat="45.71735757105854" lon="9.770357436718848"><ele>325.25</ele><time>2026-03-29T15:34:58Z</time></trkpt><trkpt lat="45.717281094787424" lon="9.770486516621238"><ele>326.0</ele><time>2026-03-29T15:35:00Z</time></trkpt><trkpt lat="45.71720096357744" lon="9.77060972560507"><ele>326.0</ele><time>2026-03-29T15:35:02Z</time></trkpt><trkpt lat="45.7171203503178" lon="9.770741553044843"><ele>326.0</ele><time>2026-03-29T15:35:04Z</time></trkpt><trkpt lat="45.717042953839304" lon="9.770864802462363"><ele>326.0</ele><time>2026-03-29T15:35:06Z</time></trkpt><trkpt lat="45.71696496827022" lon="9.770993687359523"><ele>326.0</ele><time>2026-03-29T15:35:08Z</time></trkpt><trkpt lat="45.71688561172804" lon="9.771120419899765"><ele>325.75</ele><time>2026-03-29T15:35:10Z</time></trkpt><trkpt lat="45.71680258450698" lon="9.771249296175474"><ele>325.5</ele><time>2026-03-29T15:35:12Z</time></trkpt><trkpt lat="45.71672022172174" lon="9.771372290528092"><ele>325.25</ele><time>2026-03-29T15:35:14Z</time></trkpt><trkpt lat="45.71663779971391" lon="9.77149648644906"><ele>325.0</ele><time>2026-03-29T15:35:16Z</time></trkpt><trkpt lat="45.71655032449759" lon="9.77160601923019"><ele>325.0</ele><time>2026-03-29T15:35:18.001Z</time></trkpt><trkpt lat="45.71645819151448" lon="9.771723756837023"><ele>325.0</ele><time>2026-03-29T15:35:20Z</time></trkpt><trkpt lat="45.71636422331234" lon="9.77182941209129"><ele>325.0</ele><time>2026-03-29T15:35:22Z</time></trkpt><trkpt lat="45.71631660004794" lon="9.771891059290544"><ele>325.0</ele><time>2026-03-29T15:35:23Z</time></trkpt><trkpt lat="45.71623005310183" lon="9.772000849776488"><ele>325.0</ele><time>2026-03-29T15:35:25Z</time></trkpt><trkpt lat="45.716183386136166" lon="9.772063657572083"><ele>325.0</ele><time>2026-03-29T15:35:26Z</time></trkpt><trkpt lat="45.71609636394411" lon="9.772176666599439"><ele>325.0</ele><time>2026-03-29T15:35:28Z</time></trkpt><trkpt lat="45.71601456099686" lon="9.772297716161267"><ele>325.0</ele><time>2026-03-29T15:35:30Z</time></trkpt><trkpt lat="45.715931192992535" lon="9.772401867089599"><ele>325.0</ele><time>2026-03-29T15:35:32Z</time></trkpt><trkpt lat="45.71585061222713" lon="9.772510813379998"><ele>326.0</ele><time>2026-03-29T15:35:34Z</time></trkpt><trkpt lat="45.715775489257496" lon="9.77261426461269"><ele>327.0</ele><time>2026-03-29T15:35:36Z</time></trkpt><trkpt lat="45.71570298639435" lon="9.77271066452925"><ele>328.0</ele><time>2026-03-29T15:35:38Z</time></trkpt><trkpt lat="45.71563522793974" lon="9.772801175731441"><ele>329.0</ele><time>2026-03-29T15:35:40Z</time></trkpt><trkpt lat="45.71556277825858" lon="9.772886772656097"><ele>330.0</ele><time>2026-03-29T15:35:42Z</time></trkpt><trkpt lat="45.715492196724846" lon="9.772970934788011"><ele>330.0</ele><time>2026-03-29T15:35:44Z</time></trkpt><trkpt lat="45.71542248106019" lon="9.773047523758892"><ele>330.0</ele><time>2026-03-29T15:35:46Z</time></trkpt><trkpt lat="45.715342259103714" lon="9.773058608323536"><ele>330.0</ele><time>2026-03-29T15:35:48Z</time></trkpt><trkpt lat="45.715260461526704" lon="9.773012179434012"><ele>330.0</ele><time>2026-03-29T15:35:50Z</time></trkpt><trkpt lat="45.71520787889682" lon="9.77287660199842"><ele>330.0</ele><time>2026-03-29T15:35:52Z</time></trkpt><trkpt lat="45.71518865940228" lon="9.772787191230874"><ele>330.0</ele><time>2026-03-29T15:35:53Z</time></trkpt><trkpt lat="45.71517270359719" lon="9.772689437271527"><ele>329.6666666666667</ele><time>2026-03-29T15:35:54Z</time></trkpt><trkpt lat="45.71515787153964" lon="9.77258893814873"><ele>329.3333333333333</ele><time>2026-03-29T15:35:55Z</time></trkpt><trkpt lat="45.71514366963389" lon="9.772479973050965"><ele>329.0</ele><time>2026-03-29T15:35:56Z</time></trkpt><trkpt lat="45.715143787645566" lon="9.772367114789677"><ele>328.66666666666663</ele><time>2026-03-29T15:35:57Z</time></trkpt><trkpt lat="45.71514888397595" lon="9.772243793633956"><ele>328.3333333333333</ele><time>2026-03-29T15:35:58Z</time></trkpt><trkpt lat="45.71515844673457" lon="9.77211662204154"><ele>328.0</ele><time>2026-03-29T15:35:59Z</time></trkpt><trkpt lat="45.71516582220103" lon="9.771994347411196"><ele>327.0</ele><time>2026-03-29T15:36:00Z</time></trkpt><trkpt lat="45.71517939216905" lon="9.771855359634252"><ele>326.0</ele><time>2026-03-29T15:36:01Z</time></trkpt><trkpt lat="45.715190204573716" lon="9.771722803912132"><ele>325.0</ele><time>2026-03-29T15:36:02Z</time></trkpt><trkpt lat="45.7152004848731" lon="9.771580542490215"><ele>324.0</ele><time>2026-03-29T15:36:03Z</time></trkpt><trkpt lat="45.715205085919216" lon="9.771436007174563"><ele>323.0</ele><time>2026-03-29T15:36:04Z</time></trkpt><trkpt lat="45.715208130866635" lon="9.77128604108165"><ele>323.0</ele><time>2026-03-29T15:36:05Z</time></trkpt><trkpt lat="45.71520374765655" lon="9.771133027992324"><ele>323.0</ele><time>2026-03-29T15:36:06Z</time></trkpt><trkpt lat="45.715204508759754" lon="9.770980475644555"><ele>323.0</ele><time>2026-03-29T15:36:07Z</time></trkpt><trkpt lat="45.715191623990535" lon="9.770831023915513"><ele>323.0</ele><time>2026-03-29T15:36:08Z</time></trkpt><trkpt lat="45.7151750443073" lon="9.770685845238287"><ele>323.0</ele><time>2026-03-29T15:36:09Z</time></trkpt><trkpt lat="45.715149912953756" lon="9.770542252396936"><ele>322.59999999999997</ele><time>2026-03-29T15:36:10Z</time></trkpt><trkpt lat="45.71511466617162" lon="9.770404732003039"><ele>322.2</ele><time>2026-03-29T15:36:11Z</time></trkpt><trkpt lat="45.71507582035125" lon="9.770276681779023"><ele>321.8</ele><time>2026-03-29T15:36:12Z</time></trkpt><trkpt lat="45.715030248009604" lon="9.770152003332488"><ele>321.4</ele><time>2026-03-29T15:36:13Z</time></trkpt><trkpt lat="45.714984608033355" lon="9.770033687119366"><ele>321.0</ele><time>2026-03-29T15:36:14Z</time></trkpt><trkpt lat="45.71493578506249" lon="9.769920526366054"><ele>321.0</ele><time>2026-03-29T15:36:15Z</time></trkpt><trkpt lat="45.714885055236635" lon="9.769815706769721"><ele>321.0</ele><time>2026-03-29T15:36:16Z</time></trkpt><trkpt lat="45.714829629726616" lon="9.76972077119876"><ele>321.0</ele><time>2026-03-29T15:36:17Z</time></trkpt><trkpt lat="45.71478134632086" lon="9.76962798585949"><ele>321.0</ele><time>2026-03-29T15:36:18Z</time></trkpt><trkpt lat="45.714724634586034" lon="9.769535254216542"><ele>321.0</ele><time>2026-03-29T15:36:19Z</time></trkpt><trkpt lat="45.71467076250483" lon="9.769448315253422"><ele>321.0</ele><time>2026-03-29T15:36:20Z</time></trkpt><trkpt lat="45.71461911037706" lon="9.769357512157255"><ele>320.1666666666667</ele><time>2026-03-29T15:36:21Z</time></trkpt><trkpt lat="45.714564680570895" lon="9.769274370577154"><ele>319.3333333333333</ele><time>2026-03-29T15:36:22Z</time></trkpt><trkpt lat="45.71451197580592" lon="9.769188200950992"><ele>318.5</ele><time>2026-03-29T15:36:23Z</time></trkpt><trkpt lat="45.71445797075368" lon="9.769104904023704"><ele>317.66666666666663</ele><time>2026-03-29T15:36:24Z</time></trkpt><trkpt lat="45.714400256008005" lon="9.769032674164139"><ele>316.8333333333333</ele><time>2026-03-29T15:36:25Z</time></trkpt><trkpt lat="45.71434710536522" lon="9.76898060381098"><ele>316.0</ele><time>2026-03-29T15:36:26Z</time></trkpt><trkpt lat="45.71428979549207" lon="9.768870695793012"><ele>316.0</ele><time>2026-03-29T15:36:27Z</time></trkpt><trkpt lat="45.714231878878024" lon="9.768782355913538"><ele>316.0</ele><time>2026-03-29T15:36:28Z</time></trkpt><trkpt lat="45.714169158114466" lon="9.768697009618478"><ele>316.0</ele><time>2026-03-29T15:36:29Z</time></trkpt><trkpt lat="45.714102908080264" lon="9.768606886106433"><ele>316.0</ele><time>2026-03-29T15:36:30Z</time></trkpt><trkpt lat="45.71403445215894" lon="9.768520230010594"><ele>316.0</ele><time>2026-03-29T15:36:31Z</time></trkpt><trkpt lat="45.71396412279598" lon="9.76843006880768"><ele>316.0</ele><time>2026-03-29T15:36:32Z</time></trkpt><trkpt lat="45.713893003460065" lon="9.76833773655382"><ele>316.0</ele><time>2026-03-29T15:36:33Z</time></trkpt><trkpt lat="45.71381616417976" lon="9.768252185334031"><ele>316.0</ele><time>2026-03-29T15:36:34Z</time></trkpt><trkpt lat="45.71373520014379" lon="9.768179471608859"><ele>316.0</ele><time>2026-03-29T15:36:35Z</time></trkpt><trkpt lat="45.71364917489153" lon="9.76811674825981"><ele>316.0</ele><time>2026-03-29T15:36:36Z</time></trkpt><trkpt lat="45.713562095224496" lon="9.768058437406216"><ele>316.0</ele><time>2026-03-29T15:36:37Z</time></trkpt><trkpt lat="45.713478640814486" lon="9.767999443932936"><ele>315.0</ele><time>2026-03-29T15:36:38Z</time></trkpt><trkpt lat="45.713398846451724" lon="9.767934978317047"><ele>314.0</ele><time>2026-03-29T15:36:39Z</time></trkpt><trkpt lat="45.713320496112296" lon="9.767878006669234"><ele>313.0</ele><time>2026-03-29T15:36:40Z</time></trkpt><trkpt lat="45.71324415371731" lon="9.767818420950881"><ele>312.0</ele><time>2026-03-29T15:36:41Z</time></trkpt><trkpt lat="45.71316701818751" lon="9.767755959619565"><ele>311.0</ele><time>2026-03-29T15:36:42Z</time></trkpt><trkpt lat="45.713094080024746" lon="9.767696349769333"><ele>310.0</ele><time>2026-03-29T15:36:43Z</time></trkpt><trkpt lat="45.71302285142278" lon="9.767630408947127"><ele>309.3333333333333</ele><time>2026-03-29T15:36:44Z</time></trkpt><trkpt lat="45.7129579042759" lon="9.767564403356293"><ele>308.66666666666663</ele><time>2026-03-29T15:36:45Z</time></trkpt><trkpt lat="45.71288652297597" lon="9.767502013498259"><ele>308.0</ele><time>2026-03-29T15:36:46Z</time></trkpt><trkpt lat="45.71281938821399" lon="9.76743960546333"><ele>307.3333333333333</ele><time>2026-03-29T15:36:47Z</time></trkpt><trkpt lat="45.71275264607701" lon="9.767382320778568"><ele>306.6666666666667</ele><time>2026-03-29T15:36:48Z</time></trkpt><trkpt lat="45.71268516587768" lon="9.767320520708193"><ele>306.0</ele><time>2026-03-29T15:36:49Z</time></trkpt><trkpt lat="45.71261638200013" lon="9.767258233854404"><ele>306.0</ele><time>2026-03-29T15:36:50Z</time></trkpt><trkpt lat="45.712540841445914" lon="9.767193160246551"><ele>306.0</ele><time>2026-03-29T15:36:51Z</time></trkpt><trkpt lat="45.71246032672678" lon="9.76712548868512"><ele>306.0</ele><time>2026-03-29T15:36:52Z</time></trkpt><trkpt lat="45.712372858630985" lon="9.767057488438695"><ele>306.0</ele><time>2026-03-29T15:36:53Z</time></trkpt><trkpt lat="45.712277591669775" lon="9.766992614740603"><ele>306.0</ele><time>2026-03-29T15:36:54Z</time></trkpt><trkpt lat="45.71217817597505" lon="9.766927501652289"><ele>304.5</ele><time>2026-03-29T15:36:55Z</time></trkpt><trkpt lat="45.71207339519047" lon="9.766856244830835"><ele>303.0</ele><time>2026-03-29T15:36:56Z</time></trkpt><trkpt lat="45.71196325435564" lon="9.766796776378644"><ele>301.5</ele><time>2026-03-29T15:36:57Z</time></trkpt><trkpt lat="45.711851632522546" lon="9.766726954218992"><ele>300.0</ele><time>2026-03-29T15:36:58Z</time></trkpt><trkpt lat="45.71174400230104" lon="9.766630863701824"><ele>299.75</ele><time>2026-03-29T15:36:59Z</time></trkpt><trkpt lat="45.71165027827917" lon="9.766499080888623"><ele>299.5</ele><time>2026-03-29T15:37:00Z</time></trkpt><trkpt lat="45.711552736507485" lon="9.766368219361214"><ele>299.25</ele><time>2026-03-29T15:37:01Z</time></trkpt><trkpt lat="45.711456327094716" lon="9.766246515799379"><ele>299.0</ele><time>2026-03-29T15:37:02Z</time></trkpt><trkpt lat="45.711357925044645" lon="9.766119285539745"><ele>296.75</ele><time>2026-03-29T15:37:03Z</time></trkpt><trkpt lat="45.71125835610795" lon="9.76599278005169"><ele>294.5</ele><time>2026-03-29T15:37:04Z</time></trkpt><trkpt lat="45.71115503854024" lon="9.765861323140156"><ele>292.25</ele><time>2026-03-29T15:37:05Z</time></trkpt><trkpt lat="45.71105788342235" lon="9.76572702234694"><ele>290.0</ele><time>2026-03-29T15:37:06Z</time></trkpt><trkpt lat="45.710969773012195" lon="9.76558450794876"><ele>290.0</ele><time>2026-03-29T15:37:07Z</time></trkpt><trkpt lat="45.71089055220786" lon="9.765430146512058"><ele>290.0</ele><time>2026-03-29T15:37:08Z</time></trkpt><trkpt lat="45.71082906470549" lon="9.765249789690378"><ele>290.0</ele><time>2026-03-29T15:37:09Z</time></trkpt><trkpt lat="45.71078378663563" lon="9.76505624460609"><ele>290.0</ele><time>2026-03-29T15:37:10Z</time></trkpt><trkpt lat="45.71075162002932" lon="9.764861871574402"><ele>288.25</ele><time>2026-03-29T15:37:11Z</time></trkpt><trkpt lat="45.71071150074827" lon="9.764672866801604"><ele>286.5</ele><time>2026-03-29T15:37:12Z</time></trkpt><trkpt lat="45.7106742378643" lon="9.764497296137893"><ele>284.75</ele><time>2026-03-29T15:37:13Z</time></trkpt><trkpt lat="45.710620154179495" lon="9.764338725620584"><ele>283.0</ele><time>2026-03-29T15:37:14Z</time></trkpt><trkpt lat="45.710556095565636" lon="9.764184788573164"><ele>282.5</ele><time>2026-03-29T15:37:15Z</time></trkpt><trkpt lat="45.71047523082611" lon="9.764051498446651"><ele>282.0</ele><time>2026-03-29T15:37:16Z</time></trkpt><trkpt lat="45.71038576761609" lon="9.763927393938577"><ele>281.5</ele><time>2026-03-29T15:37:17Z</time></trkpt><trkpt lat="45.71029875498436" lon="9.763805656173615"><ele>281.0</ele><time>2026-03-29T15:37:18Z</time></trkpt><trkpt lat="45.710208757964644" lon="9.76368478510649"><ele>281.0</ele><time>2026-03-29T15:37:19Z</time></trkpt><trkpt lat="45.71012701890761" lon="9.763562434353778"><ele>281.0</ele><time>2026-03-29T15:37:20Z</time></trkpt><trkpt lat="45.71005238260691" lon="9.763451824252233"><ele>281.0</ele><time>2026-03-29T15:37:21Z</time></trkpt><trkpt lat="45.70997544189766" lon="9.763356470761545"><ele>281.0</ele><time>2026-03-29T15:37:22Z</time></trkpt><trkpt lat="45.70989288982508" lon="9.763275200426436"><ele>281.0</ele><time>2026-03-29T15:37:23Z</time></trkpt><trkpt lat="45.709797555893466" lon="9.763226551390739"><ele>279.8</ele><time>2026-03-29T15:37:24Z</time></trkpt><trkpt lat="45.70970092497571" lon="9.763198925680369"><ele>278.6</ele><time>2026-03-29T15:37:25Z</time></trkpt><trkpt lat="45.709607466405885" lon="9.7631635756362"><ele>277.4</ele><time>2026-03-29T15:37:26Z</time></trkpt><trkpt lat="45.70951969594651" lon="9.763118685751516"><ele>276.2</ele><time>2026-03-29T15:37:27Z</time></trkpt><trkpt lat="45.70942830488381" lon="9.7630896147634"><ele>275.0</ele><time>2026-03-29T15:37:28Z</time></trkpt><trkpt lat="45.709343134382756" lon="9.763053001789816"><ele>275.0</ele><time>2026-03-29T15:37:29Z</time></trkpt><trkpt lat="45.70925933730478" lon="9.76301231679042"><ele>275.0</ele><time>2026-03-29T15:37:30Z</time></trkpt><trkpt lat="45.70917681668381" lon="9.762971363241165"><ele>275.0</ele><time>2026-03-29T15:37:31Z</time></trkpt><trkpt lat="45.70909893814653" lon="9.762921793430607"><ele>275.0</ele><time>2026-03-29T15:37:32Z</time></trkpt><trkpt lat="45.70902185437333" lon="9.762873383543281"><ele>275.0</ele><time>2026-03-29T15:37:33Z</time></trkpt><trkpt lat="45.708947130475394" lon="9.762824007228641"><ele>275.0</ele><time>2026-03-29T15:37:34Z</time></trkpt><trkpt lat="45.7088740921191" lon="9.762785838860804"><ele>275.0</ele><time>2026-03-29T15:37:35Z</time></trkpt><trkpt lat="45.708803811857365" lon="9.762761496651736"><ele>275.0</ele><time>2026-03-29T15:37:36Z</time></trkpt><trkpt lat="45.708740943151845" lon="9.762713416246243"><ele>275.0</ele><time>2026-03-29T15:37:37Z</time></trkpt><trkpt lat="45.708661569748" lon="9.762637966439213"><ele>275.0</ele><time>2026-03-29T15:37:39Z</time></trkpt><trkpt lat="45.70857045627793" lon="9.762682684948926"><ele>275.0</ele><time>2026-03-29T15:37:41Z</time></trkpt><trkpt lat="45.70853392416767" lon="9.762759830545166"><ele>275.0</ele><time>2026-03-29T15:37:42Z</time></trkpt><trkpt lat="45.70844677169214" lon="9.762889808617748"><ele>274.0</ele><time>2026-03-29T15:37:44Z</time></trkpt><trkpt lat="45.70835473730425" lon="9.763011743517266"><ele>273.0</ele><time>2026-03-29T15:37:46Z</time></trkpt><trkpt lat="45.70830852496464" lon="9.763073620701304"><ele>272.0</ele><time>2026-03-29T15:37:47Z</time></trkpt><trkpt lat="45.708262713741505" lon="9.763135559076442"><ele>271.0</ele><time>2026-03-29T15:37:48Z</time></trkpt><trkpt lat="45.70821857145895" lon="9.763204242803374"><ele>270.0</ele><time>2026-03-29T15:37:49Z</time></trkpt><trkpt lat="45.708136475518344" lon="9.763336281677532"><ele>269.0</ele><time>2026-03-29T15:37:51Z</time></trkpt><trkpt lat="45.70806986014144" lon="9.76348853250219"><ele>271.0</ele><time>2026-03-29T15:37:53Z</time></trkpt><trkpt lat="45.70805140910303" lon="9.763580110187974"><ele>273.0</ele><time>2026-03-29T15:37:54Z</time></trkpt><trkpt lat="45.70805087018406" lon="9.763760167699695"><ele>275.0</ele><time>2026-03-29T15:37:56Z</time></trkpt><trkpt lat="45.70805855873147" lon="9.763849899184944"><ele>277.0</ele><time>2026-03-29T15:37:57Z</time></trkpt><trkpt lat="45.708064213831975" lon="9.764020987712014"><ele>279.0</ele><time>2026-03-29T15:37:59Z</time></trkpt><trkpt lat="45.70806798609284" lon="9.764190278036732"><ele>279.0</ele><time>2026-03-29T15:38:01Z</time></trkpt><trkpt lat="45.70806465788636" lon="9.764362647579848"><ele>279.0</ele><time>2026-03-29T15:38:03Z</time></trkpt><trkpt lat="45.70806604390301" lon="9.764453327587356"><ele>279.0</ele><time>2026-03-29T15:38:04Z</time></trkpt><trkpt lat="45.708067339408565" lon="9.76462852914336"><ele>279.0</ele><time>2026-03-29T15:38:06Z</time></trkpt><trkpt lat="45.70809288683822" lon="9.764792051968406"><ele>279.0</ele><time>2026-03-29T15:38:08Z</time></trkpt><trkpt lat="45.70811560514218" lon="9.764881410768766"><ele>279.0</ele><time>2026-03-29T15:38:09Z</time></trkpt><trkpt lat="45.708155719377636" lon="9.765047340703648"><ele>279.0</ele><time>2026-03-29T15:38:11Z</time></trkpt><trkpt lat="45.70817952937788" lon="9.765130886105846"><ele>279.0</ele><time>2026-03-29T15:38:12Z</time></trkpt><trkpt lat="45.70820126477207" lon="9.765217583506386"><ele>279.0</ele><time>2026-03-29T15:38:13Z</time></trkpt><trkpt lat="45.70824299164397" lon="9.765368270200655"><ele>279.0</ele><time>2026-03-29T15:38:15Z</time></trkpt><trkpt lat="45.70828954087226" lon="9.765528400776647"><ele>278.25</ele><time>2026-03-29T15:38:17Z</time></trkpt><trkpt lat="45.70835503536253" lon="9.765665810837646"><ele>277.5</ele><time>2026-03-29T15:38:19Z</time></trkpt><trkpt lat="45.70841637530534" lon="9.765827088885949"><ele>276.75</ele><time>2026-03-29T15:38:21Z</time></trkpt><trkpt lat="45.70847870501608" lon="9.765983769162629"><ele>276.0</ele><time>2026-03-29T15:38:23Z</time></trkpt><trkpt lat="45.708531821423094" lon="9.76613837330352"><ele>276.40000000000003</ele><time>2026-03-29T15:38:25Z</time></trkpt><trkpt lat="45.7085853789983" lon="9.766296341877093"><ele>276.8</ele><time>2026-03-29T15:38:27Z</time></trkpt><trkpt lat="45.708625336820674" lon="9.766452635270316"><ele>277.20000000000005</ele><time>2026-03-29T15:38:29Z</time></trkpt><trkpt lat="45.708656957746605" lon="9.766616443428672"><ele>277.6</ele><time>2026-03-29T15:38:31Z</time></trkpt><trkpt lat="45.70867240191016" lon="9.766704148542473"><ele>278.0</ele><time>2026-03-29T15:38:32Z</time></trkpt><trkpt lat="45.7086872230463" lon="9.766873801220218"><ele>278.0</ele><time>2026-03-29T15:38:34Z</time></trkpt><trkpt lat="45.70870974238732" lon="9.767047875686046"><ele>278.0</ele><time>2026-03-29T15:38:36Z</time></trkpt><trkpt lat="45.70873924396002" lon="9.767223295735091"><ele>278.0</ele><time>2026-03-29T15:38:38Z</time></trkpt><trkpt lat="45.70877195087707" lon="9.767398634030972"><ele>278.0</ele><time>2026-03-29T15:38:40Z</time></trkpt><trkpt lat="45.708781610642895" lon="9.767490652969533"><ele>278.0</ele><time>2026-03-29T15:38:41Z</time></trkpt><trkpt lat="45.70879402656553" lon="9.767587863476086"><ele>278.0</ele><time>2026-03-29T15:38:42Z</time></trkpt><trkpt lat="45.70880425567701" lon="9.76768231669825"><ele>278.0</ele><time>2026-03-29T15:38:43Z</time></trkpt><trkpt lat="45.70880509122077" lon="9.767780331593055"><ele>278.0</ele><time>2026-03-29T15:38:44Z</time></trkpt><trkpt lat="45.70879230625819" lon="9.767880892539594"><ele>278.0</ele><time>2026-03-29T15:38:45Z</time></trkpt><trkpt lat="45.708766299826735" lon="9.767970457399295"><ele>278.0</ele><time>2026-03-29T15:38:46Z</time></trkpt><trkpt lat="45.708726581570836" lon="9.768059486760073"><ele>278.0</ele><time>2026-03-29T15:38:47Z</time></trkpt><trkpt lat="45.708676397456124" lon="9.768129200159096"><ele>278.0</ele><time>2026-03-29T15:38:48Z</time></trkpt><trkpt lat="45.708635494702136" lon="9.768210911040343"><ele>277.85714285714283</ele><time>2026-03-29T15:38:49Z</time></trkpt><trkpt lat="45.70860643582428" lon="9.768306120851495"><ele>277.7142857142857</ele><time>2026-03-29T15:38:50Z</time></trkpt><trkpt lat="45.7085827393953" lon="9.76839520650157"><ele>277.57142857142856</ele><time>2026-03-29T15:38:51Z</time></trkpt><trkpt lat="45.708560933492954" lon="9.76849548061241"><ele>277.42857142857144</ele><time>2026-03-29T15:38:52Z</time></trkpt><trkpt lat="45.708540646169574" lon="9.768597493400458"><ele>277.2857142857143</ele><time>2026-03-29T15:38:53Z</time></trkpt><trkpt lat="45.70852804933351" lon="9.768703846873557"><ele>277.1428571428571</ele><time>2026-03-29T15:38:54Z</time></trkpt><trkpt lat="45.708517199034446" lon="9.768820275114019"><ele>277.0</ele><time>2026-03-29T15:38:55Z</time></trkpt><trkpt lat="45.70850545310525" lon="9.768933969828945"><ele>276.0</ele><time>2026-03-29T15:38:56Z</time></trkpt><trkpt lat="45.708498331319795" lon="9.769054161504938"><ele>275.0</ele><time>2026-03-29T15:38:57Z</time></trkpt><trkpt lat="45.70849270140014" lon="9.769175650149075"><ele>274.0</ele><time>2026-03-29T15:38:58Z</time></trkpt><trkpt lat="45.70848217137547" lon="9.769298444378208"><ele>273.0</ele><time>2026-03-29T15:38:59Z</time></trkpt><trkpt lat="45.7084761438047" lon="9.769422127947792"><ele>272.0</ele><time>2026-03-29T15:39:00Z</time></trkpt><trkpt lat="45.70847929810909" lon="9.76954766839897"><ele>271.0</ele><time>2026-03-29T15:39:01Z</time></trkpt><trkpt lat="45.708483513239536" lon="9.769670708452983"><ele>271.0</ele><time>2026-03-29T15:39:02Z</time></trkpt><trkpt lat="45.70849276908507" lon="9.76979543047315"><ele>271.0</ele><time>2026-03-29T15:39:03Z</time></trkpt><trkpt lat="45.70850784318948" lon="9.769916107110374"><ele>271.0</ele><time>2026-03-29T15:39:04Z</time></trkpt><trkpt lat="45.708529641284514" lon="9.770036094075202"><ele>271.0</ele><time>2026-03-29T15:39:05Z</time></trkpt><trkpt lat="45.70854926616934" lon="9.770150251936567"><ele>271.0</ele><time>2026-03-29T15:39:06Z</time></trkpt><trkpt lat="45.708565429297614" lon="9.770262039409175"><ele>271.0</ele><time>2026-03-29T15:39:07Z</time></trkpt><trkpt lat="45.70858267481176" lon="9.77037252725176"><ele>270.7142857142857</ele><time>2026-03-29T15:39:08Z</time></trkpt><trkpt lat="45.708594315857766" lon="9.770482503896929"><ele>270.42857142857144</ele><time>2026-03-29T15:39:09Z</time></trkpt><trkpt lat="45.7086036261172" lon="9.770589979729753"><ele>270.14285714285717</ele><time>2026-03-29T15:39:10Z</time></trkpt><trkpt lat="45.708616228202075" lon="9.770694309000193"><ele>269.8571428571429</ele><time>2026-03-29T15:39:11Z</time></trkpt><trkpt lat="45.708626414754924" lon="9.770797754487623"><ele>269.5714285714286</ele><time>2026-03-29T15:39:12Z</time></trkpt><trkpt lat="45.708631587848416" lon="9.77089723003641"><ele>269.2857142857143</ele><time>2026-03-29T15:39:13Z</time></trkpt><trkpt lat="45.708638892442714" lon="9.77099610282755"><ele>269.0</ele><time>2026-03-29T15:39:14Z</time></trkpt><trkpt lat="45.70864818413732" lon="9.77109262998691"><ele>269.0</ele><time>2026-03-29T15:39:15Z</time></trkpt><trkpt lat="45.708658764987895" lon="9.771186439601674"><ele>269.0</ele><time>2026-03-29T15:39:16Z</time></trkpt><trkpt lat="45.70866579540833" lon="9.771282120702056"><ele>269.0</ele><time>2026-03-29T15:39:17Z</time></trkpt><trkpt lat="45.70867186684239" lon="9.771373813479546"><ele>269.0</ele><time>2026-03-29T15:39:18Z</time></trkpt><trkpt lat="45.708677574805364" lon="9.771464618751377"><ele>269.0</ele><time>2026-03-29T15:39:19Z</time></trkpt><trkpt lat="45.70868644614809" lon="9.771554648301104"><ele>269.0</ele><time>2026-03-29T15:39:20Z</time></trkpt><trkpt lat="45.70869349482469" lon="9.771647121775311"><ele>269.0</ele><time>2026-03-29T15:39:21Z</time></trkpt><trkpt lat="45.70869854414419" lon="9.771739407152607"><ele>269.0</ele><time>2026-03-29T15:39:22Z</time></trkpt><trkpt lat="45.70870207242748" lon="9.771829500061328"><ele>269.0</ele><time>2026-03-29T15:39:23Z</time></trkpt><trkpt lat="45.70869652074276" lon="9.772009368759218"><ele>269.0</ele><time>2026-03-29T15:39:25Z</time></trkpt><trkpt lat="45.708690997581094" lon="9.772100678148659"><ele>269.0</ele><time>2026-03-29T15:39:26Z</time></trkpt><trkpt lat="45.70868152560227" lon="9.772276884422327"><ele>269.0</ele><time>2026-03-29T15:39:28Z</time></trkpt><trkpt lat="45.70867221378314" lon="9.772452974254188"><ele>269.5</ele><time>2026-03-29T15:39:30Z</time></trkpt><trkpt lat="45.708667573710564" lon="9.77263159637136"><ele>270.0</ele><time>2026-03-29T15:39:32Z</time></trkpt><trkpt lat="45.70865297386258" lon="9.772806642646508"><ele>270.5</ele><time>2026-03-29T15:39:34Z</time></trkpt><trkpt lat="45.7086431605923" lon="9.772897223240241"><ele>271.0</ele><time>2026-03-29T15:39:35Z</time></trkpt><trkpt lat="45.70863518749341" lon="9.772986652460558"><ele>271.5</ele><time>2026-03-29T15:39:36Z</time></trkpt><trkpt lat="45.70862610126944" lon="9.773077460617827"><ele>272.0</ele><time>2026-03-29T15:39:37Z</time></trkpt><trkpt lat="45.70860547605799" lon="9.773254765899011"><ele>273.0</ele><time>2026-03-29T15:39:39Z</time></trkpt><trkpt lat="45.708588735530974" lon="9.773432063933123"><ele>274.0</ele><time>2026-03-29T15:39:41Z</time></trkpt><trkpt lat="45.70857052646686" lon="9.773605912399587"><ele>275.0</ele><time>2026-03-29T15:39:43Z</time></trkpt><trkpt lat="45.70856375179561" lon="9.773782755156592"><ele>276.0</ele><time>2026-03-29T15:39:45Z</time></trkpt><trkpt lat="45.70857784735885" lon="9.773953322449675"><ele>276.0</ele><time>2026-03-29T15:39:47Z</time></trkpt><trkpt lat="45.70861620475642" lon="9.774116648831086"><ele>276.0</ele><time>2026-03-29T15:39:49Z</time></trkpt><trkpt lat="45.708675752099936" lon="9.774263439784376"><ele>276.0</ele><time>2026-03-29T15:39:51Z</time></trkpt><trkpt lat="45.70871780285613" lon="9.77442025940054"><ele>276.0</ele><time>2026-03-29T15:39:53Z</time></trkpt><trkpt lat="45.708752120799254" lon="9.774575012663261"><ele>276.0</ele><time>2026-03-29T15:39:55Z</time></trkpt><trkpt lat="45.70877529035376" lon="9.774748901011385"><ele>276.0</ele><time>2026-03-29T15:39:57Z</time></trkpt><trkpt lat="45.708796045563176" lon="9.774928760496906"><ele>276.0</ele><time>2026-03-29T15:39:59Z</time></trkpt><trkpt lat="45.70880400065255" lon="9.7750225332208"><ele>276.0</ele><time>2026-03-29T15:40:00Z</time></trkpt><trkpt lat="45.708817580940476" lon="9.775113391875212"><ele>276.0</ele><time>2026-03-29T15:40:01Z</time></trkpt><trkpt lat="45.70882272877094" lon="9.775209343898812"><ele>276.0</ele><time>2026-03-29T15:40:02Z</time></trkpt><trkpt lat="45.70883253378309" lon="9.775308790136354"><ele>276.2</ele><time>2026-03-29T15:40:03Z</time></trkpt><trkpt lat="45.708844181050615" lon="9.775488568840515"><ele>276.40000000000003</ele><time>2026-03-29T15:40:05Z</time></trkpt><trkpt lat="45.70885266917353" lon="9.775579447092262"><ele>276.6</ele><time>2026-03-29T15:40:06Z</time></trkpt><trkpt lat="45.70885964209276" lon="9.77575417553143"><ele>276.8</ele><time>2026-03-29T15:40:08Z</time></trkpt><trkpt lat="45.70886020674596" lon="9.775926066000567"><ele>277.0</ele><time>2026-03-29T15:40:10Z</time></trkpt><trkpt lat="45.708862091500265" lon="9.776085461020196"><ele>277.8</ele><time>2026-03-29T15:40:12Z</time></trkpt><trkpt lat="45.708861047405414" lon="9.776247335216775"><ele>278.6</ele><time>2026-03-29T15:40:14Z</time></trkpt><trkpt lat="45.708853542254076" lon="9.776404001840088"><ele>279.40000000000003</ele><time>2026-03-29T15:40:16Z</time></trkpt><trkpt lat="45.70885221694553" lon="9.776550297510012"><ele>280.2</ele><time>2026-03-29T15:40:18Z</time></trkpt><trkpt lat="45.70884600795629" lon="9.776706294467132"><ele>281.0</ele><time>2026-03-29T15:40:20Z</time></trkpt><trkpt lat="45.708842367128526" lon="9.776863434674617"><ele>281.40000000000003</ele><time>2026-03-29T15:40:22Z</time></trkpt><trkpt lat="45.70882635933879" lon="9.777007549866044"><ele>281.8</ele><time>2026-03-29T15:40:24Z</time></trkpt><trkpt lat="45.708824838557874" lon="9.777164654359074"><ele>282.20000000000005</ele><time>2026-03-29T15:40:26Z</time></trkpt><trkpt lat="45.70883513670682" lon="9.777332395075643"><ele>282.6</ele><time>2026-03-29T15:40:28Z</time></trkpt><trkpt lat="45.70886274391499" lon="9.777476226081758"><ele>283.0</ele><time>2026-03-29T15:40:30Z</time></trkpt><trkpt lat="45.70886627474969" lon="9.77756790536325"><ele>283.0</ele><time>2026-03-29T15:40:31Z</time></trkpt><trkpt lat="45.70889111322288" lon="9.777655279889533"><ele>283.0</ele><time>2026-03-29T15:40:32Z</time></trkpt><trkpt lat="45.70891451108015" lon="9.777744921785754"><ele>283.0</ele><time>2026-03-29T15:40:33Z</time></trkpt><trkpt lat="45.70894176992341" lon="9.777841102870017"><ele>283.0</ele><time>2026-03-29T15:40:34Z</time></trkpt><trkpt lat="45.70897006804732" lon="9.777931425605818"><ele>283.0</ele><time>2026-03-29T15:40:35Z</time></trkpt><trkpt lat="45.70899643691445" lon="9.778022054225048"><ele>283.0</ele><time>2026-03-29T15:40:36Z</time></trkpt><trkpt lat="45.709026673870845" lon="9.778101739432966"><ele>283.0</ele><time>2026-03-29T15:40:37Z</time></trkpt><trkpt lat="45.70909237989405" lon="9.778274791745451"><ele>283.14285714285717</ele><time>2026-03-29T15:40:39Z</time></trkpt><trkpt lat="45.70912310216946" lon="9.778357474148061"><ele>283.28571428571433</ele><time>2026-03-29T15:40:40Z</time></trkpt><trkpt lat="45.709157685668835" lon="9.778445362783122"><ele>283.42857142857144</ele><time>2026-03-29T15:40:41Z</time></trkpt><trkpt lat="45.709189617266745" lon="9.778528265979602"><ele>283.57142857142856</ele><time>2026-03-29T15:40:42Z</time></trkpt><trkpt lat="45.70923181428408" lon="9.77861809951614"><ele>283.71428571428567</ele><time>2026-03-29T15:40:43Z</time></trkpt><trkpt lat="45.70927138322679" lon="9.77870563774288"><ele>283.85714285714283</ele><time>2026-03-29T15:40:44Z</time></trkpt><trkpt lat="45.70930476088371" lon="9.778800414656532"><ele>284.0</ele><time>2026-03-29T15:40:45Z</time></trkpt><trkpt lat="45.70933551785889" lon="9.778905901230134"><ele>284.0</ele><time>2026-03-29T15:40:46Z</time></trkpt><trkpt lat="45.709368897724396" lon="9.779085631245657"><ele>284.0</ele><time>2026-03-29T15:40:48Z</time></trkpt><trkpt lat="45.709387086062804" lon="9.779177237078802"><ele>284.0</ele><time>2026-03-29T15:40:49Z</time></trkpt><trkpt lat="45.70940507935699" lon="9.779271931266853"><ele>284.0</ele><time>2026-03-29T15:40:50Z</time></trkpt><trkpt lat="45.70943762164348" lon="9.779439113032137"><ele>284.0</ele><time>2026-03-29T15:40:52Z</time></trkpt><trkpt lat="45.70947542400169" lon="9.779600177131416"><ele>284.0</ele><time>2026-03-29T15:40:54Z</time></trkpt><trkpt lat="45.70950989146182" lon="9.779760144288284"><ele>284.0</ele><time>2026-03-29T15:40:56Z</time></trkpt><trkpt lat="45.70953664315937" lon="9.779913309173095"><ele>284.0</ele><time>2026-03-29T15:40:58Z</time></trkpt><trkpt lat="45.7095668048906" lon="9.780060950860266"><ele>284.0</ele><time>2026-03-29T15:41:00Z</time></trkpt><trkpt lat="45.70960585495171" lon="9.780198450409648"><ele>284.0</ele><time>2026-03-29T15:41:02Z</time></trkpt><trkpt lat="45.70967195562814" lon="9.780328542661975"><ele>284.4</ele><time>2026-03-29T15:41:04Z</time></trkpt><trkpt lat="45.70975466238163" lon="9.780419882341649"><ele>284.79999999999995</ele><time>2026-03-29T15:41:06Z</time></trkpt><trkpt lat="45.70984703013454" lon="9.780488414680228"><ele>285.20000000000005</ele><time>2026-03-29T15:41:08Z</time></trkpt><trkpt lat="45.70993908273522" lon="9.780531380886117"><ele>285.6</ele><time>2026-03-29T15:41:10Z</time></trkpt><trkpt lat="45.71003577502867" lon="9.780544060550811"><ele>286.0</ele><time>2026-03-29T15:41:12Z</time></trkpt><trkpt lat="45.71013238453182" lon="9.78055480297039"><ele>286.0</ele><time>2026-03-29T15:41:14Z</time></trkpt><trkpt lat="45.71022280551538" lon="9.780556373953152"><ele>286.0</ele><time>2026-03-29T15:41:16Z</time></trkpt><trkpt lat="45.71032492793214" lon="9.780571864298665"><ele>286.0</ele><time>2026-03-29T15:41:18Z</time></trkpt><trkpt lat="45.71041836072446" lon="9.780592118837246"><ele>286.0</ele><time>2026-03-29T15:41:20Z</time></trkpt><trkpt lat="45.71050804958652" lon="9.780616403698863"><ele>286.0</ele><time>2026-03-29T15:41:22Z</time></trkpt><trkpt lat="45.710595770816106" lon="9.780642296069745"><ele>287.5</ele><time>2026-03-29T15:41:24Z</time></trkpt><trkpt lat="45.710678945576596" lon="9.78065644568476"><ele>289.0</ele><time>2026-03-29T15:41:26Z</time></trkpt><trkpt lat="45.71076160535134" lon="9.780660405589972"><ele>290.5</ele><time>2026-03-29T15:41:28Z</time></trkpt><trkpt lat="45.7108485519256" lon="9.78069262906971"><ele>292.0</ele><time>2026-03-29T15:41:30Z</time></trkpt><trkpt lat="45.710940693193116" lon="9.780739186642453"><ele>293.5</ele><time>2026-03-29T15:41:32Z</time></trkpt><trkpt lat="45.711021228764615" lon="9.780700896695645"><ele>295.0</ele><time>2026-03-29T15:41:34Z</time></trkpt><trkpt lat="45.711046056651135" lon="9.78057714731737"><ele>295.0</ele><time>2026-03-29T15:41:36Z</time></trkpt><trkpt lat="45.711058078712455" lon="9.780444859320205"><ele>295.0</ele><time>2026-03-29T15:41:38Z</time></trkpt><trkpt lat="45.71111031951655" lon="9.780346538652138"><ele>295.0</ele><time>2026-03-29T15:41:40Z</time></trkpt><trkpt lat="45.711211608668165" lon="9.780343577560783"><ele>295.0</ele><time>2026-03-29T15:41:42Z</time></trkpt><trkpt lat="45.71129143475364" lon="9.780426838693565"><ele>295.0</ele><time>2026-03-29T15:41:44Z</time></trkpt><trkpt lat="45.71138324384028" lon="9.780478671017267"><ele>296.66666666666663</ele><time>2026-03-29T15:41:46Z</time></trkpt><trkpt lat="45.711475199612295" lon="9.780514657885881"><ele>298.3333333333333</ele><time>2026-03-29T15:41:48Z</time></trkpt><trkpt lat="45.71155715407816" lon="9.780550546499802"><ele>300.0</ele><time>2026-03-29T15:41:50Z</time></trkpt><trkpt lat="45.71163360213122" lon="9.780565844808562"><ele>301.6666666666667</ele><time>2026-03-29T15:41:52Z</time></trkpt><trkpt lat="45.711705488705455" lon="9.780532892446159"><ele>303.33333333333337</ele><time>2026-03-29T15:41:54Z</time></trkpt><trkpt lat="45.711776333448185" lon="9.78049389808966"><ele>305.0</ele><time>2026-03-29T15:41:56Z</time></trkpt><trkpt lat="45.71186206871894" lon="9.780449188959828"><ele>308.83333333333337</ele><time>2026-03-29T15:41:59Z</time></trkpt><trkpt lat="45.711942284843026" lon="9.7804473210518"><ele>312.6666666666667</ele><time>2026-03-29T15:42:02Z</time></trkpt><trkpt lat="45.711992033002886" lon="9.78050758775225"><ele>316.5</ele><time>2026-03-29T15:42:04Z</time></trkpt><trkpt lat="45.71206126161162" lon="9.780589205572406"><ele>320.3333333333333</ele><time>2026-03-29T15:42:07Z</time></trkpt><trkpt lat="45.71211180464024" lon="9.780646099568417"><ele>324.16666666666663</ele><time>2026-03-29T15:42:09Z</time></trkpt><trkpt lat="45.71219615832705" lon="9.780697125161728"><ele>328.0</ele><time>2026-03-29T15:42:12Z</time></trkpt><trkpt lat="45.7122795335322" lon="9.780745363591254"><ele>328.0</ele><time>2026-03-29T15:42:15Z</time></trkpt><trkpt lat="45.712346298669694" lon="9.780824623806135"><ele>328.0</ele><time>2026-03-29T15:42:18Z</time></trkpt><trkpt lat="45.712391576399554" lon="9.780888194600466"><ele>328.0</ele><time>2026-03-29T15:42:20Z</time></trkpt><trkpt lat="45.71245103373309" lon="9.780988078484128"><ele>328.0</ele><time>2026-03-29T15:42:23Z</time></trkpt><trkpt lat="45.71251589513389" lon="9.781074332797829"><ele>328.0</ele><time>2026-03-29T15:42:26Z</time></trkpt><trkpt lat="45.71256951926488" lon="9.781164969004832"><ele>328.0</ele><time>2026-03-29T15:42:29Z</time></trkpt><trkpt lat="45.71262236625224" lon="9.781253185703079"><ele>328.16666666666663</ele><time>2026-03-29T15:42:32Z</time></trkpt><trkpt lat="45.71267354577807" lon="9.781326886627582"><ele>328.3333333333333</ele><time>2026-03-29T15:42:35Z</time></trkpt><trkpt lat="45.712733440040324" lon="9.781383668590735"><ele>328.5</ele><time>2026-03-29T15:42:39Z</time></trkpt><trkpt lat="45.71278842131494" lon="9.781289880868112"><ele>328.6666666666667</ele><time>2026-03-29T15:42:42Z</time></trkpt><trkpt lat="45.712825539398" lon="9.78117592011525"><ele>328.83333333333337</ele><time>2026-03-29T15:42:45Z</time></trkpt><trkpt lat="45.712854409487704" lon="9.781068305180455"><ele>329.0</ele><time>2026-03-29T15:42:48Z</time></trkpt><trkpt lat="45.712911129298554" lon="9.780986900394657"><ele>332.0</ele><time>2026-03-29T15:42:51Z</time></trkpt><trkpt lat="45.71295912712495" lon="9.780896471664244"><ele>335.0</ele><time>2026-03-29T15:42:54Z</time></trkpt><trkpt lat="45.71303052352896" lon="9.780816076010588"><ele>338.0</ele><time>2026-03-29T15:42:57Z</time></trkpt><trkpt lat="45.713109034849104" lon="9.78077431472609"><ele>341.0</ele><time>2026-03-29T15:42:59Z</time></trkpt><trkpt lat="45.7131971862112" lon="9.780748208880958"><ele>344.0</ele><time>2026-03-29T15:43:01Z</time></trkpt><trkpt lat="45.71328748119066" lon="9.780738173751441"><ele>347.0</ele><time>2026-03-29T15:43:03Z</time></trkpt><trkpt lat="45.713368945767954" lon="9.780729170194151"><ele>347.0</ele><time>2026-03-29T15:43:05Z</time></trkpt><trkpt lat="45.71344398552781" lon="9.780722370039365"><ele>347.0</ele><time>2026-03-29T15:43:07Z</time></trkpt><trkpt lat="45.71351853987414" lon="9.78071875620629"><ele>347.0</ele><time>2026-03-29T15:43:09Z</time></trkpt><trkpt lat="45.7135888922454" lon="9.780705957597922"><ele>347.0</ele><time>2026-03-29T15:43:11Z</time></trkpt><trkpt lat="45.713655343681125" lon="9.780682697530715"><ele>347.0</ele><time>2026-03-29T15:43:13Z</time></trkpt><trkpt lat="45.713719966918376" lon="9.78063628023392"><ele>347.0</ele><time>2026-03-29T15:43:15Z</time></trkpt><trkpt lat="45.713779237104255" lon="9.780575900380747"><ele>347.0</ele><time>2026-03-29T15:43:17Z</time></trkpt><trkpt lat="45.713831526776794" lon="9.780514216234648"><ele>348.14285714285717</ele><time>2026-03-29T15:43:19Z</time></trkpt><trkpt lat="45.71388390029693" lon="9.780443898824783"><ele>349.2857142857143</ele><time>2026-03-29T15:43:21Z</time></trkpt><trkpt lat="45.713935554830414" lon="9.780382071795534"><ele>350.42857142857144</ele><time>2026-03-29T15:43:23Z</time></trkpt><trkpt lat="45.71398321493733" lon="9.780304978381269"><ele>351.57142857142856</ele><time>2026-03-29T15:43:25Z</time></trkpt><trkpt lat="45.714034757028024" lon="9.780234681052377"><ele>352.7142857142857</ele><time>2026-03-29T15:43:27Z</time></trkpt><trkpt lat="45.71408831584217" lon="9.780172085011266"><ele>353.85714285714283</ele><time>2026-03-29T15:43:29Z</time></trkpt><trkpt lat="45.71414385000817" lon="9.780111394327005"><ele>355.0</ele><time>2026-03-29T15:43:31Z</time></trkpt><trkpt lat="45.71420111115116" lon="9.780068701368945"><ele>355.0</ele><time>2026-03-29T15:43:33Z</time></trkpt><trkpt lat="45.714247195441615" lon="9.78015363914884"><ele>355.0</ele><time>2026-03-29T15:43:37Z</time></trkpt><trkpt lat="45.71420365517529" lon="9.780252703441047"><ele>355.0</ele><time>2026-03-29T15:43:39Z</time></trkpt><trkpt lat="45.71416848700094" lon="9.780378957975177"><ele>355.0</ele><time>2026-03-29T15:43:41Z</time></trkpt><trkpt lat="45.71413546911367" lon="9.780504833859728"><ele>355.0</ele><time>2026-03-29T15:43:43Z</time></trkpt><trkpt lat="45.71411495970558" lon="9.78063078924472"><ele>355.0</ele><time>2026-03-29T15:43:45Z</time></trkpt><trkpt lat="45.71411287956318" lon="9.780743143467099"><ele>355.66666666666663</ele><time>2026-03-29T15:43:47Z</time></trkpt><trkpt lat="45.71410203068284" lon="9.78086039407737"><ele>356.3333333333333</ele><time>2026-03-29T15:43:49Z</time></trkpt><trkpt lat="45.71408866950318" lon="9.780967942261638"><ele>357.0</ele><time>2026-03-29T15:43:51Z</time></trkpt><trkpt lat="45.714069098905824" lon="9.781065560987951"><ele>357.6666666666667</ele><time>2026-03-29T15:43:53Z</time></trkpt><trkpt lat="45.714052459345226" lon="9.781180514521282"><ele>358.33333333333337</ele><time>2026-03-29T15:43:56Z</time></trkpt><trkpt lat="45.71405309138291" lon="9.781297777937493"><ele>359.0</ele><time>2026-03-29T15:43:59Z</time></trkpt><trkpt lat="45.71405682345062" lon="9.781388936855095"><ele>359.5</ele><time>2026-03-29T15:44:02Z</time></trkpt><trkpt lat="45.714026661853744" lon="9.78149538628307"><ele>360.0</ele><time>2026-03-29T15:44:06Z</time></trkpt><trkpt lat="45.71404676285404" lon="9.781606995715224"><ele>360.5</ele><time>2026-03-29T15:44:09Z</time></trkpt><trkpt lat="45.71403954739753" lon="9.781716870209289"><ele>361.0</ele><time>2026-03-29T15:44:12Z</time></trkpt><trkpt lat="45.71400772716885" lon="9.781800366599176"><ele>361.5</ele><time>2026-03-29T15:44:15Z</time></trkpt><trkpt lat="45.71398019127237" lon="9.781930862612539"><ele>362.0</ele><time>2026-03-29T15:44:18Z</time></trkpt><trkpt lat="45.71395773414917" lon="9.782015274137715"><ele>362.0</ele><time>2026-03-29T15:44:20Z</time></trkpt><trkpt lat="45.71393273305479" lon="9.782105099250629"><ele>362.0</ele><time>2026-03-29T15:44:22Z</time></trkpt><trkpt lat="45.713912734839816" lon="9.782196004233302"><ele>362.0</ele><time>2026-03-29T15:44:24Z</time></trkpt><trkpt lat="45.7138900878248" lon="9.782315143335433"><ele>362.0</ele><time>2026-03-29T15:44:26Z</time></trkpt><trkpt lat="45.713868425092706" lon="9.782422454891382"><ele>362.0</ele><time>2026-03-29T15:44:28Z</time></trkpt><trkpt lat="45.71385662481071" lon="9.782515072260223"><ele>362.0</ele><time>2026-03-29T15:44:30Z</time></trkpt><trkpt lat="45.71391983058204" lon="9.782533959780084"><ele>362.0</ele><time>2026-03-29T15:44:33Z</time></trkpt><trkpt lat="45.71396447407761" lon="9.782412450294315"><ele>362.0</ele><time>2026-03-29T15:44:35Z</time></trkpt><trkpt lat="45.71401119710886" lon="9.782261767011638"><ele>362.0</ele><time>2026-03-29T15:44:37Z</time></trkpt><trkpt lat="45.71405635464188" lon="9.782102709431548"><ele>362.0</ele><time>2026-03-29T15:44:39Z</time></trkpt><trkpt lat="45.71408697235657" lon="9.78201728148071"><ele>362.0</ele><time>2026-03-29T15:44:40Z</time></trkpt><trkpt lat="45.71413507505753" lon="9.781843893351956"><ele>362.0</ele><time>2026-03-29T15:44:42Z</time></trkpt><trkpt lat="45.71415032949106" lon="9.781751762447122"><ele>362.5</ele><time>2026-03-29T15:44:43Z</time></trkpt><trkpt lat="45.714157676889776" lon="9.781652843628322"><ele>363.0</ele><time>2026-03-29T15:44:44Z</time></trkpt><trkpt lat="45.71415626720781" lon="9.781548372866487"><ele>363.5</ele><time>2026-03-29T15:44:45Z</time></trkpt><trkpt lat="45.71415449938981" lon="9.781431731195772"><ele>364.0</ele><time>2026-03-29T15:44:46Z</time></trkpt><trkpt lat="45.714162337247345" lon="9.781301601950844"><ele>364.5</ele><time>2026-03-29T15:44:47Z</time></trkpt><trkpt lat="45.71416947215618" lon="9.781176287433457"><ele>365.0</ele><time>2026-03-29T15:44:48Z</time></trkpt><trkpt lat="45.71417833477332" lon="9.781043353579454"><ele>363.8</ele><time>2026-03-29T15:44:49Z</time></trkpt><trkpt lat="45.714180299623045" lon="9.780896677957788"><ele>362.6</ele><time>2026-03-29T15:44:50Z</time></trkpt><trkpt lat="45.71419805861584" lon="9.780751700694752"><ele>361.4</ele><time>2026-03-29T15:44:51Z</time></trkpt><trkpt lat="45.71422187599152" lon="9.780604477187346"><ele>360.2</ele><time>2026-03-29T15:44:52Z</time></trkpt><trkpt lat="45.71424624343762" lon="9.780455925835135"><ele>359.0</ele><time>2026-03-29T15:44:53Z</time></trkpt><trkpt lat="45.71428037176669" lon="9.780312189178899"><ele>358.2</ele><time>2026-03-29T15:44:54Z</time></trkpt><trkpt lat="45.714324962787735" lon="9.780175310380036"><ele>357.4</ele><time>2026-03-29T15:44:55Z</time></trkpt><trkpt lat="45.714376937914984" lon="9.780049894831677"><ele>356.6</ele><time>2026-03-29T15:44:56Z</time></trkpt><trkpt lat="45.71444020781265" lon="9.77993871240048"><ele>355.8</ele><time>2026-03-29T15:44:57Z</time></trkpt><trkpt lat="45.7145153920113" lon="9.779853596112039"><ele>355.0</ele><time>2026-03-29T15:44:58Z</time></trkpt><trkpt lat="45.71459076137895" lon="9.779771901596005"><ele>354.66666666666663</ele><time>2026-03-29T15:44:59Z</time></trkpt><trkpt lat="45.71465982908817" lon="9.7796869820982"><ele>354.3333333333333</ele><time>2026-03-29T15:45:00Z</time></trkpt><trkpt lat="45.71472460141342" lon="9.779599482357959"><ele>354.0</ele><time>2026-03-29T15:45:01Z</time></trkpt><trkpt lat="45.71478605235395" lon="9.779506605074749"><ele>353.6666666666667</ele><time>2026-03-29T15:45:02Z</time></trkpt><trkpt lat="45.71484143797349" lon="9.779403955502927"><ele>353.33333333333337</ele><time>2026-03-29T15:45:03Z</time></trkpt><trkpt lat="45.714882769868424" lon="9.779301129551811"><ele>353.0</ele><time>2026-03-29T15:45:04Z</time></trkpt><trkpt lat="45.71491716611938" lon="9.779191132772075"><ele>353.0</ele><time>2026-03-29T15:45:05Z</time></trkpt><trkpt lat="45.71496249461509" lon="9.779070246726933"><ele>353.0</ele><time>2026-03-29T15:45:06Z</time></trkpt><trkpt lat="45.71499243964302" lon="9.77895966682631"><ele>353.0</ele><time>2026-03-29T15:45:07Z</time></trkpt><trkpt lat="45.71500265415416" lon="9.778820838916735"><ele>353.0</ele><time>2026-03-29T15:45:08Z</time></trkpt><trkpt lat="45.715008474817985" lon="9.778700173788556"><ele>353.0</ele><time>2026-03-29T15:45:09Z</time></trkpt><trkpt lat="45.715003215598685" lon="9.778573225384482"><ele>353.0</ele><time>2026-03-29T15:45:10Z</time></trkpt><trkpt lat="45.71499551268852" lon="9.778451662331406"><ele>353.0</ele><time>2026-03-29T15:45:11Z</time></trkpt><trkpt lat="45.714991583429246" lon="9.778318108082527"><ele>353.0</ele><time>2026-03-29T15:45:12Z</time></trkpt><trkpt lat="45.71498595611606" lon="9.778188377566645"><ele>353.0</ele><time>2026-03-29T15:45:13Z</time></trkpt><trkpt lat="45.714984531766675" lon="9.778066183992964"><ele>353.0</ele><time>2026-03-29T15:45:14Z</time></trkpt><trkpt lat="45.71497871191887" lon="9.777940281319243"><ele>353.0</ele><time>2026-03-29T15:45:15Z</time></trkpt><trkpt lat="45.714976536839465" lon="9.777812995307285"><ele>353.0</ele><time>2026-03-29T15:45:16Z</time></trkpt><trkpt lat="45.714969449808045" lon="9.777684593112367"><ele>352.33333333333337</ele><time>2026-03-29T15:45:17Z</time></trkpt><trkpt lat="45.71494466626078" lon="9.777561410123672"><ele>351.6666666666667</ele><time>2026-03-29T15:45:18Z</time></trkpt><trkpt lat="45.71490581035012" lon="9.777445378849606"><ele>351.0</ele><time>2026-03-29T15:45:19Z</time></trkpt><trkpt lat="45.71485468486294" lon="9.777339437915924"><ele>350.3333333333333</ele><time>2026-03-29T15:45:20Z</time></trkpt><trkpt lat="45.71479371010914" lon="9.777243825857383"><ele>349.66666666666663</ele><time>2026-03-29T15:45:21Z</time></trkpt><trkpt lat="45.71472978328215" lon="9.777155587979674"><ele>349.0</ele><time>2026-03-29T15:45:22Z</time></trkpt><trkpt lat="45.71467777515534" lon="9.777070304823882"><ele>349.0</ele><time>2026-03-29T15:45:23Z</time></trkpt><trkpt lat="45.71463297469591" lon="9.776992233648615"><ele>349.0</ele><time>2026-03-29T15:45:24Z</time></trkpt><trkpt lat="45.71459454692014" lon="9.776913323208488"><ele>349.0</ele><time>2026-03-29T15:45:25Z</time></trkpt><trkpt lat="45.71454490238261" lon="9.776770559063527"><ele>349.0</ele><time>2026-03-29T15:45:27Z</time></trkpt><trkpt lat="45.714501221486756" lon="9.776599713119078"><ele>349.0</ele><time>2026-03-29T15:45:29Z</time></trkpt><trkpt lat="45.71450224122492" lon="9.776507098638147"><ele>349.0</ele><time>2026-03-29T15:45:30Z</time></trkpt><trkpt lat="45.71450994383678" lon="9.77641158586313"><ele>348.2857142857143</ele><time>2026-03-29T15:45:31Z</time></trkpt><trkpt lat="45.7145211882109" lon="9.77631548457148"><ele>347.57142857142856</ele><time>2026-03-29T15:45:32Z</time></trkpt><trkpt lat="45.714533812885364" lon="9.776218105965611"><ele>346.8571428571429</ele><time>2026-03-29T15:45:33Z</time></trkpt><trkpt lat="45.7145471799846" lon="9.776116483037793"><ele>346.1428571428571</ele><time>2026-03-29T15:45:34Z</time></trkpt><trkpt lat="45.71457086211084" lon="9.77601735832606"><ele>345.42857142857144</ele><time>2026-03-29T15:45:35Z</time></trkpt><trkpt lat="45.7146000076174" lon="9.775921606503065"><ele>344.7142857142857</ele><time>2026-03-29T15:45:36Z</time></trkpt><trkpt lat="45.7146359548743" lon="9.775832090922213"><ele>344.0</ele><time>2026-03-29T15:45:37Z</time></trkpt><trkpt lat="45.71467723823707" lon="9.775750557166823"><ele>343.8571428571429</ele><time>2026-03-29T15:45:38Z</time></trkpt><trkpt lat="45.714724085040956" lon="9.775676895710822"><ele>343.7142857142857</ele><time>2026-03-29T15:45:39Z</time></trkpt><trkpt lat="45.714779476643756" lon="9.77561792150011"><ele>343.57142857142856</ele><time>2026-03-29T15:45:40Z</time></trkpt><trkpt lat="45.71484143806914" lon="9.77557494869506"><ele>343.42857142857144</ele><time>2026-03-29T15:45:41Z</time></trkpt><trkpt lat="45.71489871697257" lon="9.775527813399515"><ele>343.2857142857143</ele><time>2026-03-29T15:45:42Z</time></trkpt><trkpt lat="45.71495445570353" lon="9.775471829026122"><ele>343.14285714285717</ele><time>2026-03-29T15:45:43Z</time></trkpt><trkpt lat="45.71500922485738" lon="9.775407940911007"><ele>343.0</ele><time>2026-03-29T15:45:44Z</time></trkpt><trkpt lat="45.715056377754344" lon="9.775332098450022"><ele>343.0</ele><time>2026-03-29T15:45:45Z</time></trkpt><trkpt lat="45.7150964246044" lon="9.77523591306625"><ele>343.0</ele><time>2026-03-29T15:45:46Z</time></trkpt><trkpt lat="45.715124649338115" lon="9.775123227968058"><ele>343.0</ele><time>2026-03-29T15:45:47Z</time></trkpt><trkpt lat="45.71514597351894" lon="9.77500274014813"><ele>343.0</ele><time>2026-03-29T15:45:48Z</time></trkpt><trkpt lat="45.71516155480262" lon="9.774876889863053"><ele>343.0</ele><time>2026-03-29T15:45:49Z</time></trkpt><trkpt lat="45.71517088163609" lon="9.774740209480838"><ele>343.0</ele><time>2026-03-29T15:45:50Z</time></trkpt><trkpt lat="45.715186865842114" lon="9.774606909144572"><ele>342.79999999999995</ele><time>2026-03-29T15:45:51Z</time></trkpt><trkpt lat="45.71520255618128" lon="9.77447122436789"><ele>342.6</ele><time>2026-03-29T15:45:52Z</time></trkpt><trkpt lat="45.71520903735881" lon="9.77433146592108"><ele>342.4</ele><time>2026-03-29T15:45:53Z</time></trkpt><trkpt lat="45.71520112915053" lon="9.774179291511512"><ele>342.20000000000005</ele><time>2026-03-29T15:45:54Z</time></trkpt><trkpt lat="45.71518648071552" lon="9.774042098321255"><ele>342.0</ele><time>2026-03-29T15:45:55Z</time></trkpt><trkpt lat="45.715169429846746" lon="9.773910506431305"><ele>340.8333333333333</ele><time>2026-03-29T15:45:56Z</time></trkpt><trkpt lat="45.71515790115234" lon="9.773806347310837"><ele>339.6666666666667</ele><time>2026-03-29T15:45:57Z</time></trkpt><trkpt lat="45.7151648281002" lon="9.773683566646831"><ele>338.5</ele><time>2026-03-29T15:45:58Z</time></trkpt><trkpt lat="45.71518129172933" lon="9.773564143445814"><ele>337.33333333333337</ele><time>2026-03-29T15:45:59Z</time></trkpt><trkpt lat="45.71520719893088" lon="9.773457975156608"><ele>336.1666666666667</ele><time>2026-03-29T15:46:00Z</time></trkpt><trkpt lat="45.71523043878686" lon="9.773368285476161"><ele>335.0</ele><time>2026-03-29T15:46:01Z</time></trkpt><trkpt lat="45.715270698558406" lon="9.77329654415676"><ele>334.0</ele><time>2026-03-29T15:46:02Z</time></trkpt><trkpt lat="45.71535571622405" lon="9.77316878266194"><ele>333.0</ele><time>2026-03-29T15:46:04Z</time></trkpt><trkpt lat="45.71544573417624" lon="9.773036099570744"><ele>332.0</ele><time>2026-03-29T15:46:06Z</time></trkpt><trkpt lat="45.71550254384525" lon="9.772968651306426"><ele>331.0</ele><time>2026-03-29T15:46:07Z</time></trkpt><trkpt lat="45.715562205912775" lon="9.772904503827158"><ele>330.0</ele><time>2026-03-29T15:46:08Z</time></trkpt><trkpt lat="45.7156307886712" lon="9.772834134295294"><ele>330.0</ele><time>2026-03-29T15:46:09Z</time></trkpt><trkpt lat="45.71568876965659" lon="9.77274514353856"><ele>330.0</ele><time>2026-03-29T15:46:10Z</time></trkpt><trkpt lat="45.71575308446077" lon="9.772648218999253"><ele>330.0</ele><time>2026-03-29T15:46:11Z</time></trkpt><trkpt lat="45.71583035959562" lon="9.77255622810518"><ele>330.0</ele><time>2026-03-29T15:46:12Z</time></trkpt><trkpt lat="45.71591402783129" lon="9.77246712820053"><ele>330.0</ele><time>2026-03-29T15:46:13Z</time></trkpt><trkpt lat="45.71599712415368" lon="9.77236669793428"><ele>329.0</ele><time>2026-03-29T15:46:14Z</time></trkpt><trkpt lat="45.71607886642807" lon="9.77226085600697"><ele>328.0</ele><time>2026-03-29T15:46:15Z</time></trkpt><trkpt lat="45.7161596712991" lon="9.77215636642827"><ele>327.0</ele><time>2026-03-29T15:46:16Z</time></trkpt><trkpt lat="45.716240188146706" lon="9.772050291565229"><ele>326.0</ele><time>2026-03-29T15:46:17Z</time></trkpt><trkpt lat="45.716320400326325" lon="9.771944407266663"><ele>325.0</ele><time>2026-03-29T15:46:18Z</time></trkpt><trkpt lat="45.716394786463624" lon="9.771839039979776"><ele>325.0</ele><time>2026-03-29T15:46:19Z</time></trkpt><trkpt lat="45.71647463427878" lon="9.771741597821116"><ele>325.0</ele><time>2026-03-29T15:46:20Z</time></trkpt><trkpt lat="45.71655105202253" lon="9.77164881056238"><ele>325.0</ele><time>2026-03-29T15:46:21Z</time></trkpt><trkpt lat="45.71662131881116" lon="9.771542969899045"><ele>325.0</ele><time>2026-03-29T15:46:22Z</time></trkpt><trkpt lat="45.71668994048021" lon="9.771447617086595"><ele>325.0</ele><time>2026-03-29T15:46:23Z</time></trkpt><trkpt lat="45.716759333406074" lon="9.771367764153393"><ele>325.0</ele><time>2026-03-29T15:46:24Z</time></trkpt><trkpt lat="45.71683861495717" lon="9.771330638637957"><ele>325.0</ele><time>2026-03-29T15:46:25Z</time></trkpt><trkpt lat="45.71692311243113" lon="9.77134868012951"><ele>325.0</ele><time>2026-03-29T15:46:26Z</time></trkpt><trkpt lat="45.716998378082764" lon="9.771373952410759"><ele>325.0</ele><time>2026-03-29T15:46:27Z</time></trkpt><trkpt lat="45.71706354748583" lon="9.7714071715675"><ele>325.0</ele><time>2026-03-29T15:46:28Z</time></trkpt><trkpt lat="45.71717598140943" lon="9.771438685778389"><ele>325.0</ele><time>2026-03-29T15:46:30Z</time></trkpt><trkpt lat="45.71728905327378" lon="9.77147533306104"><ele>326.0</ele><time>2026-03-29T15:46:32Z</time></trkpt><trkpt lat="45.71739564300361" lon="9.77151570342246"><ele>327.0</ele><time>2026-03-29T15:46:34Z</time></trkpt><trkpt lat="45.717492679457486" lon="9.771473114547707"><ele>328.0</ele><time>2026-03-29T15:46:36Z</time></trkpt><trkpt lat="45.7175379606919" lon="9.771314997334136"><ele>329.0</ele><time>2026-03-29T15:46:38Z</time></trkpt><trkpt lat="45.71757723184794" lon="9.771144825892053"><ele>328.25</ele><time>2026-03-29T15:46:40Z</time></trkpt><trkpt lat="45.71764561331274" lon="9.771001977903937"><ele>327.5</ele><time>2026-03-29T15:46:42Z</time></trkpt><trkpt lat="45.71771453384239" lon="9.770858027275457"><ele>326.75</ele><time>2026-03-29T15:46:44Z</time></trkpt><trkpt lat="45.71778798102911" lon="9.770728228289238"><ele>326.0</ele><time>2026-03-29T15:46:46Z</time></trkpt><trkpt lat="45.71786945158155" lon="9.770606027765686"><ele>327.4</ele><time>2026-03-29T15:46:48Z</time></trkpt><trkpt lat="45.71798652404862" lon="9.7706072828285"><ele>328.8</ele><time>2026-03-29T15:46:50Z</time></trkpt><trkpt lat="45.71808049541007" lon="9.770699120419321"><ele>330.2</ele><time>2026-03-29T15:46:52Z</time></trkpt><trkpt lat="45.718171679419896" lon="9.770748058326442"><ele>331.59999999999997</ele><time>2026-03-29T15:46:54Z</time></trkpt><trkpt lat="45.71825058093445" lon="9.77078678958952"><ele>333.0</ele><time>2026-03-29T15:46:56Z</time></trkpt><trkpt lat="45.71832639235061" lon="9.77083715631833"><ele>333.0</ele><time>2026-03-29T15:46:58Z</time></trkpt><trkpt lat="45.71840345725435" lon="9.770891784495168"><ele>333.0</ele><time>2026-03-29T15:47:00Z</time></trkpt><trkpt lat="45.71846513442024" lon="9.770956787153104"><ele>333.0</ele><time>2026-03-29T15:47:02Z</time></trkpt><trkpt lat="45.71853240227168" lon="9.771028041716752"><ele>339.0</ele><time>2026-03-29T15:47:05Z</time></trkpt><trkpt lat="45.71859348059106" lon="9.770988068311823"><ele>343.0</ele><time>2026-03-29T15:47:08Z</time></trkpt><trkpt lat="45.71859394469946" lon="9.770891137441053"><ele>343.0</ele><time>2026-03-29T15:47:10Z</time></trkpt></trkseg></trk></gpx>